<?xml version="1.0" encoding="UTF-8" standalone="no" ?>
<gpx xmlns="http://www.topografix.com/GPX/1/1" xmlns:xsi="http://www.w3.org/2001/XMLSchema-instance" xsi:schemaLocation="http://www.topografix.com/GPX/1/1 http://www.topografix.com/GPX/1/1/gpx.xsd" version="1.1" creator="VisuGPX - https://www.visugpx.com">
  <metadata>
    <name>L\'Echaillon</name>
    <desc><![CDATA[Départ de St Paul de Varces , L\'Echaillon, et retour par le chemin de l\'Epérimont.]]></desc>
  </metadata>
  <trk>
    <name><![CDATA[2010-12-19T14:20:46Z]]></name>
    <trkseg>
      <trkpt lat="45.07308" lon="5.65901">
        <ele>328</ele>
        <time>2010-12-19T14:20:46Z</time>
      </trkpt>
      <trkpt lat="45.07308" lon="5.65896">
        <ele>365.6</ele>
        <time>2010-12-19T14:20:50Z</time>
      </trkpt>
      <trkpt lat="45.07307" lon="5.65893">
        <ele>369.8</ele>
        <time>2010-12-19T14:20:53Z</time>
      </trkpt>
      <trkpt lat="45.07306" lon="5.65893">
        <ele>372.4</ele>
        <time>2010-12-19T14:20:55Z</time>
      </trkpt>
      <trkpt lat="45.07323" lon="5.65874">
        <ele>380.2</ele>
        <time>2010-12-19T14:21:02Z</time>
      </trkpt>
      <trkpt lat="45.07326" lon="5.65868">
        <ele>381</ele>
        <time>2010-12-19T14:21:03Z</time>
      </trkpt>
      <trkpt lat="45.07323" lon="5.65848">
        <ele>385.6</ele>
        <time>2010-12-19T14:21:08Z</time>
      </trkpt>
      <trkpt lat="45.07322" lon="5.65839">
        <ele>389.2</ele>
        <time>2010-12-19T14:21:12Z</time>
      </trkpt>
      <trkpt lat="45.07318" lon="5.65835">
        <ele>394.4</ele>
        <time>2010-12-19T14:21:18Z</time>
      </trkpt>
      <trkpt lat="45.07314" lon="5.65836">
        <ele>397.4</ele>
        <time>2010-12-19T14:21:22Z</time>
      </trkpt>
      <trkpt lat="45.07311" lon="5.65839">
        <ele>398.8</ele>
        <time>2010-12-19T14:21:24Z</time>
      </trkpt>
      <trkpt lat="45.07305" lon="5.65843">
        <ele>400.6</ele>
        <time>2010-12-19T14:21:27Z</time>
      </trkpt>
      <trkpt lat="45.07294" lon="5.65843">
        <ele>402.8</ele>
        <time>2010-12-19T14:21:31Z</time>
      </trkpt>
      <trkpt lat="45.07291" lon="5.65841">
        <ele>403.2</ele>
        <time>2010-12-19T14:21:32Z</time>
      </trkpt>
      <trkpt lat="45.07286" lon="5.65839">
        <ele>404.4</ele>
        <time>2010-12-19T14:21:34Z</time>
      </trkpt>
      <trkpt lat="45.07279" lon="5.65835">
        <ele>406.2</ele>
        <time>2010-12-19T14:21:37Z</time>
      </trkpt>
      <trkpt lat="45.07273" lon="5.6583">
        <ele>407.6</ele>
        <time>2010-12-19T14:21:40Z</time>
      </trkpt>
      <trkpt lat="45.07269" lon="5.65826">
        <ele>408.4</ele>
        <time>2010-12-19T14:21:42Z</time>
      </trkpt>
      <trkpt lat="45.07263" lon="5.65819">
        <ele>409.8</ele>
        <time>2010-12-19T14:21:46Z</time>
      </trkpt>
      <trkpt lat="45.07261" lon="5.65818">
        <ele>410.2</ele>
        <time>2010-12-19T14:21:47Z</time>
      </trkpt>
      <trkpt lat="45.07256" lon="5.65816">
        <ele>411</ele>
        <time>2010-12-19T14:21:49Z</time>
      </trkpt>
      <trkpt lat="45.07254" lon="5.65816">
        <ele>411.4</ele>
        <time>2010-12-19T14:21:50Z</time>
      </trkpt>
      <trkpt lat="45.07249" lon="5.65817">
        <ele>411.8</ele>
        <time>2010-12-19T14:21:52Z</time>
      </trkpt>
      <trkpt lat="45.07241" lon="5.65826">
        <ele>412.6</ele>
        <time>2010-12-19T14:21:56Z</time>
      </trkpt>
      <trkpt lat="45.07239" lon="5.65829">
        <ele>413</ele>
        <time>2010-12-19T14:21:57Z</time>
      </trkpt>
      <trkpt lat="45.07228" lon="5.65839">
        <ele>413.4</ele>
        <time>2010-12-19T14:22:02Z</time>
      </trkpt>
      <trkpt lat="45.07223" lon="5.65846">
        <ele>414.2</ele>
        <time>2010-12-19T14:22:05Z</time>
      </trkpt>
      <trkpt lat="45.0722" lon="5.6585">
        <ele>414.6</ele>
        <time>2010-12-19T14:22:07Z</time>
      </trkpt>
      <trkpt lat="45.07211" lon="5.65861">
        <ele>415.4</ele>
        <time>2010-12-19T14:22:12Z</time>
      </trkpt>
      <trkpt lat="45.07209" lon="5.65863">
        <ele>415.8</ele>
        <time>2010-12-19T14:22:13Z</time>
      </trkpt>
      <trkpt lat="45.07202" lon="5.65872">
        <ele>416.6</ele>
        <time>2010-12-19T14:22:17Z</time>
      </trkpt>
      <trkpt lat="45.07195" lon="5.65882">
        <ele>417.6</ele>
        <time>2010-12-19T14:22:21Z</time>
      </trkpt>
      <trkpt lat="45.07193" lon="5.65884">
        <ele>417.8</ele>
        <time>2010-12-19T14:22:22Z</time>
      </trkpt>
      <trkpt lat="45.0718" lon="5.65899">
        <ele>419.6</ele>
        <time>2010-12-19T14:22:29Z</time>
      </trkpt>
      <trkpt lat="45.07171" lon="5.6591">
        <ele>420.6</ele>
        <time>2010-12-19T14:22:34Z</time>
      </trkpt>
      <trkpt lat="45.07165" lon="5.65917">
        <ele>421</ele>
        <time>2010-12-19T14:22:38Z</time>
      </trkpt>
      <trkpt lat="45.07165" lon="5.65918">
        <ele>421</ele>
        <time>2010-12-19T14:22:39Z</time>
      </trkpt>
      <trkpt lat="45.07163" lon="5.65919">
        <ele>421.2</ele>
        <time>2010-12-19T14:22:41Z</time>
      </trkpt>
      <trkpt lat="45.07159" lon="5.65921">
        <ele>421.6</ele>
        <time>2010-12-19T14:22:45Z</time>
      </trkpt>
      <trkpt lat="45.07158" lon="5.6592">
        <ele>423</ele>
        <time>2010-12-19T14:23:08Z</time>
      </trkpt>
      <trkpt lat="45.07159" lon="5.65921">
        <ele>422.8</ele>
        <time>2010-12-19T14:23:12Z</time>
      </trkpt>
      <trkpt lat="45.07159" lon="5.65928">
        <ele>422.8</ele>
        <time>2010-12-19T14:23:17Z</time>
      </trkpt>
      <trkpt lat="45.07159" lon="5.65929">
        <ele>427</ele>
        <time>2010-12-19T14:23:49Z</time>
      </trkpt>
      <trkpt lat="45.07159" lon="5.65928">
        <ele>426.8</ele>
        <time>2010-12-19T14:23:50Z</time>
      </trkpt>
      <trkpt lat="45.07161" lon="5.65916">
        <ele>426.4</ele>
        <time>2010-12-19T14:23:54Z</time>
      </trkpt>
      <trkpt lat="45.07161" lon="5.65917">
        <ele>425.8</ele>
        <time>2010-12-19T14:24:01Z</time>
      </trkpt>
      <trkpt lat="45.0716" lon="5.65915">
        <ele>424.4</ele>
        <time>2010-12-19T14:24:22Z</time>
      </trkpt>
      <trkpt lat="45.0716" lon="5.65914">
        <ele>424.2</ele>
        <time>2010-12-19T14:24:24Z</time>
      </trkpt>
      <trkpt lat="45.07159" lon="5.65917">
        <ele>423.2</ele>
        <time>2010-12-19T14:24:36Z</time>
      </trkpt>
      <trkpt lat="45.07149" lon="5.65932">
        <ele>422.2</ele>
        <time>2010-12-19T14:24:45Z</time>
      </trkpt>
      <trkpt lat="45.07137" lon="5.65948">
        <ele>421.4</ele>
        <time>2010-12-19T14:24:54Z</time>
      </trkpt>
      <trkpt lat="45.07135" lon="5.6595">
        <ele>421.2</ele>
        <time>2010-12-19T14:24:55Z</time>
      </trkpt>
      <trkpt lat="45.0713" lon="5.65955">
        <ele>420.8</ele>
        <time>2010-12-19T14:24:58Z</time>
      </trkpt>
      <trkpt lat="45.07129" lon="5.65957">
        <ele>420.6</ele>
        <time>2010-12-19T14:24:59Z</time>
      </trkpt>
      <trkpt lat="45.07135" lon="5.65966">
        <ele>419.8</ele>
        <time>2010-12-19T14:25:03Z</time>
      </trkpt>
      <trkpt lat="45.07136" lon="5.65969">
        <ele>419.6</ele>
        <time>2010-12-19T14:25:04Z</time>
      </trkpt>
      <trkpt lat="45.07143" lon="5.65977">
        <ele>418.8</ele>
        <time>2010-12-19T14:25:08Z</time>
      </trkpt>
      <trkpt lat="45.07145" lon="5.65979">
        <ele>418.6</ele>
        <time>2010-12-19T14:25:09Z</time>
      </trkpt>
      <trkpt lat="45.07154" lon="5.65985">
        <ele>417.4</ele>
        <time>2010-12-19T14:25:13Z</time>
      </trkpt>
      <trkpt lat="45.07156" lon="5.65986">
        <ele>417</ele>
        <time>2010-12-19T14:25:14Z</time>
      </trkpt>
      <trkpt lat="45.07166" lon="5.65996">
        <ele>414.6</ele>
        <time>2010-12-19T14:25:20Z</time>
      </trkpt>
      <trkpt lat="45.07175" lon="5.65999">
        <ele>412.4</ele>
        <time>2010-12-19T14:25:25Z</time>
      </trkpt>
      <trkpt lat="45.07177" lon="5.66">
        <ele>411.8</ele>
        <time>2010-12-19T14:25:26Z</time>
      </trkpt>
      <trkpt lat="45.07185" lon="5.65997">
        <ele>409.4</ele>
        <time>2010-12-19T14:25:30Z</time>
      </trkpt>
      <trkpt lat="45.07198" lon="5.65993">
        <ele>405.4</ele>
        <time>2010-12-19T14:25:36Z</time>
      </trkpt>
      <trkpt lat="45.07201" lon="5.65995">
        <ele>404</ele>
        <time>2010-12-19T14:25:38Z</time>
      </trkpt>
      <trkpt lat="45.07206" lon="5.66001">
        <ele>401.8</ele>
        <time>2010-12-19T14:25:41Z</time>
      </trkpt>
      <trkpt lat="45.07214" lon="5.66015">
        <ele>398.6</ele>
        <time>2010-12-19T14:25:46Z</time>
      </trkpt>
      <trkpt lat="45.07215" lon="5.66017">
        <ele>397.8</ele>
        <time>2010-12-19T14:25:47Z</time>
      </trkpt>
      <trkpt lat="45.07224" lon="5.66031">
        <ele>394.6</ele>
        <time>2010-12-19T14:25:52Z</time>
      </trkpt>
      <trkpt lat="45.07225" lon="5.66035">
        <ele>394</ele>
        <time>2010-12-19T14:25:53Z</time>
      </trkpt>
      <trkpt lat="45.07233" lon="5.66047">
        <ele>391.8</ele>
        <time>2010-12-19T14:25:57Z</time>
      </trkpt>
      <trkpt lat="45.07238" lon="5.66056">
        <ele>390</ele>
        <time>2010-12-19T14:26:00Z</time>
      </trkpt>
      <trkpt lat="45.07239" lon="5.66064">
        <ele>389</ele>
        <time>2010-12-19T14:26:02Z</time>
      </trkpt>
      <trkpt lat="45.07246" lon="5.6607">
        <ele>387.2</ele>
        <time>2010-12-19T14:26:05Z</time>
      </trkpt>
      <trkpt lat="45.07253" lon="5.66072">
        <ele>386.2</ele>
        <time>2010-12-19T14:26:07Z</time>
      </trkpt>
      <trkpt lat="45.07259" lon="5.66087">
        <ele>383.8</ele>
        <time>2010-12-19T14:26:12Z</time>
      </trkpt>
      <trkpt lat="45.07262" lon="5.66096">
        <ele>382.2</ele>
        <time>2010-12-19T14:26:15Z</time>
      </trkpt>
      <trkpt lat="45.07266" lon="5.66103">
        <ele>381</ele>
        <time>2010-12-19T14:26:18Z</time>
      </trkpt>
      <trkpt lat="45.07262" lon="5.66111">
        <ele>378.8</ele>
        <time>2010-12-19T14:26:23Z</time>
      </trkpt>
      <trkpt lat="45.07262" lon="5.66113">
        <ele>378.4</ele>
        <time>2010-12-19T14:26:24Z</time>
      </trkpt>
      <trkpt lat="45.07258" lon="5.66117">
        <ele>377.2</ele>
        <time>2010-12-19T14:26:27Z</time>
      </trkpt>
      <trkpt lat="45.07256" lon="5.66119">
        <ele>376.8</ele>
        <time>2010-12-19T14:26:28Z</time>
      </trkpt>
      <trkpt lat="45.0724" lon="5.66134">
        <ele>374.2</ele>
        <time>2010-12-19T14:26:34Z</time>
      </trkpt>
      <trkpt lat="45.07225" lon="5.66151">
        <ele>371.8</ele>
        <time>2010-12-19T14:26:40Z</time>
      </trkpt>
      <trkpt lat="45.07225" lon="5.66154">
        <ele>370.4</ele>
        <time>2010-12-19T14:26:44Z</time>
      </trkpt>
      <trkpt lat="45.07229" lon="5.66153">
        <ele>368.6</ele>
        <time>2010-12-19T14:26:50Z</time>
      </trkpt>
      <trkpt lat="45.07229" lon="5.66151">
        <ele>368.2</ele>
        <time>2010-12-19T14:26:51Z</time>
      </trkpt>
      <trkpt lat="45.07227" lon="5.66146">
        <ele>367.4</ele>
        <time>2010-12-19T14:26:54Z</time>
      </trkpt>
      <trkpt lat="45.07224" lon="5.66143">
        <ele>366.8</ele>
        <time>2010-12-19T14:26:56Z</time>
      </trkpt>
      <trkpt lat="45.0722" lon="5.6614">
        <ele>366.4</ele>
        <time>2010-12-19T14:26:58Z</time>
      </trkpt>
      <trkpt lat="45.07211" lon="5.66137">
        <ele>365.4</ele>
        <time>2010-12-19T14:27:02Z</time>
      </trkpt>
      <trkpt lat="45.07201" lon="5.66134">
        <ele>364.4</ele>
        <time>2010-12-19T14:27:07Z</time>
      </trkpt>
      <trkpt lat="45.07199" lon="5.66134">
        <ele>364.2</ele>
        <time>2010-12-19T14:27:08Z</time>
      </trkpt>
      <trkpt lat="45.07188" lon="5.66131">
        <ele>363.4</ele>
        <time>2010-12-19T14:27:13Z</time>
      </trkpt>
      <trkpt lat="45.07185" lon="5.66131">
        <ele>363.2</ele>
        <time>2010-12-19T14:27:14Z</time>
      </trkpt>
      <trkpt lat="45.07178" lon="5.66128">
        <ele>362.6</ele>
        <time>2010-12-19T14:27:17Z</time>
      </trkpt>
      <trkpt lat="45.07176" lon="5.66128">
        <ele>362.4</ele>
        <time>2010-12-19T14:27:18Z</time>
      </trkpt>
      <trkpt lat="45.07173" lon="5.66127">
        <ele>362.2</ele>
        <time>2010-12-19T14:27:19Z</time>
      </trkpt>
      <trkpt lat="45.07158" lon="5.66128">
        <ele>361.2</ele>
        <time>2010-12-19T14:27:24Z</time>
      </trkpt>
      <trkpt lat="45.07152" lon="5.66128">
        <ele>360.8</ele>
        <time>2010-12-19T14:27:26Z</time>
      </trkpt>
      <trkpt lat="45.07133" lon="5.66133">
        <ele>360</ele>
        <time>2010-12-19T14:27:30Z</time>
      </trkpt>
      <trkpt lat="45.07122" lon="5.66135">
        <ele>359.4</ele>
        <time>2010-12-19T14:27:32Z</time>
      </trkpt>
      <trkpt lat="45.0711" lon="5.66142">
        <ele>359</ele>
        <time>2010-12-19T14:27:33Z</time>
      </trkpt>
      <trkpt lat="45.07104" lon="5.6614">
        <ele>358.6</ele>
        <time>2010-12-19T14:27:35Z</time>
      </trkpt>
      <trkpt lat="45.07102" lon="5.66139">
        <ele>358.2</ele>
        <time>2010-12-19T14:27:36Z</time>
      </trkpt>
      <trkpt lat="45.07099" lon="5.66138">
        <ele>358</ele>
        <time>2010-12-19T14:27:37Z</time>
      </trkpt>
      <trkpt lat="45.0709" lon="5.66135">
        <ele>357</ele>
        <time>2010-12-19T14:27:40Z</time>
      </trkpt>
      <trkpt lat="45.0708" lon="5.66136">
        <ele>356.4</ele>
        <time>2010-12-19T14:27:42Z</time>
      </trkpt>
      <trkpt lat="45.07074" lon="5.66135">
        <ele>355.8</ele>
        <time>2010-12-19T14:27:44Z</time>
      </trkpt>
      <trkpt lat="45.07065" lon="5.66132">
        <ele>355</ele>
        <time>2010-12-19T14:27:47Z</time>
      </trkpt>
      <trkpt lat="45.07053" lon="5.66123">
        <ele>353.4</ele>
        <time>2010-12-19T14:27:52Z</time>
      </trkpt>
      <trkpt lat="45.07039" lon="5.66117">
        <ele>352</ele>
        <time>2010-12-19T14:27:57Z</time>
      </trkpt>
      <trkpt lat="45.07029" lon="5.66112">
        <ele>350.6</ele>
        <time>2010-12-19T14:28:01Z</time>
      </trkpt>
      <trkpt lat="45.0703" lon="5.6611">
        <ele>350.4</ele>
        <time>2010-12-19T14:28:02Z</time>
      </trkpt>
      <trkpt lat="45.07025" lon="5.66104">
        <ele>349.4</ele>
        <time>2010-12-19T14:28:05Z</time>
      </trkpt>
      <trkpt lat="45.0702" lon="5.66098">
        <ele>348.8</ele>
        <time>2010-12-19T14:28:07Z</time>
      </trkpt>
      <trkpt lat="45.07016" lon="5.66095">
        <ele>348.2</ele>
        <time>2010-12-19T14:28:09Z</time>
      </trkpt>
      <trkpt lat="45.07012" lon="5.66094">
        <ele>347.8</ele>
        <time>2010-12-19T14:28:10Z</time>
      </trkpt>
      <trkpt lat="45.07007" lon="5.66089">
        <ele>346.8</ele>
        <time>2010-12-19T14:28:13Z</time>
      </trkpt>
      <trkpt lat="45.07005" lon="5.6608">
        <ele>345.6</ele>
        <time>2010-12-19T14:28:17Z</time>
      </trkpt>
      <trkpt lat="45.07004" lon="5.66075">
        <ele>345.2</ele>
        <time>2010-12-19T14:28:19Z</time>
      </trkpt>
      <trkpt lat="45.07003" lon="5.66071">
        <ele>344.8</ele>
        <time>2010-12-19T14:28:20Z</time>
      </trkpt>
      <trkpt lat="45.07003" lon="5.66065">
        <ele>344.4</ele>
        <time>2010-12-19T14:28:22Z</time>
      </trkpt>
      <trkpt lat="45.06994" lon="5.66058">
        <ele>343.2</ele>
        <time>2010-12-19T14:28:27Z</time>
      </trkpt>
      <trkpt lat="45.06992" lon="5.66056">
        <ele>342.8</ele>
        <time>2010-12-19T14:28:29Z</time>
      </trkpt>
      <trkpt lat="45.0699" lon="5.66056">
        <ele>342.6</ele>
        <time>2010-12-19T14:28:30Z</time>
      </trkpt>
      <trkpt lat="45.06985" lon="5.66054">
        <ele>342.2</ele>
        <time>2010-12-19T14:28:32Z</time>
      </trkpt>
      <trkpt lat="45.06978" lon="5.66046">
        <ele>341.2</ele>
        <time>2010-12-19T14:28:36Z</time>
      </trkpt>
      <trkpt lat="45.06974" lon="5.66044">
        <ele>340.8</ele>
        <time>2010-12-19T14:28:38Z</time>
      </trkpt>
      <trkpt lat="45.0697" lon="5.66035">
        <ele>340</ele>
        <time>2010-12-19T14:28:42Z</time>
      </trkpt>
      <trkpt lat="45.06962" lon="5.66027">
        <ele>338.8</ele>
        <time>2010-12-19T14:28:47Z</time>
      </trkpt>
      <trkpt lat="45.06959" lon="5.66026">
        <ele>338.2</ele>
        <time>2010-12-19T14:28:49Z</time>
      </trkpt>
      <trkpt lat="45.06956" lon="5.66023">
        <ele>337.6</ele>
        <time>2010-12-19T14:28:52Z</time>
      </trkpt>
      <trkpt lat="45.06955" lon="5.6602">
        <ele>337.2</ele>
        <time>2010-12-19T14:28:54Z</time>
      </trkpt>
      <trkpt lat="45.06953" lon="5.66019">
        <ele>337</ele>
        <time>2010-12-19T14:28:55Z</time>
      </trkpt>
      <trkpt lat="45.06948" lon="5.66016">
        <ele>336.2</ele>
        <time>2010-12-19T14:28:58Z</time>
      </trkpt>
      <trkpt lat="45.06944" lon="5.66012">
        <ele>335.4</ele>
        <time>2010-12-19T14:29:02Z</time>
      </trkpt>
      <trkpt lat="45.06939" lon="5.66001">
        <ele>334</ele>
        <time>2010-12-19T14:29:08Z</time>
      </trkpt>
      <trkpt lat="45.06938" lon="5.65999">
        <ele>334</ele>
        <time>2010-12-19T14:29:09Z</time>
      </trkpt>
      <trkpt lat="45.06934" lon="5.65993">
        <ele>333.4</ele>
        <time>2010-12-19T14:29:13Z</time>
      </trkpt>
      <trkpt lat="45.06932" lon="5.65992">
        <ele>333.2</ele>
        <time>2010-12-19T14:29:14Z</time>
      </trkpt>
      <trkpt lat="45.06927" lon="5.65991">
        <ele>332.8</ele>
        <time>2010-12-19T14:29:17Z</time>
      </trkpt>
      <trkpt lat="45.06925" lon="5.65991">
        <ele>332.6</ele>
        <time>2010-12-19T14:29:18Z</time>
      </trkpt>
      <trkpt lat="45.06923" lon="5.65991">
        <ele>332.4</ele>
        <time>2010-12-19T14:29:19Z</time>
      </trkpt>
      <trkpt lat="45.06912" lon="5.65993">
        <ele>331.2</ele>
        <time>2010-12-19T14:29:25Z</time>
      </trkpt>
      <trkpt lat="45.06913" lon="5.65993">
        <ele>326.8</ele>
        <time>2010-12-19T14:29:53Z</time>
      </trkpt>
      <trkpt lat="45.06907" lon="5.65997">
        <ele>326.2</ele>
        <time>2010-12-19T14:29:56Z</time>
      </trkpt>
      <trkpt lat="45.06911" lon="5.65995">
        <ele>324</ele>
        <time>2010-12-19T14:30:08Z</time>
      </trkpt>
      <trkpt lat="45.06913" lon="5.6599">
        <ele>322.8</ele>
        <time>2010-12-19T14:30:17Z</time>
      </trkpt>
      <trkpt lat="45.06912" lon="5.65986">
        <ele>322.4</ele>
        <time>2010-12-19T14:30:21Z</time>
      </trkpt>
      <trkpt lat="45.06908" lon="5.65985">
        <ele>322</ele>
        <time>2010-12-19T14:30:24Z</time>
      </trkpt>
      <trkpt lat="45.06907" lon="5.65984">
        <ele>321.8</ele>
        <time>2010-12-19T14:30:25Z</time>
      </trkpt>
      <trkpt lat="45.06904" lon="5.65983">
        <ele>321.6</ele>
        <time>2010-12-19T14:30:27Z</time>
      </trkpt>
      <trkpt lat="45.069" lon="5.65982">
        <ele>321.4</ele>
        <time>2010-12-19T14:30:30Z</time>
      </trkpt>
      <trkpt lat="45.06894" lon="5.65981">
        <ele>321</ele>
        <time>2010-12-19T14:30:33Z</time>
      </trkpt>
      <trkpt lat="45.06894" lon="5.6598">
        <ele>321</ele>
        <time>2010-12-19T14:30:34Z</time>
      </trkpt>
      <trkpt lat="45.06892" lon="5.65975">
        <ele>320.6</ele>
        <time>2010-12-19T14:30:38Z</time>
      </trkpt>
      <trkpt lat="45.06891" lon="5.65974">
        <ele>320.6</ele>
        <time>2010-12-19T14:30:39Z</time>
      </trkpt>
      <trkpt lat="45.06891" lon="5.65972">
        <ele>320.6</ele>
        <time>2010-12-19T14:30:40Z</time>
      </trkpt>
      <trkpt lat="45.06891" lon="5.65969">
        <ele>320.4</ele>
        <time>2010-12-19T14:30:43Z</time>
      </trkpt>
      <trkpt lat="45.0689" lon="5.65967">
        <ele>320.4</ele>
        <time>2010-12-19T14:30:44Z</time>
      </trkpt>
      <trkpt lat="45.06885" lon="5.65962">
        <ele>320.2</ele>
        <time>2010-12-19T14:30:48Z</time>
      </trkpt>
      <trkpt lat="45.0688" lon="5.65961">
        <ele>320.2</ele>
        <time>2010-12-19T14:30:50Z</time>
      </trkpt>
      <trkpt lat="45.06871" lon="5.65958">
        <ele>320</ele>
        <time>2010-12-19T14:30:53Z</time>
      </trkpt>
      <trkpt lat="45.06863" lon="5.6595">
        <ele>320</ele>
        <time>2010-12-19T14:30:58Z</time>
      </trkpt>
      <trkpt lat="45.0686" lon="5.65948">
        <ele>320</ele>
        <time>2010-12-19T14:30:59Z</time>
      </trkpt>
      <trkpt lat="45.06855" lon="5.65941">
        <ele>320</ele>
        <time>2010-12-19T14:31:02Z</time>
      </trkpt>
      <trkpt lat="45.06853" lon="5.65936">
        <ele>320.2</ele>
        <time>2010-12-19T14:31:04Z</time>
      </trkpt>
      <trkpt lat="45.0685" lon="5.6593">
        <ele>320.4</ele>
        <time>2010-12-19T14:31:07Z</time>
      </trkpt>
      <trkpt lat="45.06845" lon="5.65929">
        <ele>320.2</ele>
        <time>2010-12-19T14:31:09Z</time>
      </trkpt>
      <trkpt lat="45.06835" lon="5.6592">
        <ele>320.2</ele>
        <time>2010-12-19T14:31:14Z</time>
      </trkpt>
      <trkpt lat="45.06832" lon="5.65914">
        <ele>320.2</ele>
        <time>2010-12-19T14:31:17Z</time>
      </trkpt>
      <trkpt lat="45.0683" lon="5.65909">
        <ele>320.4</ele>
        <time>2010-12-19T14:31:19Z</time>
      </trkpt>
      <trkpt lat="45.06829" lon="5.659">
        <ele>320.8</ele>
        <time>2010-12-19T14:31:22Z</time>
      </trkpt>
      <trkpt lat="45.06826" lon="5.659">
        <ele>320.8</ele>
        <time>2010-12-19T14:31:24Z</time>
      </trkpt>
      <trkpt lat="45.06819" lon="5.65897">
        <ele>321</ele>
        <time>2010-12-19T14:31:28Z</time>
      </trkpt>
      <trkpt lat="45.06819" lon="5.65894">
        <ele>321.2</ele>
        <time>2010-12-19T14:31:29Z</time>
      </trkpt>
      <trkpt lat="45.06815" lon="5.6589">
        <ele>321.4</ele>
        <time>2010-12-19T14:31:35Z</time>
      </trkpt>
      <trkpt lat="45.06813" lon="5.65886">
        <ele>322</ele>
        <time>2010-12-19T14:31:43Z</time>
      </trkpt>
      <trkpt lat="45.06809" lon="5.65883">
        <ele>322</ele>
        <time>2010-12-19T14:32:06Z</time>
      </trkpt>
      <trkpt lat="45.06805" lon="5.65881">
        <ele>321.8</ele>
        <time>2010-12-19T14:32:09Z</time>
      </trkpt>
      <trkpt lat="45.068" lon="5.65877">
        <ele>321.8</ele>
        <time>2010-12-19T14:32:12Z</time>
      </trkpt>
      <trkpt lat="45.06791" lon="5.65866">
        <ele>321.8</ele>
        <time>2010-12-19T14:32:17Z</time>
      </trkpt>
      <trkpt lat="45.06788" lon="5.65865">
        <ele>321.8</ele>
        <time>2010-12-19T14:32:18Z</time>
      </trkpt>
      <trkpt lat="45.06788" lon="5.65862">
        <ele>321.8</ele>
        <time>2010-12-19T14:32:19Z</time>
      </trkpt>
      <trkpt lat="45.06785" lon="5.65856">
        <ele>322</ele>
        <time>2010-12-19T14:32:21Z</time>
      </trkpt>
      <trkpt lat="45.06778" lon="5.65844">
        <ele>322.4</ele>
        <time>2010-12-19T14:32:26Z</time>
      </trkpt>
      <trkpt lat="45.06777" lon="5.65842">
        <ele>322.6</ele>
        <time>2010-12-19T14:32:27Z</time>
      </trkpt>
      <trkpt lat="45.06774" lon="5.65838">
        <ele>322.8</ele>
        <time>2010-12-19T14:32:29Z</time>
      </trkpt>
      <trkpt lat="45.06771" lon="5.65834">
        <ele>322.8</ele>
        <time>2010-12-19T14:32:31Z</time>
      </trkpt>
      <trkpt lat="45.06765" lon="5.65825">
        <ele>323</ele>
        <time>2010-12-19T14:32:35Z</time>
      </trkpt>
      <trkpt lat="45.06764" lon="5.65823">
        <ele>323</ele>
        <time>2010-12-19T14:32:36Z</time>
      </trkpt>
      <trkpt lat="45.06758" lon="5.65813">
        <ele>323</ele>
        <time>2010-12-19T14:32:40Z</time>
      </trkpt>
      <trkpt lat="45.06755" lon="5.65804">
        <ele>323.2</ele>
        <time>2010-12-19T14:32:44Z</time>
      </trkpt>
      <trkpt lat="45.06754" lon="5.65802">
        <ele>323.2</ele>
        <time>2010-12-19T14:32:45Z</time>
      </trkpt>
      <trkpt lat="45.06752" lon="5.65799">
        <ele>323.2</ele>
        <time>2010-12-19T14:32:47Z</time>
      </trkpt>
      <trkpt lat="45.06751" lon="5.65796">
        <ele>323.2</ele>
        <time>2010-12-19T14:32:48Z</time>
      </trkpt>
      <trkpt lat="45.0675" lon="5.65794">
        <ele>323.4</ele>
        <time>2010-12-19T14:32:49Z</time>
      </trkpt>
      <trkpt lat="45.06745" lon="5.65787">
        <ele>323.2</ele>
        <time>2010-12-19T14:32:53Z</time>
      </trkpt>
      <trkpt lat="45.06741" lon="5.65784">
        <ele>323.2</ele>
        <time>2010-12-19T14:32:55Z</time>
      </trkpt>
      <trkpt lat="45.06739" lon="5.65782">
        <ele>323.6</ele>
        <time>2010-12-19T14:32:57Z</time>
      </trkpt>
      <trkpt lat="45.06734" lon="5.65782">
        <ele>323.6</ele>
        <time>2010-12-19T14:32:59Z</time>
      </trkpt>
      <trkpt lat="45.06731" lon="5.65781">
        <ele>323.8</ele>
        <time>2010-12-19T14:33:01Z</time>
      </trkpt>
      <trkpt lat="45.06727" lon="5.65775">
        <ele>324.4</ele>
        <time>2010-12-19T14:33:05Z</time>
      </trkpt>
      <trkpt lat="45.06725" lon="5.65774">
        <ele>324.6</ele>
        <time>2010-12-19T14:33:06Z</time>
      </trkpt>
      <trkpt lat="45.0672" lon="5.65769">
        <ele>324.8</ele>
        <time>2010-12-19T14:33:09Z</time>
      </trkpt>
      <trkpt lat="45.06719" lon="5.65767">
        <ele>324.8</ele>
        <time>2010-12-19T14:33:10Z</time>
      </trkpt>
      <trkpt lat="45.0671" lon="5.65767">
        <ele>324.8</ele>
        <time>2010-12-19T14:33:13Z</time>
      </trkpt>
      <trkpt lat="45.06707" lon="5.65768">
        <ele>324.8</ele>
        <time>2010-12-19T14:33:14Z</time>
      </trkpt>
      <trkpt lat="45.06702" lon="5.65764">
        <ele>325</ele>
        <time>2010-12-19T14:33:17Z</time>
      </trkpt>
      <trkpt lat="45.06702" lon="5.65762">
        <ele>325.4</ele>
        <time>2010-12-19T14:33:18Z</time>
      </trkpt>
      <trkpt lat="45.06703" lon="5.65758">
        <ele>326.2</ele>
        <time>2010-12-19T14:33:20Z</time>
      </trkpt>
      <trkpt lat="45.06701" lon="5.65756">
        <ele>326.4</ele>
        <time>2010-12-19T14:33:21Z</time>
      </trkpt>
      <trkpt lat="45.06693" lon="5.65753">
        <ele>326.4</ele>
        <time>2010-12-19T14:33:23Z</time>
      </trkpt>
      <trkpt lat="45.0669" lon="5.6575">
        <ele>326.8</ele>
        <time>2010-12-19T14:33:25Z</time>
      </trkpt>
      <trkpt lat="45.06681" lon="5.65743">
        <ele>327</ele>
        <time>2010-12-19T14:33:30Z</time>
      </trkpt>
      <trkpt lat="45.0668" lon="5.65737">
        <ele>326.8</ele>
        <time>2010-12-19T14:33:32Z</time>
      </trkpt>
      <trkpt lat="45.0668" lon="5.65733">
        <ele>326.8</ele>
        <time>2010-12-19T14:33:33Z</time>
      </trkpt>
      <trkpt lat="45.0668" lon="5.6573">
        <ele>327</ele>
        <time>2010-12-19T14:33:34Z</time>
      </trkpt>
      <trkpt lat="45.06677" lon="5.6573">
        <ele>326.8</ele>
        <time>2010-12-19T14:33:35Z</time>
      </trkpt>
      <trkpt lat="45.0667" lon="5.65727">
        <ele>327</ele>
        <time>2010-12-19T14:33:38Z</time>
      </trkpt>
      <trkpt lat="45.06666" lon="5.65721">
        <ele>327.2</ele>
        <time>2010-12-19T14:33:41Z</time>
      </trkpt>
      <trkpt lat="45.06664" lon="5.6572">
        <ele>327.2</ele>
        <time>2010-12-19T14:33:42Z</time>
      </trkpt>
      <trkpt lat="45.06663" lon="5.65718">
        <ele>327.2</ele>
        <time>2010-12-19T14:33:43Z</time>
      </trkpt>
      <trkpt lat="45.06662" lon="5.65714">
        <ele>327.6</ele>
        <time>2010-12-19T14:33:45Z</time>
      </trkpt>
      <trkpt lat="45.0666" lon="5.6571">
        <ele>328.2</ele>
        <time>2010-12-19T14:33:48Z</time>
      </trkpt>
      <trkpt lat="45.06653" lon="5.65701">
        <ele>329.4</ele>
        <time>2010-12-19T14:33:53Z</time>
      </trkpt>
      <trkpt lat="45.06652" lon="5.65699">
        <ele>329.8</ele>
        <time>2010-12-19T14:33:54Z</time>
      </trkpt>
      <trkpt lat="45.06646" lon="5.65688">
        <ele>331</ele>
        <time>2010-12-19T14:33:58Z</time>
      </trkpt>
      <trkpt lat="45.06637" lon="5.65683">
        <ele>331.2</ele>
        <time>2010-12-19T14:34:02Z</time>
      </trkpt>
      <trkpt lat="45.06634" lon="5.65679">
        <ele>331.2</ele>
        <time>2010-12-19T14:34:04Z</time>
      </trkpt>
      <trkpt lat="45.06631" lon="5.6568">
        <ele>331</ele>
        <time>2010-12-19T14:34:05Z</time>
      </trkpt>
      <trkpt lat="45.06628" lon="5.65674">
        <ele>331</ele>
        <time>2010-12-19T14:34:08Z</time>
      </trkpt>
      <trkpt lat="45.06626" lon="5.65662">
        <ele>331.6</ele>
        <time>2010-12-19T14:34:12Z</time>
      </trkpt>
      <trkpt lat="45.06626" lon="5.65658">
        <ele>332</ele>
        <time>2010-12-19T14:34:13Z</time>
      </trkpt>
      <trkpt lat="45.06626" lon="5.65653">
        <ele>332.4</ele>
        <time>2010-12-19T14:34:14Z</time>
      </trkpt>
      <trkpt lat="45.06622" lon="5.65647">
        <ele>333.2</ele>
        <time>2010-12-19T14:34:17Z</time>
      </trkpt>
      <trkpt lat="45.06616" lon="5.6564">
        <ele>334.4</ele>
        <time>2010-12-19T14:34:22Z</time>
      </trkpt>
      <trkpt lat="45.0661" lon="5.65633">
        <ele>334.8</ele>
        <time>2010-12-19T14:34:26Z</time>
      </trkpt>
      <trkpt lat="45.06609" lon="5.65631">
        <ele>335</ele>
        <time>2010-12-19T14:34:27Z</time>
      </trkpt>
      <trkpt lat="45.06605" lon="5.65628">
        <ele>335.4</ele>
        <time>2010-12-19T14:34:29Z</time>
      </trkpt>
      <trkpt lat="45.06604" lon="5.65626">
        <ele>335.4</ele>
        <time>2010-12-19T14:34:30Z</time>
      </trkpt>
      <trkpt lat="45.06602" lon="5.65624">
        <ele>335.4</ele>
        <time>2010-12-19T14:34:32Z</time>
      </trkpt>
      <trkpt lat="45.066" lon="5.65622">
        <ele>335.6</ele>
        <time>2010-12-19T14:34:33Z</time>
      </trkpt>
      <trkpt lat="45.066" lon="5.6562">
        <ele>335.4</ele>
        <time>2010-12-19T14:34:34Z</time>
      </trkpt>
      <trkpt lat="45.06598" lon="5.65615">
        <ele>335.6</ele>
        <time>2010-12-19T14:34:37Z</time>
      </trkpt>
      <trkpt lat="45.06598" lon="5.65613">
        <ele>335.6</ele>
        <time>2010-12-19T14:34:38Z</time>
      </trkpt>
      <trkpt lat="45.06593" lon="5.65609">
        <ele>335.6</ele>
        <time>2010-12-19T14:34:40Z</time>
      </trkpt>
      <trkpt lat="45.06591" lon="5.65603">
        <ele>335.8</ele>
        <time>2010-12-19T14:34:43Z</time>
      </trkpt>
      <trkpt lat="45.06589" lon="5.65599">
        <ele>336</ele>
        <time>2010-12-19T14:34:45Z</time>
      </trkpt>
      <trkpt lat="45.06583" lon="5.65593">
        <ele>335.8</ele>
        <time>2010-12-19T14:34:48Z</time>
      </trkpt>
      <trkpt lat="45.06575" lon="5.65585">
        <ele>335.8</ele>
        <time>2010-12-19T14:34:54Z</time>
      </trkpt>
      <trkpt lat="45.06573" lon="5.65581">
        <ele>336</ele>
        <time>2010-12-19T14:34:57Z</time>
      </trkpt>
      <trkpt lat="45.06572" lon="5.65576">
        <ele>336.2</ele>
        <time>2010-12-19T14:34:59Z</time>
      </trkpt>
      <trkpt lat="45.06562" lon="5.65566">
        <ele>336.8</ele>
        <time>2010-12-19T14:35:03Z</time>
      </trkpt>
      <trkpt lat="45.06558" lon="5.65562">
        <ele>336.6</ele>
        <time>2010-12-19T14:35:05Z</time>
      </trkpt>
      <trkpt lat="45.06558" lon="5.65559">
        <ele>337</ele>
        <time>2010-12-19T14:35:06Z</time>
      </trkpt>
      <trkpt lat="45.06557" lon="5.65557">
        <ele>337.2</ele>
        <time>2010-12-19T14:35:07Z</time>
      </trkpt>
      <trkpt lat="45.06554" lon="5.65543">
        <ele>339.2</ele>
        <time>2010-12-19T14:35:11Z</time>
      </trkpt>
      <trkpt lat="45.06572" lon="5.65524">
        <ele>347.2</ele>
        <time>2010-12-19T14:35:26Z</time>
      </trkpt>
      <trkpt lat="45.06583" lon="5.65516">
        <ele>350.6</ele>
        <time>2010-12-19T14:35:29Z</time>
      </trkpt>
      <trkpt lat="45.06586" lon="5.65512">
        <ele>355.6</ele>
        <time>2010-12-19T14:35:34Z</time>
      </trkpt>
      <trkpt lat="45.06586" lon="5.6551">
        <ele>362.8</ele>
        <time>2010-12-19T14:35:42Z</time>
      </trkpt>
      <trkpt lat="45.06581" lon="5.6551">
        <ele>365.2</ele>
        <time>2010-12-19T14:35:46Z</time>
      </trkpt>
      <trkpt lat="45.06575" lon="5.65511">
        <ele>367.6</ele>
        <time>2010-12-19T14:35:51Z</time>
      </trkpt>
      <trkpt lat="45.06566" lon="5.65513">
        <ele>368.8</ele>
        <time>2010-12-19T14:35:57Z</time>
      </trkpt>
      <trkpt lat="45.06565" lon="5.65512">
        <ele>369.8</ele>
        <time>2010-12-19T14:36:00Z</time>
      </trkpt>
      <trkpt lat="45.06561" lon="5.65514">
        <ele>370.2</ele>
        <time>2010-12-19T14:36:02Z</time>
      </trkpt>
      <trkpt lat="45.06558" lon="5.65515">
        <ele>370.6</ele>
        <time>2010-12-19T14:36:04Z</time>
      </trkpt>
      <trkpt lat="45.0656" lon="5.65515">
        <ele>373</ele>
        <time>2010-12-19T14:36:09Z</time>
      </trkpt>
      <trkpt lat="45.06548" lon="5.65518">
        <ele>377.8</ele>
        <time>2010-12-19T14:36:21Z</time>
      </trkpt>
      <trkpt lat="45.06548" lon="5.65519">
        <ele>384.6</ele>
        <time>2010-12-19T14:36:51Z</time>
      </trkpt>
      <trkpt lat="45.06546" lon="5.65521">
        <ele>384.6</ele>
        <time>2010-12-19T14:37:01Z</time>
      </trkpt>
      <trkpt lat="45.06546" lon="5.65527">
        <ele>385.8</ele>
        <time>2010-12-19T14:37:21Z</time>
      </trkpt>
      <trkpt lat="45.06546" lon="5.6552">
        <ele>386</ele>
        <time>2010-12-19T14:37:36Z</time>
      </trkpt>
      <trkpt lat="45.06527" lon="5.65522">
        <ele>385.8</ele>
        <time>2010-12-19T14:37:46Z</time>
      </trkpt>
      <trkpt lat="45.06514" lon="5.65516">
        <ele>385</ele>
        <time>2010-12-19T14:37:57Z</time>
      </trkpt>
      <trkpt lat="45.06512" lon="5.65516">
        <ele>385</ele>
        <time>2010-12-19T14:37:59Z</time>
      </trkpt>
      <trkpt lat="45.06507" lon="5.65518">
        <ele>385</ele>
        <time>2010-12-19T14:38:03Z</time>
      </trkpt>
      <trkpt lat="45.06505" lon="5.65521">
        <ele>385.8</ele>
        <time>2010-12-19T14:38:08Z</time>
      </trkpt>
      <trkpt lat="45.06501" lon="5.65521">
        <ele>386.2</ele>
        <time>2010-12-19T14:38:10Z</time>
      </trkpt>
      <trkpt lat="45.06498" lon="5.65522">
        <ele>386.8</ele>
        <time>2010-12-19T14:38:12Z</time>
      </trkpt>
      <trkpt lat="45.06496" lon="5.65522">
        <ele>387.6</ele>
        <time>2010-12-19T14:38:15Z</time>
      </trkpt>
      <trkpt lat="45.06495" lon="5.65522">
        <ele>388.6</ele>
        <time>2010-12-19T14:38:17Z</time>
      </trkpt>
      <trkpt lat="45.06493" lon="5.65518">
        <ele>390.8</ele>
        <time>2010-12-19T14:38:22Z</time>
      </trkpt>
      <trkpt lat="45.06492" lon="5.65514">
        <ele>392</ele>
        <time>2010-12-19T14:38:24Z</time>
      </trkpt>
      <trkpt lat="45.06491" lon="5.65509">
        <ele>393.8</ele>
        <time>2010-12-19T14:38:27Z</time>
      </trkpt>
      <trkpt lat="45.0649" lon="5.65501">
        <ele>396.8</ele>
        <time>2010-12-19T14:38:31Z</time>
      </trkpt>
      <trkpt lat="45.06489" lon="5.65498">
        <ele>399.2</ele>
        <time>2010-12-19T14:38:34Z</time>
      </trkpt>
      <trkpt lat="45.06489" lon="5.65494">
        <ele>400.8</ele>
        <time>2010-12-19T14:38:36Z</time>
      </trkpt>
      <trkpt lat="45.06489" lon="5.65492">
        <ele>401.6</ele>
        <time>2010-12-19T14:38:37Z</time>
      </trkpt>
      <trkpt lat="45.06481" lon="5.65491">
        <ele>404.8</ele>
        <time>2010-12-19T14:38:46Z</time>
      </trkpt>
      <trkpt lat="45.06483" lon="5.65488">
        <ele>405.2</ele>
        <time>2010-12-19T14:38:47Z</time>
      </trkpt>
      <trkpt lat="45.06484" lon="5.65481">
        <ele>405.6</ele>
        <time>2010-12-19T14:38:50Z</time>
      </trkpt>
      <trkpt lat="45.06485" lon="5.65478">
        <ele>405.6</ele>
        <time>2010-12-19T14:38:51Z</time>
      </trkpt>
      <trkpt lat="45.06485" lon="5.65476">
        <ele>405.6</ele>
        <time>2010-12-19T14:38:52Z</time>
      </trkpt>
      <trkpt lat="45.06483" lon="5.65472">
        <ele>405.2</ele>
        <time>2010-12-19T14:38:55Z</time>
      </trkpt>
      <trkpt lat="45.06478" lon="5.65472">
        <ele>405</ele>
        <time>2010-12-19T14:38:58Z</time>
      </trkpt>
      <trkpt lat="45.06475" lon="5.65472">
        <ele>404.8</ele>
        <time>2010-12-19T14:38:59Z</time>
      </trkpt>
      <trkpt lat="45.06471" lon="5.65472">
        <ele>404.6</ele>
        <time>2010-12-19T14:39:00Z</time>
      </trkpt>
      <trkpt lat="45.06465" lon="5.65472">
        <ele>404.2</ele>
        <time>2010-12-19T14:39:02Z</time>
      </trkpt>
      <trkpt lat="45.0646" lon="5.65467">
        <ele>403.6</ele>
        <time>2010-12-19T14:39:05Z</time>
      </trkpt>
      <trkpt lat="45.06456" lon="5.65468">
        <ele>403.2</ele>
        <time>2010-12-19T14:39:06Z</time>
      </trkpt>
      <trkpt lat="45.06455" lon="5.65463">
        <ele>402.4</ele>
        <time>2010-12-19T14:39:09Z</time>
      </trkpt>
      <trkpt lat="45.06453" lon="5.65461">
        <ele>402</ele>
        <time>2010-12-19T14:39:10Z</time>
      </trkpt>
      <trkpt lat="45.0645" lon="5.6545">
        <ele>401.2</ele>
        <time>2010-12-19T14:39:14Z</time>
      </trkpt>
      <trkpt lat="45.06447" lon="5.6544">
        <ele>400.6</ele>
        <time>2010-12-19T14:39:17Z</time>
      </trkpt>
      <trkpt lat="45.06447" lon="5.65437">
        <ele>400.4</ele>
        <time>2010-12-19T14:39:18Z</time>
      </trkpt>
      <trkpt lat="45.06447" lon="5.65435">
        <ele>400.4</ele>
        <time>2010-12-19T14:39:19Z</time>
      </trkpt>
      <trkpt lat="45.06446" lon="5.65429">
        <ele>400</ele>
        <time>2010-12-19T14:39:22Z</time>
      </trkpt>
      <trkpt lat="45.06445" lon="5.65429">
        <ele>399.8</ele>
        <time>2010-12-19T14:39:23Z</time>
      </trkpt>
      <trkpt lat="45.06441" lon="5.6542">
        <ele>399.2</ele>
        <time>2010-12-19T14:39:27Z</time>
      </trkpt>
      <trkpt lat="45.0644" lon="5.65418">
        <ele>399.2</ele>
        <time>2010-12-19T14:39:28Z</time>
      </trkpt>
      <trkpt lat="45.06439" lon="5.65417">
        <ele>399</ele>
        <time>2010-12-19T14:39:29Z</time>
      </trkpt>
      <trkpt lat="45.06439" lon="5.65413">
        <ele>398.8</ele>
        <time>2010-12-19T14:39:31Z</time>
      </trkpt>
      <trkpt lat="45.06435" lon="5.65399">
        <ele>398.2</ele>
        <time>2010-12-19T14:39:37Z</time>
      </trkpt>
      <trkpt lat="45.06436" lon="5.65391">
        <ele>398.2</ele>
        <time>2010-12-19T14:39:39Z</time>
      </trkpt>
      <trkpt lat="45.06436" lon="5.65388">
        <ele>397.8</ele>
        <time>2010-12-19T14:39:41Z</time>
      </trkpt>
      <trkpt lat="45.06437" lon="5.65384">
        <ele>397.6</ele>
        <time>2010-12-19T14:39:43Z</time>
      </trkpt>
      <trkpt lat="45.06438" lon="5.65377">
        <ele>397.4</ele>
        <time>2010-12-19T14:39:46Z</time>
      </trkpt>
      <trkpt lat="45.06438" lon="5.65375">
        <ele>397.4</ele>
        <time>2010-12-19T14:39:47Z</time>
      </trkpt>
      <trkpt lat="45.06438" lon="5.65369">
        <ele>397</ele>
        <time>2010-12-19T14:39:52Z</time>
      </trkpt>
      <trkpt lat="45.06436" lon="5.65366">
        <ele>396.8</ele>
        <time>2010-12-19T14:39:54Z</time>
      </trkpt>
      <trkpt lat="45.06435" lon="5.65366">
        <ele>396.8</ele>
        <time>2010-12-19T14:39:55Z</time>
      </trkpt>
      <trkpt lat="45.06434" lon="5.65362">
        <ele>396.4</ele>
        <time>2010-12-19T14:39:58Z</time>
      </trkpt>
      <trkpt lat="45.06431" lon="5.65351">
        <ele>396</ele>
        <time>2010-12-19T14:40:09Z</time>
      </trkpt>
      <trkpt lat="45.06431" lon="5.65348">
        <ele>395.8</ele>
        <time>2010-12-19T14:40:11Z</time>
      </trkpt>
      <trkpt lat="45.06429" lon="5.65343">
        <ele>395.8</ele>
        <time>2010-12-19T14:40:15Z</time>
      </trkpt>
      <trkpt lat="45.06426" lon="5.65339">
        <ele>395.6</ele>
        <time>2010-12-19T14:40:18Z</time>
      </trkpt>
      <trkpt lat="45.06425" lon="5.65337">
        <ele>395.6</ele>
        <time>2010-12-19T14:40:19Z</time>
      </trkpt>
      <trkpt lat="45.0642" lon="5.65329">
        <ele>395.4</ele>
        <time>2010-12-19T14:40:25Z</time>
      </trkpt>
      <trkpt lat="45.06421" lon="5.65326">
        <ele>395.4</ele>
        <time>2010-12-19T14:40:26Z</time>
      </trkpt>
      <trkpt lat="45.06419" lon="5.65322">
        <ele>395.4</ele>
        <time>2010-12-19T14:40:29Z</time>
      </trkpt>
      <trkpt lat="45.06419" lon="5.65315">
        <ele>395.8</ele>
        <time>2010-12-19T14:40:32Z</time>
      </trkpt>
      <trkpt lat="45.06419" lon="5.65313">
        <ele>396</ele>
        <time>2010-12-19T14:40:33Z</time>
      </trkpt>
      <trkpt lat="45.06419" lon="5.65311">
        <ele>396</ele>
        <time>2010-12-19T14:40:34Z</time>
      </trkpt>
      <trkpt lat="45.06418" lon="5.65306">
        <ele>396.4</ele>
        <time>2010-12-19T14:40:37Z</time>
      </trkpt>
      <trkpt lat="45.06417" lon="5.65305">
        <ele>396.4</ele>
        <time>2010-12-19T14:40:38Z</time>
      </trkpt>
      <trkpt lat="45.06412" lon="5.65306">
        <ele>397.2</ele>
        <time>2010-12-19T14:40:43Z</time>
      </trkpt>
      <trkpt lat="45.06413" lon="5.65299">
        <ele>397.6</ele>
        <time>2010-12-19T14:40:47Z</time>
      </trkpt>
      <trkpt lat="45.06414" lon="5.65292">
        <ele>398</ele>
        <time>2010-12-19T14:40:50Z</time>
      </trkpt>
      <trkpt lat="45.06416" lon="5.65279">
        <ele>398.2</ele>
        <time>2010-12-19T14:40:55Z</time>
      </trkpt>
      <trkpt lat="45.06415" lon="5.65276">
        <ele>398.2</ele>
        <time>2010-12-19T14:40:56Z</time>
      </trkpt>
      <trkpt lat="45.06419" lon="5.65265">
        <ele>398.2</ele>
        <time>2010-12-19T14:40:59Z</time>
      </trkpt>
      <trkpt lat="45.0642" lon="5.65262">
        <ele>398</ele>
        <time>2010-12-19T14:41:00Z</time>
      </trkpt>
      <trkpt lat="45.06422" lon="5.65251">
        <ele>397.8</ele>
        <time>2010-12-19T14:41:03Z</time>
      </trkpt>
      <trkpt lat="45.06424" lon="5.65248">
        <ele>397.8</ele>
        <time>2010-12-19T14:41:04Z</time>
      </trkpt>
      <trkpt lat="45.06427" lon="5.65238">
        <ele>397.8</ele>
        <time>2010-12-19T14:41:06Z</time>
      </trkpt>
      <trkpt lat="45.06429" lon="5.65233">
        <ele>397.8</ele>
        <time>2010-12-19T14:41:08Z</time>
      </trkpt>
      <trkpt lat="45.06432" lon="5.6522">
        <ele>397.4</ele>
        <time>2010-12-19T14:41:14Z</time>
      </trkpt>
      <trkpt lat="45.06435" lon="5.65216">
        <ele>397.4</ele>
        <time>2010-12-19T14:41:16Z</time>
      </trkpt>
      <trkpt lat="45.06438" lon="5.65206">
        <ele>397.2</ele>
        <time>2010-12-19T14:41:19Z</time>
      </trkpt>
      <trkpt lat="45.06437" lon="5.65195">
        <ele>397</ele>
        <time>2010-12-19T14:41:23Z</time>
      </trkpt>
      <trkpt lat="45.06437" lon="5.65192">
        <ele>397</ele>
        <time>2010-12-19T14:41:24Z</time>
      </trkpt>
      <trkpt lat="45.06437" lon="5.65189">
        <ele>397</ele>
        <time>2010-12-19T14:41:25Z</time>
      </trkpt>
      <trkpt lat="45.06437" lon="5.65187">
        <ele>397</ele>
        <time>2010-12-19T14:41:26Z</time>
      </trkpt>
      <trkpt lat="45.06433" lon="5.65184">
        <ele>397</ele>
        <time>2010-12-19T14:41:28Z</time>
      </trkpt>
      <trkpt lat="45.0643" lon="5.6518">
        <ele>396.8</ele>
        <time>2010-12-19T14:41:31Z</time>
      </trkpt>
      <trkpt lat="45.06427" lon="5.65177">
        <ele>396.6</ele>
        <time>2010-12-19T14:41:34Z</time>
      </trkpt>
      <trkpt lat="45.06423" lon="5.65173">
        <ele>396.4</ele>
        <time>2010-12-19T14:41:37Z</time>
      </trkpt>
      <trkpt lat="45.06422" lon="5.65169">
        <ele>396.4</ele>
        <time>2010-12-19T14:41:39Z</time>
      </trkpt>
      <trkpt lat="45.06422" lon="5.65166">
        <ele>396.4</ele>
        <time>2010-12-19T14:41:41Z</time>
      </trkpt>
      <trkpt lat="45.06419" lon="5.65161">
        <ele>396.2</ele>
        <time>2010-12-19T14:41:45Z</time>
      </trkpt>
      <trkpt lat="45.06419" lon="5.65158">
        <ele>396.2</ele>
        <time>2010-12-19T14:41:46Z</time>
      </trkpt>
      <trkpt lat="45.06421" lon="5.65147">
        <ele>396.4</ele>
        <time>2010-12-19T14:41:49Z</time>
      </trkpt>
      <trkpt lat="45.06424" lon="5.65135">
        <ele>396.6</ele>
        <time>2010-12-19T14:41:53Z</time>
      </trkpt>
      <trkpt lat="45.06426" lon="5.65132">
        <ele>396.8</ele>
        <time>2010-12-19T14:41:54Z</time>
      </trkpt>
      <trkpt lat="45.0643" lon="5.65124">
        <ele>396.8</ele>
        <time>2010-12-19T14:41:57Z</time>
      </trkpt>
      <trkpt lat="45.06432" lon="5.6512">
        <ele>396.8</ele>
        <time>2010-12-19T14:41:59Z</time>
      </trkpt>
      <trkpt lat="45.06436" lon="5.65114">
        <ele>397</ele>
        <time>2010-12-19T14:42:01Z</time>
      </trkpt>
      <trkpt lat="45.06438" lon="5.6511">
        <ele>396.8</ele>
        <time>2010-12-19T14:42:03Z</time>
      </trkpt>
      <trkpt lat="45.06442" lon="5.65104">
        <ele>397</ele>
        <time>2010-12-19T14:42:05Z</time>
      </trkpt>
      <trkpt lat="45.06442" lon="5.65098">
        <ele>396.6</ele>
        <time>2010-12-19T14:42:09Z</time>
      </trkpt>
      <trkpt lat="45.06438" lon="5.65097">
        <ele>395.6</ele>
        <time>2010-12-19T14:42:16Z</time>
      </trkpt>
      <trkpt lat="45.06437" lon="5.65097">
        <ele>394.4</ele>
        <time>2010-12-19T14:42:25Z</time>
      </trkpt>
      <trkpt lat="45.06435" lon="5.65095">
        <ele>393.8</ele>
        <time>2010-12-19T14:42:29Z</time>
      </trkpt>
      <trkpt lat="45.06437" lon="5.65088">
        <ele>393.2</ele>
        <time>2010-12-19T14:43:01Z</time>
      </trkpt>
      <trkpt lat="45.06434" lon="5.6509">
        <ele>393</ele>
        <time>2010-12-19T14:43:03Z</time>
      </trkpt>
      <trkpt lat="45.06432" lon="5.65092">
        <ele>392.8</ele>
        <time>2010-12-19T14:43:06Z</time>
      </trkpt>
      <trkpt lat="45.06432" lon="5.65093">
        <ele>392.8</ele>
        <time>2010-12-19T14:43:07Z</time>
      </trkpt>
      <trkpt lat="45.06431" lon="5.65093">
        <ele>392.8</ele>
        <time>2010-12-19T14:43:10Z</time>
      </trkpt>
      <trkpt lat="45.06427" lon="5.65094">
        <ele>392.4</ele>
        <time>2010-12-19T14:43:14Z</time>
      </trkpt>
      <trkpt lat="45.06426" lon="5.65093">
        <ele>392.4</ele>
        <time>2010-12-19T14:43:16Z</time>
      </trkpt>
      <trkpt lat="45.06424" lon="5.65092">
        <ele>392.4</ele>
        <time>2010-12-19T14:43:20Z</time>
      </trkpt>
      <trkpt lat="45.06418" lon="5.65091">
        <ele>392.4</ele>
        <time>2010-12-19T14:43:26Z</time>
      </trkpt>
      <trkpt lat="45.06405" lon="5.65092">
        <ele>392.4</ele>
        <time>2010-12-19T14:43:41Z</time>
      </trkpt>
      <trkpt lat="45.06405" lon="5.65092">
        <ele>392.6</ele>
        <time>2010-12-19T14:43:44Z</time>
      </trkpt>
      <trkpt lat="45.064" lon="5.65094">
        <ele>393</ele>
        <time>2010-12-19T14:43:49Z</time>
      </trkpt>
      <trkpt lat="45.06399" lon="5.65094">
        <ele>393</ele>
        <time>2010-12-19T14:43:50Z</time>
      </trkpt>
      <trkpt lat="45.06396" lon="5.65092">
        <ele>394.4</ele>
        <time>2010-12-19T14:43:59Z</time>
      </trkpt>
      <trkpt lat="45.06394" lon="5.65089">
        <ele>395</ele>
        <time>2010-12-19T14:44:03Z</time>
      </trkpt>
      <trkpt lat="45.06389" lon="5.65088">
        <ele>394.6</ele>
        <time>2010-12-19T14:44:06Z</time>
      </trkpt>
      <trkpt lat="45.06388" lon="5.65086">
        <ele>394.6</ele>
        <time>2010-12-19T14:44:07Z</time>
      </trkpt>
      <trkpt lat="45.06382" lon="5.65083">
        <ele>395</ele>
        <time>2010-12-19T14:44:13Z</time>
      </trkpt>
      <trkpt lat="45.06379" lon="5.6508">
        <ele>395.4</ele>
        <time>2010-12-19T14:44:17Z</time>
      </trkpt>
      <trkpt lat="45.06377" lon="5.65075">
        <ele>396.2</ele>
        <time>2010-12-19T14:44:23Z</time>
      </trkpt>
      <trkpt lat="45.06375" lon="5.65072">
        <ele>396.8</ele>
        <time>2010-12-19T14:44:26Z</time>
      </trkpt>
      <trkpt lat="45.06371" lon="5.6507">
        <ele>397.4</ele>
        <time>2010-12-19T14:44:30Z</time>
      </trkpt>
      <trkpt lat="45.06366" lon="5.65067">
        <ele>398.2</ele>
        <time>2010-12-19T14:44:36Z</time>
      </trkpt>
      <trkpt lat="45.06359" lon="5.65064">
        <ele>398.8</ele>
        <time>2010-12-19T14:44:43Z</time>
      </trkpt>
      <trkpt lat="45.06358" lon="5.65064">
        <ele>399</ele>
        <time>2010-12-19T14:44:44Z</time>
      </trkpt>
      <trkpt lat="45.06356" lon="5.65062">
        <ele>399.6</ele>
        <time>2010-12-19T14:44:48Z</time>
      </trkpt>
      <trkpt lat="45.0635" lon="5.6506">
        <ele>400.2</ele>
        <time>2010-12-19T14:44:53Z</time>
      </trkpt>
      <trkpt lat="45.0635" lon="5.6506">
        <ele>400.4</ele>
        <time>2010-12-19T14:44:54Z</time>
      </trkpt>
      <trkpt lat="45.06349" lon="5.65059">
        <ele>400.6</ele>
        <time>2010-12-19T14:44:55Z</time>
      </trkpt>
      <trkpt lat="45.06348" lon="5.65058">
        <ele>400.8</ele>
        <time>2010-12-19T14:44:57Z</time>
      </trkpt>
      <trkpt lat="45.06344" lon="5.65057">
        <ele>401.6</ele>
        <time>2010-12-19T14:45:01Z</time>
      </trkpt>
      <trkpt lat="45.06341" lon="5.65056">
        <ele>402.2</ele>
        <time>2010-12-19T14:45:05Z</time>
      </trkpt>
      <trkpt lat="45.06335" lon="5.65056">
        <ele>402.6</ele>
        <time>2010-12-19T14:45:09Z</time>
      </trkpt>
      <trkpt lat="45.06332" lon="5.65054">
        <ele>403</ele>
        <time>2010-12-19T14:45:12Z</time>
      </trkpt>
      <trkpt lat="45.06332" lon="5.65054">
        <ele>403.2</ele>
        <time>2010-12-19T14:45:13Z</time>
      </trkpt>
      <trkpt lat="45.06331" lon="5.65053">
        <ele>403.4</ele>
        <time>2010-12-19T14:45:14Z</time>
      </trkpt>
      <trkpt lat="45.06329" lon="5.65052">
        <ele>403.8</ele>
        <time>2010-12-19T14:45:16Z</time>
      </trkpt>
      <trkpt lat="45.06327" lon="5.6505">
        <ele>404</ele>
        <time>2010-12-19T14:45:18Z</time>
      </trkpt>
      <trkpt lat="45.06326" lon="5.65048">
        <ele>404.4</ele>
        <time>2010-12-19T14:45:20Z</time>
      </trkpt>
      <trkpt lat="45.06321" lon="5.65045">
        <ele>405.2</ele>
        <time>2010-12-19T14:45:25Z</time>
      </trkpt>
      <trkpt lat="45.06319" lon="5.65043">
        <ele>405.6</ele>
        <time>2010-12-19T14:45:28Z</time>
      </trkpt>
      <trkpt lat="45.06317" lon="5.6504">
        <ele>406</ele>
        <time>2010-12-19T14:45:31Z</time>
      </trkpt>
      <trkpt lat="45.06316" lon="5.65038">
        <ele>406.4</ele>
        <time>2010-12-19T14:45:33Z</time>
      </trkpt>
      <trkpt lat="45.06316" lon="5.65037">
        <ele>406.6</ele>
        <time>2010-12-19T14:45:34Z</time>
      </trkpt>
      <trkpt lat="45.06315" lon="5.65032">
        <ele>407</ele>
        <time>2010-12-19T14:45:37Z</time>
      </trkpt>
      <trkpt lat="45.06313" lon="5.65026">
        <ele>407.8</ele>
        <time>2010-12-19T14:45:41Z</time>
      </trkpt>
      <trkpt lat="45.06314" lon="5.65018">
        <ele>409</ele>
        <time>2010-12-19T14:45:46Z</time>
      </trkpt>
      <trkpt lat="45.06315" lon="5.65012">
        <ele>409.6</ele>
        <time>2010-12-19T14:45:49Z</time>
      </trkpt>
      <trkpt lat="45.06315" lon="5.65006">
        <ele>410.4</ele>
        <time>2010-12-19T14:45:52Z</time>
      </trkpt>
      <trkpt lat="45.06317" lon="5.64998">
        <ele>411.4</ele>
        <time>2010-12-19T14:45:55Z</time>
      </trkpt>
      <trkpt lat="45.06318" lon="5.64995">
        <ele>411.6</ele>
        <time>2010-12-19T14:45:56Z</time>
      </trkpt>
      <trkpt lat="45.0632" lon="5.64989">
        <ele>412</ele>
        <time>2010-12-19T14:45:58Z</time>
      </trkpt>
      <trkpt lat="45.06322" lon="5.64984">
        <ele>412.4</ele>
        <time>2010-12-19T14:46:00Z</time>
      </trkpt>
      <trkpt lat="45.06326" lon="5.64969">
        <ele>413.8</ele>
        <time>2010-12-19T14:46:05Z</time>
      </trkpt>
      <trkpt lat="45.06328" lon="5.64964">
        <ele>414</ele>
        <time>2010-12-19T14:46:07Z</time>
      </trkpt>
      <trkpt lat="45.06329" lon="5.6496">
        <ele>414.4</ele>
        <time>2010-12-19T14:46:09Z</time>
      </trkpt>
      <trkpt lat="45.06329" lon="5.64956">
        <ele>414.8</ele>
        <time>2010-12-19T14:46:12Z</time>
      </trkpt>
      <trkpt lat="45.06329" lon="5.64954">
        <ele>415.2</ele>
        <time>2010-12-19T14:46:14Z</time>
      </trkpt>
      <trkpt lat="45.06326" lon="5.64954">
        <ele>415</ele>
        <time>2010-12-19T14:46:15Z</time>
      </trkpt>
      <trkpt lat="45.06322" lon="5.64956">
        <ele>415.4</ele>
        <time>2010-12-19T14:46:18Z</time>
      </trkpt>
      <trkpt lat="45.06321" lon="5.64956">
        <ele>415.8</ele>
        <time>2010-12-19T14:46:20Z</time>
      </trkpt>
      <trkpt lat="45.0632" lon="5.64957">
        <ele>416.2</ele>
        <time>2010-12-19T14:46:23Z</time>
      </trkpt>
      <trkpt lat="45.06318" lon="5.64957">
        <ele>416.4</ele>
        <time>2010-12-19T14:46:24Z</time>
      </trkpt>
      <trkpt lat="45.06317" lon="5.64958">
        <ele>416.6</ele>
        <time>2010-12-19T14:46:25Z</time>
      </trkpt>
      <trkpt lat="45.06316" lon="5.64959">
        <ele>416.8</ele>
        <time>2010-12-19T14:46:26Z</time>
      </trkpt>
      <trkpt lat="45.06313" lon="5.64958">
        <ele>417.6</ele>
        <time>2010-12-19T14:46:29Z</time>
      </trkpt>
      <trkpt lat="45.06312" lon="5.64956">
        <ele>418</ele>
        <time>2010-12-19T14:46:31Z</time>
      </trkpt>
      <trkpt lat="45.06309" lon="5.64954">
        <ele>418.4</ele>
        <time>2010-12-19T14:46:33Z</time>
      </trkpt>
      <trkpt lat="45.06302" lon="5.64953">
        <ele>419</ele>
        <time>2010-12-19T14:46:37Z</time>
      </trkpt>
      <trkpt lat="45.06301" lon="5.64951">
        <ele>420</ele>
        <time>2010-12-19T14:46:41Z</time>
      </trkpt>
      <trkpt lat="45.06298" lon="5.64952">
        <ele>420.6</ele>
        <time>2010-12-19T14:46:45Z</time>
      </trkpt>
      <trkpt lat="45.06297" lon="5.64953">
        <ele>421.4</ele>
        <time>2010-12-19T14:46:48Z</time>
      </trkpt>
      <trkpt lat="45.06293" lon="5.64955">
        <ele>422.2</ele>
        <time>2010-12-19T14:46:53Z</time>
      </trkpt>
      <trkpt lat="45.06283" lon="5.64959">
        <ele>423.2</ele>
        <time>2010-12-19T14:47:01Z</time>
      </trkpt>
      <trkpt lat="45.06279" lon="5.64963">
        <ele>423.6</ele>
        <time>2010-12-19T14:47:05Z</time>
      </trkpt>
      <trkpt lat="45.06279" lon="5.64966">
        <ele>424.4</ele>
        <time>2010-12-19T14:47:09Z</time>
      </trkpt>
      <trkpt lat="45.06277" lon="5.64966">
        <ele>424.6</ele>
        <time>2010-12-19T14:47:11Z</time>
      </trkpt>
      <trkpt lat="45.06276" lon="5.64965">
        <ele>425.2</ele>
        <time>2010-12-19T14:47:14Z</time>
      </trkpt>
      <trkpt lat="45.06275" lon="5.64964">
        <ele>426</ele>
        <time>2010-12-19T14:47:18Z</time>
      </trkpt>
      <trkpt lat="45.06271" lon="5.64961">
        <ele>427.6</ele>
        <time>2010-12-19T14:47:24Z</time>
      </trkpt>
      <trkpt lat="45.06269" lon="5.64959">
        <ele>428.2</ele>
        <time>2010-12-19T14:47:26Z</time>
      </trkpt>
      <trkpt lat="45.06263" lon="5.64951">
        <ele>432</ele>
        <time>2010-12-19T14:47:41Z</time>
      </trkpt>
      <trkpt lat="45.06263" lon="5.64948">
        <ele>434.8</ele>
        <time>2010-12-19T14:47:49Z</time>
      </trkpt>
      <trkpt lat="45.0626" lon="5.64947">
        <ele>436.4</ele>
        <time>2010-12-19T14:47:53Z</time>
      </trkpt>
      <trkpt lat="45.06258" lon="5.64945">
        <ele>437.2</ele>
        <time>2010-12-19T14:47:56Z</time>
      </trkpt>
      <trkpt lat="45.06255" lon="5.64943">
        <ele>438.4</ele>
        <time>2010-12-19T14:48:00Z</time>
      </trkpt>
      <trkpt lat="45.06254" lon="5.64942">
        <ele>438.6</ele>
        <time>2010-12-19T14:48:01Z</time>
      </trkpt>
      <trkpt lat="45.06251" lon="5.64936">
        <ele>440.4</ele>
        <time>2010-12-19T14:48:06Z</time>
      </trkpt>
      <trkpt lat="45.06249" lon="5.64932">
        <ele>440.8</ele>
        <time>2010-12-19T14:48:08Z</time>
      </trkpt>
      <trkpt lat="45.06245" lon="5.64925">
        <ele>442.2</ele>
        <time>2010-12-19T14:48:14Z</time>
      </trkpt>
      <trkpt lat="45.06242" lon="5.64923">
        <ele>442.2</ele>
        <time>2010-12-19T14:48:16Z</time>
      </trkpt>
      <trkpt lat="45.06239" lon="5.64918">
        <ele>442.8</ele>
        <time>2010-12-19T14:48:21Z</time>
      </trkpt>
      <trkpt lat="45.06237" lon="5.64915">
        <ele>443</ele>
        <time>2010-12-19T14:48:24Z</time>
      </trkpt>
      <trkpt lat="45.06238" lon="5.6491">
        <ele>443.2</ele>
        <time>2010-12-19T14:48:26Z</time>
      </trkpt>
      <trkpt lat="45.06237" lon="5.64908">
        <ele>443</ele>
        <time>2010-12-19T14:48:28Z</time>
      </trkpt>
      <trkpt lat="45.06235" lon="5.64903">
        <ele>443</ele>
        <time>2010-12-19T14:48:31Z</time>
      </trkpt>
      <trkpt lat="45.06235" lon="5.64902">
        <ele>443</ele>
        <time>2010-12-19T14:48:32Z</time>
      </trkpt>
      <trkpt lat="45.06235" lon="5.649">
        <ele>443</ele>
        <time>2010-12-19T14:48:34Z</time>
      </trkpt>
      <trkpt lat="45.06234" lon="5.64899">
        <ele>443</ele>
        <time>2010-12-19T14:48:35Z</time>
      </trkpt>
      <trkpt lat="45.06235" lon="5.64897">
        <ele>443</ele>
        <time>2010-12-19T14:48:36Z</time>
      </trkpt>
      <trkpt lat="45.06235" lon="5.64895">
        <ele>443</ele>
        <time>2010-12-19T14:48:37Z</time>
      </trkpt>
      <trkpt lat="45.06232" lon="5.64892">
        <ele>442.8</ele>
        <time>2010-12-19T14:48:41Z</time>
      </trkpt>
      <trkpt lat="45.06232" lon="5.64891">
        <ele>442.8</ele>
        <time>2010-12-19T14:48:42Z</time>
      </trkpt>
      <trkpt lat="45.06233" lon="5.64888">
        <ele>442.8</ele>
        <time>2010-12-19T14:48:44Z</time>
      </trkpt>
      <trkpt lat="45.06232" lon="5.64884">
        <ele>442.8</ele>
        <time>2010-12-19T14:48:47Z</time>
      </trkpt>
      <trkpt lat="45.06232" lon="5.64883">
        <ele>442.8</ele>
        <time>2010-12-19T14:48:48Z</time>
      </trkpt>
      <trkpt lat="45.0623" lon="5.6488">
        <ele>443</ele>
        <time>2010-12-19T14:48:50Z</time>
      </trkpt>
      <trkpt lat="45.06229" lon="5.64879">
        <ele>443</ele>
        <time>2010-12-19T14:48:51Z</time>
      </trkpt>
      <trkpt lat="45.0623" lon="5.64875">
        <ele>443</ele>
        <time>2010-12-19T14:48:53Z</time>
      </trkpt>
      <trkpt lat="45.0623" lon="5.64869">
        <ele>443.6</ele>
        <time>2010-12-19T14:48:56Z</time>
      </trkpt>
      <trkpt lat="45.06231" lon="5.64866">
        <ele>443.8</ele>
        <time>2010-12-19T14:48:58Z</time>
      </trkpt>
      <trkpt lat="45.0623" lon="5.64865">
        <ele>443.8</ele>
        <time>2010-12-19T14:48:59Z</time>
      </trkpt>
      <trkpt lat="45.0623" lon="5.64862">
        <ele>443.8</ele>
        <time>2010-12-19T14:49:01Z</time>
      </trkpt>
      <trkpt lat="45.0623" lon="5.64854">
        <ele>444.2</ele>
        <time>2010-12-19T14:49:06Z</time>
      </trkpt>
      <trkpt lat="45.0623" lon="5.64848">
        <ele>444.8</ele>
        <time>2010-12-19T14:49:09Z</time>
      </trkpt>
      <trkpt lat="45.06229" lon="5.64847">
        <ele>445</ele>
        <time>2010-12-19T14:49:10Z</time>
      </trkpt>
      <trkpt lat="45.06229" lon="5.64844">
        <ele>445.2</ele>
        <time>2010-12-19T14:49:12Z</time>
      </trkpt>
      <trkpt lat="45.06228" lon="5.64839">
        <ele>445.8</ele>
        <time>2010-12-19T14:49:16Z</time>
      </trkpt>
      <trkpt lat="45.06228" lon="5.64834">
        <ele>446</ele>
        <time>2010-12-19T14:49:19Z</time>
      </trkpt>
      <trkpt lat="45.06229" lon="5.64833">
        <ele>446.2</ele>
        <time>2010-12-19T14:49:20Z</time>
      </trkpt>
      <trkpt lat="45.06229" lon="5.6483">
        <ele>446.4</ele>
        <time>2010-12-19T14:49:22Z</time>
      </trkpt>
      <trkpt lat="45.06229" lon="5.64828">
        <ele>446.4</ele>
        <time>2010-12-19T14:49:23Z</time>
      </trkpt>
      <trkpt lat="45.06229" lon="5.64822">
        <ele>447</ele>
        <time>2010-12-19T14:49:26Z</time>
      </trkpt>
      <trkpt lat="45.06229" lon="5.6482">
        <ele>447.2</ele>
        <time>2010-12-19T14:49:27Z</time>
      </trkpt>
      <trkpt lat="45.06229" lon="5.64819">
        <ele>447.2</ele>
        <time>2010-12-19T14:49:28Z</time>
      </trkpt>
      <trkpt lat="45.06226" lon="5.64812">
        <ele>447.8</ele>
        <time>2010-12-19T14:49:33Z</time>
      </trkpt>
      <trkpt lat="45.06223" lon="5.64808">
        <ele>447.8</ele>
        <time>2010-12-19T14:49:37Z</time>
      </trkpt>
      <trkpt lat="45.06223" lon="5.64805">
        <ele>447.6</ele>
        <time>2010-12-19T14:49:40Z</time>
      </trkpt>
      <trkpt lat="45.06224" lon="5.648">
        <ele>448.2</ele>
        <time>2010-12-19T14:49:42Z</time>
      </trkpt>
      <trkpt lat="45.06224" lon="5.64799">
        <ele>448.2</ele>
        <time>2010-12-19T14:49:43Z</time>
      </trkpt>
      <trkpt lat="45.06223" lon="5.64797">
        <ele>448.4</ele>
        <time>2010-12-19T14:49:44Z</time>
      </trkpt>
      <trkpt lat="45.06223" lon="5.64791">
        <ele>448.8</ele>
        <time>2010-12-19T14:49:48Z</time>
      </trkpt>
      <trkpt lat="45.06223" lon="5.64789">
        <ele>449</ele>
        <time>2010-12-19T14:49:49Z</time>
      </trkpt>
      <trkpt lat="45.06221" lon="5.64789">
        <ele>449</ele>
        <time>2010-12-19T14:49:50Z</time>
      </trkpt>
      <trkpt lat="45.06221" lon="5.64785">
        <ele>449.4</ele>
        <time>2010-12-19T14:49:53Z</time>
      </trkpt>
      <trkpt lat="45.06221" lon="5.64775">
        <ele>450.2</ele>
        <time>2010-12-19T14:49:59Z</time>
      </trkpt>
      <trkpt lat="45.06219" lon="5.64771">
        <ele>450.8</ele>
        <time>2010-12-19T14:50:03Z</time>
      </trkpt>
      <trkpt lat="45.06219" lon="5.64766">
        <ele>451.4</ele>
        <time>2010-12-19T14:50:06Z</time>
      </trkpt>
      <trkpt lat="45.0622" lon="5.64763">
        <ele>451.8</ele>
        <time>2010-12-19T14:50:08Z</time>
      </trkpt>
      <trkpt lat="45.06217" lon="5.64759">
        <ele>452.2</ele>
        <time>2010-12-19T14:50:11Z</time>
      </trkpt>
      <trkpt lat="45.06216" lon="5.64757">
        <ele>452.4</ele>
        <time>2010-12-19T14:50:13Z</time>
      </trkpt>
      <trkpt lat="45.06213" lon="5.64751">
        <ele>452.4</ele>
        <time>2010-12-19T14:50:17Z</time>
      </trkpt>
      <trkpt lat="45.06213" lon="5.64748">
        <ele>452.4</ele>
        <time>2010-12-19T14:50:19Z</time>
      </trkpt>
      <trkpt lat="45.06212" lon="5.64746">
        <ele>452.4</ele>
        <time>2010-12-19T14:50:20Z</time>
      </trkpt>
      <trkpt lat="45.06212" lon="5.64742">
        <ele>452.6</ele>
        <time>2010-12-19T14:50:23Z</time>
      </trkpt>
      <trkpt lat="45.06211" lon="5.6474">
        <ele>452.6</ele>
        <time>2010-12-19T14:50:24Z</time>
      </trkpt>
      <trkpt lat="45.06211" lon="5.64737">
        <ele>452.6</ele>
        <time>2010-12-19T14:50:26Z</time>
      </trkpt>
      <trkpt lat="45.06212" lon="5.64732">
        <ele>452.8</ele>
        <time>2010-12-19T14:50:28Z</time>
      </trkpt>
      <trkpt lat="45.0621" lon="5.64727">
        <ele>453</ele>
        <time>2010-12-19T14:50:31Z</time>
      </trkpt>
      <trkpt lat="45.06207" lon="5.64722">
        <ele>453</ele>
        <time>2010-12-19T14:50:34Z</time>
      </trkpt>
      <trkpt lat="45.06208" lon="5.64717">
        <ele>453.2</ele>
        <time>2010-12-19T14:50:37Z</time>
      </trkpt>
      <trkpt lat="45.06209" lon="5.64713">
        <ele>453.6</ele>
        <time>2010-12-19T14:50:40Z</time>
      </trkpt>
      <trkpt lat="45.06205" lon="5.64711">
        <ele>453.6</ele>
        <time>2010-12-19T14:50:43Z</time>
      </trkpt>
      <trkpt lat="45.06201" lon="5.64706">
        <ele>453.8</ele>
        <time>2010-12-19T14:50:46Z</time>
      </trkpt>
      <trkpt lat="45.06199" lon="5.64702">
        <ele>453.6</ele>
        <time>2010-12-19T14:50:47Z</time>
      </trkpt>
      <trkpt lat="45.06196" lon="5.64696">
        <ele>453.8</ele>
        <time>2010-12-19T14:50:49Z</time>
      </trkpt>
      <trkpt lat="45.06195" lon="5.64691">
        <ele>454</ele>
        <time>2010-12-19T14:50:51Z</time>
      </trkpt>
      <trkpt lat="45.06193" lon="5.6468">
        <ele>454.8</ele>
        <time>2010-12-19T14:50:54Z</time>
      </trkpt>
      <trkpt lat="45.0619" lon="5.64665">
        <ele>455.6</ele>
        <time>2010-12-19T14:50:58Z</time>
      </trkpt>
      <trkpt lat="45.06187" lon="5.64662">
        <ele>455.8</ele>
        <time>2010-12-19T14:51:00Z</time>
      </trkpt>
      <trkpt lat="45.06183" lon="5.64659">
        <ele>456.4</ele>
        <time>2010-12-19T14:51:02Z</time>
      </trkpt>
      <trkpt lat="45.06182" lon="5.64657">
        <ele>456.8</ele>
        <time>2010-12-19T14:51:03Z</time>
      </trkpt>
      <trkpt lat="45.06181" lon="5.64655">
        <ele>456.8</ele>
        <time>2010-12-19T14:51:04Z</time>
      </trkpt>
      <trkpt lat="45.0618" lon="5.64651">
        <ele>457.2</ele>
        <time>2010-12-19T14:51:06Z</time>
      </trkpt>
      <trkpt lat="45.06178" lon="5.64648">
        <ele>457.4</ele>
        <time>2010-12-19T14:51:08Z</time>
      </trkpt>
      <trkpt lat="45.06177" lon="5.64643">
        <ele>458</ele>
        <time>2010-12-19T14:51:10Z</time>
      </trkpt>
      <trkpt lat="45.06175" lon="5.64642">
        <ele>457.8</ele>
        <time>2010-12-19T14:51:11Z</time>
      </trkpt>
      <trkpt lat="45.0617" lon="5.6464">
        <ele>458</ele>
        <time>2010-12-19T14:51:13Z</time>
      </trkpt>
      <trkpt lat="45.06162" lon="5.64636">
        <ele>458</ele>
        <time>2010-12-19T14:51:17Z</time>
      </trkpt>
      <trkpt lat="45.0616" lon="5.64635">
        <ele>457.8</ele>
        <time>2010-12-19T14:51:18Z</time>
      </trkpt>
      <trkpt lat="45.06157" lon="5.64627">
        <ele>457.8</ele>
        <time>2010-12-19T14:51:22Z</time>
      </trkpt>
      <trkpt lat="45.06158" lon="5.64624">
        <ele>458</ele>
        <time>2010-12-19T14:51:23Z</time>
      </trkpt>
      <trkpt lat="45.06152" lon="5.64617">
        <ele>458.4</ele>
        <time>2010-12-19T14:51:27Z</time>
      </trkpt>
      <trkpt lat="45.06151" lon="5.64615">
        <ele>458.4</ele>
        <time>2010-12-19T14:51:28Z</time>
      </trkpt>
      <trkpt lat="45.06147" lon="5.64607">
        <ele>459.2</ele>
        <time>2010-12-19T14:51:31Z</time>
      </trkpt>
      <trkpt lat="45.06145" lon="5.64604">
        <ele>459.4</ele>
        <time>2010-12-19T14:51:32Z</time>
      </trkpt>
      <trkpt lat="45.06137" lon="5.64595">
        <ele>460.4</ele>
        <time>2010-12-19T14:51:36Z</time>
      </trkpt>
      <trkpt lat="45.06136" lon="5.64593">
        <ele>460.8</ele>
        <time>2010-12-19T14:51:37Z</time>
      </trkpt>
      <trkpt lat="45.06133" lon="5.64584">
        <ele>462.6</ele>
        <time>2010-12-19T14:51:41Z</time>
      </trkpt>
      <trkpt lat="45.06128" lon="5.64572">
        <ele>465</ele>
        <time>2010-12-19T14:51:46Z</time>
      </trkpt>
      <trkpt lat="45.06129" lon="5.64569">
        <ele>465.6</ele>
        <time>2010-12-19T14:51:47Z</time>
      </trkpt>
      <trkpt lat="45.06131" lon="5.64561">
        <ele>466.8</ele>
        <time>2010-12-19T14:51:49Z</time>
      </trkpt>
      <trkpt lat="45.06132" lon="5.64553">
        <ele>468</ele>
        <time>2010-12-19T14:51:51Z</time>
      </trkpt>
      <trkpt lat="45.06138" lon="5.64535">
        <ele>471.2</ele>
        <time>2010-12-19T14:51:56Z</time>
      </trkpt>
      <trkpt lat="45.06139" lon="5.64522">
        <ele>472.8</ele>
        <time>2010-12-19T14:52:00Z</time>
      </trkpt>
      <trkpt lat="45.06138" lon="5.64508">
        <ele>474.4</ele>
        <time>2010-12-19T14:52:04Z</time>
      </trkpt>
      <trkpt lat="45.06137" lon="5.64503">
        <ele>474.6</ele>
        <time>2010-12-19T14:52:05Z</time>
      </trkpt>
      <trkpt lat="45.06138" lon="5.645">
        <ele>474.8</ele>
        <time>2010-12-19T14:52:06Z</time>
      </trkpt>
      <trkpt lat="45.06142" lon="5.64489">
        <ele>475</ele>
        <time>2010-12-19T14:52:09Z</time>
      </trkpt>
      <trkpt lat="45.06145" lon="5.64484">
        <ele>475.2</ele>
        <time>2010-12-19T14:52:11Z</time>
      </trkpt>
      <trkpt lat="45.06153" lon="5.64477">
        <ele>475.2</ele>
        <time>2010-12-19T14:52:15Z</time>
      </trkpt>
      <trkpt lat="45.06157" lon="5.64465">
        <ele>475.2</ele>
        <time>2010-12-19T14:52:19Z</time>
      </trkpt>
      <trkpt lat="45.06167" lon="5.64458">
        <ele>474.6</ele>
        <time>2010-12-19T14:52:24Z</time>
      </trkpt>
      <trkpt lat="45.06174" lon="5.64451">
        <ele>474.4</ele>
        <time>2010-12-19T14:52:27Z</time>
      </trkpt>
      <trkpt lat="45.06181" lon="5.64446">
        <ele>474.2</ele>
        <time>2010-12-19T14:52:30Z</time>
      </trkpt>
      <trkpt lat="45.06191" lon="5.64437">
        <ele>473.4</ele>
        <time>2010-12-19T14:52:35Z</time>
      </trkpt>
      <trkpt lat="45.06192" lon="5.64435">
        <ele>473.2</ele>
        <time>2010-12-19T14:52:36Z</time>
      </trkpt>
      <trkpt lat="45.06203" lon="5.6442">
        <ele>472.2</ele>
        <time>2010-12-19T14:52:42Z</time>
      </trkpt>
      <trkpt lat="45.06205" lon="5.64418">
        <ele>472</ele>
        <time>2010-12-19T14:52:43Z</time>
      </trkpt>
      <trkpt lat="45.06209" lon="5.64408">
        <ele>471.4</ele>
        <time>2010-12-19T14:52:46Z</time>
      </trkpt>
      <trkpt lat="45.06216" lon="5.64395">
        <ele>470.8</ele>
        <time>2010-12-19T14:52:50Z</time>
      </trkpt>
      <trkpt lat="45.06216" lon="5.64392">
        <ele>470.6</ele>
        <time>2010-12-19T14:52:51Z</time>
      </trkpt>
      <trkpt lat="45.06225" lon="5.64376">
        <ele>469.8</ele>
        <time>2010-12-19T14:52:56Z</time>
      </trkpt>
      <trkpt lat="45.06227" lon="5.64373">
        <ele>469.6</ele>
        <time>2010-12-19T14:52:57Z</time>
      </trkpt>
      <trkpt lat="45.06235" lon="5.64358">
        <ele>469</ele>
        <time>2010-12-19T14:53:01Z</time>
      </trkpt>
      <trkpt lat="45.06236" lon="5.64349">
        <ele>468.6</ele>
        <time>2010-12-19T14:53:03Z</time>
      </trkpt>
      <trkpt lat="45.06239" lon="5.64341">
        <ele>468.4</ele>
        <time>2010-12-19T14:53:05Z</time>
      </trkpt>
      <trkpt lat="45.0624" lon="5.64336">
        <ele>468.2</ele>
        <time>2010-12-19T14:53:07Z</time>
      </trkpt>
      <trkpt lat="45.06242" lon="5.64322">
        <ele>467.6</ele>
        <time>2010-12-19T14:53:09Z</time>
      </trkpt>
      <trkpt lat="45.06247" lon="5.64302">
        <ele>466.2</ele>
        <time>2010-12-19T14:53:14Z</time>
      </trkpt>
      <trkpt lat="45.06248" lon="5.64297">
        <ele>466</ele>
        <time>2010-12-19T14:53:15Z</time>
      </trkpt>
      <trkpt lat="45.06249" lon="5.64281">
        <ele>465.4</ele>
        <time>2010-12-19T14:53:18Z</time>
      </trkpt>
      <trkpt lat="45.06251" lon="5.64271">
        <ele>465</ele>
        <time>2010-12-19T14:53:20Z</time>
      </trkpt>
      <trkpt lat="45.06254" lon="5.64262">
        <ele>464.6</ele>
        <time>2010-12-19T14:53:22Z</time>
      </trkpt>
      <trkpt lat="45.06262" lon="5.64247">
        <ele>463.2</ele>
        <time>2010-12-19T14:53:27Z</time>
      </trkpt>
      <trkpt lat="45.0627" lon="5.64231">
        <ele>462</ele>
        <time>2010-12-19T14:53:32Z</time>
      </trkpt>
      <trkpt lat="45.06272" lon="5.64224">
        <ele>461.4</ele>
        <time>2010-12-19T14:53:34Z</time>
      </trkpt>
      <trkpt lat="45.06277" lon="5.64215">
        <ele>460.4</ele>
        <time>2010-12-19T14:53:37Z</time>
      </trkpt>
      <trkpt lat="45.06285" lon="5.64201">
        <ele>459.2</ele>
        <time>2010-12-19T14:53:41Z</time>
      </trkpt>
      <trkpt lat="45.06293" lon="5.64184">
        <ele>457.6</ele>
        <time>2010-12-19T14:53:46Z</time>
      </trkpt>
      <trkpt lat="45.06295" lon="5.64179">
        <ele>457.2</ele>
        <time>2010-12-19T14:53:47Z</time>
      </trkpt>
      <trkpt lat="45.06295" lon="5.64174">
        <ele>457</ele>
        <time>2010-12-19T14:53:48Z</time>
      </trkpt>
      <trkpt lat="45.06295" lon="5.64167">
        <ele>456.4</ele>
        <time>2010-12-19T14:53:50Z</time>
      </trkpt>
      <trkpt lat="45.063" lon="5.64155">
        <ele>454.8</ele>
        <time>2010-12-19T14:53:54Z</time>
      </trkpt>
      <trkpt lat="45.06307" lon="5.64142">
        <ele>453.4</ele>
        <time>2010-12-19T14:53:58Z</time>
      </trkpt>
      <trkpt lat="45.06312" lon="5.64135">
        <ele>452.2</ele>
        <time>2010-12-19T14:54:01Z</time>
      </trkpt>
      <trkpt lat="45.06312" lon="5.64133">
        <ele>451.8</ele>
        <time>2010-12-19T14:54:02Z</time>
      </trkpt>
      <trkpt lat="45.06313" lon="5.64132">
        <ele>451.4</ele>
        <time>2010-12-19T14:54:03Z</time>
      </trkpt>
      <trkpt lat="45.06313" lon="5.64129">
        <ele>448.6</ele>
        <time>2010-12-19T14:54:11Z</time>
      </trkpt>
      <trkpt lat="45.06312" lon="5.64124">
        <ele>446.8</ele>
        <time>2010-12-19T14:54:15Z</time>
      </trkpt>
      <trkpt lat="45.06312" lon="5.64119">
        <ele>446.2</ele>
        <time>2010-12-19T14:54:17Z</time>
      </trkpt>
      <trkpt lat="45.06315" lon="5.64113">
        <ele>444.6</ele>
        <time>2010-12-19T14:54:21Z</time>
      </trkpt>
      <trkpt lat="45.06316" lon="5.64108">
        <ele>443.4</ele>
        <time>2010-12-19T14:54:24Z</time>
      </trkpt>
      <trkpt lat="45.06318" lon="5.64105">
        <ele>442</ele>
        <time>2010-12-19T14:54:28Z</time>
      </trkpt>
      <trkpt lat="45.06319" lon="5.64104">
        <ele>441.6</ele>
        <time>2010-12-19T14:54:29Z</time>
      </trkpt>
      <trkpt lat="45.06325" lon="5.64102">
        <ele>439.8</ele>
        <time>2010-12-19T14:54:34Z</time>
      </trkpt>
      <trkpt lat="45.06327" lon="5.64102">
        <ele>439.4</ele>
        <time>2010-12-19T14:54:35Z</time>
      </trkpt>
      <trkpt lat="45.06329" lon="5.64103">
        <ele>438.8</ele>
        <time>2010-12-19T14:54:37Z</time>
      </trkpt>
      <trkpt lat="45.06333" lon="5.64104">
        <ele>437.8</ele>
        <time>2010-12-19T14:54:40Z</time>
      </trkpt>
      <trkpt lat="45.06334" lon="5.64103">
        <ele>437.2</ele>
        <time>2010-12-19T14:54:42Z</time>
      </trkpt>
      <trkpt lat="45.06334" lon="5.64102">
        <ele>436.6</ele>
        <time>2010-12-19T14:54:44Z</time>
      </trkpt>
      <trkpt lat="45.06334" lon="5.641">
        <ele>436.4</ele>
        <time>2010-12-19T14:54:45Z</time>
      </trkpt>
      <trkpt lat="45.06334" lon="5.64096">
        <ele>435.4</ele>
        <time>2010-12-19T14:54:48Z</time>
      </trkpt>
      <trkpt lat="45.06333" lon="5.64095">
        <ele>435.2</ele>
        <time>2010-12-19T14:54:49Z</time>
      </trkpt>
      <trkpt lat="45.06332" lon="5.6409">
        <ele>433.8</ele>
        <time>2010-12-19T14:54:53Z</time>
      </trkpt>
      <trkpt lat="45.06334" lon="5.64085">
        <ele>433.2</ele>
        <time>2010-12-19T14:54:55Z</time>
      </trkpt>
      <trkpt lat="45.06335" lon="5.64079">
        <ele>432.6</ele>
        <time>2010-12-19T14:54:57Z</time>
      </trkpt>
      <trkpt lat="45.06334" lon="5.64075">
        <ele>432</ele>
        <time>2010-12-19T14:54:59Z</time>
      </trkpt>
      <trkpt lat="45.06332" lon="5.64073">
        <ele>431.2</ele>
        <time>2010-12-19T14:55:01Z</time>
      </trkpt>
      <trkpt lat="45.06332" lon="5.6406">
        <ele>429.4</ele>
        <time>2010-12-19T14:55:07Z</time>
      </trkpt>
      <trkpt lat="45.06332" lon="5.64058">
        <ele>429.2</ele>
        <time>2010-12-19T14:55:08Z</time>
      </trkpt>
      <trkpt lat="45.06333" lon="5.64053">
        <ele>428.2</ele>
        <time>2010-12-19T14:55:12Z</time>
      </trkpt>
      <trkpt lat="45.06333" lon="5.64052">
        <ele>427.8</ele>
        <time>2010-12-19T14:55:13Z</time>
      </trkpt>
      <trkpt lat="45.06334" lon="5.64048">
        <ele>427</ele>
        <time>2010-12-19T14:55:16Z</time>
      </trkpt>
      <trkpt lat="45.06334" lon="5.64045">
        <ele>426.2</ele>
        <time>2010-12-19T14:55:19Z</time>
      </trkpt>
      <trkpt lat="45.06336" lon="5.64044">
        <ele>425.6</ele>
        <time>2010-12-19T14:55:21Z</time>
      </trkpt>
      <trkpt lat="45.0634" lon="5.64038">
        <ele>424.6</ele>
        <time>2010-12-19T14:55:25Z</time>
      </trkpt>
      <trkpt lat="45.06341" lon="5.64037">
        <ele>424.4</ele>
        <time>2010-12-19T14:55:26Z</time>
      </trkpt>
      <trkpt lat="45.06338" lon="5.64031">
        <ele>423.6</ele>
        <time>2010-12-19T14:55:29Z</time>
      </trkpt>
      <trkpt lat="45.06339" lon="5.64026">
        <ele>422.8</ele>
        <time>2010-12-19T14:55:32Z</time>
      </trkpt>
      <trkpt lat="45.06337" lon="5.6402">
        <ele>421.2</ele>
        <time>2010-12-19T14:55:38Z</time>
      </trkpt>
      <trkpt lat="45.06336" lon="5.64016">
        <ele>420.4</ele>
        <time>2010-12-19T14:55:42Z</time>
      </trkpt>
      <trkpt lat="45.06335" lon="5.64014">
        <ele>420</ele>
        <time>2010-12-19T14:55:43Z</time>
      </trkpt>
      <trkpt lat="45.06334" lon="5.64012">
        <ele>419.8</ele>
        <time>2010-12-19T14:55:44Z</time>
      </trkpt>
      <trkpt lat="45.06333" lon="5.6401">
        <ele>419.4</ele>
        <time>2010-12-19T14:55:46Z</time>
      </trkpt>
      <trkpt lat="45.06333" lon="5.64009">
        <ele>419.2</ele>
        <time>2010-12-19T14:55:47Z</time>
      </trkpt>
      <trkpt lat="45.06331" lon="5.64004">
        <ele>418.6</ele>
        <time>2010-12-19T14:55:50Z</time>
      </trkpt>
      <trkpt lat="45.0633" lon="5.63995">
        <ele>417.6</ele>
        <time>2010-12-19T14:55:55Z</time>
      </trkpt>
      <trkpt lat="45.0633" lon="5.63991">
        <ele>417.2</ele>
        <time>2010-12-19T14:55:57Z</time>
      </trkpt>
      <trkpt lat="45.0633" lon="5.63987">
        <ele>417</ele>
        <time>2010-12-19T14:55:59Z</time>
      </trkpt>
      <trkpt lat="45.06332" lon="5.63974">
        <ele>416</ele>
        <time>2010-12-19T14:56:05Z</time>
      </trkpt>
      <trkpt lat="45.06335" lon="5.63963">
        <ele>415.4</ele>
        <time>2010-12-19T14:56:11Z</time>
      </trkpt>
      <trkpt lat="45.06336" lon="5.63961">
        <ele>415.2</ele>
        <time>2010-12-19T14:56:12Z</time>
      </trkpt>
      <trkpt lat="45.06337" lon="5.63959">
        <ele>415.2</ele>
        <time>2010-12-19T14:56:13Z</time>
      </trkpt>
      <trkpt lat="45.06339" lon="5.63954">
        <ele>414.8</ele>
        <time>2010-12-19T14:56:16Z</time>
      </trkpt>
      <trkpt lat="45.06338" lon="5.63949">
        <ele>414.4</ele>
        <time>2010-12-19T14:56:19Z</time>
      </trkpt>
      <trkpt lat="45.0634" lon="5.63945">
        <ele>414.2</ele>
        <time>2010-12-19T14:56:22Z</time>
      </trkpt>
      <trkpt lat="45.0634" lon="5.63941">
        <ele>414</ele>
        <time>2010-12-19T14:56:24Z</time>
      </trkpt>
      <trkpt lat="45.0634" lon="5.63936">
        <ele>413.4</ele>
        <time>2010-12-19T14:56:28Z</time>
      </trkpt>
      <trkpt lat="45.0634" lon="5.63934">
        <ele>413.4</ele>
        <time>2010-12-19T14:56:29Z</time>
      </trkpt>
      <trkpt lat="45.0634" lon="5.63928">
        <ele>412.8</ele>
        <time>2010-12-19T14:56:33Z</time>
      </trkpt>
      <trkpt lat="45.0634" lon="5.63925">
        <ele>412.4</ele>
        <time>2010-12-19T14:56:35Z</time>
      </trkpt>
      <trkpt lat="45.06341" lon="5.63916">
        <ele>411.6</ele>
        <time>2010-12-19T14:56:40Z</time>
      </trkpt>
      <trkpt lat="45.06342" lon="5.63911">
        <ele>411</ele>
        <time>2010-12-19T14:56:44Z</time>
      </trkpt>
      <trkpt lat="45.06342" lon="5.63909">
        <ele>410.8</ele>
        <time>2010-12-19T14:56:45Z</time>
      </trkpt>
      <trkpt lat="45.06342" lon="5.63906">
        <ele>410</ele>
        <time>2010-12-19T14:56:50Z</time>
      </trkpt>
      <trkpt lat="45.06344" lon="5.63903">
        <ele>409</ele>
        <time>2010-12-19T14:56:56Z</time>
      </trkpt>
      <trkpt lat="45.06342" lon="5.63902">
        <ele>408.6</ele>
        <time>2010-12-19T14:57:00Z</time>
      </trkpt>
      <trkpt lat="45.0634" lon="5.63901">
        <ele>408.2</ele>
        <time>2010-12-19T14:57:02Z</time>
      </trkpt>
      <trkpt lat="45.06339" lon="5.63899">
        <ele>407.8</ele>
        <time>2010-12-19T14:57:05Z</time>
      </trkpt>
      <trkpt lat="45.06339" lon="5.63894">
        <ele>407</ele>
        <time>2010-12-19T14:57:11Z</time>
      </trkpt>
      <trkpt lat="45.06341" lon="5.63888">
        <ele>406.6</ele>
        <time>2010-12-19T14:57:15Z</time>
      </trkpt>
      <trkpt lat="45.06341" lon="5.63886">
        <ele>406.4</ele>
        <time>2010-12-19T14:57:16Z</time>
      </trkpt>
      <trkpt lat="45.06341" lon="5.63884">
        <ele>406.4</ele>
        <time>2010-12-19T14:57:17Z</time>
      </trkpt>
      <trkpt lat="45.06341" lon="5.63873">
        <ele>405.6</ele>
        <time>2010-12-19T14:57:23Z</time>
      </trkpt>
      <trkpt lat="45.06343" lon="5.63866">
        <ele>405.2</ele>
        <time>2010-12-19T14:57:27Z</time>
      </trkpt>
      <trkpt lat="45.06343" lon="5.63862">
        <ele>405</ele>
        <time>2010-12-19T14:57:29Z</time>
      </trkpt>
      <trkpt lat="45.06344" lon="5.63856">
        <ele>404.8</ele>
        <time>2010-12-19T14:57:32Z</time>
      </trkpt>
      <trkpt lat="45.06345" lon="5.63852">
        <ele>404.6</ele>
        <time>2010-12-19T14:57:34Z</time>
      </trkpt>
      <trkpt lat="45.06345" lon="5.63842">
        <ele>404.2</ele>
        <time>2010-12-19T14:57:39Z</time>
      </trkpt>
      <trkpt lat="45.06347" lon="5.63837">
        <ele>404</ele>
        <time>2010-12-19T14:57:42Z</time>
      </trkpt>
      <trkpt lat="45.06347" lon="5.63835">
        <ele>404</ele>
        <time>2010-12-19T14:57:43Z</time>
      </trkpt>
      <trkpt lat="45.06347" lon="5.63834">
        <ele>404</ele>
        <time>2010-12-19T14:57:44Z</time>
      </trkpt>
      <trkpt lat="45.0635" lon="5.63826">
        <ele>403.6</ele>
        <time>2010-12-19T14:57:49Z</time>
      </trkpt>
      <trkpt lat="45.06351" lon="5.63824">
        <ele>403.6</ele>
        <time>2010-12-19T14:57:50Z</time>
      </trkpt>
      <trkpt lat="45.06351" lon="5.63823">
        <ele>403.4</ele>
        <time>2010-12-19T14:57:51Z</time>
      </trkpt>
      <trkpt lat="45.06352" lon="5.63819">
        <ele>403.2</ele>
        <time>2010-12-19T14:57:53Z</time>
      </trkpt>
      <trkpt lat="45.06352" lon="5.63812">
        <ele>403</ele>
        <time>2010-12-19T14:57:58Z</time>
      </trkpt>
      <trkpt lat="45.06352" lon="5.63811">
        <ele>403</ele>
        <time>2010-12-19T14:57:59Z</time>
      </trkpt>
      <trkpt lat="45.06351" lon="5.63808">
        <ele>402.8</ele>
        <time>2010-12-19T14:58:01Z</time>
      </trkpt>
      <trkpt lat="45.06352" lon="5.63803">
        <ele>402.6</ele>
        <time>2010-12-19T14:58:04Z</time>
      </trkpt>
      <trkpt lat="45.06351" lon="5.638">
        <ele>402.6</ele>
        <time>2010-12-19T14:58:06Z</time>
      </trkpt>
      <trkpt lat="45.06352" lon="5.63797">
        <ele>402.4</ele>
        <time>2010-12-19T14:58:08Z</time>
      </trkpt>
      <trkpt lat="45.06351" lon="5.63794">
        <ele>402.4</ele>
        <time>2010-12-19T14:58:11Z</time>
      </trkpt>
      <trkpt lat="45.0635" lon="5.63792">
        <ele>402.4</ele>
        <time>2010-12-19T14:58:12Z</time>
      </trkpt>
      <trkpt lat="45.06348" lon="5.63789">
        <ele>402.2</ele>
        <time>2010-12-19T14:58:14Z</time>
      </trkpt>
      <trkpt lat="45.06348" lon="5.63787">
        <ele>402.2</ele>
        <time>2010-12-19T14:58:16Z</time>
      </trkpt>
      <trkpt lat="45.06346" lon="5.63785">
        <ele>402.2</ele>
        <time>2010-12-19T14:58:17Z</time>
      </trkpt>
      <trkpt lat="45.06343" lon="5.63775">
        <ele>402</ele>
        <time>2010-12-19T14:58:24Z</time>
      </trkpt>
      <trkpt lat="45.06343" lon="5.63774">
        <ele>402</ele>
        <time>2010-12-19T14:58:25Z</time>
      </trkpt>
      <trkpt lat="45.06341" lon="5.6377">
        <ele>402</ele>
        <time>2010-12-19T14:58:28Z</time>
      </trkpt>
      <trkpt lat="45.0634" lon="5.63766">
        <ele>401.8</ele>
        <time>2010-12-19T14:58:31Z</time>
      </trkpt>
      <trkpt lat="45.06338" lon="5.63764">
        <ele>401.8</ele>
        <time>2010-12-19T14:58:33Z</time>
      </trkpt>
      <trkpt lat="45.06337" lon="5.63762">
        <ele>401.8</ele>
        <time>2010-12-19T14:58:35Z</time>
      </trkpt>
      <trkpt lat="45.06334" lon="5.63754">
        <ele>401.8</ele>
        <time>2010-12-19T14:58:40Z</time>
      </trkpt>
      <trkpt lat="45.06333" lon="5.63749">
        <ele>401.8</ele>
        <time>2010-12-19T14:58:43Z</time>
      </trkpt>
      <trkpt lat="45.06331" lon="5.63741">
        <ele>401.8</ele>
        <time>2010-12-19T14:58:48Z</time>
      </trkpt>
      <trkpt lat="45.0633" lon="5.6374">
        <ele>401.8</ele>
        <time>2010-12-19T14:58:49Z</time>
      </trkpt>
      <trkpt lat="45.06329" lon="5.63738">
        <ele>401.8</ele>
        <time>2010-12-19T14:58:50Z</time>
      </trkpt>
      <trkpt lat="45.06327" lon="5.63735">
        <ele>401.8</ele>
        <time>2010-12-19T14:58:53Z</time>
      </trkpt>
      <trkpt lat="45.06326" lon="5.63726">
        <ele>402</ele>
        <time>2010-12-19T14:58:58Z</time>
      </trkpt>
      <trkpt lat="45.06326" lon="5.63726">
        <ele>402.2</ele>
        <time>2010-12-19T14:58:59Z</time>
      </trkpt>
      <trkpt lat="45.06326" lon="5.63725">
        <ele>402.4</ele>
        <time>2010-12-19T14:59:00Z</time>
      </trkpt>
      <trkpt lat="45.06321" lon="5.63718">
        <ele>402.8</ele>
        <time>2010-12-19T14:59:03Z</time>
      </trkpt>
      <trkpt lat="45.0632" lon="5.63716">
        <ele>402.8</ele>
        <time>2010-12-19T14:59:04Z</time>
      </trkpt>
      <trkpt lat="45.06319" lon="5.63711">
        <ele>403.2</ele>
        <time>2010-12-19T14:59:07Z</time>
      </trkpt>
      <trkpt lat="45.06318" lon="5.6371">
        <ele>403.2</ele>
        <time>2010-12-19T14:59:08Z</time>
      </trkpt>
      <trkpt lat="45.06317" lon="5.63705">
        <ele>403.6</ele>
        <time>2010-12-19T14:59:11Z</time>
      </trkpt>
      <trkpt lat="45.06317" lon="5.63703">
        <ele>403.6</ele>
        <time>2010-12-19T14:59:12Z</time>
      </trkpt>
      <trkpt lat="45.06317" lon="5.63695">
        <ele>403.6</ele>
        <time>2010-12-19T14:59:16Z</time>
      </trkpt>
      <trkpt lat="45.06319" lon="5.63692">
        <ele>403.8</ele>
        <time>2010-12-19T14:59:17Z</time>
      </trkpt>
      <trkpt lat="45.06319" lon="5.63684">
        <ele>404</ele>
        <time>2010-12-19T14:59:21Z</time>
      </trkpt>
      <trkpt lat="45.06313" lon="5.6367">
        <ele>404</ele>
        <time>2010-12-19T14:59:26Z</time>
      </trkpt>
      <trkpt lat="45.06312" lon="5.63667">
        <ele>404</ele>
        <time>2010-12-19T14:59:27Z</time>
      </trkpt>
      <trkpt lat="45.06304" lon="5.63657">
        <ele>404</ele>
        <time>2010-12-19T14:59:31Z</time>
      </trkpt>
      <trkpt lat="45.06299" lon="5.63649">
        <ele>404</ele>
        <time>2010-12-19T14:59:34Z</time>
      </trkpt>
      <trkpt lat="45.06297" lon="5.63647">
        <ele>404</ele>
        <time>2010-12-19T14:59:35Z</time>
      </trkpt>
      <trkpt lat="45.06289" lon="5.63636">
        <ele>404</ele>
        <time>2010-12-19T14:59:40Z</time>
      </trkpt>
      <trkpt lat="45.06284" lon="5.63631">
        <ele>404.4</ele>
        <time>2010-12-19T14:59:42Z</time>
      </trkpt>
      <trkpt lat="45.06279" lon="5.63625">
        <ele>404.6</ele>
        <time>2010-12-19T14:59:44Z</time>
      </trkpt>
      <trkpt lat="45.06272" lon="5.63615">
        <ele>405.2</ele>
        <time>2010-12-19T14:59:47Z</time>
      </trkpt>
      <trkpt lat="45.0627" lon="5.63612">
        <ele>405.4</ele>
        <time>2010-12-19T14:59:48Z</time>
      </trkpt>
      <trkpt lat="45.06267" lon="5.63602">
        <ele>407.2</ele>
        <time>2010-12-19T14:59:52Z</time>
      </trkpt>
      <trkpt lat="45.06261" lon="5.6359">
        <ele>410</ele>
        <time>2010-12-19T14:59:58Z</time>
      </trkpt>
      <trkpt lat="45.06259" lon="5.63587">
        <ele>410.6</ele>
        <time>2010-12-19T14:59:59Z</time>
      </trkpt>
      <trkpt lat="45.06255" lon="5.63571">
        <ele>414.8</ele>
        <time>2010-12-19T15:00:04Z</time>
      </trkpt>
      <trkpt lat="45.06252" lon="5.63561">
        <ele>417.4</ele>
        <time>2010-12-19T15:00:07Z</time>
      </trkpt>
      <trkpt lat="45.06251" lon="5.63554">
        <ele>419.4</ele>
        <time>2010-12-19T15:00:09Z</time>
      </trkpt>
      <trkpt lat="45.06248" lon="5.6354">
        <ele>423.2</ele>
        <time>2010-12-19T15:00:14Z</time>
      </trkpt>
      <trkpt lat="45.06248" lon="5.63534">
        <ele>425.4</ele>
        <time>2010-12-19T15:00:16Z</time>
      </trkpt>
      <trkpt lat="45.06247" lon="5.63531">
        <ele>426.4</ele>
        <time>2010-12-19T15:00:17Z</time>
      </trkpt>
      <trkpt lat="45.06246" lon="5.63526">
        <ele>428</ele>
        <time>2010-12-19T15:00:19Z</time>
      </trkpt>
      <trkpt lat="45.06243" lon="5.63516">
        <ele>430.6</ele>
        <time>2010-12-19T15:00:22Z</time>
      </trkpt>
      <trkpt lat="45.0624" lon="5.6351">
        <ele>432.2</ele>
        <time>2010-12-19T15:00:24Z</time>
      </trkpt>
      <trkpt lat="45.06235" lon="5.63498">
        <ele>434.8</ele>
        <time>2010-12-19T15:00:28Z</time>
      </trkpt>
      <trkpt lat="45.06236" lon="5.63496">
        <ele>435.4</ele>
        <time>2010-12-19T15:00:29Z</time>
      </trkpt>
      <trkpt lat="45.06235" lon="5.63487">
        <ele>437</ele>
        <time>2010-12-19T15:00:32Z</time>
      </trkpt>
      <trkpt lat="45.06235" lon="5.63484">
        <ele>437.6</ele>
        <time>2010-12-19T15:00:33Z</time>
      </trkpt>
      <trkpt lat="45.06233" lon="5.63475">
        <ele>438.4</ele>
        <time>2010-12-19T15:00:36Z</time>
      </trkpt>
      <trkpt lat="45.06233" lon="5.63465">
        <ele>439.2</ele>
        <time>2010-12-19T15:00:39Z</time>
      </trkpt>
      <trkpt lat="45.06234" lon="5.63459">
        <ele>439.8</ele>
        <time>2010-12-19T15:00:41Z</time>
      </trkpt>
      <trkpt lat="45.06233" lon="5.63455">
        <ele>439.8</ele>
        <time>2010-12-19T15:00:42Z</time>
      </trkpt>
      <trkpt lat="45.06228" lon="5.6345">
        <ele>439.4</ele>
        <time>2010-12-19T15:00:44Z</time>
      </trkpt>
      <trkpt lat="45.06221" lon="5.63435">
        <ele>438.2</ele>
        <time>2010-12-19T15:00:50Z</time>
      </trkpt>
      <trkpt lat="45.06219" lon="5.63433">
        <ele>438</ele>
        <time>2010-12-19T15:00:51Z</time>
      </trkpt>
      <trkpt lat="45.06213" lon="5.63421">
        <ele>436.8</ele>
        <time>2010-12-19T15:00:56Z</time>
      </trkpt>
      <trkpt lat="45.06207" lon="5.63411">
        <ele>436</ele>
        <time>2010-12-19T15:01:00Z</time>
      </trkpt>
      <trkpt lat="45.06204" lon="5.63406">
        <ele>435.6</ele>
        <time>2010-12-19T15:01:02Z</time>
      </trkpt>
      <trkpt lat="45.06197" lon="5.63395">
        <ele>434.6</ele>
        <time>2010-12-19T15:01:08Z</time>
      </trkpt>
      <trkpt lat="45.06194" lon="5.63391">
        <ele>434.2</ele>
        <time>2010-12-19T15:01:10Z</time>
      </trkpt>
      <trkpt lat="45.06187" lon="5.63383">
        <ele>433.8</ele>
        <time>2010-12-19T15:01:14Z</time>
      </trkpt>
      <trkpt lat="45.06181" lon="5.63377">
        <ele>433.2</ele>
        <time>2010-12-19T15:01:18Z</time>
      </trkpt>
      <trkpt lat="45.06179" lon="5.63375">
        <ele>433</ele>
        <time>2010-12-19T15:01:19Z</time>
      </trkpt>
      <trkpt lat="45.0617" lon="5.63365">
        <ele>432.8</ele>
        <time>2010-12-19T15:01:24Z</time>
      </trkpt>
      <trkpt lat="45.06166" lon="5.63356">
        <ele>432.6</ele>
        <time>2010-12-19T15:01:28Z</time>
      </trkpt>
      <trkpt lat="45.06163" lon="5.63351">
        <ele>432.6</ele>
        <time>2010-12-19T15:01:30Z</time>
      </trkpt>
      <trkpt lat="45.06154" lon="5.63342">
        <ele>433</ele>
        <time>2010-12-19T15:01:35Z</time>
      </trkpt>
      <trkpt lat="45.06153" lon="5.63339">
        <ele>433</ele>
        <time>2010-12-19T15:01:36Z</time>
      </trkpt>
      <trkpt lat="45.06148" lon="5.6333">
        <ele>433.6</ele>
        <time>2010-12-19T15:01:39Z</time>
      </trkpt>
      <trkpt lat="45.06147" lon="5.63328">
        <ele>433.8</ele>
        <time>2010-12-19T15:01:40Z</time>
      </trkpt>
      <trkpt lat="45.06144" lon="5.63316">
        <ele>435</ele>
        <time>2010-12-19T15:01:44Z</time>
      </trkpt>
      <trkpt lat="45.06139" lon="5.63307">
        <ele>435.2</ele>
        <time>2010-12-19T15:01:48Z</time>
      </trkpt>
      <trkpt lat="45.06138" lon="5.63305">
        <ele>435.2</ele>
        <time>2010-12-19T15:01:49Z</time>
      </trkpt>
      <trkpt lat="45.06135" lon="5.63297">
        <ele>435.4</ele>
        <time>2010-12-19T15:01:53Z</time>
      </trkpt>
      <trkpt lat="45.06134" lon="5.63294">
        <ele>435.2</ele>
        <time>2010-12-19T15:01:54Z</time>
      </trkpt>
      <trkpt lat="45.06132" lon="5.63285">
        <ele>435.2</ele>
        <time>2010-12-19T15:01:58Z</time>
      </trkpt>
      <trkpt lat="45.06125" lon="5.63272">
        <ele>435.2</ele>
        <time>2010-12-19T15:02:04Z</time>
      </trkpt>
      <trkpt lat="45.06124" lon="5.63271">
        <ele>435.2</ele>
        <time>2010-12-19T15:02:05Z</time>
      </trkpt>
      <trkpt lat="45.06122" lon="5.63266">
        <ele>435.2</ele>
        <time>2010-12-19T15:02:08Z</time>
      </trkpt>
      <trkpt lat="45.06121" lon="5.63264">
        <ele>435.4</ele>
        <time>2010-12-19T15:02:10Z</time>
      </trkpt>
      <trkpt lat="45.06117" lon="5.63262">
        <ele>435.6</ele>
        <time>2010-12-19T15:02:16Z</time>
      </trkpt>
      <trkpt lat="45.06116" lon="5.63262">
        <ele>435.6</ele>
        <time>2010-12-19T15:02:17Z</time>
      </trkpt>
      <trkpt lat="45.06108" lon="5.63258">
        <ele>436.4</ele>
        <time>2010-12-19T15:02:21Z</time>
      </trkpt>
      <trkpt lat="45.06106" lon="5.63258">
        <ele>436.6</ele>
        <time>2010-12-19T15:02:22Z</time>
      </trkpt>
      <trkpt lat="45.06104" lon="5.63258">
        <ele>436.8</ele>
        <time>2010-12-19T15:02:23Z</time>
      </trkpt>
      <trkpt lat="45.06099" lon="5.63259">
        <ele>438</ele>
        <time>2010-12-19T15:02:27Z</time>
      </trkpt>
      <trkpt lat="45.06093" lon="5.63259">
        <ele>440.2</ele>
        <time>2010-12-19T15:02:33Z</time>
      </trkpt>
      <trkpt lat="45.06092" lon="5.63259">
        <ele>440.6</ele>
        <time>2010-12-19T15:02:34Z</time>
      </trkpt>
      <trkpt lat="45.06091" lon="5.6326">
        <ele>441</ele>
        <time>2010-12-19T15:02:35Z</time>
      </trkpt>
      <trkpt lat="45.06089" lon="5.6326">
        <ele>441.8</ele>
        <time>2010-12-19T15:02:37Z</time>
      </trkpt>
      <trkpt lat="45.06088" lon="5.6326">
        <ele>442.8</ele>
        <time>2010-12-19T15:02:39Z</time>
      </trkpt>
      <trkpt lat="45.06086" lon="5.6326">
        <ele>443.6</ele>
        <time>2010-12-19T15:02:41Z</time>
      </trkpt>
      <trkpt lat="45.06085" lon="5.6326">
        <ele>444.2</ele>
        <time>2010-12-19T15:02:42Z</time>
      </trkpt>
      <trkpt lat="45.06084" lon="5.63259">
        <ele>444.8</ele>
        <time>2010-12-19T15:02:43Z</time>
      </trkpt>
      <trkpt lat="45.06082" lon="5.63257">
        <ele>446.8</ele>
        <time>2010-12-19T15:02:47Z</time>
      </trkpt>
      <trkpt lat="45.06076" lon="5.63254">
        <ele>448.8</ele>
        <time>2010-12-19T15:02:51Z</time>
      </trkpt>
      <trkpt lat="45.06073" lon="5.63251">
        <ele>449.8</ele>
        <time>2010-12-19T15:02:54Z</time>
      </trkpt>
      <trkpt lat="45.06072" lon="5.63249">
        <ele>450.2</ele>
        <time>2010-12-19T15:02:55Z</time>
      </trkpt>
      <trkpt lat="45.06069" lon="5.63247">
        <ele>451.2</ele>
        <time>2010-12-19T15:02:57Z</time>
      </trkpt>
      <trkpt lat="45.06065" lon="5.63243">
        <ele>452.4</ele>
        <time>2010-12-19T15:03:00Z</time>
      </trkpt>
      <trkpt lat="45.06058" lon="5.63234">
        <ele>454</ele>
        <time>2010-12-19T15:03:05Z</time>
      </trkpt>
      <trkpt lat="45.06056" lon="5.63232">
        <ele>454.2</ele>
        <time>2010-12-19T15:03:06Z</time>
      </trkpt>
      <trkpt lat="45.06055" lon="5.63231">
        <ele>454.6</ele>
        <time>2010-12-19T15:03:07Z</time>
      </trkpt>
      <trkpt lat="45.06051" lon="5.63226">
        <ele>455.2</ele>
        <time>2010-12-19T15:03:10Z</time>
      </trkpt>
      <trkpt lat="45.0605" lon="5.63225">
        <ele>455.4</ele>
        <time>2010-12-19T15:03:11Z</time>
      </trkpt>
      <trkpt lat="45.06046" lon="5.63221">
        <ele>456</ele>
        <time>2010-12-19T15:03:15Z</time>
      </trkpt>
      <trkpt lat="45.0604" lon="5.63214">
        <ele>456.4</ele>
        <time>2010-12-19T15:03:19Z</time>
      </trkpt>
      <trkpt lat="45.06036" lon="5.6321">
        <ele>456.6</ele>
        <time>2010-12-19T15:03:23Z</time>
      </trkpt>
      <trkpt lat="45.06033" lon="5.63205">
        <ele>457</ele>
        <time>2010-12-19T15:03:27Z</time>
      </trkpt>
      <trkpt lat="45.0603" lon="5.63199">
        <ele>457.4</ele>
        <time>2010-12-19T15:03:31Z</time>
      </trkpt>
      <trkpt lat="45.06028" lon="5.63195">
        <ele>457.6</ele>
        <time>2010-12-19T15:03:33Z</time>
      </trkpt>
      <trkpt lat="45.06018" lon="5.63186">
        <ele>458.2</ele>
        <time>2010-12-19T15:03:41Z</time>
      </trkpt>
      <trkpt lat="45.06016" lon="5.6318">
        <ele>458.6</ele>
        <time>2010-12-19T15:03:45Z</time>
      </trkpt>
      <trkpt lat="45.06015" lon="5.63179">
        <ele>458.6</ele>
        <time>2010-12-19T15:03:46Z</time>
      </trkpt>
      <trkpt lat="45.06014" lon="5.63177">
        <ele>458.8</ele>
        <time>2010-12-19T15:03:47Z</time>
      </trkpt>
      <trkpt lat="45.0601" lon="5.63172">
        <ele>459.4</ele>
        <time>2010-12-19T15:03:51Z</time>
      </trkpt>
      <trkpt lat="45.06009" lon="5.63168">
        <ele>459.8</ele>
        <time>2010-12-19T15:03:53Z</time>
      </trkpt>
      <trkpt lat="45.06004" lon="5.63162">
        <ele>460.4</ele>
        <time>2010-12-19T15:03:57Z</time>
      </trkpt>
      <trkpt lat="45.06002" lon="5.63157">
        <ele>461.4</ele>
        <time>2010-12-19T15:04:01Z</time>
      </trkpt>
      <trkpt lat="45.06002" lon="5.63155">
        <ele>462</ele>
        <time>2010-12-19T15:04:03Z</time>
      </trkpt>
      <trkpt lat="45.06001" lon="5.63154">
        <ele>462.4</ele>
        <time>2010-12-19T15:04:04Z</time>
      </trkpt>
      <trkpt lat="45.06" lon="5.63149">
        <ele>464.2</ele>
        <time>2010-12-19T15:04:09Z</time>
      </trkpt>
      <trkpt lat="45.05999" lon="5.63144">
        <ele>466.2</ele>
        <time>2010-12-19T15:04:14Z</time>
      </trkpt>
      <trkpt lat="45.05998" lon="5.63142">
        <ele>466.6</ele>
        <time>2010-12-19T15:04:15Z</time>
      </trkpt>
      <trkpt lat="45.05995" lon="5.63138">
        <ele>468</ele>
        <time>2010-12-19T15:04:19Z</time>
      </trkpt>
      <trkpt lat="45.05994" lon="5.63135">
        <ele>469.2</ele>
        <time>2010-12-19T15:04:21Z</time>
      </trkpt>
      <trkpt lat="45.05993" lon="5.63133">
        <ele>469.8</ele>
        <time>2010-12-19T15:04:23Z</time>
      </trkpt>
      <trkpt lat="45.05992" lon="5.6313">
        <ele>470.8</ele>
        <time>2010-12-19T15:04:25Z</time>
      </trkpt>
      <trkpt lat="45.05991" lon="5.63129">
        <ele>471.2</ele>
        <time>2010-12-19T15:04:26Z</time>
      </trkpt>
      <trkpt lat="45.0599" lon="5.63127">
        <ele>471.6</ele>
        <time>2010-12-19T15:04:27Z</time>
      </trkpt>
      <trkpt lat="45.05988" lon="5.63125">
        <ele>472.4</ele>
        <time>2010-12-19T15:04:29Z</time>
      </trkpt>
      <trkpt lat="45.05985" lon="5.6312">
        <ele>473.8</ele>
        <time>2010-12-19T15:04:32Z</time>
      </trkpt>
      <trkpt lat="45.05983" lon="5.63117">
        <ele>475.4</ele>
        <time>2010-12-19T15:04:36Z</time>
      </trkpt>
      <trkpt lat="45.05983" lon="5.63116">
        <ele>475.8</ele>
        <time>2010-12-19T15:04:37Z</time>
      </trkpt>
      <trkpt lat="45.05982" lon="5.63115">
        <ele>476.2</ele>
        <time>2010-12-19T15:04:38Z</time>
      </trkpt>
      <trkpt lat="45.05979" lon="5.6311">
        <ele>478.6</ele>
        <time>2010-12-19T15:04:43Z</time>
      </trkpt>
      <trkpt lat="45.05977" lon="5.63107">
        <ele>479.8</ele>
        <time>2010-12-19T15:04:46Z</time>
      </trkpt>
      <trkpt lat="45.05976" lon="5.63105">
        <ele>480.6</ele>
        <time>2010-12-19T15:04:48Z</time>
      </trkpt>
      <trkpt lat="45.0597" lon="5.63101">
        <ele>482.4</ele>
        <time>2010-12-19T15:04:53Z</time>
      </trkpt>
      <trkpt lat="45.0597" lon="5.631">
        <ele>483</ele>
        <time>2010-12-19T15:04:54Z</time>
      </trkpt>
      <trkpt lat="45.05968" lon="5.63098">
        <ele>483.6</ele>
        <time>2010-12-19T15:04:56Z</time>
      </trkpt>
      <trkpt lat="45.05968" lon="5.63098">
        <ele>484.2</ele>
        <time>2010-12-19T15:04:57Z</time>
      </trkpt>
      <trkpt lat="45.05963" lon="5.63094">
        <ele>486.2</ele>
        <time>2010-12-19T15:05:02Z</time>
      </trkpt>
      <trkpt lat="45.05959" lon="5.63088">
        <ele>488</ele>
        <time>2010-12-19T15:05:07Z</time>
      </trkpt>
      <trkpt lat="45.05958" lon="5.63087">
        <ele>488.4</ele>
        <time>2010-12-19T15:05:08Z</time>
      </trkpt>
      <trkpt lat="45.05954" lon="5.63081">
        <ele>490</ele>
        <time>2010-12-19T15:05:13Z</time>
      </trkpt>
      <trkpt lat="45.05953" lon="5.6308">
        <ele>490.4</ele>
        <time>2010-12-19T15:05:14Z</time>
      </trkpt>
      <trkpt lat="45.05951" lon="5.63079">
        <ele>491.2</ele>
        <time>2010-12-19T15:05:16Z</time>
      </trkpt>
      <trkpt lat="45.0595" lon="5.63077">
        <ele>492</ele>
        <time>2010-12-19T15:05:18Z</time>
      </trkpt>
      <trkpt lat="45.05949" lon="5.63076">
        <ele>492.2</ele>
        <time>2010-12-19T15:05:19Z</time>
      </trkpt>
      <trkpt lat="45.05948" lon="5.63074">
        <ele>492.8</ele>
        <time>2010-12-19T15:05:21Z</time>
      </trkpt>
      <trkpt lat="45.05945" lon="5.63071">
        <ele>493.8</ele>
        <time>2010-12-19T15:05:24Z</time>
      </trkpt>
      <trkpt lat="45.05942" lon="5.63069">
        <ele>494</ele>
        <time>2010-12-19T15:05:26Z</time>
      </trkpt>
      <trkpt lat="45.05939" lon="5.63066">
        <ele>494.8</ele>
        <time>2010-12-19T15:05:29Z</time>
      </trkpt>
      <trkpt lat="45.05935" lon="5.63064">
        <ele>495.4</ele>
        <time>2010-12-19T15:05:32Z</time>
      </trkpt>
      <trkpt lat="45.05933" lon="5.63062">
        <ele>495.6</ele>
        <time>2010-12-19T15:05:34Z</time>
      </trkpt>
      <trkpt lat="45.05928" lon="5.63057">
        <ele>496.8</ele>
        <time>2010-12-19T15:05:39Z</time>
      </trkpt>
      <trkpt lat="45.05927" lon="5.63056">
        <ele>497</ele>
        <time>2010-12-19T15:05:40Z</time>
      </trkpt>
      <trkpt lat="45.05924" lon="5.63054">
        <ele>497.4</ele>
        <time>2010-12-19T15:05:43Z</time>
      </trkpt>
      <trkpt lat="45.05922" lon="5.63051">
        <ele>497.6</ele>
        <time>2010-12-19T15:05:45Z</time>
      </trkpt>
      <trkpt lat="45.0592" lon="5.63048">
        <ele>498.2</ele>
        <time>2010-12-19T15:05:47Z</time>
      </trkpt>
      <trkpt lat="45.05918" lon="5.63047">
        <ele>498.4</ele>
        <time>2010-12-19T15:05:48Z</time>
      </trkpt>
      <trkpt lat="45.05917" lon="5.63043">
        <ele>498.8</ele>
        <time>2010-12-19T15:05:50Z</time>
      </trkpt>
      <trkpt lat="45.05909" lon="5.63034">
        <ele>500</ele>
        <time>2010-12-19T15:05:54Z</time>
      </trkpt>
      <trkpt lat="45.05907" lon="5.63032">
        <ele>500.4</ele>
        <time>2010-12-19T15:05:55Z</time>
      </trkpt>
      <trkpt lat="45.05901" lon="5.63025">
        <ele>501</ele>
        <time>2010-12-19T15:05:58Z</time>
      </trkpt>
      <trkpt lat="45.05892" lon="5.63018">
        <ele>501.4</ele>
        <time>2010-12-19T15:06:02Z</time>
      </trkpt>
      <trkpt lat="45.0589" lon="5.63016">
        <ele>501.6</ele>
        <time>2010-12-19T15:06:03Z</time>
      </trkpt>
      <trkpt lat="45.05886" lon="5.63007">
        <ele>502.2</ele>
        <time>2010-12-19T15:06:08Z</time>
      </trkpt>
      <trkpt lat="45.05881" lon="5.62998">
        <ele>502</ele>
        <time>2010-12-19T15:06:13Z</time>
      </trkpt>
      <trkpt lat="45.0588" lon="5.62995">
        <ele>502.2</ele>
        <time>2010-12-19T15:06:14Z</time>
      </trkpt>
      <trkpt lat="45.05878" lon="5.62989">
        <ele>502</ele>
        <time>2010-12-19T15:06:18Z</time>
      </trkpt>
      <trkpt lat="45.05877" lon="5.62988">
        <ele>502</ele>
        <time>2010-12-19T15:06:20Z</time>
      </trkpt>
      <trkpt lat="45.05877" lon="5.62985">
        <ele>502</ele>
        <time>2010-12-19T15:06:22Z</time>
      </trkpt>
      <trkpt lat="45.05877" lon="5.62984">
        <ele>502</ele>
        <time>2010-12-19T15:06:24Z</time>
      </trkpt>
      <trkpt lat="45.05877" lon="5.6298">
        <ele>502</ele>
        <time>2010-12-19T15:06:27Z</time>
      </trkpt>
      <trkpt lat="45.05877" lon="5.62979">
        <ele>502</ele>
        <time>2010-12-19T15:06:28Z</time>
      </trkpt>
      <trkpt lat="45.05875" lon="5.62974">
        <ele>502</ele>
        <time>2010-12-19T15:06:31Z</time>
      </trkpt>
      <trkpt lat="45.05875" lon="5.62973">
        <ele>502</ele>
        <time>2010-12-19T15:06:32Z</time>
      </trkpt>
      <trkpt lat="45.05874" lon="5.6297">
        <ele>502</ele>
        <time>2010-12-19T15:06:34Z</time>
      </trkpt>
      <trkpt lat="45.05873" lon="5.62964">
        <ele>502.4</ele>
        <time>2010-12-19T15:06:38Z</time>
      </trkpt>
      <trkpt lat="45.0587" lon="5.62962">
        <ele>502.4</ele>
        <time>2010-12-19T15:06:41Z</time>
      </trkpt>
      <trkpt lat="45.05868" lon="5.62959">
        <ele>502.6</ele>
        <time>2010-12-19T15:06:43Z</time>
      </trkpt>
      <trkpt lat="45.05866" lon="5.62954">
        <ele>503.2</ele>
        <time>2010-12-19T15:06:47Z</time>
      </trkpt>
      <trkpt lat="45.05865" lon="5.62952">
        <ele>503.4</ele>
        <time>2010-12-19T15:06:48Z</time>
      </trkpt>
      <trkpt lat="45.05863" lon="5.62951">
        <ele>503.6</ele>
        <time>2010-12-19T15:06:49Z</time>
      </trkpt>
      <trkpt lat="45.0586" lon="5.62946">
        <ele>504.6</ele>
        <time>2010-12-19T15:06:52Z</time>
      </trkpt>
      <trkpt lat="45.05859" lon="5.62944">
        <ele>505</ele>
        <time>2010-12-19T15:06:54Z</time>
      </trkpt>
      <trkpt lat="45.05857" lon="5.62943">
        <ele>505.6</ele>
        <time>2010-12-19T15:06:56Z</time>
      </trkpt>
      <trkpt lat="45.05853" lon="5.62936">
        <ele>506.8</ele>
        <time>2010-12-19T15:06:59Z</time>
      </trkpt>
      <trkpt lat="45.05851" lon="5.62934">
        <ele>507.2</ele>
        <time>2010-12-19T15:07:00Z</time>
      </trkpt>
      <trkpt lat="45.0585" lon="5.6293">
        <ele>508</ele>
        <time>2010-12-19T15:07:02Z</time>
      </trkpt>
      <trkpt lat="45.05849" lon="5.62928">
        <ele>508.2</ele>
        <time>2010-12-19T15:07:03Z</time>
      </trkpt>
      <trkpt lat="45.05845" lon="5.62922">
        <ele>509.2</ele>
        <time>2010-12-19T15:07:06Z</time>
      </trkpt>
      <trkpt lat="45.05844" lon="5.6292">
        <ele>509.6</ele>
        <time>2010-12-19T15:07:07Z</time>
      </trkpt>
      <trkpt lat="45.05838" lon="5.6291">
        <ele>512.2</ele>
        <time>2010-12-19T15:07:13Z</time>
      </trkpt>
      <trkpt lat="45.05837" lon="5.62908">
        <ele>512.8</ele>
        <time>2010-12-19T15:07:15Z</time>
      </trkpt>
      <trkpt lat="45.05832" lon="5.62904">
        <ele>514</ele>
        <time>2010-12-19T15:07:19Z</time>
      </trkpt>
      <trkpt lat="45.05828" lon="5.62898">
        <ele>514.8</ele>
        <time>2010-12-19T15:07:23Z</time>
      </trkpt>
      <trkpt lat="45.05827" lon="5.62897">
        <ele>515</ele>
        <time>2010-12-19T15:07:24Z</time>
      </trkpt>
      <trkpt lat="45.05823" lon="5.62894">
        <ele>515.6</ele>
        <time>2010-12-19T15:07:27Z</time>
      </trkpt>
      <trkpt lat="45.05821" lon="5.62892">
        <ele>516.2</ele>
        <time>2010-12-19T15:07:29Z</time>
      </trkpt>
      <trkpt lat="45.05815" lon="5.62891">
        <ele>518</ele>
        <time>2010-12-19T15:07:34Z</time>
      </trkpt>
      <trkpt lat="45.05813" lon="5.62888">
        <ele>518.8</ele>
        <time>2010-12-19T15:07:36Z</time>
      </trkpt>
      <trkpt lat="45.0581" lon="5.62885">
        <ele>520</ele>
        <time>2010-12-19T15:07:40Z</time>
      </trkpt>
      <trkpt lat="45.05807" lon="5.62878">
        <ele>521.6</ele>
        <time>2010-12-19T15:07:45Z</time>
      </trkpt>
      <trkpt lat="45.05805" lon="5.62877">
        <ele>522.2</ele>
        <time>2010-12-19T15:07:46Z</time>
      </trkpt>
      <trkpt lat="45.05804" lon="5.62875">
        <ele>522.4</ele>
        <time>2010-12-19T15:07:47Z</time>
      </trkpt>
      <trkpt lat="45.058" lon="5.6287">
        <ele>524.2</ele>
        <time>2010-12-19T15:07:51Z</time>
      </trkpt>
      <trkpt lat="45.05799" lon="5.62869">
        <ele>524.6</ele>
        <time>2010-12-19T15:07:52Z</time>
      </trkpt>
      <trkpt lat="45.05794" lon="5.62862">
        <ele>526.2</ele>
        <time>2010-12-19T15:07:56Z</time>
      </trkpt>
      <trkpt lat="45.05793" lon="5.6286">
        <ele>526.8</ele>
        <time>2010-12-19T15:07:57Z</time>
      </trkpt>
      <trkpt lat="45.05791" lon="5.62858">
        <ele>527.2</ele>
        <time>2010-12-19T15:07:58Z</time>
      </trkpt>
      <trkpt lat="45.05782" lon="5.6285">
        <ele>529.2</ele>
        <time>2010-12-19T15:08:04Z</time>
      </trkpt>
      <trkpt lat="45.05777" lon="5.62843">
        <ele>529.8</ele>
        <time>2010-12-19T15:08:08Z</time>
      </trkpt>
      <trkpt lat="45.05775" lon="5.62842">
        <ele>529.8</ele>
        <time>2010-12-19T15:08:09Z</time>
      </trkpt>
      <trkpt lat="45.05773" lon="5.62841">
        <ele>529.8</ele>
        <time>2010-12-19T15:08:11Z</time>
      </trkpt>
      <trkpt lat="45.0577" lon="5.62839">
        <ele>530</ele>
        <time>2010-12-19T15:08:15Z</time>
      </trkpt>
      <trkpt lat="45.05765" lon="5.62834">
        <ele>529.6</ele>
        <time>2010-12-19T15:08:19Z</time>
      </trkpt>
      <trkpt lat="45.05763" lon="5.62828">
        <ele>529.6</ele>
        <time>2010-12-19T15:08:24Z</time>
      </trkpt>
      <trkpt lat="45.05761" lon="5.62821">
        <ele>529.4</ele>
        <time>2010-12-19T15:08:29Z</time>
      </trkpt>
      <trkpt lat="45.05759" lon="5.62821">
        <ele>529.4</ele>
        <time>2010-12-19T15:08:30Z</time>
      </trkpt>
      <trkpt lat="45.05757" lon="5.62816">
        <ele>529.2</ele>
        <time>2010-12-19T15:08:34Z</time>
      </trkpt>
      <trkpt lat="45.05752" lon="5.62809">
        <ele>529</ele>
        <time>2010-12-19T15:08:39Z</time>
      </trkpt>
      <trkpt lat="45.05752" lon="5.62808">
        <ele>528.8</ele>
        <time>2010-12-19T15:08:40Z</time>
      </trkpt>
      <trkpt lat="45.05751" lon="5.62803">
        <ele>528.8</ele>
        <time>2010-12-19T15:08:43Z</time>
      </trkpt>
      <trkpt lat="45.0575" lon="5.62803">
        <ele>528.8</ele>
        <time>2010-12-19T15:08:44Z</time>
      </trkpt>
      <trkpt lat="45.05749" lon="5.62801">
        <ele>528.6</ele>
        <time>2010-12-19T15:08:45Z</time>
      </trkpt>
      <trkpt lat="45.05749" lon="5.62799">
        <ele>528.6</ele>
        <time>2010-12-19T15:08:46Z</time>
      </trkpt>
      <trkpt lat="45.05747" lon="5.62793">
        <ele>528.6</ele>
        <time>2010-12-19T15:08:52Z</time>
      </trkpt>
      <trkpt lat="45.05745" lon="5.62787">
        <ele>528.4</ele>
        <time>2010-12-19T15:08:56Z</time>
      </trkpt>
      <trkpt lat="45.05744" lon="5.62783">
        <ele>528.4</ele>
        <time>2010-12-19T15:08:59Z</time>
      </trkpt>
      <trkpt lat="45.05743" lon="5.62782">
        <ele>528.4</ele>
        <time>2010-12-19T15:09:00Z</time>
      </trkpt>
      <trkpt lat="45.0574" lon="5.62779">
        <ele>528.4</ele>
        <time>2010-12-19T15:09:03Z</time>
      </trkpt>
      <trkpt lat="45.05738" lon="5.62775">
        <ele>528.4</ele>
        <time>2010-12-19T15:09:06Z</time>
      </trkpt>
      <trkpt lat="45.05736" lon="5.62772">
        <ele>528.4</ele>
        <time>2010-12-19T15:09:09Z</time>
      </trkpt>
      <trkpt lat="45.05734" lon="5.62765">
        <ele>528.8</ele>
        <time>2010-12-19T15:09:13Z</time>
      </trkpt>
      <trkpt lat="45.05731" lon="5.62761">
        <ele>529</ele>
        <time>2010-12-19T15:09:17Z</time>
      </trkpt>
      <trkpt lat="45.05729" lon="5.62757">
        <ele>529.2</ele>
        <time>2010-12-19T15:09:20Z</time>
      </trkpt>
      <trkpt lat="45.05728" lon="5.62756">
        <ele>529.4</ele>
        <time>2010-12-19T15:09:21Z</time>
      </trkpt>
      <trkpt lat="45.05724" lon="5.62752">
        <ele>529.8</ele>
        <time>2010-12-19T15:09:25Z</time>
      </trkpt>
      <trkpt lat="45.05723" lon="5.62749">
        <ele>530</ele>
        <time>2010-12-19T15:09:27Z</time>
      </trkpt>
      <trkpt lat="45.05721" lon="5.62748">
        <ele>530.2</ele>
        <time>2010-12-19T15:09:29Z</time>
      </trkpt>
      <trkpt lat="45.0572" lon="5.62745">
        <ele>530.4</ele>
        <time>2010-12-19T15:09:31Z</time>
      </trkpt>
      <trkpt lat="45.05717" lon="5.62739">
        <ele>530.6</ele>
        <time>2010-12-19T15:09:33Z</time>
      </trkpt>
      <trkpt lat="45.05714" lon="5.62733">
        <ele>531</ele>
        <time>2010-12-19T15:09:36Z</time>
      </trkpt>
      <trkpt lat="45.05713" lon="5.62731">
        <ele>531.2</ele>
        <time>2010-12-19T15:09:38Z</time>
      </trkpt>
      <trkpt lat="45.05713" lon="5.62725">
        <ele>531.8</ele>
        <time>2010-12-19T15:09:40Z</time>
      </trkpt>
      <trkpt lat="45.0571" lon="5.62721">
        <ele>532.2</ele>
        <time>2010-12-19T15:09:42Z</time>
      </trkpt>
      <trkpt lat="45.05708" lon="5.62714">
        <ele>533</ele>
        <time>2010-12-19T15:09:45Z</time>
      </trkpt>
      <trkpt lat="45.05707" lon="5.62711">
        <ele>533</ele>
        <time>2010-12-19T15:09:46Z</time>
      </trkpt>
      <trkpt lat="45.05705" lon="5.62706">
        <ele>534.2</ele>
        <time>2010-12-19T15:09:49Z</time>
      </trkpt>
      <trkpt lat="45.05703" lon="5.62703">
        <ele>535</ele>
        <time>2010-12-19T15:09:51Z</time>
      </trkpt>
      <trkpt lat="45.05698" lon="5.62694">
        <ele>536.4</ele>
        <time>2010-12-19T15:09:55Z</time>
      </trkpt>
      <trkpt lat="45.05696" lon="5.62691">
        <ele>537</ele>
        <time>2010-12-19T15:09:56Z</time>
      </trkpt>
      <trkpt lat="45.05696" lon="5.6269">
        <ele>537.6</ele>
        <time>2010-12-19T15:09:57Z</time>
      </trkpt>
      <trkpt lat="45.05693" lon="5.62684">
        <ele>539.6</ele>
        <time>2010-12-19T15:10:01Z</time>
      </trkpt>
      <trkpt lat="45.05692" lon="5.6268">
        <ele>540.4</ele>
        <time>2010-12-19T15:10:03Z</time>
      </trkpt>
      <trkpt lat="45.05692" lon="5.62675">
        <ele>541.2</ele>
        <time>2010-12-19T15:10:05Z</time>
      </trkpt>
      <trkpt lat="45.05691" lon="5.6267">
        <ele>542.6</ele>
        <time>2010-12-19T15:10:08Z</time>
      </trkpt>
      <trkpt lat="45.05692" lon="5.62665">
        <ele>543.4</ele>
        <time>2010-12-19T15:10:10Z</time>
      </trkpt>
      <trkpt lat="45.05693" lon="5.62661">
        <ele>544.2</ele>
        <time>2010-12-19T15:10:13Z</time>
      </trkpt>
      <trkpt lat="45.05691" lon="5.62659">
        <ele>544.8</ele>
        <time>2010-12-19T15:10:15Z</time>
      </trkpt>
      <trkpt lat="45.0569" lon="5.62652">
        <ele>545.6</ele>
        <time>2010-12-19T15:10:18Z</time>
      </trkpt>
      <trkpt lat="45.05688" lon="5.62648">
        <ele>545.8</ele>
        <time>2010-12-19T15:10:21Z</time>
      </trkpt>
      <trkpt lat="45.05687" lon="5.62641">
        <ele>546.2</ele>
        <time>2010-12-19T15:10:24Z</time>
      </trkpt>
      <trkpt lat="45.05684" lon="5.62639">
        <ele>546.4</ele>
        <time>2010-12-19T15:10:26Z</time>
      </trkpt>
      <trkpt lat="45.05675" lon="5.62635">
        <ele>546.6</ele>
        <time>2010-12-19T15:10:32Z</time>
      </trkpt>
      <trkpt lat="45.05673" lon="5.62634">
        <ele>546.8</ele>
        <time>2010-12-19T15:10:33Z</time>
      </trkpt>
      <trkpt lat="45.05667" lon="5.62629">
        <ele>547.2</ele>
        <time>2010-12-19T15:10:37Z</time>
      </trkpt>
      <trkpt lat="45.05664" lon="5.62628">
        <ele>547.2</ele>
        <time>2010-12-19T15:10:39Z</time>
      </trkpt>
      <trkpt lat="45.05663" lon="5.62627">
        <ele>547.4</ele>
        <time>2010-12-19T15:10:40Z</time>
      </trkpt>
      <trkpt lat="45.05658" lon="5.62622">
        <ele>548</ele>
        <time>2010-12-19T15:10:44Z</time>
      </trkpt>
      <trkpt lat="45.05652" lon="5.62618">
        <ele>549.2</ele>
        <time>2010-12-19T15:10:48Z</time>
      </trkpt>
      <trkpt lat="45.0565" lon="5.62616">
        <ele>549.6</ele>
        <time>2010-12-19T15:10:49Z</time>
      </trkpt>
      <trkpt lat="45.05646" lon="5.62612">
        <ele>550.4</ele>
        <time>2010-12-19T15:10:52Z</time>
      </trkpt>
      <trkpt lat="45.05644" lon="5.62611">
        <ele>551</ele>
        <time>2010-12-19T15:10:53Z</time>
      </trkpt>
      <trkpt lat="45.05643" lon="5.6261">
        <ele>551</ele>
        <time>2010-12-19T15:10:54Z</time>
      </trkpt>
      <trkpt lat="45.05639" lon="5.62607">
        <ele>552.2</ele>
        <time>2010-12-19T15:10:59Z</time>
      </trkpt>
      <trkpt lat="45.05637" lon="5.62606">
        <ele>552.2</ele>
        <time>2010-12-19T15:11:00Z</time>
      </trkpt>
      <trkpt lat="45.05635" lon="5.62601">
        <ele>553.2</ele>
        <time>2010-12-19T15:11:04Z</time>
      </trkpt>
      <trkpt lat="45.05634" lon="5.626">
        <ele>553.6</ele>
        <time>2010-12-19T15:11:05Z</time>
      </trkpt>
      <trkpt lat="45.05634" lon="5.62599">
        <ele>553.8</ele>
        <time>2010-12-19T15:11:06Z</time>
      </trkpt>
      <trkpt lat="45.05632" lon="5.62597">
        <ele>554.2</ele>
        <time>2010-12-19T15:11:08Z</time>
      </trkpt>
      <trkpt lat="45.0563" lon="5.62596">
        <ele>555</ele>
        <time>2010-12-19T15:11:11Z</time>
      </trkpt>
      <trkpt lat="45.05627" lon="5.62595">
        <ele>556</ele>
        <time>2010-12-19T15:11:15Z</time>
      </trkpt>
      <trkpt lat="45.05626" lon="5.62594">
        <ele>556.2</ele>
        <time>2010-12-19T15:11:16Z</time>
      </trkpt>
      <trkpt lat="45.05625" lon="5.62593">
        <ele>556.4</ele>
        <time>2010-12-19T15:11:17Z</time>
      </trkpt>
      <trkpt lat="45.05622" lon="5.62592">
        <ele>557</ele>
        <time>2010-12-19T15:11:20Z</time>
      </trkpt>
      <trkpt lat="45.05621" lon="5.62592">
        <ele>557</ele>
        <time>2010-12-19T15:11:21Z</time>
      </trkpt>
      <trkpt lat="45.05616" lon="5.6259">
        <ele>557.6</ele>
        <time>2010-12-19T15:11:25Z</time>
      </trkpt>
      <trkpt lat="45.05614" lon="5.6259">
        <ele>557.8</ele>
        <time>2010-12-19T15:11:26Z</time>
      </trkpt>
      <trkpt lat="45.0561" lon="5.62586">
        <ele>558</ele>
        <time>2010-12-19T15:11:31Z</time>
      </trkpt>
      <trkpt lat="45.05609" lon="5.62586">
        <ele>558</ele>
        <time>2010-12-19T15:11:32Z</time>
      </trkpt>
      <trkpt lat="45.05604" lon="5.62582">
        <ele>558.8</ele>
        <time>2010-12-19T15:11:39Z</time>
      </trkpt>
      <trkpt lat="45.056" lon="5.62578">
        <ele>559</ele>
        <time>2010-12-19T15:11:45Z</time>
      </trkpt>
      <trkpt lat="45.05599" lon="5.62577">
        <ele>559</ele>
        <time>2010-12-19T15:11:47Z</time>
      </trkpt>
      <trkpt lat="45.05596" lon="5.62576">
        <ele>559.4</ele>
        <time>2010-12-19T15:11:49Z</time>
      </trkpt>
      <trkpt lat="45.05596" lon="5.62575">
        <ele>559.4</ele>
        <time>2010-12-19T15:11:50Z</time>
      </trkpt>
      <trkpt lat="45.05593" lon="5.62573">
        <ele>560</ele>
        <time>2010-12-19T15:11:53Z</time>
      </trkpt>
      <trkpt lat="45.05591" lon="5.62572">
        <ele>560.2</ele>
        <time>2010-12-19T15:11:55Z</time>
      </trkpt>
      <trkpt lat="45.05588" lon="5.62568">
        <ele>560.6</ele>
        <time>2010-12-19T15:11:59Z</time>
      </trkpt>
      <trkpt lat="45.05587" lon="5.62568">
        <ele>560.6</ele>
        <time>2010-12-19T15:12:00Z</time>
      </trkpt>
      <trkpt lat="45.05582" lon="5.62566">
        <ele>561.2</ele>
        <time>2010-12-19T15:12:04Z</time>
      </trkpt>
      <trkpt lat="45.05578" lon="5.62562">
        <ele>562</ele>
        <time>2010-12-19T15:12:08Z</time>
      </trkpt>
      <trkpt lat="45.05577" lon="5.62562">
        <ele>562</ele>
        <time>2010-12-19T15:12:09Z</time>
      </trkpt>
      <trkpt lat="45.05576" lon="5.62561">
        <ele>562.2</ele>
        <time>2010-12-19T15:12:10Z</time>
      </trkpt>
      <trkpt lat="45.05572" lon="5.6256">
        <ele>563.2</ele>
        <time>2010-12-19T15:12:13Z</time>
      </trkpt>
      <trkpt lat="45.05566" lon="5.6256">
        <ele>564.6</ele>
        <time>2010-12-19T15:12:18Z</time>
      </trkpt>
      <trkpt lat="45.05564" lon="5.62559">
        <ele>565.6</ele>
        <time>2010-12-19T15:12:21Z</time>
      </trkpt>
      <trkpt lat="45.05556" lon="5.62556">
        <ele>569.4</ele>
        <time>2010-12-19T15:12:32Z</time>
      </trkpt>
      <trkpt lat="45.05555" lon="5.62555">
        <ele>569.6</ele>
        <time>2010-12-19T15:12:33Z</time>
      </trkpt>
      <trkpt lat="45.05551" lon="5.62552">
        <ele>570.6</ele>
        <time>2010-12-19T15:12:36Z</time>
      </trkpt>
      <trkpt lat="45.05547" lon="5.62549">
        <ele>571.8</ele>
        <time>2010-12-19T15:12:39Z</time>
      </trkpt>
      <trkpt lat="45.05545" lon="5.62549">
        <ele>572</ele>
        <time>2010-12-19T15:12:40Z</time>
      </trkpt>
      <trkpt lat="45.0554" lon="5.62543">
        <ele>572.6</ele>
        <time>2010-12-19T15:12:45Z</time>
      </trkpt>
      <trkpt lat="45.05534" lon="5.62539">
        <ele>573.2</ele>
        <time>2010-12-19T15:12:51Z</time>
      </trkpt>
      <trkpt lat="45.05531" lon="5.62536">
        <ele>573.4</ele>
        <time>2010-12-19T15:12:53Z</time>
      </trkpt>
      <trkpt lat="45.05528" lon="5.62534">
        <ele>573.4</ele>
        <time>2010-12-19T15:12:56Z</time>
      </trkpt>
      <trkpt lat="45.05524" lon="5.62534">
        <ele>573.2</ele>
        <time>2010-12-19T15:13:00Z</time>
      </trkpt>
      <trkpt lat="45.05517" lon="5.62531">
        <ele>573</ele>
        <time>2010-12-19T15:13:06Z</time>
      </trkpt>
      <trkpt lat="45.05517" lon="5.62531">
        <ele>573</ele>
        <time>2010-12-19T15:13:07Z</time>
      </trkpt>
      <trkpt lat="45.05514" lon="5.62529">
        <ele>572.8</ele>
        <time>2010-12-19T15:13:11Z</time>
      </trkpt>
      <trkpt lat="45.05513" lon="5.62527">
        <ele>573</ele>
        <time>2010-12-19T15:13:12Z</time>
      </trkpt>
      <trkpt lat="45.05511" lon="5.62527">
        <ele>572.8</ele>
        <time>2010-12-19T15:13:13Z</time>
      </trkpt>
      <trkpt lat="45.0551" lon="5.62525">
        <ele>572.8</ele>
        <time>2010-12-19T15:13:15Z</time>
      </trkpt>
      <trkpt lat="45.05508" lon="5.62525">
        <ele>572.6</ele>
        <time>2010-12-19T15:13:17Z</time>
      </trkpt>
      <trkpt lat="45.05502" lon="5.62523">
        <ele>572.2</ele>
        <time>2010-12-19T15:13:19Z</time>
      </trkpt>
      <trkpt lat="45.05498" lon="5.62524">
        <ele>571.8</ele>
        <time>2010-12-19T15:13:23Z</time>
      </trkpt>
      <trkpt lat="45.05494" lon="5.62525">
        <ele>571.2</ele>
        <time>2010-12-19T15:13:27Z</time>
      </trkpt>
      <trkpt lat="45.05492" lon="5.62523">
        <ele>570.8</ele>
        <time>2010-12-19T15:13:32Z</time>
      </trkpt>
      <trkpt lat="45.05487" lon="5.62523">
        <ele>570.2</ele>
        <time>2010-12-19T15:13:37Z</time>
      </trkpt>
      <trkpt lat="45.0548" lon="5.62522">
        <ele>569.2</ele>
        <time>2010-12-19T15:13:44Z</time>
      </trkpt>
      <trkpt lat="45.05477" lon="5.62518">
        <ele>568</ele>
        <time>2010-12-19T15:13:58Z</time>
      </trkpt>
      <trkpt lat="45.05474" lon="5.62519">
        <ele>567.8</ele>
        <time>2010-12-19T15:14:00Z</time>
      </trkpt>
      <trkpt lat="45.05471" lon="5.62519">
        <ele>567.6</ele>
        <time>2010-12-19T15:14:02Z</time>
      </trkpt>
      <trkpt lat="45.05469" lon="5.62519">
        <ele>567.4</ele>
        <time>2010-12-19T15:14:03Z</time>
      </trkpt>
      <trkpt lat="45.05461" lon="5.62519">
        <ele>566.8</ele>
        <time>2010-12-19T15:14:06Z</time>
      </trkpt>
      <trkpt lat="45.05458" lon="5.62518">
        <ele>566.4</ele>
        <time>2010-12-19T15:14:07Z</time>
      </trkpt>
      <trkpt lat="45.05455" lon="5.62519">
        <ele>566</ele>
        <time>2010-12-19T15:14:09Z</time>
      </trkpt>
      <trkpt lat="45.05452" lon="5.62521">
        <ele>565.4</ele>
        <time>2010-12-19T15:14:11Z</time>
      </trkpt>
      <trkpt lat="45.05451" lon="5.62521">
        <ele>565.2</ele>
        <time>2010-12-19T15:14:12Z</time>
      </trkpt>
      <trkpt lat="45.05448" lon="5.62522">
        <ele>564.6</ele>
        <time>2010-12-19T15:14:14Z</time>
      </trkpt>
      <trkpt lat="45.05444" lon="5.62524">
        <ele>563.2</ele>
        <time>2010-12-19T15:14:19Z</time>
      </trkpt>
      <trkpt lat="45.05443" lon="5.62524">
        <ele>562.6</ele>
        <time>2010-12-19T15:14:22Z</time>
      </trkpt>
      <trkpt lat="45.05442" lon="5.62525">
        <ele>562</ele>
        <time>2010-12-19T15:14:25Z</time>
      </trkpt>
      <trkpt lat="45.05438" lon="5.62528">
        <ele>561</ele>
        <time>2010-12-19T15:14:30Z</time>
      </trkpt>
      <trkpt lat="45.05437" lon="5.6253">
        <ele>560.8</ele>
        <time>2010-12-19T15:14:32Z</time>
      </trkpt>
      <trkpt lat="45.05435" lon="5.62532">
        <ele>560.2</ele>
        <time>2010-12-19T15:14:35Z</time>
      </trkpt>
      <trkpt lat="45.05433" lon="5.62534">
        <ele>559.6</ele>
        <time>2010-12-19T15:14:40Z</time>
      </trkpt>
      <trkpt lat="45.0543" lon="5.62538">
        <ele>559.2</ele>
        <time>2010-12-19T15:14:45Z</time>
      </trkpt>
      <trkpt lat="45.05422" lon="5.62543">
        <ele>559.2</ele>
        <time>2010-12-19T15:14:51Z</time>
      </trkpt>
      <trkpt lat="45.05414" lon="5.62549">
        <ele>559.2</ele>
        <time>2010-12-19T15:14:55Z</time>
      </trkpt>
      <trkpt lat="45.05412" lon="5.62549">
        <ele>559.4</ele>
        <time>2010-12-19T15:14:56Z</time>
      </trkpt>
      <trkpt lat="45.05405" lon="5.62549">
        <ele>559.4</ele>
        <time>2010-12-19T15:15:00Z</time>
      </trkpt>
      <trkpt lat="45.05404" lon="5.6255">
        <ele>559.6</ele>
        <time>2010-12-19T15:15:01Z</time>
      </trkpt>
      <trkpt lat="45.05397" lon="5.6255">
        <ele>560.2</ele>
        <time>2010-12-19T15:15:06Z</time>
      </trkpt>
      <trkpt lat="45.05394" lon="5.62549">
        <ele>560.4</ele>
        <time>2010-12-19T15:15:07Z</time>
      </trkpt>
      <trkpt lat="45.05389" lon="5.62552">
        <ele>560</ele>
        <time>2010-12-19T15:15:09Z</time>
      </trkpt>
      <trkpt lat="45.05388" lon="5.62553">
        <ele>560</ele>
        <time>2010-12-19T15:15:10Z</time>
      </trkpt>
      <trkpt lat="45.05388" lon="5.62554">
        <ele>560.2</ele>
        <time>2010-12-19T15:15:11Z</time>
      </trkpt>
      <trkpt lat="45.05386" lon="5.62559">
        <ele>560.4</ele>
        <time>2010-12-19T15:15:14Z</time>
      </trkpt>
      <trkpt lat="45.05379" lon="5.62561">
        <ele>561</ele>
        <time>2010-12-19T15:15:18Z</time>
      </trkpt>
      <trkpt lat="45.05374" lon="5.6257">
        <ele>561</ele>
        <time>2010-12-19T15:15:23Z</time>
      </trkpt>
      <trkpt lat="45.05374" lon="5.62572">
        <ele>561</ele>
        <time>2010-12-19T15:15:24Z</time>
      </trkpt>
      <trkpt lat="45.05373" lon="5.62577">
        <ele>562</ele>
        <time>2010-12-19T15:15:27Z</time>
      </trkpt>
      <trkpt lat="45.05373" lon="5.6258">
        <ele>563.6</ele>
        <time>2010-12-19T15:15:30Z</time>
      </trkpt>
      <trkpt lat="45.05373" lon="5.62581">
        <ele>564</ele>
        <time>2010-12-19T15:15:31Z</time>
      </trkpt>
      <trkpt lat="45.05374" lon="5.62587">
        <ele>568.2</ele>
        <time>2010-12-19T15:15:36Z</time>
      </trkpt>
      <trkpt lat="45.05374" lon="5.62588">
        <ele>569</ele>
        <time>2010-12-19T15:15:37Z</time>
      </trkpt>
      <trkpt lat="45.05373" lon="5.62588">
        <ele>569.8</ele>
        <time>2010-12-19T15:15:38Z</time>
      </trkpt>
      <trkpt lat="45.05369" lon="5.6259">
        <ele>572.6</ele>
        <time>2010-12-19T15:15:41Z</time>
      </trkpt>
      <trkpt lat="45.05362" lon="5.62595">
        <ele>576</ele>
        <time>2010-12-19T15:15:45Z</time>
      </trkpt>
      <trkpt lat="45.05355" lon="5.62596">
        <ele>579.8</ele>
        <time>2010-12-19T15:15:49Z</time>
      </trkpt>
      <trkpt lat="45.05346" lon="5.62598">
        <ele>584.2</ele>
        <time>2010-12-19T15:15:54Z</time>
      </trkpt>
      <trkpt lat="45.05344" lon="5.62598">
        <ele>585.2</ele>
        <time>2010-12-19T15:15:55Z</time>
      </trkpt>
      <trkpt lat="45.05342" lon="5.62599">
        <ele>586.2</ele>
        <time>2010-12-19T15:15:56Z</time>
      </trkpt>
      <trkpt lat="45.05337" lon="5.62597">
        <ele>589.4</ele>
        <time>2010-12-19T15:16:00Z</time>
      </trkpt>
      <trkpt lat="45.05335" lon="5.62598">
        <ele>593.4</ele>
        <time>2010-12-19T15:16:06Z</time>
      </trkpt>
      <trkpt lat="45.05335" lon="5.62596">
        <ele>600.8</ele>
        <time>2010-12-19T15:16:41Z</time>
      </trkpt>
      <trkpt lat="45.05332" lon="5.62596">
        <ele>601</ele>
        <time>2010-12-19T15:16:43Z</time>
      </trkpt>
      <trkpt lat="45.05325" lon="5.62596">
        <ele>601</ele>
        <time>2010-12-19T15:16:46Z</time>
      </trkpt>
      <trkpt lat="45.05321" lon="5.62596">
        <ele>601.6</ele>
        <time>2010-12-19T15:16:48Z</time>
      </trkpt>
      <trkpt lat="45.05318" lon="5.62596">
        <ele>601.6</ele>
        <time>2010-12-19T15:16:50Z</time>
      </trkpt>
      <trkpt lat="45.05314" lon="5.62596">
        <ele>601.6</ele>
        <time>2010-12-19T15:16:52Z</time>
      </trkpt>
      <trkpt lat="45.05304" lon="5.62593">
        <ele>602.8</ele>
        <time>2010-12-19T15:16:57Z</time>
      </trkpt>
      <trkpt lat="45.05296" lon="5.62592">
        <ele>603.6</ele>
        <time>2010-12-19T15:17:02Z</time>
      </trkpt>
      <trkpt lat="45.05291" lon="5.62589">
        <ele>604.4</ele>
        <time>2010-12-19T15:17:05Z</time>
      </trkpt>
      <trkpt lat="45.05288" lon="5.62587">
        <ele>605</ele>
        <time>2010-12-19T15:17:07Z</time>
      </trkpt>
      <trkpt lat="45.0528" lon="5.62582">
        <ele>606.4</ele>
        <time>2010-12-19T15:17:12Z</time>
      </trkpt>
      <trkpt lat="45.0527" lon="5.62579">
        <ele>608.2</ele>
        <time>2010-12-19T15:17:18Z</time>
      </trkpt>
      <trkpt lat="45.05261" lon="5.62576">
        <ele>610.8</ele>
        <time>2010-12-19T15:17:23Z</time>
      </trkpt>
      <trkpt lat="45.0526" lon="5.62574">
        <ele>611.4</ele>
        <time>2010-12-19T15:17:24Z</time>
      </trkpt>
      <trkpt lat="45.05256" lon="5.62573">
        <ele>612.2</ele>
        <time>2010-12-19T15:17:26Z</time>
      </trkpt>
      <trkpt lat="45.05249" lon="5.62575">
        <ele>614.2</ele>
        <time>2010-12-19T15:17:30Z</time>
      </trkpt>
      <trkpt lat="45.05242" lon="5.62576">
        <ele>616</ele>
        <time>2010-12-19T15:17:34Z</time>
      </trkpt>
      <trkpt lat="45.05241" lon="5.62577">
        <ele>616.4</ele>
        <time>2010-12-19T15:17:35Z</time>
      </trkpt>
      <trkpt lat="45.05239" lon="5.62577">
        <ele>616.8</ele>
        <time>2010-12-19T15:17:36Z</time>
      </trkpt>
      <trkpt lat="45.05234" lon="5.62576">
        <ele>618.6</ele>
        <time>2010-12-19T15:17:40Z</time>
      </trkpt>
      <trkpt lat="45.05226" lon="5.62576">
        <ele>620.4</ele>
        <time>2010-12-19T15:17:45Z</time>
      </trkpt>
      <trkpt lat="45.05225" lon="5.62576">
        <ele>620.6</ele>
        <time>2010-12-19T15:17:46Z</time>
      </trkpt>
      <trkpt lat="45.05223" lon="5.62574">
        <ele>620.8</ele>
        <time>2010-12-19T15:17:47Z</time>
      </trkpt>
      <trkpt lat="45.05222" lon="5.62574">
        <ele>621.2</ele>
        <time>2010-12-19T15:17:48Z</time>
      </trkpt>
      <trkpt lat="45.05217" lon="5.62573">
        <ele>622</ele>
        <time>2010-12-19T15:17:51Z</time>
      </trkpt>
      <trkpt lat="45.05216" lon="5.62574">
        <ele>622</ele>
        <time>2010-12-19T15:17:52Z</time>
      </trkpt>
      <trkpt lat="45.05214" lon="5.62574">
        <ele>622.2</ele>
        <time>2010-12-19T15:17:53Z</time>
      </trkpt>
      <trkpt lat="45.05208" lon="5.62573">
        <ele>622.6</ele>
        <time>2010-12-19T15:17:57Z</time>
      </trkpt>
      <trkpt lat="45.05207" lon="5.62573">
        <ele>622.6</ele>
        <time>2010-12-19T15:17:58Z</time>
      </trkpt>
      <trkpt lat="45.05205" lon="5.62571">
        <ele>622.8</ele>
        <time>2010-12-19T15:18:00Z</time>
      </trkpt>
      <trkpt lat="45.05202" lon="5.6257">
        <ele>623</ele>
        <time>2010-12-19T15:18:02Z</time>
      </trkpt>
      <trkpt lat="45.05193" lon="5.62567">
        <ele>623.6</ele>
        <time>2010-12-19T15:18:08Z</time>
      </trkpt>
      <trkpt lat="45.05187" lon="5.62566">
        <ele>624</ele>
        <time>2010-12-19T15:18:12Z</time>
      </trkpt>
      <trkpt lat="45.05186" lon="5.62565">
        <ele>624</ele>
        <time>2010-12-19T15:18:13Z</time>
      </trkpt>
      <trkpt lat="45.0518" lon="5.62563">
        <ele>624.6</ele>
        <time>2010-12-19T15:18:17Z</time>
      </trkpt>
      <trkpt lat="45.05177" lon="5.62562">
        <ele>625</ele>
        <time>2010-12-19T15:18:19Z</time>
      </trkpt>
      <trkpt lat="45.0517" lon="5.62558">
        <ele>625.4</ele>
        <time>2010-12-19T15:18:24Z</time>
      </trkpt>
      <trkpt lat="45.05168" lon="5.62558">
        <ele>625.4</ele>
        <time>2010-12-19T15:18:25Z</time>
      </trkpt>
      <trkpt lat="45.05165" lon="5.62557">
        <ele>625.2</ele>
        <time>2010-12-19T15:18:28Z</time>
      </trkpt>
      <trkpt lat="45.05163" lon="5.62555">
        <ele>625.2</ele>
        <time>2010-12-19T15:18:30Z</time>
      </trkpt>
      <trkpt lat="45.05159" lon="5.62553">
        <ele>625.2</ele>
        <time>2010-12-19T15:18:33Z</time>
      </trkpt>
      <trkpt lat="45.05156" lon="5.62552">
        <ele>625.2</ele>
        <time>2010-12-19T15:18:35Z</time>
      </trkpt>
      <trkpt lat="45.05156" lon="5.62552">
        <ele>625.2</ele>
        <time>2010-12-19T15:18:36Z</time>
      </trkpt>
      <trkpt lat="45.0515" lon="5.62552">
        <ele>625.2</ele>
        <time>2010-12-19T15:18:40Z</time>
      </trkpt>
      <trkpt lat="45.05146" lon="5.62552">
        <ele>625.2</ele>
        <time>2010-12-19T15:18:43Z</time>
      </trkpt>
      <trkpt lat="45.05145" lon="5.62553">
        <ele>625.2</ele>
        <time>2010-12-19T15:18:44Z</time>
      </trkpt>
      <trkpt lat="45.05138" lon="5.62554">
        <ele>625.6</ele>
        <time>2010-12-19T15:18:49Z</time>
      </trkpt>
      <trkpt lat="45.05133" lon="5.62557">
        <ele>626</ele>
        <time>2010-12-19T15:18:53Z</time>
      </trkpt>
      <trkpt lat="45.0513" lon="5.62558">
        <ele>626.2</ele>
        <time>2010-12-19T15:18:55Z</time>
      </trkpt>
      <trkpt lat="45.05124" lon="5.62564">
        <ele>627</ele>
        <time>2010-12-19T15:19:02Z</time>
      </trkpt>
      <trkpt lat="45.05122" lon="5.62566">
        <ele>627</ele>
        <time>2010-12-19T15:19:05Z</time>
      </trkpt>
      <trkpt lat="45.05117" lon="5.62572">
        <ele>627</ele>
        <time>2010-12-19T15:19:11Z</time>
      </trkpt>
      <trkpt lat="45.05113" lon="5.62574">
        <ele>627</ele>
        <time>2010-12-19T15:19:14Z</time>
      </trkpt>
      <trkpt lat="45.05112" lon="5.62575">
        <ele>627</ele>
        <time>2010-12-19T15:19:15Z</time>
      </trkpt>
      <trkpt lat="45.05109" lon="5.62577">
        <ele>626.8</ele>
        <time>2010-12-19T15:19:18Z</time>
      </trkpt>
      <trkpt lat="45.05106" lon="5.62579">
        <ele>626.8</ele>
        <time>2010-12-19T15:19:21Z</time>
      </trkpt>
      <trkpt lat="45.051" lon="5.62584">
        <ele>626.8</ele>
        <time>2010-12-19T15:19:27Z</time>
      </trkpt>
      <trkpt lat="45.05096" lon="5.62587">
        <ele>626.6</ele>
        <time>2010-12-19T15:19:31Z</time>
      </trkpt>
      <trkpt lat="45.0509" lon="5.6259">
        <ele>626.6</ele>
        <time>2010-12-19T15:19:37Z</time>
      </trkpt>
      <trkpt lat="45.05084" lon="5.62592">
        <ele>626.4</ele>
        <time>2010-12-19T15:19:42Z</time>
      </trkpt>
      <trkpt lat="45.05083" lon="5.62592">
        <ele>626.4</ele>
        <time>2010-12-19T15:19:43Z</time>
      </trkpt>
      <trkpt lat="45.0508" lon="5.62592">
        <ele>626.4</ele>
        <time>2010-12-19T15:19:46Z</time>
      </trkpt>
      <trkpt lat="45.05079" lon="5.62592">
        <ele>626.6</ele>
        <time>2010-12-19T15:19:47Z</time>
      </trkpt>
      <trkpt lat="45.05075" lon="5.62594">
        <ele>627</ele>
        <time>2010-12-19T15:19:50Z</time>
      </trkpt>
      <trkpt lat="45.05068" lon="5.62595">
        <ele>628</ele>
        <time>2010-12-19T15:19:55Z</time>
      </trkpt>
      <trkpt lat="45.05065" lon="5.62594">
        <ele>628.4</ele>
        <time>2010-12-19T15:19:58Z</time>
      </trkpt>
      <trkpt lat="45.05061" lon="5.62593">
        <ele>629.2</ele>
        <time>2010-12-19T15:20:02Z</time>
      </trkpt>
      <trkpt lat="45.05052" lon="5.62585">
        <ele>630.6</ele>
        <time>2010-12-19T15:20:08Z</time>
      </trkpt>
      <trkpt lat="45.05049" lon="5.62583">
        <ele>631</ele>
        <time>2010-12-19T15:20:10Z</time>
      </trkpt>
      <trkpt lat="45.05045" lon="5.62581">
        <ele>632</ele>
        <time>2010-12-19T15:20:12Z</time>
      </trkpt>
      <trkpt lat="45.05041" lon="5.6258">
        <ele>632.8</ele>
        <time>2010-12-19T15:20:14Z</time>
      </trkpt>
      <trkpt lat="45.05034" lon="5.62579">
        <ele>634</ele>
        <time>2010-12-19T15:20:18Z</time>
      </trkpt>
      <trkpt lat="45.05032" lon="5.6258">
        <ele>634.8</ele>
        <time>2010-12-19T15:20:20Z</time>
      </trkpt>
      <trkpt lat="45.05029" lon="5.62581">
        <ele>634.8</ele>
        <time>2010-12-19T15:20:22Z</time>
      </trkpt>
      <trkpt lat="45.05024" lon="5.62581">
        <ele>635.8</ele>
        <time>2010-12-19T15:20:25Z</time>
      </trkpt>
      <trkpt lat="45.05023" lon="5.62581">
        <ele>636.2</ele>
        <time>2010-12-19T15:20:26Z</time>
      </trkpt>
      <trkpt lat="45.05018" lon="5.62584">
        <ele>636.8</ele>
        <time>2010-12-19T15:20:30Z</time>
      </trkpt>
      <trkpt lat="45.05017" lon="5.62586">
        <ele>637</ele>
        <time>2010-12-19T15:20:31Z</time>
      </trkpt>
      <trkpt lat="45.05012" lon="5.62591">
        <ele>638.4</ele>
        <time>2010-12-19T15:20:35Z</time>
      </trkpt>
      <trkpt lat="45.05005" lon="5.626">
        <ele>640.2</ele>
        <time>2010-12-19T15:20:41Z</time>
      </trkpt>
      <trkpt lat="45.05" lon="5.62605">
        <ele>641.8</ele>
        <time>2010-12-19T15:20:46Z</time>
      </trkpt>
      <trkpt lat="45.04998" lon="5.62609">
        <ele>642.2</ele>
        <time>2010-12-19T15:20:49Z</time>
      </trkpt>
      <trkpt lat="45.04996" lon="5.6261">
        <ele>643</ele>
        <time>2010-12-19T15:20:51Z</time>
      </trkpt>
      <trkpt lat="45.04989" lon="5.62615">
        <ele>644.2</ele>
        <time>2010-12-19T15:20:57Z</time>
      </trkpt>
      <trkpt lat="45.04988" lon="5.62615">
        <ele>644.4</ele>
        <time>2010-12-19T15:20:58Z</time>
      </trkpt>
      <trkpt lat="45.04983" lon="5.62617">
        <ele>645.2</ele>
        <time>2010-12-19T15:21:01Z</time>
      </trkpt>
      <trkpt lat="45.0498" lon="5.62619">
        <ele>645.8</ele>
        <time>2010-12-19T15:21:04Z</time>
      </trkpt>
      <trkpt lat="45.04979" lon="5.6262">
        <ele>646.2</ele>
        <time>2010-12-19T15:21:06Z</time>
      </trkpt>
      <trkpt lat="45.04979" lon="5.62621">
        <ele>646.4</ele>
        <time>2010-12-19T15:21:07Z</time>
      </trkpt>
      <trkpt lat="45.04977" lon="5.62621">
        <ele>646.6</ele>
        <time>2010-12-19T15:21:09Z</time>
      </trkpt>
      <trkpt lat="45.04975" lon="5.62622">
        <ele>646.4</ele>
        <time>2010-12-19T15:21:12Z</time>
      </trkpt>
      <trkpt lat="45.04972" lon="5.62623">
        <ele>646.6</ele>
        <time>2010-12-19T15:21:15Z</time>
      </trkpt>
      <trkpt lat="45.04971" lon="5.62623">
        <ele>646.6</ele>
        <time>2010-12-19T15:21:16Z</time>
      </trkpt>
      <trkpt lat="45.04967" lon="5.62625">
        <ele>646.6</ele>
        <time>2010-12-19T15:21:21Z</time>
      </trkpt>
      <trkpt lat="45.04963" lon="5.62624">
        <ele>646.8</ele>
        <time>2010-12-19T15:21:25Z</time>
      </trkpt>
      <trkpt lat="45.04962" lon="5.62625">
        <ele>647</ele>
        <time>2010-12-19T15:21:26Z</time>
      </trkpt>
      <trkpt lat="45.0496" lon="5.62625">
        <ele>647.2</ele>
        <time>2010-12-19T15:21:27Z</time>
      </trkpt>
      <trkpt lat="45.04958" lon="5.62626">
        <ele>647.6</ele>
        <time>2010-12-19T15:21:30Z</time>
      </trkpt>
      <trkpt lat="45.04955" lon="5.62628">
        <ele>648</ele>
        <time>2010-12-19T15:21:35Z</time>
      </trkpt>
      <trkpt lat="45.04952" lon="5.6263">
        <ele>648.8</ele>
        <time>2010-12-19T15:21:40Z</time>
      </trkpt>
      <trkpt lat="45.04952" lon="5.62631">
        <ele>650.4</ele>
        <time>2010-12-19T15:21:50Z</time>
      </trkpt>
      <trkpt lat="45.0495" lon="5.62636">
        <ele>651</ele>
        <time>2010-12-19T15:21:54Z</time>
      </trkpt>
      <trkpt lat="45.04949" lon="5.62637">
        <ele>651</ele>
        <time>2010-12-19T15:21:56Z</time>
      </trkpt>
      <trkpt lat="45.04948" lon="5.62638">
        <ele>651.2</ele>
        <time>2010-12-19T15:21:58Z</time>
      </trkpt>
      <trkpt lat="45.04947" lon="5.6264">
        <ele>651.2</ele>
        <time>2010-12-19T15:22:00Z</time>
      </trkpt>
      <trkpt lat="45.04947" lon="5.62646">
        <ele>651</ele>
        <time>2010-12-19T15:22:04Z</time>
      </trkpt>
      <trkpt lat="45.04947" lon="5.62647">
        <ele>651</ele>
        <time>2010-12-19T15:22:05Z</time>
      </trkpt>
      <trkpt lat="45.04944" lon="5.62651">
        <ele>651.2</ele>
        <time>2010-12-19T15:22:08Z</time>
      </trkpt>
      <trkpt lat="45.04941" lon="5.62653">
        <ele>651.6</ele>
        <time>2010-12-19T15:22:12Z</time>
      </trkpt>
      <trkpt lat="45.0494" lon="5.62654">
        <ele>651.8</ele>
        <time>2010-12-19T15:22:13Z</time>
      </trkpt>
      <trkpt lat="45.04937" lon="5.62656">
        <ele>652</ele>
        <time>2010-12-19T15:22:17Z</time>
      </trkpt>
      <trkpt lat="45.04934" lon="5.62658">
        <ele>652.6</ele>
        <time>2010-12-19T15:22:20Z</time>
      </trkpt>
      <trkpt lat="45.04933" lon="5.62658">
        <ele>652.8</ele>
        <time>2010-12-19T15:22:22Z</time>
      </trkpt>
      <trkpt lat="45.04929" lon="5.62664">
        <ele>653.6</ele>
        <time>2010-12-19T15:22:28Z</time>
      </trkpt>
      <trkpt lat="45.04923" lon="5.62672">
        <ele>654.6</ele>
        <time>2010-12-19T15:22:33Z</time>
      </trkpt>
      <trkpt lat="45.0492" lon="5.62677">
        <ele>655.2</ele>
        <time>2010-12-19T15:22:37Z</time>
      </trkpt>
      <trkpt lat="45.04919" lon="5.62678">
        <ele>655.4</ele>
        <time>2010-12-19T15:22:38Z</time>
      </trkpt>
      <trkpt lat="45.04911" lon="5.62682">
        <ele>656.6</ele>
        <time>2010-12-19T15:22:44Z</time>
      </trkpt>
      <trkpt lat="45.04908" lon="5.62687">
        <ele>657.2</ele>
        <time>2010-12-19T15:22:47Z</time>
      </trkpt>
      <trkpt lat="45.04907" lon="5.6269">
        <ele>657.6</ele>
        <time>2010-12-19T15:22:49Z</time>
      </trkpt>
      <trkpt lat="45.04905" lon="5.62694">
        <ele>658.2</ele>
        <time>2010-12-19T15:22:51Z</time>
      </trkpt>
      <trkpt lat="45.04901" lon="5.627">
        <ele>659.2</ele>
        <time>2010-12-19T15:22:55Z</time>
      </trkpt>
      <trkpt lat="45.04896" lon="5.62708">
        <ele>660.6</ele>
        <time>2010-12-19T15:23:01Z</time>
      </trkpt>
      <trkpt lat="45.04893" lon="5.62713">
        <ele>661.8</ele>
        <time>2010-12-19T15:23:05Z</time>
      </trkpt>
      <trkpt lat="45.04892" lon="5.62715">
        <ele>662.4</ele>
        <time>2010-12-19T15:23:07Z</time>
      </trkpt>
      <trkpt lat="45.04889" lon="5.6272">
        <ele>663.6</ele>
        <time>2010-12-19T15:23:12Z</time>
      </trkpt>
      <trkpt lat="45.04888" lon="5.62721">
        <ele>663.8</ele>
        <time>2010-12-19T15:23:13Z</time>
      </trkpt>
      <trkpt lat="45.04886" lon="5.62725">
        <ele>664.6</ele>
        <time>2010-12-19T15:23:16Z</time>
      </trkpt>
      <trkpt lat="45.04885" lon="5.6273">
        <ele>665</ele>
        <time>2010-12-19T15:23:19Z</time>
      </trkpt>
      <trkpt lat="45.04883" lon="5.62733">
        <ele>665.4</ele>
        <time>2010-12-19T15:23:21Z</time>
      </trkpt>
      <trkpt lat="45.0488" lon="5.62736">
        <ele>666.2</ele>
        <time>2010-12-19T15:23:24Z</time>
      </trkpt>
      <trkpt lat="45.04878" lon="5.6274">
        <ele>666.4</ele>
        <time>2010-12-19T15:23:27Z</time>
      </trkpt>
      <trkpt lat="45.04878" lon="5.62744">
        <ele>667.2</ele>
        <time>2010-12-19T15:23:32Z</time>
      </trkpt>
      <trkpt lat="45.04877" lon="5.62745">
        <ele>667.4</ele>
        <time>2010-12-19T15:23:34Z</time>
      </trkpt>
      <trkpt lat="45.04875" lon="5.62748">
        <ele>668.2</ele>
        <time>2010-12-19T15:23:39Z</time>
      </trkpt>
      <trkpt lat="45.04874" lon="5.6275">
        <ele>668.4</ele>
        <time>2010-12-19T15:23:41Z</time>
      </trkpt>
      <trkpt lat="45.04873" lon="5.62751">
        <ele>668.6</ele>
        <time>2010-12-19T15:23:43Z</time>
      </trkpt>
      <trkpt lat="45.04872" lon="5.62754">
        <ele>669</ele>
        <time>2010-12-19T15:23:47Z</time>
      </trkpt>
      <trkpt lat="45.0487" lon="5.62756">
        <ele>669.6</ele>
        <time>2010-12-19T15:23:51Z</time>
      </trkpt>
      <trkpt lat="45.04867" lon="5.62759">
        <ele>670.4</ele>
        <time>2010-12-19T15:23:57Z</time>
      </trkpt>
      <trkpt lat="45.04864" lon="5.62762">
        <ele>671</ele>
        <time>2010-12-19T15:24:02Z</time>
      </trkpt>
      <trkpt lat="45.04862" lon="5.62764">
        <ele>671.8</ele>
        <time>2010-12-19T15:24:06Z</time>
      </trkpt>
      <trkpt lat="45.0486" lon="5.62767">
        <ele>672.4</ele>
        <time>2010-12-19T15:24:11Z</time>
      </trkpt>
      <trkpt lat="45.04859" lon="5.62768">
        <ele>672.6</ele>
        <time>2010-12-19T15:24:12Z</time>
      </trkpt>
      <trkpt lat="45.04856" lon="5.62773">
        <ele>673.4</ele>
        <time>2010-12-19T15:24:18Z</time>
      </trkpt>
      <trkpt lat="45.04855" lon="5.62775">
        <ele>673.8</ele>
        <time>2010-12-19T15:24:21Z</time>
      </trkpt>
      <trkpt lat="45.04852" lon="5.62778">
        <ele>674.4</ele>
        <time>2010-12-19T15:24:25Z</time>
      </trkpt>
      <trkpt lat="45.0485" lon="5.6278">
        <ele>675.4</ele>
        <time>2010-12-19T15:24:29Z</time>
      </trkpt>
      <trkpt lat="45.04848" lon="5.62785">
        <ele>676.4</ele>
        <time>2010-12-19T15:24:34Z</time>
      </trkpt>
      <trkpt lat="45.04846" lon="5.62789">
        <ele>677.2</ele>
        <time>2010-12-19T15:24:38Z</time>
      </trkpt>
      <trkpt lat="45.04844" lon="5.62793">
        <ele>678.6</ele>
        <time>2010-12-19T15:24:43Z</time>
      </trkpt>
      <trkpt lat="45.04844" lon="5.62797">
        <ele>679.4</ele>
        <time>2010-12-19T15:24:46Z</time>
      </trkpt>
      <trkpt lat="45.04842" lon="5.628">
        <ele>681</ele>
        <time>2010-12-19T15:24:51Z</time>
      </trkpt>
      <trkpt lat="45.04839" lon="5.62801">
        <ele>682.4</ele>
        <time>2010-12-19T15:24:57Z</time>
      </trkpt>
      <trkpt lat="45.04835" lon="5.62801">
        <ele>683.8</ele>
        <time>2010-12-19T15:25:02Z</time>
      </trkpt>
      <trkpt lat="45.04835" lon="5.62801">
        <ele>684.2</ele>
        <time>2010-12-19T15:25:03Z</time>
      </trkpt>
      <trkpt lat="45.0483" lon="5.62798">
        <ele>685.4</ele>
        <time>2010-12-19T15:25:07Z</time>
      </trkpt>
      <trkpt lat="45.04826" lon="5.62793">
        <ele>687</ele>
        <time>2010-12-19T15:25:12Z</time>
      </trkpt>
      <trkpt lat="45.04825" lon="5.62793">
        <ele>687.4</ele>
        <time>2010-12-19T15:25:13Z</time>
      </trkpt>
      <trkpt lat="45.04822" lon="5.62794">
        <ele>688.6</ele>
        <time>2010-12-19T15:25:18Z</time>
      </trkpt>
      <trkpt lat="45.04819" lon="5.62796">
        <ele>689.4</ele>
        <time>2010-12-19T15:25:22Z</time>
      </trkpt>
      <trkpt lat="45.04818" lon="5.62797">
        <ele>689.8</ele>
        <time>2010-12-19T15:25:24Z</time>
      </trkpt>
      <trkpt lat="45.04816" lon="5.62799">
        <ele>690.8</ele>
        <time>2010-12-19T15:25:29Z</time>
      </trkpt>
      <trkpt lat="45.04814" lon="5.62805">
        <ele>693.2</ele>
        <time>2010-12-19T15:25:55Z</time>
      </trkpt>
      <trkpt lat="45.04811" lon="5.62807">
        <ele>693.4</ele>
        <time>2010-12-19T15:25:59Z</time>
      </trkpt>
      <trkpt lat="45.04809" lon="5.62809">
        <ele>693.8</ele>
        <time>2010-12-19T15:26:03Z</time>
      </trkpt>
      <trkpt lat="45.04807" lon="5.6281">
        <ele>694</ele>
        <time>2010-12-19T15:26:07Z</time>
      </trkpt>
      <trkpt lat="45.04805" lon="5.62811">
        <ele>694.2</ele>
        <time>2010-12-19T15:26:09Z</time>
      </trkpt>
      <trkpt lat="45.04803" lon="5.62812">
        <ele>694.6</ele>
        <time>2010-12-19T15:26:11Z</time>
      </trkpt>
      <trkpt lat="45.04801" lon="5.62813">
        <ele>695</ele>
        <time>2010-12-19T15:26:15Z</time>
      </trkpt>
      <trkpt lat="45.04798" lon="5.62815">
        <ele>695.8</ele>
        <time>2010-12-19T15:26:19Z</time>
      </trkpt>
      <trkpt lat="45.04795" lon="5.62817">
        <ele>696.4</ele>
        <time>2010-12-19T15:26:23Z</time>
      </trkpt>
      <trkpt lat="45.04792" lon="5.6282">
        <ele>697.4</ele>
        <time>2010-12-19T15:26:28Z</time>
      </trkpt>
      <trkpt lat="45.0479" lon="5.62824">
        <ele>698.2</ele>
        <time>2010-12-19T15:26:32Z</time>
      </trkpt>
      <trkpt lat="45.04789" lon="5.62825">
        <ele>698.4</ele>
        <time>2010-12-19T15:26:33Z</time>
      </trkpt>
      <trkpt lat="45.04788" lon="5.62828">
        <ele>699.2</ele>
        <time>2010-12-19T15:26:37Z</time>
      </trkpt>
      <trkpt lat="45.04786" lon="5.6283">
        <ele>700.2</ele>
        <time>2010-12-19T15:26:41Z</time>
      </trkpt>
      <trkpt lat="45.04785" lon="5.62833">
        <ele>700.8</ele>
        <time>2010-12-19T15:26:45Z</time>
      </trkpt>
      <trkpt lat="45.04783" lon="5.62836">
        <ele>701.8</ele>
        <time>2010-12-19T15:26:50Z</time>
      </trkpt>
      <trkpt lat="45.0478" lon="5.62839">
        <ele>702.8</ele>
        <time>2010-12-19T15:26:55Z</time>
      </trkpt>
      <trkpt lat="45.04778" lon="5.62841">
        <ele>703.8</ele>
        <time>2010-12-19T15:26:59Z</time>
      </trkpt>
      <trkpt lat="45.04776" lon="5.62843">
        <ele>704.4</ele>
        <time>2010-12-19T15:27:02Z</time>
      </trkpt>
      <trkpt lat="45.04775" lon="5.62843">
        <ele>704.6</ele>
        <time>2010-12-19T15:27:03Z</time>
      </trkpt>
      <trkpt lat="45.04775" lon="5.62845">
        <ele>705.6</ele>
        <time>2010-12-19T15:27:08Z</time>
      </trkpt>
      <trkpt lat="45.04773" lon="5.62847">
        <ele>706.8</ele>
        <time>2010-12-19T15:27:14Z</time>
      </trkpt>
      <trkpt lat="45.04772" lon="5.62852">
        <ele>710.8</ele>
        <time>2010-12-19T15:27:42Z</time>
      </trkpt>
      <trkpt lat="45.0477" lon="5.62854">
        <ele>711.2</ele>
        <time>2010-12-19T15:27:46Z</time>
      </trkpt>
      <trkpt lat="45.0477" lon="5.62858">
        <ele>711.8</ele>
        <time>2010-12-19T15:27:49Z</time>
      </trkpt>
      <trkpt lat="45.0477" lon="5.62862">
        <ele>712.6</ele>
        <time>2010-12-19T15:27:53Z</time>
      </trkpt>
      <trkpt lat="45.04768" lon="5.62864">
        <ele>713.6</ele>
        <time>2010-12-19T15:27:57Z</time>
      </trkpt>
      <trkpt lat="45.04767" lon="5.62867">
        <ele>714.4</ele>
        <time>2010-12-19T15:28:00Z</time>
      </trkpt>
      <trkpt lat="45.0476" lon="5.62869">
        <ele>717.2</ele>
        <time>2010-12-19T15:28:10Z</time>
      </trkpt>
      <trkpt lat="45.04758" lon="5.62871">
        <ele>718</ele>
        <time>2010-12-19T15:28:13Z</time>
      </trkpt>
      <trkpt lat="45.04753" lon="5.62873">
        <ele>719.2</ele>
        <time>2010-12-19T15:28:18Z</time>
      </trkpt>
      <trkpt lat="45.0475" lon="5.62873">
        <ele>720.2</ele>
        <time>2010-12-19T15:28:21Z</time>
      </trkpt>
      <trkpt lat="45.04749" lon="5.62873">
        <ele>720.4</ele>
        <time>2010-12-19T15:28:22Z</time>
      </trkpt>
      <trkpt lat="45.04749" lon="5.62873">
        <ele>720.6</ele>
        <time>2010-12-19T15:28:23Z</time>
      </trkpt>
      <trkpt lat="45.04745" lon="5.62874">
        <ele>722</ele>
        <time>2010-12-19T15:28:27Z</time>
      </trkpt>
      <trkpt lat="45.04736" lon="5.62882">
        <ele>724.6</ele>
        <time>2010-12-19T15:28:41Z</time>
      </trkpt>
      <trkpt lat="45.04737" lon="5.62885">
        <ele>725</ele>
        <time>2010-12-19T15:28:43Z</time>
      </trkpt>
      <trkpt lat="45.04738" lon="5.62886">
        <ele>725.2</ele>
        <time>2010-12-19T15:28:44Z</time>
      </trkpt>
      <trkpt lat="45.04739" lon="5.62888">
        <ele>726.2</ele>
        <time>2010-12-19T15:28:48Z</time>
      </trkpt>
      <trkpt lat="45.0474" lon="5.62889">
        <ele>726.4</ele>
        <time>2010-12-19T15:28:49Z</time>
      </trkpt>
      <trkpt lat="45.0474" lon="5.62888">
        <ele>728.4</ele>
        <time>2010-12-19T15:28:54Z</time>
      </trkpt>
      <trkpt lat="45.04741" lon="5.62895">
        <ele>730</ele>
        <time>2010-12-19T15:29:00Z</time>
      </trkpt>
      <trkpt lat="45.04743" lon="5.62898">
        <ele>730.8</ele>
        <time>2010-12-19T15:29:03Z</time>
      </trkpt>
      <trkpt lat="45.04743" lon="5.62905">
        <ele>731.6</ele>
        <time>2010-12-19T15:29:08Z</time>
      </trkpt>
      <trkpt lat="45.04741" lon="5.62906">
        <ele>732.2</ele>
        <time>2010-12-19T15:29:10Z</time>
      </trkpt>
      <trkpt lat="45.04739" lon="5.62907">
        <ele>732.8</ele>
        <time>2010-12-19T15:29:13Z</time>
      </trkpt>
      <trkpt lat="45.04738" lon="5.62907">
        <ele>733</ele>
        <time>2010-12-19T15:29:14Z</time>
      </trkpt>
      <trkpt lat="45.04737" lon="5.62908">
        <ele>733.4</ele>
        <time>2010-12-19T15:29:15Z</time>
      </trkpt>
      <trkpt lat="45.04734" lon="5.62909">
        <ele>734</ele>
        <time>2010-12-19T15:29:18Z</time>
      </trkpt>
      <trkpt lat="45.04734" lon="5.62909">
        <ele>734.2</ele>
        <time>2010-12-19T15:29:19Z</time>
      </trkpt>
      <trkpt lat="45.04734" lon="5.62912">
        <ele>735</ele>
        <time>2010-12-19T15:29:23Z</time>
      </trkpt>
      <trkpt lat="45.04731" lon="5.62915">
        <ele>736.6</ele>
        <time>2010-12-19T15:29:28Z</time>
      </trkpt>
      <trkpt lat="45.04727" lon="5.62916">
        <ele>737.8</ele>
        <time>2010-12-19T15:29:33Z</time>
      </trkpt>
      <trkpt lat="45.04724" lon="5.62919">
        <ele>738.8</ele>
        <time>2010-12-19T15:29:36Z</time>
      </trkpt>
      <trkpt lat="45.04724" lon="5.6292">
        <ele>739</ele>
        <time>2010-12-19T15:29:37Z</time>
      </trkpt>
      <trkpt lat="45.04723" lon="5.62921">
        <ele>739.2</ele>
        <time>2010-12-19T15:29:38Z</time>
      </trkpt>
      <trkpt lat="45.04722" lon="5.62921">
        <ele>739.4</ele>
        <time>2010-12-19T15:29:39Z</time>
      </trkpt>
      <trkpt lat="45.0472" lon="5.62923">
        <ele>739.6</ele>
        <time>2010-12-19T15:29:41Z</time>
      </trkpt>
      <trkpt lat="45.04718" lon="5.62925">
        <ele>740</ele>
        <time>2010-12-19T15:29:43Z</time>
      </trkpt>
      <trkpt lat="45.04718" lon="5.62925">
        <ele>740.2</ele>
        <time>2010-12-19T15:29:44Z</time>
      </trkpt>
      <trkpt lat="45.04715" lon="5.62928">
        <ele>741</ele>
        <time>2010-12-19T15:29:48Z</time>
      </trkpt>
      <trkpt lat="45.04712" lon="5.62931">
        <ele>741.8</ele>
        <time>2010-12-19T15:29:52Z</time>
      </trkpt>
      <trkpt lat="45.0471" lon="5.62931">
        <ele>742</ele>
        <time>2010-12-19T15:29:53Z</time>
      </trkpt>
      <trkpt lat="45.04706" lon="5.62931">
        <ele>742.4</ele>
        <time>2010-12-19T15:29:57Z</time>
      </trkpt>
      <trkpt lat="45.04706" lon="5.62931">
        <ele>742.4</ele>
        <time>2010-12-19T15:29:58Z</time>
      </trkpt>
      <trkpt lat="45.04703" lon="5.62928">
        <ele>743</ele>
        <time>2010-12-19T15:30:01Z</time>
      </trkpt>
      <trkpt lat="45.04702" lon="5.62922">
        <ele>743.2</ele>
        <time>2010-12-19T15:30:03Z</time>
      </trkpt>
      <trkpt lat="45.04694" lon="5.62914">
        <ele>744</ele>
        <time>2010-12-19T15:30:07Z</time>
      </trkpt>
      <trkpt lat="45.04692" lon="5.62913">
        <ele>744.2</ele>
        <time>2010-12-19T15:30:08Z</time>
      </trkpt>
      <trkpt lat="45.0469" lon="5.62912">
        <ele>744.8</ele>
        <time>2010-12-19T15:30:09Z</time>
      </trkpt>
      <trkpt lat="45.04689" lon="5.62911">
        <ele>745.2</ele>
        <time>2010-12-19T15:30:11Z</time>
      </trkpt>
      <trkpt lat="45.04686" lon="5.6291">
        <ele>745.4</ele>
        <time>2010-12-19T15:30:12Z</time>
      </trkpt>
      <trkpt lat="45.04678" lon="5.62911">
        <ele>746.8</ele>
        <time>2010-12-19T15:30:17Z</time>
      </trkpt>
      <trkpt lat="45.04673" lon="5.62912">
        <ele>747.8</ele>
        <time>2010-12-19T15:30:22Z</time>
      </trkpt>
      <trkpt lat="45.04663" lon="5.6291">
        <ele>750.2</ele>
        <time>2010-12-19T15:30:29Z</time>
      </trkpt>
      <trkpt lat="45.04659" lon="5.6291">
        <ele>751.2</ele>
        <time>2010-12-19T15:30:32Z</time>
      </trkpt>
      <trkpt lat="45.04656" lon="5.6291">
        <ele>752.2</ele>
        <time>2010-12-19T15:30:34Z</time>
      </trkpt>
      <trkpt lat="45.04651" lon="5.62908">
        <ele>753.4</ele>
        <time>2010-12-19T15:30:37Z</time>
      </trkpt>
      <trkpt lat="45.04643" lon="5.62908">
        <ele>755.4</ele>
        <time>2010-12-19T15:30:43Z</time>
      </trkpt>
      <trkpt lat="45.04638" lon="5.62903">
        <ele>756.2</ele>
        <time>2010-12-19T15:30:47Z</time>
      </trkpt>
      <trkpt lat="45.04634" lon="5.62901">
        <ele>756.6</ele>
        <time>2010-12-19T15:30:50Z</time>
      </trkpt>
      <trkpt lat="45.04629" lon="5.62899">
        <ele>758.2</ele>
        <time>2010-12-19T15:30:56Z</time>
      </trkpt>
      <trkpt lat="45.04626" lon="5.629">
        <ele>759.6</ele>
        <time>2010-12-19T15:31:01Z</time>
      </trkpt>
      <trkpt lat="45.04618" lon="5.62903">
        <ele>764.2</ele>
        <time>2010-12-19T15:31:14Z</time>
      </trkpt>
      <trkpt lat="45.04617" lon="5.62903">
        <ele>764.6</ele>
        <time>2010-12-19T15:31:15Z</time>
      </trkpt>
      <trkpt lat="45.04612" lon="5.62897">
        <ele>766.2</ele>
        <time>2010-12-19T15:31:22Z</time>
      </trkpt>
      <trkpt lat="45.04608" lon="5.62898">
        <ele>766.8</ele>
        <time>2010-12-19T15:31:25Z</time>
      </trkpt>
      <trkpt lat="45.04601" lon="5.62896">
        <ele>767.8</ele>
        <time>2010-12-19T15:31:27Z</time>
      </trkpt>
      <trkpt lat="45.04593" lon="5.62894">
        <ele>768.8</ele>
        <time>2010-12-19T15:31:31Z</time>
      </trkpt>
      <trkpt lat="45.0458" lon="5.62894">
        <ele>770</ele>
        <time>2010-12-19T15:31:37Z</time>
      </trkpt>
      <trkpt lat="45.04569" lon="5.62895">
        <ele>771.6</ele>
        <time>2010-12-19T15:31:43Z</time>
      </trkpt>
      <trkpt lat="45.04564" lon="5.62896">
        <ele>772.2</ele>
        <time>2010-12-19T15:31:45Z</time>
      </trkpt>
      <trkpt lat="45.04554" lon="5.62896">
        <ele>773.6</ele>
        <time>2010-12-19T15:31:49Z</time>
      </trkpt>
      <trkpt lat="45.04545" lon="5.62898">
        <ele>774.6</ele>
        <time>2010-12-19T15:31:53Z</time>
      </trkpt>
      <trkpt lat="45.04541" lon="5.62899">
        <ele>775.2</ele>
        <time>2010-12-19T15:31:56Z</time>
      </trkpt>
      <trkpt lat="45.04529" lon="5.62902">
        <ele>776.8</ele>
        <time>2010-12-19T15:32:01Z</time>
      </trkpt>
      <trkpt lat="45.04527" lon="5.62902">
        <ele>777</ele>
        <time>2010-12-19T15:32:02Z</time>
      </trkpt>
      <trkpt lat="45.04517" lon="5.62898">
        <ele>777.2</ele>
        <time>2010-12-19T15:32:09Z</time>
      </trkpt>
      <trkpt lat="45.04507" lon="5.62897">
        <ele>777.6</ele>
        <time>2010-12-19T15:32:13Z</time>
      </trkpt>
      <trkpt lat="45.04504" lon="5.62896">
        <ele>777.4</ele>
        <time>2010-12-19T15:32:15Z</time>
      </trkpt>
      <trkpt lat="45.04491" lon="5.62896">
        <ele>777.2</ele>
        <time>2010-12-19T15:32:20Z</time>
      </trkpt>
      <trkpt lat="45.04488" lon="5.62897">
        <ele>777.2</ele>
        <time>2010-12-19T15:32:21Z</time>
      </trkpt>
      <trkpt lat="45.04472" lon="5.62902">
        <ele>777.2</ele>
        <time>2010-12-19T15:32:27Z</time>
      </trkpt>
      <trkpt lat="45.04469" lon="5.62904">
        <ele>777</ele>
        <time>2010-12-19T15:32:29Z</time>
      </trkpt>
      <trkpt lat="45.04459" lon="5.62908">
        <ele>776.8</ele>
        <time>2010-12-19T15:32:32Z</time>
      </trkpt>
      <trkpt lat="45.04451" lon="5.6291">
        <ele>776.8</ele>
        <time>2010-12-19T15:32:36Z</time>
      </trkpt>
      <trkpt lat="45.04444" lon="5.62913">
        <ele>776.6</ele>
        <time>2010-12-19T15:32:39Z</time>
      </trkpt>
      <trkpt lat="45.04432" lon="5.6292">
        <ele>776.2</ele>
        <time>2010-12-19T15:32:44Z</time>
      </trkpt>
      <trkpt lat="45.0443" lon="5.62921">
        <ele>776</ele>
        <time>2010-12-19T15:32:45Z</time>
      </trkpt>
      <trkpt lat="45.04414" lon="5.62931">
        <ele>775</ele>
        <time>2010-12-19T15:32:51Z</time>
      </trkpt>
      <trkpt lat="45.04401" lon="5.62936">
        <ele>773.6</ele>
        <time>2010-12-19T15:32:58Z</time>
      </trkpt>
      <trkpt lat="45.04397" lon="5.6294">
        <ele>773.2</ele>
        <time>2010-12-19T15:33:00Z</time>
      </trkpt>
      <trkpt lat="45.04388" lon="5.62945">
        <ele>772.2</ele>
        <time>2010-12-19T15:33:03Z</time>
      </trkpt>
      <trkpt lat="45.04378" lon="5.62952">
        <ele>770.8</ele>
        <time>2010-12-19T15:33:09Z</time>
      </trkpt>
      <trkpt lat="45.04367" lon="5.62962">
        <ele>769.4</ele>
        <time>2010-12-19T15:33:15Z</time>
      </trkpt>
      <trkpt lat="45.04363" lon="5.62966">
        <ele>768.8</ele>
        <time>2010-12-19T15:33:17Z</time>
      </trkpt>
      <trkpt lat="45.04354" lon="5.62973">
        <ele>767.8</ele>
        <time>2010-12-19T15:33:21Z</time>
      </trkpt>
      <trkpt lat="45.04346" lon="5.62979">
        <ele>767.2</ele>
        <time>2010-12-19T15:33:24Z</time>
      </trkpt>
      <trkpt lat="45.04342" lon="5.62981">
        <ele>766.8</ele>
        <time>2010-12-19T15:33:26Z</time>
      </trkpt>
      <trkpt lat="45.04327" lon="5.62984">
        <ele>765.4</ele>
        <time>2010-12-19T15:33:32Z</time>
      </trkpt>
      <trkpt lat="45.04315" lon="5.62982">
        <ele>764.2</ele>
        <time>2010-12-19T15:33:37Z</time>
      </trkpt>
      <trkpt lat="45.04308" lon="5.6298">
        <ele>763.6</ele>
        <time>2010-12-19T15:33:40Z</time>
      </trkpt>
      <trkpt lat="45.04301" lon="5.62978">
        <ele>762.6</ele>
        <time>2010-12-19T15:33:43Z</time>
      </trkpt>
      <trkpt lat="45.04299" lon="5.62975">
        <ele>761.6</ele>
        <time>2010-12-19T15:33:47Z</time>
      </trkpt>
      <trkpt lat="45.04291" lon="5.62978">
        <ele>753.4</ele>
        <time>2010-12-19T15:34:30Z</time>
      </trkpt>
      <trkpt lat="45.04289" lon="5.62977">
        <ele>753.2</ele>
        <time>2010-12-19T15:34:32Z</time>
      </trkpt>
      <trkpt lat="45.04281" lon="5.62975">
        <ele>752.4</ele>
        <time>2010-12-19T15:34:37Z</time>
      </trkpt>
      <trkpt lat="45.0427" lon="5.62973">
        <ele>752</ele>
        <time>2010-12-19T15:34:41Z</time>
      </trkpt>
      <trkpt lat="45.04265" lon="5.62971">
        <ele>751.8</ele>
        <time>2010-12-19T15:34:43Z</time>
      </trkpt>
      <trkpt lat="45.04254" lon="5.62967">
        <ele>751.2</ele>
        <time>2010-12-19T15:34:48Z</time>
      </trkpt>
      <trkpt lat="45.04252" lon="5.62966">
        <ele>751</ele>
        <time>2010-12-19T15:34:49Z</time>
      </trkpt>
      <trkpt lat="45.04248" lon="5.62961">
        <ele>750</ele>
        <time>2010-12-19T15:34:53Z</time>
      </trkpt>
      <trkpt lat="45.04247" lon="5.62959">
        <ele>749.6</ele>
        <time>2010-12-19T15:34:55Z</time>
      </trkpt>
      <trkpt lat="45.04246" lon="5.62956">
        <ele>748.8</ele>
        <time>2010-12-19T15:34:58Z</time>
      </trkpt>
      <trkpt lat="45.04247" lon="5.62954">
        <ele>748.2</ele>
        <time>2010-12-19T15:35:01Z</time>
      </trkpt>
      <trkpt lat="45.04246" lon="5.62948">
        <ele>747.4</ele>
        <time>2010-12-19T15:35:05Z</time>
      </trkpt>
      <trkpt lat="45.04244" lon="5.6294">
        <ele>746.6</ele>
        <time>2010-12-19T15:35:10Z</time>
      </trkpt>
      <trkpt lat="45.04243" lon="5.62939">
        <ele>746.4</ele>
        <time>2010-12-19T15:35:11Z</time>
      </trkpt>
      <trkpt lat="45.04244" lon="5.62934">
        <ele>745.8</ele>
        <time>2010-12-19T15:35:16Z</time>
      </trkpt>
      <trkpt lat="45.04247" lon="5.62932">
        <ele>745.6</ele>
        <time>2010-12-19T15:35:19Z</time>
      </trkpt>
      <trkpt lat="45.04246" lon="5.62928">
        <ele>745</ele>
        <time>2010-12-19T15:35:27Z</time>
      </trkpt>
      <trkpt lat="45.0424" lon="5.62922">
        <ele>745.2</ele>
        <time>2010-12-19T15:35:43Z</time>
      </trkpt>
      <trkpt lat="45.04238" lon="5.6292">
        <ele>745.2</ele>
        <time>2010-12-19T15:35:47Z</time>
      </trkpt>
      <trkpt lat="45.04234" lon="5.62919">
        <ele>745.2</ele>
        <time>2010-12-19T15:35:50Z</time>
      </trkpt>
      <trkpt lat="45.04232" lon="5.62919">
        <ele>745.2</ele>
        <time>2010-12-19T15:35:51Z</time>
      </trkpt>
      <trkpt lat="45.04227" lon="5.62918">
        <ele>745.6</ele>
        <time>2010-12-19T15:35:56Z</time>
      </trkpt>
      <trkpt lat="45.04222" lon="5.62917">
        <ele>746.4</ele>
        <time>2010-12-19T15:36:00Z</time>
      </trkpt>
      <trkpt lat="45.04222" lon="5.62916">
        <ele>746.4</ele>
        <time>2010-12-19T15:36:01Z</time>
      </trkpt>
      <trkpt lat="45.04221" lon="5.62915">
        <ele>746.4</ele>
        <time>2010-12-19T15:36:02Z</time>
      </trkpt>
      <trkpt lat="45.04219" lon="5.62914">
        <ele>746.8</ele>
        <time>2010-12-19T15:36:04Z</time>
      </trkpt>
      <trkpt lat="45.04214" lon="5.62912">
        <ele>748.2</ele>
        <time>2010-12-19T15:36:10Z</time>
      </trkpt>
      <trkpt lat="45.04209" lon="5.62911">
        <ele>750.6</ele>
        <time>2010-12-19T15:36:17Z</time>
      </trkpt>
      <trkpt lat="45.04201" lon="5.6291">
        <ele>752</ele>
        <time>2010-12-19T15:36:22Z</time>
      </trkpt>
      <trkpt lat="45.04199" lon="5.62908">
        <ele>752.2</ele>
        <time>2010-12-19T15:36:24Z</time>
      </trkpt>
      <trkpt lat="45.04194" lon="5.62908">
        <ele>753</ele>
        <time>2010-12-19T15:36:29Z</time>
      </trkpt>
      <trkpt lat="45.04191" lon="5.62904">
        <ele>752.8</ele>
        <time>2010-12-19T15:36:35Z</time>
      </trkpt>
      <trkpt lat="45.04185" lon="5.629">
        <ele>752.6</ele>
        <time>2010-12-19T15:36:41Z</time>
      </trkpt>
      <trkpt lat="45.04184" lon="5.62901">
        <ele>752.8</ele>
        <time>2010-12-19T15:36:42Z</time>
      </trkpt>
      <trkpt lat="45.04181" lon="5.62903">
        <ele>753</ele>
        <time>2010-12-19T15:36:46Z</time>
      </trkpt>
      <trkpt lat="45.0418" lon="5.62903">
        <ele>752.8</ele>
        <time>2010-12-19T15:36:47Z</time>
      </trkpt>
      <trkpt lat="45.04175" lon="5.62902">
        <ele>752.6</ele>
        <time>2010-12-19T15:36:50Z</time>
      </trkpt>
      <trkpt lat="45.04172" lon="5.62899">
        <ele>752.6</ele>
        <time>2010-12-19T15:36:52Z</time>
      </trkpt>
      <trkpt lat="45.04167" lon="5.62898">
        <ele>752.4</ele>
        <time>2010-12-19T15:36:55Z</time>
      </trkpt>
      <trkpt lat="45.04163" lon="5.62897">
        <ele>752.2</ele>
        <time>2010-12-19T15:36:57Z</time>
      </trkpt>
      <trkpt lat="45.04156" lon="5.62893">
        <ele>751.8</ele>
        <time>2010-12-19T15:37:02Z</time>
      </trkpt>
      <trkpt lat="45.04148" lon="5.62897">
        <ele>752.2</ele>
        <time>2010-12-19T15:37:07Z</time>
      </trkpt>
      <trkpt lat="45.04142" lon="5.62895">
        <ele>752.8</ele>
        <time>2010-12-19T15:37:12Z</time>
      </trkpt>
      <trkpt lat="45.04141" lon="5.62895">
        <ele>753</ele>
        <time>2010-12-19T15:37:13Z</time>
      </trkpt>
      <trkpt lat="45.04137" lon="5.62895">
        <ele>753.6</ele>
        <time>2010-12-19T15:37:16Z</time>
      </trkpt>
      <trkpt lat="45.04136" lon="5.62894">
        <ele>753.6</ele>
        <time>2010-12-19T15:37:17Z</time>
      </trkpt>
      <trkpt lat="45.04133" lon="5.62891">
        <ele>753.8</ele>
        <time>2010-12-19T15:37:21Z</time>
      </trkpt>
      <trkpt lat="45.04131" lon="5.62889">
        <ele>754</ele>
        <time>2010-12-19T15:37:22Z</time>
      </trkpt>
      <trkpt lat="45.04123" lon="5.62885">
        <ele>754.8</ele>
        <time>2010-12-19T15:37:28Z</time>
      </trkpt>
      <trkpt lat="45.04116" lon="5.62884">
        <ele>755.2</ele>
        <time>2010-12-19T15:37:32Z</time>
      </trkpt>
      <trkpt lat="45.04113" lon="5.62885">
        <ele>755.6</ele>
        <time>2010-12-19T15:37:34Z</time>
      </trkpt>
      <trkpt lat="45.04107" lon="5.62886">
        <ele>757</ele>
        <time>2010-12-19T15:37:38Z</time>
      </trkpt>
      <trkpt lat="45.041" lon="5.62885">
        <ele>759.2</ele>
        <time>2010-12-19T15:37:45Z</time>
      </trkpt>
      <trkpt lat="45.04096" lon="5.62886">
        <ele>759.2</ele>
        <time>2010-12-19T15:37:50Z</time>
      </trkpt>
      <trkpt lat="45.04093" lon="5.62886">
        <ele>759.4</ele>
        <time>2010-12-19T15:37:51Z</time>
      </trkpt>
      <trkpt lat="45.04089" lon="5.62885">
        <ele>760</ele>
        <time>2010-12-19T15:37:54Z</time>
      </trkpt>
      <trkpt lat="45.04086" lon="5.62883">
        <ele>759.6</ele>
        <time>2010-12-19T15:37:59Z</time>
      </trkpt>
      <trkpt lat="45.04087" lon="5.62879">
        <ele>758.6</ele>
        <time>2010-12-19T15:38:05Z</time>
      </trkpt>
      <trkpt lat="45.04081" lon="5.62877">
        <ele>757.2</ele>
        <time>2010-12-19T15:38:17Z</time>
      </trkpt>
      <trkpt lat="45.0408" lon="5.62878">
        <ele>757</ele>
        <time>2010-12-19T15:38:18Z</time>
      </trkpt>
      <trkpt lat="45.0408" lon="5.62878">
        <ele>757</ele>
        <time>2010-12-19T15:38:19Z</time>
      </trkpt>
      <trkpt lat="45.04077" lon="5.62878">
        <ele>756.8</ele>
        <time>2010-12-19T15:38:22Z</time>
      </trkpt>
      <trkpt lat="45.04075" lon="5.62874">
        <ele>756.4</ele>
        <time>2010-12-19T15:38:26Z</time>
      </trkpt>
      <trkpt lat="45.04072" lon="5.62873">
        <ele>755.8</ele>
        <time>2010-12-19T15:38:31Z</time>
      </trkpt>
      <trkpt lat="45.04071" lon="5.62869">
        <ele>754.2</ele>
        <time>2010-12-19T15:38:38Z</time>
      </trkpt>
      <trkpt lat="45.04072" lon="5.62866">
        <ele>753.6</ele>
        <time>2010-12-19T15:38:41Z</time>
      </trkpt>
      <trkpt lat="45.04068" lon="5.62861">
        <ele>750.8</ele>
        <time>2010-12-19T15:39:05Z</time>
      </trkpt>
      <trkpt lat="45.04067" lon="5.62863">
        <ele>750.4</ele>
        <time>2010-12-19T15:39:08Z</time>
      </trkpt>
      <trkpt lat="45.04066" lon="5.62866">
        <ele>750.4</ele>
        <time>2010-12-19T15:39:11Z</time>
      </trkpt>
      <trkpt lat="45.04063" lon="5.62867">
        <ele>750.2</ele>
        <time>2010-12-19T15:39:13Z</time>
      </trkpt>
      <trkpt lat="45.04059" lon="5.6287">
        <ele>750.2</ele>
        <time>2010-12-19T15:39:18Z</time>
      </trkpt>
      <trkpt lat="45.04058" lon="5.62871">
        <ele>750.2</ele>
        <time>2010-12-19T15:39:19Z</time>
      </trkpt>
      <trkpt lat="45.04055" lon="5.62874">
        <ele>750.2</ele>
        <time>2010-12-19T15:39:22Z</time>
      </trkpt>
      <trkpt lat="45.04053" lon="5.62875">
        <ele>750.6</ele>
        <time>2010-12-19T15:39:26Z</time>
      </trkpt>
      <trkpt lat="45.04051" lon="5.62874">
        <ele>750.4</ele>
        <time>2010-12-19T15:39:28Z</time>
      </trkpt>
      <trkpt lat="45.04048" lon="5.62874">
        <ele>751</ele>
        <time>2010-12-19T15:39:32Z</time>
      </trkpt>
      <trkpt lat="45.04045" lon="5.62873">
        <ele>750.6</ele>
        <time>2010-12-19T15:39:38Z</time>
      </trkpt>
      <trkpt lat="45.04038" lon="5.62873">
        <ele>750.8</ele>
        <time>2010-12-19T15:39:42Z</time>
      </trkpt>
      <trkpt lat="45.04034" lon="5.62873">
        <ele>750.6</ele>
        <time>2010-12-19T15:39:46Z</time>
      </trkpt>
      <trkpt lat="45.04034" lon="5.62873">
        <ele>750.6</ele>
        <time>2010-12-19T15:39:47Z</time>
      </trkpt>
      <trkpt lat="45.04028" lon="5.62872">
        <ele>750</ele>
        <time>2010-12-19T15:39:52Z</time>
      </trkpt>
      <trkpt lat="45.0402" lon="5.62871">
        <ele>749.8</ele>
        <time>2010-12-19T15:39:57Z</time>
      </trkpt>
      <trkpt lat="45.04017" lon="5.62868">
        <ele>749.4</ele>
        <time>2010-12-19T15:40:00Z</time>
      </trkpt>
      <trkpt lat="45.04014" lon="5.62868">
        <ele>749.2</ele>
        <time>2010-12-19T15:40:02Z</time>
      </trkpt>
      <trkpt lat="45.04012" lon="5.62866">
        <ele>749.2</ele>
        <time>2010-12-19T15:40:04Z</time>
      </trkpt>
      <trkpt lat="45.04009" lon="5.62868">
        <ele>749.2</ele>
        <time>2010-12-19T15:40:06Z</time>
      </trkpt>
      <trkpt lat="45.04004" lon="5.62865">
        <ele>749</ele>
        <time>2010-12-19T15:40:13Z</time>
      </trkpt>
      <trkpt lat="45.04" lon="5.62867">
        <ele>749.8</ele>
        <time>2010-12-19T15:40:16Z</time>
      </trkpt>
      <trkpt lat="45.03997" lon="5.62868">
        <ele>750.8</ele>
        <time>2010-12-19T15:40:18Z</time>
      </trkpt>
      <trkpt lat="45.03995" lon="5.62867">
        <ele>751.6</ele>
        <time>2010-12-19T15:40:23Z</time>
      </trkpt>
      <trkpt lat="45.03991" lon="5.62867">
        <ele>752</ele>
        <time>2010-12-19T15:40:28Z</time>
      </trkpt>
      <trkpt lat="45.0399" lon="5.62867">
        <ele>752.2</ele>
        <time>2010-12-19T15:40:30Z</time>
      </trkpt>
      <trkpt lat="45.03987" lon="5.62868">
        <ele>752.4</ele>
        <time>2010-12-19T15:40:33Z</time>
      </trkpt>
      <trkpt lat="45.03982" lon="5.62866">
        <ele>751.8</ele>
        <time>2010-12-19T15:40:38Z</time>
      </trkpt>
      <trkpt lat="45.03981" lon="5.62865">
        <ele>751.6</ele>
        <time>2010-12-19T15:40:39Z</time>
      </trkpt>
      <trkpt lat="45.03977" lon="5.62868">
        <ele>751.6</ele>
        <time>2010-12-19T15:40:43Z</time>
      </trkpt>
      <trkpt lat="45.03973" lon="5.62868">
        <ele>751.6</ele>
        <time>2010-12-19T15:40:47Z</time>
      </trkpt>
      <trkpt lat="45.03967" lon="5.62868">
        <ele>753</ele>
        <time>2010-12-19T15:40:52Z</time>
      </trkpt>
      <trkpt lat="45.03964" lon="5.62866">
        <ele>753.8</ele>
        <time>2010-12-19T15:40:55Z</time>
      </trkpt>
      <trkpt lat="45.03963" lon="5.62866">
        <ele>754</ele>
        <time>2010-12-19T15:40:56Z</time>
      </trkpt>
      <trkpt lat="45.03962" lon="5.62865">
        <ele>754.2</ele>
        <time>2010-12-19T15:40:58Z</time>
      </trkpt>
      <trkpt lat="45.03961" lon="5.62864">
        <ele>754.2</ele>
        <time>2010-12-19T15:41:00Z</time>
      </trkpt>
      <trkpt lat="45.03959" lon="5.62863">
        <ele>754.6</ele>
        <time>2010-12-19T15:41:02Z</time>
      </trkpt>
      <trkpt lat="45.03959" lon="5.62863">
        <ele>754.6</ele>
        <time>2010-12-19T15:41:03Z</time>
      </trkpt>
      <trkpt lat="45.03958" lon="5.62863">
        <ele>754.6</ele>
        <time>2010-12-19T15:41:04Z</time>
      </trkpt>
      <trkpt lat="45.03956" lon="5.62863">
        <ele>755</ele>
        <time>2010-12-19T15:41:07Z</time>
      </trkpt>
      <trkpt lat="45.03953" lon="5.62862">
        <ele>755.6</ele>
        <time>2010-12-19T15:41:10Z</time>
      </trkpt>
      <trkpt lat="45.0395" lon="5.62863">
        <ele>756.4</ele>
        <time>2010-12-19T15:41:15Z</time>
      </trkpt>
      <trkpt lat="45.03947" lon="5.62862">
        <ele>757.4</ele>
        <time>2010-12-19T15:41:19Z</time>
      </trkpt>
      <trkpt lat="45.03943" lon="5.62861">
        <ele>758.6</ele>
        <time>2010-12-19T15:41:23Z</time>
      </trkpt>
      <trkpt lat="45.0394" lon="5.62849">
        <ele>761.4</ele>
        <time>2010-12-19T15:41:34Z</time>
      </trkpt>
      <trkpt lat="45.03939" lon="5.62847">
        <ele>762.2</ele>
        <time>2010-12-19T15:41:36Z</time>
      </trkpt>
      <trkpt lat="45.03939" lon="5.62847">
        <ele>762.2</ele>
        <time>2010-12-19T15:41:37Z</time>
      </trkpt>
      <trkpt lat="45.03935" lon="5.62848">
        <ele>766</ele>
        <time>2010-12-19T15:41:44Z</time>
      </trkpt>
      <trkpt lat="45.03933" lon="5.62846">
        <ele>768</ele>
        <time>2010-12-19T15:41:48Z</time>
      </trkpt>
      <trkpt lat="45.03932" lon="5.62845">
        <ele>768.6</ele>
        <time>2010-12-19T15:41:49Z</time>
      </trkpt>
      <trkpt lat="45.03927" lon="5.62845">
        <ele>771.2</ele>
        <time>2010-12-19T15:41:54Z</time>
      </trkpt>
      <trkpt lat="45.03927" lon="5.62844">
        <ele>771.4</ele>
        <time>2010-12-19T15:41:55Z</time>
      </trkpt>
      <trkpt lat="45.03925" lon="5.62844">
        <ele>772.2</ele>
        <time>2010-12-19T15:41:58Z</time>
      </trkpt>
      <trkpt lat="45.03923" lon="5.62841">
        <ele>774.8</ele>
        <time>2010-12-19T15:42:03Z</time>
      </trkpt>
      <trkpt lat="45.03922" lon="5.62841">
        <ele>774.8</ele>
        <time>2010-12-19T15:42:04Z</time>
      </trkpt>
      <trkpt lat="45.03921" lon="5.62842">
        <ele>775.8</ele>
        <time>2010-12-19T15:42:09Z</time>
      </trkpt>
      <trkpt lat="45.03919" lon="5.62838">
        <ele>776.4</ele>
        <time>2010-12-19T15:42:16Z</time>
      </trkpt>
      <trkpt lat="45.03919" lon="5.62832">
        <ele>776.8</ele>
        <time>2010-12-19T15:42:22Z</time>
      </trkpt>
      <trkpt lat="45.03919" lon="5.62832">
        <ele>777</ele>
        <time>2010-12-19T15:42:23Z</time>
      </trkpt>
      <trkpt lat="45.03919" lon="5.62826">
        <ele>777.6</ele>
        <time>2010-12-19T15:42:32Z</time>
      </trkpt>
      <trkpt lat="45.03917" lon="5.62823">
        <ele>778.6</ele>
        <time>2010-12-19T15:42:37Z</time>
      </trkpt>
      <trkpt lat="45.03914" lon="5.62823">
        <ele>778.6</ele>
        <time>2010-12-19T15:42:42Z</time>
      </trkpt>
      <trkpt lat="45.0391" lon="5.62824">
        <ele>778.6</ele>
        <time>2010-12-19T15:42:48Z</time>
      </trkpt>
      <trkpt lat="45.03908" lon="5.62821">
        <ele>778.2</ele>
        <time>2010-12-19T15:42:53Z</time>
      </trkpt>
      <trkpt lat="45.03907" lon="5.62819">
        <ele>778</ele>
        <time>2010-12-19T15:42:56Z</time>
      </trkpt>
      <trkpt lat="45.03906" lon="5.62816">
        <ele>777.6</ele>
        <time>2010-12-19T15:43:00Z</time>
      </trkpt>
      <trkpt lat="45.03906" lon="5.6281">
        <ele>776.8</ele>
        <time>2010-12-19T15:43:08Z</time>
      </trkpt>
      <trkpt lat="45.03907" lon="5.62806">
        <ele>776.4</ele>
        <time>2010-12-19T15:43:13Z</time>
      </trkpt>
      <trkpt lat="45.03906" lon="5.62805">
        <ele>775.6</ele>
        <time>2010-12-19T15:43:26Z</time>
      </trkpt>
      <trkpt lat="45.0391" lon="5.62801">
        <ele>775.4</ele>
        <time>2010-12-19T15:43:31Z</time>
      </trkpt>
      <trkpt lat="45.03911" lon="5.628">
        <ele>775.2</ele>
        <time>2010-12-19T15:43:33Z</time>
      </trkpt>
      <trkpt lat="45.03912" lon="5.62799">
        <ele>775.2</ele>
        <time>2010-12-19T15:43:34Z</time>
      </trkpt>
      <trkpt lat="45.03916" lon="5.62794">
        <ele>774.8</ele>
        <time>2010-12-19T15:43:40Z</time>
      </trkpt>
      <trkpt lat="45.03917" lon="5.62793">
        <ele>774.8</ele>
        <time>2010-12-19T15:43:41Z</time>
      </trkpt>
      <trkpt lat="45.0392" lon="5.62784">
        <ele>774.8</ele>
        <time>2010-12-19T15:43:54Z</time>
      </trkpt>
      <trkpt lat="45.03922" lon="5.62781">
        <ele>774.8</ele>
        <time>2010-12-19T15:43:57Z</time>
      </trkpt>
      <trkpt lat="45.03925" lon="5.62774">
        <ele>774.8</ele>
        <time>2010-12-19T15:44:06Z</time>
      </trkpt>
      <trkpt lat="45.03928" lon="5.62769">
        <ele>774.8</ele>
        <time>2010-12-19T15:44:11Z</time>
      </trkpt>
      <trkpt lat="45.03936" lon="5.62762">
        <ele>775.8</ele>
        <time>2010-12-19T15:44:28Z</time>
      </trkpt>
      <trkpt lat="45.03939" lon="5.62761">
        <ele>777.6</ele>
        <time>2010-12-19T15:44:36Z</time>
      </trkpt>
      <trkpt lat="45.0394" lon="5.6276">
        <ele>778.6</ele>
        <time>2010-12-19T15:44:39Z</time>
      </trkpt>
      <trkpt lat="45.03944" lon="5.62757">
        <ele>780.4</ele>
        <time>2010-12-19T15:44:45Z</time>
      </trkpt>
      <trkpt lat="45.03948" lon="5.62754">
        <ele>781.6</ele>
        <time>2010-12-19T15:44:50Z</time>
      </trkpt>
      <trkpt lat="45.03951" lon="5.62752">
        <ele>782.2</ele>
        <time>2010-12-19T15:44:53Z</time>
      </trkpt>
      <trkpt lat="45.03955" lon="5.62749">
        <ele>783</ele>
        <time>2010-12-19T15:44:58Z</time>
      </trkpt>
      <trkpt lat="45.03956" lon="5.62748">
        <ele>783.6</ele>
        <time>2010-12-19T15:45:00Z</time>
      </trkpt>
      <trkpt lat="45.03958" lon="5.62748">
        <ele>784.2</ele>
        <time>2010-12-19T15:45:03Z</time>
      </trkpt>
      <trkpt lat="45.03958" lon="5.62747">
        <ele>784.4</ele>
        <time>2010-12-19T15:45:04Z</time>
      </trkpt>
      <trkpt lat="45.03962" lon="5.62746">
        <ele>785.2</ele>
        <time>2010-12-19T15:45:09Z</time>
      </trkpt>
      <trkpt lat="45.03966" lon="5.62746">
        <ele>786.2</ele>
        <time>2010-12-19T15:45:14Z</time>
      </trkpt>
      <trkpt lat="45.03968" lon="5.62744">
        <ele>787.2</ele>
        <time>2010-12-19T15:45:18Z</time>
      </trkpt>
      <trkpt lat="45.03971" lon="5.62743">
        <ele>788.6</ele>
        <time>2010-12-19T15:45:23Z</time>
      </trkpt>
      <trkpt lat="45.03974" lon="5.62742">
        <ele>789.4</ele>
        <time>2010-12-19T15:45:27Z</time>
      </trkpt>
      <trkpt lat="45.03976" lon="5.62741">
        <ele>790.2</ele>
        <time>2010-12-19T15:45:30Z</time>
      </trkpt>
      <trkpt lat="45.03979" lon="5.62737">
        <ele>790.8</ele>
        <time>2010-12-19T15:45:34Z</time>
      </trkpt>
      <trkpt lat="45.03981" lon="5.62737">
        <ele>792</ele>
        <time>2010-12-19T15:45:38Z</time>
      </trkpt>
      <trkpt lat="45.03986" lon="5.62734">
        <ele>794.6</ele>
        <time>2010-12-19T15:45:46Z</time>
      </trkpt>
      <trkpt lat="45.03989" lon="5.62729">
        <ele>795.6</ele>
        <time>2010-12-19T15:45:50Z</time>
      </trkpt>
      <trkpt lat="45.03991" lon="5.62727">
        <ele>796.4</ele>
        <time>2010-12-19T15:45:53Z</time>
      </trkpt>
      <trkpt lat="45.03992" lon="5.62727">
        <ele>796.8</ele>
        <time>2010-12-19T15:45:54Z</time>
      </trkpt>
      <trkpt lat="45.03994" lon="5.62728">
        <ele>797.8</ele>
        <time>2010-12-19T15:45:57Z</time>
      </trkpt>
      <trkpt lat="45.03997" lon="5.62723">
        <ele>798.2</ele>
        <time>2010-12-19T15:46:02Z</time>
      </trkpt>
      <trkpt lat="45.04" lon="5.62721">
        <ele>798.6</ele>
        <time>2010-12-19T15:46:07Z</time>
      </trkpt>
      <trkpt lat="45.04002" lon="5.62718">
        <ele>798.8</ele>
        <time>2010-12-19T15:46:11Z</time>
      </trkpt>
      <trkpt lat="45.04005" lon="5.62718">
        <ele>799.6</ele>
        <time>2010-12-19T15:46:15Z</time>
      </trkpt>
      <trkpt lat="45.04007" lon="5.62717">
        <ele>800.2</ele>
        <time>2010-12-19T15:46:19Z</time>
      </trkpt>
      <trkpt lat="45.0401" lon="5.62715">
        <ele>801</ele>
        <time>2010-12-19T15:46:24Z</time>
      </trkpt>
      <trkpt lat="45.04013" lon="5.62714">
        <ele>801.8</ele>
        <time>2010-12-19T15:46:28Z</time>
      </trkpt>
      <trkpt lat="45.04015" lon="5.62711">
        <ele>802.4</ele>
        <time>2010-12-19T15:46:33Z</time>
      </trkpt>
      <trkpt lat="45.04018" lon="5.62709">
        <ele>803.4</ele>
        <time>2010-12-19T15:46:39Z</time>
      </trkpt>
      <trkpt lat="45.04021" lon="5.62709">
        <ele>804.4</ele>
        <time>2010-12-19T15:46:44Z</time>
      </trkpt>
      <trkpt lat="45.04023" lon="5.62707">
        <ele>805.2</ele>
        <time>2010-12-19T15:46:48Z</time>
      </trkpt>
      <trkpt lat="45.04024" lon="5.62706">
        <ele>805.2</ele>
        <time>2010-12-19T15:46:49Z</time>
      </trkpt>
      <trkpt lat="45.04025" lon="5.62704">
        <ele>806</ele>
        <time>2010-12-19T15:46:53Z</time>
      </trkpt>
      <trkpt lat="45.04029" lon="5.62698">
        <ele>807.2</ele>
        <time>2010-12-19T15:47:00Z</time>
      </trkpt>
      <trkpt lat="45.04031" lon="5.62695">
        <ele>807.6</ele>
        <time>2010-12-19T15:47:05Z</time>
      </trkpt>
      <trkpt lat="45.04034" lon="5.62691">
        <ele>807.8</ele>
        <time>2010-12-19T15:47:10Z</time>
      </trkpt>
      <trkpt lat="45.04036" lon="5.6269">
        <ele>808.4</ele>
        <time>2010-12-19T15:47:13Z</time>
      </trkpt>
      <trkpt lat="45.04037" lon="5.6269">
        <ele>808.6</ele>
        <time>2010-12-19T15:47:14Z</time>
      </trkpt>
      <trkpt lat="45.04042" lon="5.62691">
        <ele>811</ele>
        <time>2010-12-19T15:47:21Z</time>
      </trkpt>
      <trkpt lat="45.04043" lon="5.62691">
        <ele>811.4</ele>
        <time>2010-12-19T15:47:22Z</time>
      </trkpt>
      <trkpt lat="45.04046" lon="5.62693">
        <ele>813.4</ele>
        <time>2010-12-19T15:47:26Z</time>
      </trkpt>
      <trkpt lat="45.04049" lon="5.62693">
        <ele>814.8</ele>
        <time>2010-12-19T15:47:30Z</time>
      </trkpt>
      <trkpt lat="45.04052" lon="5.62692">
        <ele>815.8</ele>
        <time>2010-12-19T15:47:34Z</time>
      </trkpt>
      <trkpt lat="45.04054" lon="5.6269">
        <ele>815.8</ele>
        <time>2010-12-19T15:47:35Z</time>
      </trkpt>
      <trkpt lat="45.04056" lon="5.62691">
        <ele>817</ele>
        <time>2010-12-19T15:47:38Z</time>
      </trkpt>
      <trkpt lat="45.04059" lon="5.62691">
        <ele>818.4</ele>
        <time>2010-12-19T15:47:43Z</time>
      </trkpt>
      <trkpt lat="45.04062" lon="5.6269">
        <ele>819.2</ele>
        <time>2010-12-19T15:47:46Z</time>
      </trkpt>
      <trkpt lat="45.04063" lon="5.62689">
        <ele>819.4</ele>
        <time>2010-12-19T15:47:47Z</time>
      </trkpt>
      <trkpt lat="45.04066" lon="5.62688">
        <ele>820.6</ele>
        <time>2010-12-19T15:47:51Z</time>
      </trkpt>
      <trkpt lat="45.04069" lon="5.62688">
        <ele>821.6</ele>
        <time>2010-12-19T15:47:55Z</time>
      </trkpt>
      <trkpt lat="45.04074" lon="5.62687">
        <ele>822.6</ele>
        <time>2010-12-19T15:48:00Z</time>
      </trkpt>
      <trkpt lat="45.04075" lon="5.62686">
        <ele>822.8</ele>
        <time>2010-12-19T15:48:01Z</time>
      </trkpt>
      <trkpt lat="45.04078" lon="5.62684">
        <ele>824.6</ele>
        <time>2010-12-19T15:48:06Z</time>
      </trkpt>
      <trkpt lat="45.04079" lon="5.62684">
        <ele>825</ele>
        <time>2010-12-19T15:48:07Z</time>
      </trkpt>
      <trkpt lat="45.04081" lon="5.62683">
        <ele>825.8</ele>
        <time>2010-12-19T15:48:10Z</time>
      </trkpt>
      <trkpt lat="45.04084" lon="5.62682">
        <ele>827</ele>
        <time>2010-12-19T15:48:14Z</time>
      </trkpt>
      <trkpt lat="45.04088" lon="5.62682">
        <ele>829</ele>
        <time>2010-12-19T15:48:19Z</time>
      </trkpt>
      <trkpt lat="45.04091" lon="5.62683">
        <ele>830.2</ele>
        <time>2010-12-19T15:48:23Z</time>
      </trkpt>
      <trkpt lat="45.04093" lon="5.62683">
        <ele>831.2</ele>
        <time>2010-12-19T15:48:26Z</time>
      </trkpt>
      <trkpt lat="45.04095" lon="5.62683">
        <ele>831.8</ele>
        <time>2010-12-19T15:48:28Z</time>
      </trkpt>
      <trkpt lat="45.04098" lon="5.62681">
        <ele>832.6</ele>
        <time>2010-12-19T15:48:31Z</time>
      </trkpt>
      <trkpt lat="45.04099" lon="5.6268">
        <ele>833</ele>
        <time>2010-12-19T15:48:33Z</time>
      </trkpt>
      <trkpt lat="45.04102" lon="5.62679">
        <ele>834</ele>
        <time>2010-12-19T15:48:37Z</time>
      </trkpt>
      <trkpt lat="45.04104" lon="5.62679">
        <ele>834.6</ele>
        <time>2010-12-19T15:48:41Z</time>
      </trkpt>
      <trkpt lat="45.04108" lon="5.62678">
        <ele>836</ele>
        <time>2010-12-19T15:48:46Z</time>
      </trkpt>
      <trkpt lat="45.04109" lon="5.62679">
        <ele>836.2</ele>
        <time>2010-12-19T15:48:47Z</time>
      </trkpt>
      <trkpt lat="45.04111" lon="5.62676">
        <ele>836.8</ele>
        <time>2010-12-19T15:48:50Z</time>
      </trkpt>
      <trkpt lat="45.04114" lon="5.62674">
        <ele>837</ele>
        <time>2010-12-19T15:48:53Z</time>
      </trkpt>
      <trkpt lat="45.04115" lon="5.62673">
        <ele>837</ele>
        <time>2010-12-19T15:48:54Z</time>
      </trkpt>
      <trkpt lat="45.0412" lon="5.62674">
        <ele>837.8</ele>
        <time>2010-12-19T15:49:00Z</time>
      </trkpt>
      <trkpt lat="45.04123" lon="5.62675">
        <ele>838.8</ele>
        <time>2010-12-19T15:49:05Z</time>
      </trkpt>
      <trkpt lat="45.04126" lon="5.62675">
        <ele>839.6</ele>
        <time>2010-12-19T15:49:09Z</time>
      </trkpt>
      <trkpt lat="45.04127" lon="5.62675">
        <ele>839.8</ele>
        <time>2010-12-19T15:49:10Z</time>
      </trkpt>
      <trkpt lat="45.04129" lon="5.62675">
        <ele>840.4</ele>
        <time>2010-12-19T15:49:13Z</time>
      </trkpt>
      <trkpt lat="45.04132" lon="5.62675">
        <ele>842</ele>
        <time>2010-12-19T15:49:20Z</time>
      </trkpt>
      <trkpt lat="45.04135" lon="5.62674">
        <ele>842.8</ele>
        <time>2010-12-19T15:49:24Z</time>
      </trkpt>
      <trkpt lat="45.04138" lon="5.62673">
        <ele>843.4</ele>
        <time>2010-12-19T15:49:28Z</time>
      </trkpt>
      <trkpt lat="45.0414" lon="5.62671">
        <ele>844.6</ele>
        <time>2010-12-19T15:49:32Z</time>
      </trkpt>
      <trkpt lat="45.04143" lon="5.62671">
        <ele>845.8</ele>
        <time>2010-12-19T15:49:36Z</time>
      </trkpt>
      <trkpt lat="45.04145" lon="5.62672">
        <ele>847.2</ele>
        <time>2010-12-19T15:49:39Z</time>
      </trkpt>
      <trkpt lat="45.04147" lon="5.62672">
        <ele>847.6</ele>
        <time>2010-12-19T15:49:41Z</time>
      </trkpt>
      <trkpt lat="45.04152" lon="5.62671">
        <ele>849.2</ele>
        <time>2010-12-19T15:49:47Z</time>
      </trkpt>
      <trkpt lat="45.04154" lon="5.62671">
        <ele>850.2</ele>
        <time>2010-12-19T15:49:51Z</time>
      </trkpt>
      <trkpt lat="45.04156" lon="5.62671">
        <ele>851.4</ele>
        <time>2010-12-19T15:49:56Z</time>
      </trkpt>
      <trkpt lat="45.04157" lon="5.62668">
        <ele>853</ele>
        <time>2010-12-19T15:50:01Z</time>
      </trkpt>
      <trkpt lat="45.04156" lon="5.62666">
        <ele>854.4</ele>
        <time>2010-12-19T15:50:06Z</time>
      </trkpt>
      <trkpt lat="45.04154" lon="5.62665">
        <ele>855.8</ele>
        <time>2010-12-19T15:50:11Z</time>
      </trkpt>
      <trkpt lat="45.04154" lon="5.62664">
        <ele>856.4</ele>
        <time>2010-12-19T15:50:13Z</time>
      </trkpt>
      <trkpt lat="45.04152" lon="5.62662">
        <ele>856.8</ele>
        <time>2010-12-19T15:50:15Z</time>
      </trkpt>
      <trkpt lat="45.04149" lon="5.62661">
        <ele>858</ele>
        <time>2010-12-19T15:50:21Z</time>
      </trkpt>
      <trkpt lat="45.04146" lon="5.62655">
        <ele>860.2</ele>
        <time>2010-12-19T15:50:30Z</time>
      </trkpt>
      <trkpt lat="45.04143" lon="5.62652">
        <ele>860.8</ele>
        <time>2010-12-19T15:50:34Z</time>
      </trkpt>
      <trkpt lat="45.04142" lon="5.6265">
        <ele>861</ele>
        <time>2010-12-19T15:50:36Z</time>
      </trkpt>
      <trkpt lat="45.04141" lon="5.62649">
        <ele>861.4</ele>
        <time>2010-12-19T15:50:38Z</time>
      </trkpt>
      <trkpt lat="45.04138" lon="5.62648">
        <ele>862</ele>
        <time>2010-12-19T15:50:41Z</time>
      </trkpt>
      <trkpt lat="45.04136" lon="5.62648">
        <ele>862.4</ele>
        <time>2010-12-19T15:50:43Z</time>
      </trkpt>
      <trkpt lat="45.04133" lon="5.62645">
        <ele>862.8</ele>
        <time>2010-12-19T15:50:47Z</time>
      </trkpt>
      <trkpt lat="45.04132" lon="5.62643">
        <ele>863.2</ele>
        <time>2010-12-19T15:50:49Z</time>
      </trkpt>
      <trkpt lat="45.04129" lon="5.62643">
        <ele>864</ele>
        <time>2010-12-19T15:50:53Z</time>
      </trkpt>
      <trkpt lat="45.04129" lon="5.62643">
        <ele>864.4</ele>
        <time>2010-12-19T15:50:54Z</time>
      </trkpt>
      <trkpt lat="45.04128" lon="5.62642">
        <ele>865</ele>
        <time>2010-12-19T15:50:56Z</time>
      </trkpt>
      <trkpt lat="45.04127" lon="5.6264">
        <ele>865.6</ele>
        <time>2010-12-19T15:50:59Z</time>
      </trkpt>
      <trkpt lat="45.04125" lon="5.62638">
        <ele>866.8</ele>
        <time>2010-12-19T15:51:04Z</time>
      </trkpt>
      <trkpt lat="45.04124" lon="5.62638">
        <ele>867.2</ele>
        <time>2010-12-19T15:51:05Z</time>
      </trkpt>
      <trkpt lat="45.04122" lon="5.62637">
        <ele>868</ele>
        <time>2010-12-19T15:51:08Z</time>
      </trkpt>
      <trkpt lat="45.0412" lon="5.62633">
        <ele>868.8</ele>
        <time>2010-12-19T15:51:12Z</time>
      </trkpt>
      <trkpt lat="45.04119" lon="5.6263">
        <ele>870</ele>
        <time>2010-12-19T15:51:16Z</time>
      </trkpt>
      <trkpt lat="45.04117" lon="5.62626">
        <ele>871</ele>
        <time>2010-12-19T15:51:20Z</time>
      </trkpt>
      <trkpt lat="45.04116" lon="5.62622">
        <ele>871.4</ele>
        <time>2010-12-19T15:51:23Z</time>
      </trkpt>
      <trkpt lat="45.04116" lon="5.62621">
        <ele>871.6</ele>
        <time>2010-12-19T15:51:24Z</time>
      </trkpt>
      <trkpt lat="45.04116" lon="5.62618">
        <ele>871.8</ele>
        <time>2010-12-19T15:51:25Z</time>
      </trkpt>
      <trkpt lat="45.04116" lon="5.62614">
        <ele>872.2</ele>
        <time>2010-12-19T15:51:28Z</time>
      </trkpt>
      <trkpt lat="45.04118" lon="5.62612">
        <ele>873.2</ele>
        <time>2010-12-19T15:51:32Z</time>
      </trkpt>
      <trkpt lat="45.04121" lon="5.6261">
        <ele>875</ele>
        <time>2010-12-19T15:51:38Z</time>
      </trkpt>
      <trkpt lat="45.04125" lon="5.62608">
        <ele>876.4</ele>
        <time>2010-12-19T15:51:43Z</time>
      </trkpt>
      <trkpt lat="45.04132" lon="5.62609">
        <ele>878.8</ele>
        <time>2010-12-19T15:51:52Z</time>
      </trkpt>
      <trkpt lat="45.04134" lon="5.62609">
        <ele>879.2</ele>
        <time>2010-12-19T15:51:54Z</time>
      </trkpt>
      <trkpt lat="45.04136" lon="5.62607">
        <ele>879.6</ele>
        <time>2010-12-19T15:51:57Z</time>
      </trkpt>
      <trkpt lat="45.04139" lon="5.62607">
        <ele>880.6</ele>
        <time>2010-12-19T15:52:01Z</time>
      </trkpt>
      <trkpt lat="45.04141" lon="5.62606">
        <ele>881.2</ele>
        <time>2010-12-19T15:52:05Z</time>
      </trkpt>
      <trkpt lat="45.04144" lon="5.62607">
        <ele>881.8</ele>
        <time>2010-12-19T15:52:09Z</time>
      </trkpt>
      <trkpt lat="45.04148" lon="5.6261">
        <ele>882.2</ele>
        <time>2010-12-19T15:52:14Z</time>
      </trkpt>
      <trkpt lat="45.04152" lon="5.62611">
        <ele>882.2</ele>
        <time>2010-12-19T15:52:19Z</time>
      </trkpt>
      <trkpt lat="45.04154" lon="5.62612">
        <ele>882.4</ele>
        <time>2010-12-19T15:52:21Z</time>
      </trkpt>
      <trkpt lat="45.04159" lon="5.62619">
        <ele>882.8</ele>
        <time>2010-12-19T15:52:27Z</time>
      </trkpt>
      <trkpt lat="45.04161" lon="5.62619">
        <ele>882.4</ele>
        <time>2010-12-19T15:52:29Z</time>
      </trkpt>
      <trkpt lat="45.04165" lon="5.62621">
        <ele>882.2</ele>
        <time>2010-12-19T15:52:33Z</time>
      </trkpt>
      <trkpt lat="45.04166" lon="5.62621">
        <ele>882.2</ele>
        <time>2010-12-19T15:52:34Z</time>
      </trkpt>
      <trkpt lat="45.04168" lon="5.62622">
        <ele>882</ele>
        <time>2010-12-19T15:52:36Z</time>
      </trkpt>
      <trkpt lat="45.04172" lon="5.62623">
        <ele>881.4</ele>
        <time>2010-12-19T15:52:40Z</time>
      </trkpt>
      <trkpt lat="45.04179" lon="5.62627">
        <ele>880.6</ele>
        <time>2010-12-19T15:52:46Z</time>
      </trkpt>
      <trkpt lat="45.04183" lon="5.62634">
        <ele>878</ele>
        <time>2010-12-19T15:53:08Z</time>
      </trkpt>
      <trkpt lat="45.04188" lon="5.62634">
        <ele>877.6</ele>
        <time>2010-12-19T15:53:14Z</time>
      </trkpt>
      <trkpt lat="45.04191" lon="5.62633">
        <ele>877.2</ele>
        <time>2010-12-19T15:53:16Z</time>
      </trkpt>
      <trkpt lat="45.04196" lon="5.62633">
        <ele>877</ele>
        <time>2010-12-19T15:53:19Z</time>
      </trkpt>
      <trkpt lat="45.04201" lon="5.62633">
        <ele>876.6</ele>
        <time>2010-12-19T15:53:22Z</time>
      </trkpt>
      <trkpt lat="45.04205" lon="5.62633">
        <ele>876.2</ele>
        <time>2010-12-19T15:53:25Z</time>
      </trkpt>
      <trkpt lat="45.04216" lon="5.62634">
        <ele>875.2</ele>
        <time>2010-12-19T15:53:31Z</time>
      </trkpt>
      <trkpt lat="45.0422" lon="5.62633">
        <ele>875</ele>
        <time>2010-12-19T15:53:33Z</time>
      </trkpt>
      <trkpt lat="45.04225" lon="5.62632">
        <ele>874.8</ele>
        <time>2010-12-19T15:53:36Z</time>
      </trkpt>
      <trkpt lat="45.04229" lon="5.62631">
        <ele>874.4</ele>
        <time>2010-12-19T15:53:40Z</time>
      </trkpt>
      <trkpt lat="45.04231" lon="5.6263">
        <ele>874.2</ele>
        <time>2010-12-19T15:53:42Z</time>
      </trkpt>
      <trkpt lat="45.04236" lon="5.62629">
        <ele>874</ele>
        <time>2010-12-19T15:53:46Z</time>
      </trkpt>
      <trkpt lat="45.04238" lon="5.62631">
        <ele>875.2</ele>
        <time>2010-12-19T15:53:50Z</time>
      </trkpt>
      <trkpt lat="45.0424" lon="5.62631">
        <ele>875.8</ele>
        <time>2010-12-19T15:53:52Z</time>
      </trkpt>
      <trkpt lat="45.04241" lon="5.6263">
        <ele>876</ele>
        <time>2010-12-19T15:53:53Z</time>
      </trkpt>
      <trkpt lat="45.04245" lon="5.62627">
        <ele>877.2</ele>
        <time>2010-12-19T15:53:57Z</time>
      </trkpt>
      <trkpt lat="45.04246" lon="5.62625">
        <ele>877.6</ele>
        <time>2010-12-19T15:53:58Z</time>
      </trkpt>
      <trkpt lat="45.04252" lon="5.62621">
        <ele>880</ele>
        <time>2010-12-19T15:54:03Z</time>
      </trkpt>
      <trkpt lat="45.04254" lon="5.6262">
        <ele>880.4</ele>
        <time>2010-12-19T15:54:04Z</time>
      </trkpt>
      <trkpt lat="45.04255" lon="5.6262">
        <ele>880.8</ele>
        <time>2010-12-19T15:54:05Z</time>
      </trkpt>
      <trkpt lat="45.04257" lon="5.6262">
        <ele>881.6</ele>
        <time>2010-12-19T15:54:07Z</time>
      </trkpt>
      <trkpt lat="45.0426" lon="5.62618">
        <ele>882.2</ele>
        <time>2010-12-19T15:54:09Z</time>
      </trkpt>
      <trkpt lat="45.04264" lon="5.62614">
        <ele>882.8</ele>
        <time>2010-12-19T15:54:11Z</time>
      </trkpt>
      <trkpt lat="45.04265" lon="5.62614">
        <ele>883.2</ele>
        <time>2010-12-19T15:54:12Z</time>
      </trkpt>
      <trkpt lat="45.04269" lon="5.62616">
        <ele>884.6</ele>
        <time>2010-12-19T15:54:15Z</time>
      </trkpt>
      <trkpt lat="45.04273" lon="5.62615">
        <ele>885.8</ele>
        <time>2010-12-19T15:54:19Z</time>
      </trkpt>
      <trkpt lat="45.04275" lon="5.62615">
        <ele>886.4</ele>
        <time>2010-12-19T15:54:20Z</time>
      </trkpt>
      <trkpt lat="45.04278" lon="5.62614">
        <ele>887</ele>
        <time>2010-12-19T15:54:22Z</time>
      </trkpt>
      <trkpt lat="45.04282" lon="5.62613">
        <ele>888</ele>
        <time>2010-12-19T15:54:25Z</time>
      </trkpt>
      <trkpt lat="45.04289" lon="5.6261">
        <ele>889.2</ele>
        <time>2010-12-19T15:54:30Z</time>
      </trkpt>
      <trkpt lat="45.04291" lon="5.62609">
        <ele>889.8</ele>
        <time>2010-12-19T15:54:33Z</time>
      </trkpt>
      <trkpt lat="45.04294" lon="5.62607">
        <ele>890.2</ele>
        <time>2010-12-19T15:54:35Z</time>
      </trkpt>
      <trkpt lat="45.04295" lon="5.62607">
        <ele>890.4</ele>
        <time>2010-12-19T15:54:36Z</time>
      </trkpt>
      <trkpt lat="45.04297" lon="5.62605">
        <ele>890.6</ele>
        <time>2010-12-19T15:54:38Z</time>
      </trkpt>
      <trkpt lat="45.04297" lon="5.62605">
        <ele>890.8</ele>
        <time>2010-12-19T15:54:39Z</time>
      </trkpt>
      <trkpt lat="45.043" lon="5.62603">
        <ele>891.6</ele>
        <time>2010-12-19T15:54:43Z</time>
      </trkpt>
      <trkpt lat="45.04301" lon="5.62601">
        <ele>891.8</ele>
        <time>2010-12-19T15:54:45Z</time>
      </trkpt>
      <trkpt lat="45.04301" lon="5.62599">
        <ele>892.4</ele>
        <time>2010-12-19T15:54:49Z</time>
      </trkpt>
      <trkpt lat="45.04301" lon="5.62594">
        <ele>892.4</ele>
        <time>2010-12-19T15:54:53Z</time>
      </trkpt>
      <trkpt lat="45.04301" lon="5.62593">
        <ele>892.4</ele>
        <time>2010-12-19T15:54:54Z</time>
      </trkpt>
      <trkpt lat="45.04301" lon="5.62589">
        <ele>892.4</ele>
        <time>2010-12-19T15:54:57Z</time>
      </trkpt>
      <trkpt lat="45.04302" lon="5.62586">
        <ele>892.2</ele>
        <time>2010-12-19T15:55:01Z</time>
      </trkpt>
      <trkpt lat="45.04302" lon="5.62585">
        <ele>892.2</ele>
        <time>2010-12-19T15:55:02Z</time>
      </trkpt>
      <trkpt lat="45.04302" lon="5.62581">
        <ele>892.2</ele>
        <time>2010-12-19T15:55:06Z</time>
      </trkpt>
      <trkpt lat="45.04302" lon="5.62579">
        <ele>892.4</ele>
        <time>2010-12-19T15:55:10Z</time>
      </trkpt>
      <trkpt lat="45.04302" lon="5.62578">
        <ele>892.4</ele>
        <time>2010-12-19T15:55:11Z</time>
      </trkpt>
      <trkpt lat="45.04301" lon="5.62573">
        <ele>892.4</ele>
        <time>2010-12-19T15:55:15Z</time>
      </trkpt>
      <trkpt lat="45.043" lon="5.6257">
        <ele>892.6</ele>
        <time>2010-12-19T15:55:20Z</time>
      </trkpt>
      <trkpt lat="45.04299" lon="5.62567">
        <ele>893.4</ele>
        <time>2010-12-19T15:55:25Z</time>
      </trkpt>
      <trkpt lat="45.04298" lon="5.62566">
        <ele>893.4</ele>
        <time>2010-12-19T15:55:26Z</time>
      </trkpt>
      <trkpt lat="45.04298" lon="5.62563">
        <ele>894</ele>
        <time>2010-12-19T15:55:29Z</time>
      </trkpt>
      <trkpt lat="45.04298" lon="5.62559">
        <ele>894.4</ele>
        <time>2010-12-19T15:55:33Z</time>
      </trkpt>
      <trkpt lat="45.04296" lon="5.62555">
        <ele>894.8</ele>
        <time>2010-12-19T15:55:38Z</time>
      </trkpt>
      <trkpt lat="45.04295" lon="5.62548">
        <ele>896.2</ele>
        <time>2010-12-19T15:55:44Z</time>
      </trkpt>
      <trkpt lat="45.04294" lon="5.62545">
        <ele>897.4</ele>
        <time>2010-12-19T15:55:49Z</time>
      </trkpt>
      <trkpt lat="45.04291" lon="5.62543">
        <ele>899.2</ele>
        <time>2010-12-19T15:55:55Z</time>
      </trkpt>
      <trkpt lat="45.0429" lon="5.62543">
        <ele>899.4</ele>
        <time>2010-12-19T15:55:56Z</time>
      </trkpt>
      <trkpt lat="45.04287" lon="5.62543">
        <ele>900.6</ele>
        <time>2010-12-19T15:56:00Z</time>
      </trkpt>
      <trkpt lat="45.04283" lon="5.62543">
        <ele>902.4</ele>
        <time>2010-12-19T15:56:05Z</time>
      </trkpt>
      <trkpt lat="45.0428" lon="5.62543">
        <ele>903.8</ele>
        <time>2010-12-19T15:56:10Z</time>
      </trkpt>
      <trkpt lat="45.04279" lon="5.62544">
        <ele>904.4</ele>
        <time>2010-12-19T15:56:14Z</time>
      </trkpt>
      <trkpt lat="45.04275" lon="5.62544">
        <ele>905.4</ele>
        <time>2010-12-19T15:56:19Z</time>
      </trkpt>
      <trkpt lat="45.04272" lon="5.62545">
        <ele>906.2</ele>
        <time>2010-12-19T15:56:23Z</time>
      </trkpt>
      <trkpt lat="45.0427" lon="5.62545">
        <ele>906.6</ele>
        <time>2010-12-19T15:56:25Z</time>
      </trkpt>
      <trkpt lat="45.04267" lon="5.62547">
        <ele>907.4</ele>
        <time>2010-12-19T15:56:29Z</time>
      </trkpt>
      <trkpt lat="45.04264" lon="5.62548">
        <ele>908.2</ele>
        <time>2010-12-19T15:56:32Z</time>
      </trkpt>
      <trkpt lat="45.04263" lon="5.62548">
        <ele>908.6</ele>
        <time>2010-12-19T15:56:34Z</time>
      </trkpt>
      <trkpt lat="45.0426" lon="5.62546">
        <ele>909.2</ele>
        <time>2010-12-19T15:56:39Z</time>
      </trkpt>
      <trkpt lat="45.04258" lon="5.62544">
        <ele>910</ele>
        <time>2010-12-19T15:56:44Z</time>
      </trkpt>
      <trkpt lat="45.04256" lon="5.62546">
        <ele>911.2</ele>
        <time>2010-12-19T15:56:49Z</time>
      </trkpt>
      <trkpt lat="45.04255" lon="5.62546">
        <ele>911.4</ele>
        <time>2010-12-19T15:56:50Z</time>
      </trkpt>
      <trkpt lat="45.04253" lon="5.62546">
        <ele>912</ele>
        <time>2010-12-19T15:56:54Z</time>
      </trkpt>
      <trkpt lat="45.0425" lon="5.62545">
        <ele>912.8</ele>
        <time>2010-12-19T15:56:58Z</time>
      </trkpt>
      <trkpt lat="45.04247" lon="5.62544">
        <ele>913</ele>
        <time>2010-12-19T15:57:02Z</time>
      </trkpt>
      <trkpt lat="45.04245" lon="5.62543">
        <ele>913.8</ele>
        <time>2010-12-19T15:57:06Z</time>
      </trkpt>
      <trkpt lat="45.04243" lon="5.62542">
        <ele>914.4</ele>
        <time>2010-12-19T15:57:11Z</time>
      </trkpt>
      <trkpt lat="45.04239" lon="5.62542">
        <ele>914.8</ele>
        <time>2010-12-19T15:57:16Z</time>
      </trkpt>
      <trkpt lat="45.04237" lon="5.62542">
        <ele>915.2</ele>
        <time>2010-12-19T15:57:18Z</time>
      </trkpt>
      <trkpt lat="45.04236" lon="5.62542">
        <ele>915.4</ele>
        <time>2010-12-19T15:57:20Z</time>
      </trkpt>
      <trkpt lat="45.04234" lon="5.62542">
        <ele>915.6</ele>
        <time>2010-12-19T15:57:23Z</time>
      </trkpt>
      <trkpt lat="45.0423" lon="5.62541">
        <ele>916</ele>
        <time>2010-12-19T15:57:28Z</time>
      </trkpt>
      <trkpt lat="45.04228" lon="5.6254">
        <ele>916.4</ele>
        <time>2010-12-19T15:57:32Z</time>
      </trkpt>
      <trkpt lat="45.04226" lon="5.62537">
        <ele>916.8</ele>
        <time>2010-12-19T15:57:36Z</time>
      </trkpt>
      <trkpt lat="45.04224" lon="5.62536">
        <ele>917.4</ele>
        <time>2010-12-19T15:57:41Z</time>
      </trkpt>
      <trkpt lat="45.04221" lon="5.62536">
        <ele>918.4</ele>
        <time>2010-12-19T15:57:46Z</time>
      </trkpt>
      <trkpt lat="45.04219" lon="5.62535">
        <ele>919.2</ele>
        <time>2010-12-19T15:57:50Z</time>
      </trkpt>
      <trkpt lat="45.04216" lon="5.62532">
        <ele>920</ele>
        <time>2010-12-19T15:57:55Z</time>
      </trkpt>
      <trkpt lat="45.04214" lon="5.62529">
        <ele>921</ele>
        <time>2010-12-19T15:58:00Z</time>
      </trkpt>
      <trkpt lat="45.04212" lon="5.62528">
        <ele>922</ele>
        <time>2010-12-19T15:58:04Z</time>
      </trkpt>
      <trkpt lat="45.04209" lon="5.62526">
        <ele>923.6</ele>
        <time>2010-12-19T15:58:10Z</time>
      </trkpt>
      <trkpt lat="45.04207" lon="5.62526">
        <ele>924.6</ele>
        <time>2010-12-19T15:58:14Z</time>
      </trkpt>
      <trkpt lat="45.04205" lon="5.62525">
        <ele>925.4</ele>
        <time>2010-12-19T15:58:18Z</time>
      </trkpt>
      <trkpt lat="45.04202" lon="5.62523">
        <ele>926.4</ele>
        <time>2010-12-19T15:58:23Z</time>
      </trkpt>
      <trkpt lat="45.042" lon="5.62522">
        <ele>927.2</ele>
        <time>2010-12-19T15:58:27Z</time>
      </trkpt>
      <trkpt lat="45.04198" lon="5.6252">
        <ele>928.2</ele>
        <time>2010-12-19T15:58:31Z</time>
      </trkpt>
      <trkpt lat="45.04195" lon="5.62519">
        <ele>929</ele>
        <time>2010-12-19T15:58:35Z</time>
      </trkpt>
      <trkpt lat="45.04193" lon="5.6252">
        <ele>929.8</ele>
        <time>2010-12-19T15:58:39Z</time>
      </trkpt>
      <trkpt lat="45.0419" lon="5.62517">
        <ele>930.2</ele>
        <time>2010-12-19T15:58:43Z</time>
      </trkpt>
      <trkpt lat="45.04188" lon="5.62516">
        <ele>930.8</ele>
        <time>2010-12-19T15:58:46Z</time>
      </trkpt>
      <trkpt lat="45.04187" lon="5.62517">
        <ele>931.4</ele>
        <time>2010-12-19T15:58:47Z</time>
      </trkpt>
      <trkpt lat="45.04185" lon="5.62515">
        <ele>932.4</ele>
        <time>2010-12-19T15:58:51Z</time>
      </trkpt>
      <trkpt lat="45.04183" lon="5.62512">
        <ele>933.6</ele>
        <time>2010-12-19T15:58:56Z</time>
      </trkpt>
      <trkpt lat="45.0418" lon="5.6251">
        <ele>934.6</ele>
        <time>2010-12-19T15:59:01Z</time>
      </trkpt>
      <trkpt lat="45.04178" lon="5.6251">
        <ele>935.6</ele>
        <time>2010-12-19T15:59:05Z</time>
      </trkpt>
      <trkpt lat="45.04175" lon="5.62507">
        <ele>936.8</ele>
        <time>2010-12-19T15:59:11Z</time>
      </trkpt>
      <trkpt lat="45.04174" lon="5.62504">
        <ele>937.2</ele>
        <time>2010-12-19T15:59:16Z</time>
      </trkpt>
      <trkpt lat="45.04173" lon="5.62504">
        <ele>937.2</ele>
        <time>2010-12-19T15:59:17Z</time>
      </trkpt>
      <trkpt lat="45.04171" lon="5.62503">
        <ele>937.4</ele>
        <time>2010-12-19T15:59:20Z</time>
      </trkpt>
      <trkpt lat="45.04169" lon="5.62502">
        <ele>937.6</ele>
        <time>2010-12-19T15:59:24Z</time>
      </trkpt>
      <trkpt lat="45.04167" lon="5.625">
        <ele>937.8</ele>
        <time>2010-12-19T15:59:28Z</time>
      </trkpt>
      <trkpt lat="45.04165" lon="5.62498">
        <ele>938</ele>
        <time>2010-12-19T15:59:32Z</time>
      </trkpt>
      <trkpt lat="45.04163" lon="5.62496">
        <ele>938.4</ele>
        <time>2010-12-19T15:59:37Z</time>
      </trkpt>
      <trkpt lat="45.04161" lon="5.62495">
        <ele>938.4</ele>
        <time>2010-12-19T15:59:41Z</time>
      </trkpt>
      <trkpt lat="45.04158" lon="5.62494">
        <ele>938.6</ele>
        <time>2010-12-19T15:59:45Z</time>
      </trkpt>
      <trkpt lat="45.04156" lon="5.62491">
        <ele>938.6</ele>
        <time>2010-12-19T15:59:50Z</time>
      </trkpt>
      <trkpt lat="45.04155" lon="5.62489">
        <ele>938.8</ele>
        <time>2010-12-19T15:59:54Z</time>
      </trkpt>
      <trkpt lat="45.04153" lon="5.62487">
        <ele>938.8</ele>
        <time>2010-12-19T15:59:58Z</time>
      </trkpt>
      <trkpt lat="45.0415" lon="5.62484">
        <ele>939</ele>
        <time>2010-12-19T16:00:04Z</time>
      </trkpt>
      <trkpt lat="45.04147" lon="5.62483">
        <ele>939.2</ele>
        <time>2010-12-19T16:00:08Z</time>
      </trkpt>
      <trkpt lat="45.04145" lon="5.62481">
        <ele>939.2</ele>
        <time>2010-12-19T16:00:12Z</time>
      </trkpt>
      <trkpt lat="45.04142" lon="5.6248">
        <ele>939.6</ele>
        <time>2010-12-19T16:00:16Z</time>
      </trkpt>
      <trkpt lat="45.04141" lon="5.6248">
        <ele>940</ele>
        <time>2010-12-19T16:00:19Z</time>
      </trkpt>
      <trkpt lat="45.04139" lon="5.62479">
        <ele>940.6</ele>
        <time>2010-12-19T16:00:22Z</time>
      </trkpt>
      <trkpt lat="45.04138" lon="5.62476">
        <ele>941.4</ele>
        <time>2010-12-19T16:00:27Z</time>
      </trkpt>
      <trkpt lat="45.04137" lon="5.62473">
        <ele>942.4</ele>
        <time>2010-12-19T16:00:31Z</time>
      </trkpt>
      <trkpt lat="45.04138" lon="5.62468">
        <ele>944</ele>
        <time>2010-12-19T16:00:38Z</time>
      </trkpt>
      <trkpt lat="45.0414" lon="5.62465">
        <ele>945.2</ele>
        <time>2010-12-19T16:00:43Z</time>
      </trkpt>
      <trkpt lat="45.04142" lon="5.62462">
        <ele>946</ele>
        <time>2010-12-19T16:00:47Z</time>
      </trkpt>
      <trkpt lat="45.04144" lon="5.6246">
        <ele>946.6</ele>
        <time>2010-12-19T16:00:50Z</time>
      </trkpt>
      <trkpt lat="45.04145" lon="5.62459">
        <ele>946.8</ele>
        <time>2010-12-19T16:00:52Z</time>
      </trkpt>
      <trkpt lat="45.04147" lon="5.62456">
        <ele>948.2</ele>
        <time>2010-12-19T16:00:58Z</time>
      </trkpt>
      <trkpt lat="45.04148" lon="5.62454">
        <ele>949.2</ele>
        <time>2010-12-19T16:01:03Z</time>
      </trkpt>
      <trkpt lat="45.04149" lon="5.62457">
        <ele>951</ele>
        <time>2010-12-19T16:01:08Z</time>
      </trkpt>
      <trkpt lat="45.04152" lon="5.62455">
        <ele>952.2</ele>
        <time>2010-12-19T16:01:12Z</time>
      </trkpt>
      <trkpt lat="45.04152" lon="5.62455">
        <ele>952.6</ele>
        <time>2010-12-19T16:01:13Z</time>
      </trkpt>
      <trkpt lat="45.04153" lon="5.62454">
        <ele>953</ele>
        <time>2010-12-19T16:01:14Z</time>
      </trkpt>
      <trkpt lat="45.04155" lon="5.62452">
        <ele>954</ele>
        <time>2010-12-19T16:01:17Z</time>
      </trkpt>
      <trkpt lat="45.04158" lon="5.6245">
        <ele>955.4</ele>
        <time>2010-12-19T16:01:21Z</time>
      </trkpt>
      <trkpt lat="45.04159" lon="5.62451">
        <ele>956.4</ele>
        <time>2010-12-19T16:01:23Z</time>
      </trkpt>
      <trkpt lat="45.04161" lon="5.62448">
        <ele>957.4</ele>
        <time>2010-12-19T16:01:27Z</time>
      </trkpt>
      <trkpt lat="45.04162" lon="5.62447">
        <ele>958</ele>
        <time>2010-12-19T16:01:29Z</time>
      </trkpt>
      <trkpt lat="45.04165" lon="5.62442">
        <ele>959.6</ele>
        <time>2010-12-19T16:01:34Z</time>
      </trkpt>
      <trkpt lat="45.04166" lon="5.6244">
        <ele>960.2</ele>
        <time>2010-12-19T16:01:36Z</time>
      </trkpt>
      <trkpt lat="45.04167" lon="5.62441">
        <ele>961.4</ele>
        <time>2010-12-19T16:01:39Z</time>
      </trkpt>
      <trkpt lat="45.04169" lon="5.62437">
        <ele>963.4</ele>
        <time>2010-12-19T16:01:44Z</time>
      </trkpt>
      <trkpt lat="45.04169" lon="5.62433">
        <ele>964.4</ele>
        <time>2010-12-19T16:01:47Z</time>
      </trkpt>
      <trkpt lat="45.04168" lon="5.6243">
        <ele>965.6</ele>
        <time>2010-12-19T16:01:50Z</time>
      </trkpt>
      <trkpt lat="45.04168" lon="5.62426">
        <ele>967</ele>
        <time>2010-12-19T16:01:54Z</time>
      </trkpt>
      <trkpt lat="45.04169" lon="5.62421">
        <ele>968.4</ele>
        <time>2010-12-19T16:01:59Z</time>
      </trkpt>
      <trkpt lat="45.0417" lon="5.62417">
        <ele>970</ele>
        <time>2010-12-19T16:02:04Z</time>
      </trkpt>
      <trkpt lat="45.0417" lon="5.62413">
        <ele>971</ele>
        <time>2010-12-19T16:02:07Z</time>
      </trkpt>
      <trkpt lat="45.04171" lon="5.62412">
        <ele>971.2</ele>
        <time>2010-12-19T16:02:08Z</time>
      </trkpt>
      <trkpt lat="45.04171" lon="5.6241">
        <ele>971.6</ele>
        <time>2010-12-19T16:02:10Z</time>
      </trkpt>
      <trkpt lat="45.04171" lon="5.62408">
        <ele>972.4</ele>
        <time>2010-12-19T16:02:12Z</time>
      </trkpt>
      <trkpt lat="45.04172" lon="5.62406">
        <ele>972.8</ele>
        <time>2010-12-19T16:02:14Z</time>
      </trkpt>
      <trkpt lat="45.04172" lon="5.62404">
        <ele>973.6</ele>
        <time>2010-12-19T16:02:17Z</time>
      </trkpt>
      <trkpt lat="45.04173" lon="5.62398">
        <ele>974.8</ele>
        <time>2010-12-19T16:02:22Z</time>
      </trkpt>
      <trkpt lat="45.04174" lon="5.62391">
        <ele>975.8</ele>
        <time>2010-12-19T16:02:28Z</time>
      </trkpt>
      <trkpt lat="45.04175" lon="5.6239">
        <ele>976.2</ele>
        <time>2010-12-19T16:02:30Z</time>
      </trkpt>
      <trkpt lat="45.04175" lon="5.62388">
        <ele>976.6</ele>
        <time>2010-12-19T16:02:32Z</time>
      </trkpt>
      <trkpt lat="45.04176" lon="5.62385">
        <ele>976.8</ele>
        <time>2010-12-19T16:02:34Z</time>
      </trkpt>
      <trkpt lat="45.04177" lon="5.62379">
        <ele>977.2</ele>
        <time>2010-12-19T16:02:38Z</time>
      </trkpt>
      <trkpt lat="45.04177" lon="5.62377">
        <ele>976.8</ele>
        <time>2010-12-19T16:02:40Z</time>
      </trkpt>
      <trkpt lat="45.04177" lon="5.62375">
        <ele>976.8</ele>
        <time>2010-12-19T16:02:42Z</time>
      </trkpt>
      <trkpt lat="45.04177" lon="5.62373">
        <ele>976.8</ele>
        <time>2010-12-19T16:02:43Z</time>
      </trkpt>
      <trkpt lat="45.04179" lon="5.62369">
        <ele>976.8</ele>
        <time>2010-12-19T16:02:47Z</time>
      </trkpt>
      <trkpt lat="45.04179" lon="5.62365">
        <ele>976.8</ele>
        <time>2010-12-19T16:02:51Z</time>
      </trkpt>
      <trkpt lat="45.04179" lon="5.62363">
        <ele>976.8</ele>
        <time>2010-12-19T16:02:56Z</time>
      </trkpt>
      <trkpt lat="45.04177" lon="5.6236">
        <ele>976.8</ele>
        <time>2010-12-19T16:02:58Z</time>
      </trkpt>
      <trkpt lat="45.04177" lon="5.62355">
        <ele>977</ele>
        <time>2010-12-19T16:03:01Z</time>
      </trkpt>
      <trkpt lat="45.04176" lon="5.62336">
        <ele>977</ele>
        <time>2010-12-19T16:03:08Z</time>
      </trkpt>
      <trkpt lat="45.04175" lon="5.62333">
        <ele>977</ele>
        <time>2010-12-19T16:03:09Z</time>
      </trkpt>
      <trkpt lat="45.04172" lon="5.62326">
        <ele>977</ele>
        <time>2010-12-19T16:03:12Z</time>
      </trkpt>
      <trkpt lat="45.04165" lon="5.62314">
        <ele>977.2</ele>
        <time>2010-12-19T16:03:18Z</time>
      </trkpt>
      <trkpt lat="45.04163" lon="5.62312">
        <ele>977.4</ele>
        <time>2010-12-19T16:03:19Z</time>
      </trkpt>
      <trkpt lat="45.04157" lon="5.62301">
        <ele>977.6</ele>
        <time>2010-12-19T16:03:25Z</time>
      </trkpt>
      <trkpt lat="45.04156" lon="5.62299">
        <ele>977.8</ele>
        <time>2010-12-19T16:03:26Z</time>
      </trkpt>
      <trkpt lat="45.04153" lon="5.6229">
        <ele>977.8</ele>
        <time>2010-12-19T16:03:30Z</time>
      </trkpt>
      <trkpt lat="45.04148" lon="5.62284">
        <ele>978</ele>
        <time>2010-12-19T16:03:32Z</time>
      </trkpt>
      <trkpt lat="45.04143" lon="5.62279">
        <ele>978.2</ele>
        <time>2010-12-19T16:03:34Z</time>
      </trkpt>
      <trkpt lat="45.04141" lon="5.62277">
        <ele>978.2</ele>
        <time>2010-12-19T16:03:35Z</time>
      </trkpt>
      <trkpt lat="45.04139" lon="5.62275">
        <ele>978.2</ele>
        <time>2010-12-19T16:03:36Z</time>
      </trkpt>
      <trkpt lat="45.04134" lon="5.62268">
        <ele>978.6</ele>
        <time>2010-12-19T16:03:40Z</time>
      </trkpt>
      <trkpt lat="45.04127" lon="5.6226">
        <ele>978.8</ele>
        <time>2010-12-19T16:03:45Z</time>
      </trkpt>
      <trkpt lat="45.04125" lon="5.62257">
        <ele>978.8</ele>
        <time>2010-12-19T16:03:47Z</time>
      </trkpt>
      <trkpt lat="45.04121" lon="5.62253">
        <ele>978.6</ele>
        <time>2010-12-19T16:03:50Z</time>
      </trkpt>
      <trkpt lat="45.04118" lon="5.6225">
        <ele>978.4</ele>
        <time>2010-12-19T16:03:52Z</time>
      </trkpt>
      <trkpt lat="45.04112" lon="5.62245">
        <ele>978.4</ele>
        <time>2010-12-19T16:03:55Z</time>
      </trkpt>
      <trkpt lat="45.04109" lon="5.62242">
        <ele>978.2</ele>
        <time>2010-12-19T16:03:57Z</time>
      </trkpt>
      <trkpt lat="45.04102" lon="5.62238">
        <ele>978.2</ele>
        <time>2010-12-19T16:04:00Z</time>
      </trkpt>
      <trkpt lat="45.04094" lon="5.62234">
        <ele>978.2</ele>
        <time>2010-12-19T16:04:04Z</time>
      </trkpt>
      <trkpt lat="45.04092" lon="5.62235">
        <ele>978.2</ele>
        <time>2010-12-19T16:04:05Z</time>
      </trkpt>
      <trkpt lat="45.04085" lon="5.62232">
        <ele>978.6</ele>
        <time>2010-12-19T16:04:08Z</time>
      </trkpt>
      <trkpt lat="45.04073" lon="5.62228">
        <ele>979.2</ele>
        <time>2010-12-19T16:04:13Z</time>
      </trkpt>
      <trkpt lat="45.04061" lon="5.62222">
        <ele>979.8</ele>
        <time>2010-12-19T16:04:18Z</time>
      </trkpt>
      <trkpt lat="45.04055" lon="5.62216">
        <ele>980.2</ele>
        <time>2010-12-19T16:04:21Z</time>
      </trkpt>
      <trkpt lat="45.04053" lon="5.62214">
        <ele>980.2</ele>
        <time>2010-12-19T16:04:22Z</time>
      </trkpt>
      <trkpt lat="45.04049" lon="5.62213">
        <ele>980.6</ele>
        <time>2010-12-19T16:04:24Z</time>
      </trkpt>
      <trkpt lat="45.04047" lon="5.62211">
        <ele>981</ele>
        <time>2010-12-19T16:04:25Z</time>
      </trkpt>
      <trkpt lat="45.04044" lon="5.62206">
        <ele>981.6</ele>
        <time>2010-12-19T16:04:27Z</time>
      </trkpt>
      <trkpt lat="45.04038" lon="5.62202">
        <ele>983</ele>
        <time>2010-12-19T16:04:32Z</time>
      </trkpt>
      <trkpt lat="45.0403" lon="5.62197">
        <ele>984.2</ele>
        <time>2010-12-19T16:04:37Z</time>
      </trkpt>
      <trkpt lat="45.04024" lon="5.62194">
        <ele>985.4</ele>
        <time>2010-12-19T16:04:41Z</time>
      </trkpt>
      <trkpt lat="45.0402" lon="5.62191">
        <ele>985.8</ele>
        <time>2010-12-19T16:04:44Z</time>
      </trkpt>
      <trkpt lat="45.04016" lon="5.62187">
        <ele>986.2</ele>
        <time>2010-12-19T16:04:46Z</time>
      </trkpt>
      <trkpt lat="45.04007" lon="5.62178">
        <ele>987.2</ele>
        <time>2010-12-19T16:04:51Z</time>
      </trkpt>
      <trkpt lat="45.04006" lon="5.62176">
        <ele>987.4</ele>
        <time>2010-12-19T16:04:52Z</time>
      </trkpt>
      <trkpt lat="45.04005" lon="5.62173">
        <ele>987.4</ele>
        <time>2010-12-19T16:04:53Z</time>
      </trkpt>
      <trkpt lat="45.04001" lon="5.62168">
        <ele>987.4</ele>
        <time>2010-12-19T16:04:55Z</time>
      </trkpt>
      <trkpt lat="45.03996" lon="5.62161">
        <ele>987.4</ele>
        <time>2010-12-19T16:04:59Z</time>
      </trkpt>
      <trkpt lat="45.03993" lon="5.62151">
        <ele>987.2</ele>
        <time>2010-12-19T16:05:03Z</time>
      </trkpt>
      <trkpt lat="45.03992" lon="5.62148">
        <ele>987</ele>
        <time>2010-12-19T16:05:04Z</time>
      </trkpt>
      <trkpt lat="45.03989" lon="5.62133">
        <ele>986.6</ele>
        <time>2010-12-19T16:05:09Z</time>
      </trkpt>
      <trkpt lat="45.03986" lon="5.62124">
        <ele>986.4</ele>
        <time>2010-12-19T16:05:12Z</time>
      </trkpt>
      <trkpt lat="45.03985" lon="5.62118">
        <ele>986.2</ele>
        <time>2010-12-19T16:05:14Z</time>
      </trkpt>
      <trkpt lat="45.03978" lon="5.62106">
        <ele>986</ele>
        <time>2010-12-19T16:05:19Z</time>
      </trkpt>
      <trkpt lat="45.03976" lon="5.62101">
        <ele>985.8</ele>
        <time>2010-12-19T16:05:21Z</time>
      </trkpt>
      <trkpt lat="45.03974" lon="5.62095">
        <ele>985.8</ele>
        <time>2010-12-19T16:05:23Z</time>
      </trkpt>
      <trkpt lat="45.03972" lon="5.6209">
        <ele>985.6</ele>
        <time>2010-12-19T16:05:25Z</time>
      </trkpt>
      <trkpt lat="45.03967" lon="5.62081">
        <ele>985.4</ele>
        <time>2010-12-19T16:05:29Z</time>
      </trkpt>
      <trkpt lat="45.03966" lon="5.62078">
        <ele>985.2</ele>
        <time>2010-12-19T16:05:30Z</time>
      </trkpt>
      <trkpt lat="45.03963" lon="5.62069">
        <ele>985</ele>
        <time>2010-12-19T16:05:34Z</time>
      </trkpt>
      <trkpt lat="45.03961" lon="5.62057">
        <ele>984.8</ele>
        <time>2010-12-19T16:05:39Z</time>
      </trkpt>
      <trkpt lat="45.0396" lon="5.62054">
        <ele>984.6</ele>
        <time>2010-12-19T16:05:41Z</time>
      </trkpt>
      <trkpt lat="45.03959" lon="5.62053">
        <ele>984.6</ele>
        <time>2010-12-19T16:05:42Z</time>
      </trkpt>
      <trkpt lat="45.03957" lon="5.62049">
        <ele>984.6</ele>
        <time>2010-12-19T16:05:44Z</time>
      </trkpt>
      <trkpt lat="45.03947" lon="5.62035">
        <ele>984.6</ele>
        <time>2010-12-19T16:05:51Z</time>
      </trkpt>
      <trkpt lat="45.03946" lon="5.62033">
        <ele>984.4</ele>
        <time>2010-12-19T16:05:52Z</time>
      </trkpt>
      <trkpt lat="45.03945" lon="5.6203">
        <ele>984.6</ele>
        <time>2010-12-19T16:05:53Z</time>
      </trkpt>
      <trkpt lat="45.03944" lon="5.62022">
        <ele>985</ele>
        <time>2010-12-19T16:05:55Z</time>
      </trkpt>
      <trkpt lat="45.03947" lon="5.6201">
        <ele>985</ele>
        <time>2010-12-19T16:05:59Z</time>
      </trkpt>
      <trkpt lat="45.03947" lon="5.62007">
        <ele>985</ele>
        <time>2010-12-19T16:06:00Z</time>
      </trkpt>
      <trkpt lat="45.03952" lon="5.61997">
        <ele>984.8</ele>
        <time>2010-12-19T16:06:05Z</time>
      </trkpt>
      <trkpt lat="45.03954" lon="5.61988">
        <ele>984.6</ele>
        <time>2010-12-19T16:06:10Z</time>
      </trkpt>
      <trkpt lat="45.03956" lon="5.61983">
        <ele>984.2</ele>
        <time>2010-12-19T16:06:12Z</time>
      </trkpt>
      <trkpt lat="45.03962" lon="5.61977">
        <ele>983.8</ele>
        <time>2010-12-19T16:06:16Z</time>
      </trkpt>
      <trkpt lat="45.03971" lon="5.6197">
        <ele>983</ele>
        <time>2010-12-19T16:06:21Z</time>
      </trkpt>
      <trkpt lat="45.03973" lon="5.6197">
        <ele>982.8</ele>
        <time>2010-12-19T16:06:22Z</time>
      </trkpt>
      <trkpt lat="45.03983" lon="5.61974">
        <ele>981.6</ele>
        <time>2010-12-19T16:06:28Z</time>
      </trkpt>
      <trkpt lat="45.03988" lon="5.61978">
        <ele>980.8</ele>
        <time>2010-12-19T16:06:31Z</time>
      </trkpt>
      <trkpt lat="45.03992" lon="5.6198">
        <ele>980.4</ele>
        <time>2010-12-19T16:06:33Z</time>
      </trkpt>
      <trkpt lat="45.04001" lon="5.61984">
        <ele>979.2</ele>
        <time>2010-12-19T16:06:38Z</time>
      </trkpt>
      <trkpt lat="45.04006" lon="5.61981">
        <ele>978.4</ele>
        <time>2010-12-19T16:06:41Z</time>
      </trkpt>
      <trkpt lat="45.04011" lon="5.61978">
        <ele>977.8</ele>
        <time>2010-12-19T16:06:43Z</time>
      </trkpt>
      <trkpt lat="45.04018" lon="5.61975">
        <ele>976</ele>
        <time>2010-12-19T16:06:49Z</time>
      </trkpt>
      <trkpt lat="45.04024" lon="5.61972">
        <ele>975</ele>
        <time>2010-12-19T16:06:52Z</time>
      </trkpt>
      <trkpt lat="45.04027" lon="5.61971">
        <ele>974.6</ele>
        <time>2010-12-19T16:06:53Z</time>
      </trkpt>
      <trkpt lat="45.04038" lon="5.61964">
        <ele>973</ele>
        <time>2010-12-19T16:06:58Z</time>
      </trkpt>
      <trkpt lat="45.04041" lon="5.6196">
        <ele>972.2</ele>
        <time>2010-12-19T16:07:00Z</time>
      </trkpt>
      <trkpt lat="45.04043" lon="5.61951">
        <ele>971.2</ele>
        <time>2010-12-19T16:07:03Z</time>
      </trkpt>
      <trkpt lat="45.04044" lon="5.61946">
        <ele>970.4</ele>
        <time>2010-12-19T16:07:05Z</time>
      </trkpt>
      <trkpt lat="45.04046" lon="5.61941">
        <ele>969.6</ele>
        <time>2010-12-19T16:07:07Z</time>
      </trkpt>
      <trkpt lat="45.04048" lon="5.61935">
        <ele>969</ele>
        <time>2010-12-19T16:07:09Z</time>
      </trkpt>
      <trkpt lat="45.04051" lon="5.61931">
        <ele>967.4</ele>
        <time>2010-12-19T16:07:13Z</time>
      </trkpt>
      <trkpt lat="45.04054" lon="5.61928">
        <ele>964.2</ele>
        <time>2010-12-19T16:07:23Z</time>
      </trkpt>
      <trkpt lat="45.04052" lon="5.61928">
        <ele>962.6</ele>
        <time>2010-12-19T16:07:28Z</time>
      </trkpt>
      <trkpt lat="45.04056" lon="5.61926">
        <ele>959.6</ele>
        <time>2010-12-19T16:07:37Z</time>
      </trkpt>
      <trkpt lat="45.04057" lon="5.61921">
        <ele>958</ele>
        <time>2010-12-19T16:07:41Z</time>
      </trkpt>
      <trkpt lat="45.04058" lon="5.61921">
        <ele>957.8</ele>
        <time>2010-12-19T16:07:42Z</time>
      </trkpt>
      <trkpt lat="45.0406" lon="5.61921">
        <ele>957.4</ele>
        <time>2010-12-19T16:07:43Z</time>
      </trkpt>
      <trkpt lat="45.04066" lon="5.61921">
        <ele>956.4</ele>
        <time>2010-12-19T16:07:46Z</time>
      </trkpt>
      <trkpt lat="45.04068" lon="5.61921">
        <ele>956</ele>
        <time>2010-12-19T16:07:47Z</time>
      </trkpt>
      <trkpt lat="45.04078" lon="5.61923">
        <ele>954.2</ele>
        <time>2010-12-19T16:07:52Z</time>
      </trkpt>
      <trkpt lat="45.0408" lon="5.61924">
        <ele>953.8</ele>
        <time>2010-12-19T16:07:53Z</time>
      </trkpt>
      <trkpt lat="45.04089" lon="5.61929">
        <ele>952.4</ele>
        <time>2010-12-19T16:07:57Z</time>
      </trkpt>
      <trkpt lat="45.04096" lon="5.61936">
        <ele>951</ele>
        <time>2010-12-19T16:08:01Z</time>
      </trkpt>
      <trkpt lat="45.04098" lon="5.61937">
        <ele>950.6</ele>
        <time>2010-12-19T16:08:02Z</time>
      </trkpt>
      <trkpt lat="45.04103" lon="5.61945">
        <ele>949.2</ele>
        <time>2010-12-19T16:08:06Z</time>
      </trkpt>
      <trkpt lat="45.04104" lon="5.61946">
        <ele>948.8</ele>
        <time>2010-12-19T16:08:07Z</time>
      </trkpt>
      <trkpt lat="45.04107" lon="5.61956">
        <ele>947.2</ele>
        <time>2010-12-19T16:08:11Z</time>
      </trkpt>
      <trkpt lat="45.04108" lon="5.61959">
        <ele>946.8</ele>
        <time>2010-12-19T16:08:12Z</time>
      </trkpt>
      <trkpt lat="45.0411" lon="5.61966">
        <ele>946</ele>
        <time>2010-12-19T16:08:14Z</time>
      </trkpt>
      <trkpt lat="45.0411" lon="5.61975">
        <ele>944.8</ele>
        <time>2010-12-19T16:08:17Z</time>
      </trkpt>
      <trkpt lat="45.04109" lon="5.61983">
        <ele>943.4</ele>
        <time>2010-12-19T16:08:20Z</time>
      </trkpt>
      <trkpt lat="45.04111" lon="5.61988">
        <ele>942.6</ele>
        <time>2010-12-19T16:08:22Z</time>
      </trkpt>
      <trkpt lat="45.04116" lon="5.61995">
        <ele>941</ele>
        <time>2010-12-19T16:08:26Z</time>
      </trkpt>
      <trkpt lat="45.04118" lon="5.61997">
        <ele>940.6</ele>
        <time>2010-12-19T16:08:27Z</time>
      </trkpt>
      <trkpt lat="45.04122" lon="5.61997">
        <ele>939.8</ele>
        <time>2010-12-19T16:08:29Z</time>
      </trkpt>
      <trkpt lat="45.04128" lon="5.61997">
        <ele>939</ele>
        <time>2010-12-19T16:08:31Z</time>
      </trkpt>
      <trkpt lat="45.04135" lon="5.62003">
        <ele>937.4</ele>
        <time>2010-12-19T16:08:35Z</time>
      </trkpt>
      <trkpt lat="45.0414" lon="5.62005">
        <ele>936.4</ele>
        <time>2010-12-19T16:08:38Z</time>
      </trkpt>
      <trkpt lat="45.04143" lon="5.62008">
        <ele>935.6</ele>
        <time>2010-12-19T16:08:40Z</time>
      </trkpt>
      <trkpt lat="45.04152" lon="5.62017">
        <ele>933.8</ele>
        <time>2010-12-19T16:08:45Z</time>
      </trkpt>
      <trkpt lat="45.04155" lon="5.62021">
        <ele>933</ele>
        <time>2010-12-19T16:08:47Z</time>
      </trkpt>
      <trkpt lat="45.04158" lon="5.62025">
        <ele>932.4</ele>
        <time>2010-12-19T16:08:49Z</time>
      </trkpt>
      <trkpt lat="45.04166" lon="5.62029">
        <ele>930.6</ele>
        <time>2010-12-19T16:08:54Z</time>
      </trkpt>
      <trkpt lat="45.04168" lon="5.62032">
        <ele>929.8</ele>
        <time>2010-12-19T16:08:56Z</time>
      </trkpt>
      <trkpt lat="45.04172" lon="5.62034">
        <ele>928.6</ele>
        <time>2010-12-19T16:08:59Z</time>
      </trkpt>
      <trkpt lat="45.04179" lon="5.62035">
        <ele>926.6</ele>
        <time>2010-12-19T16:09:04Z</time>
      </trkpt>
      <trkpt lat="45.04185" lon="5.62032">
        <ele>923.8</ele>
        <time>2010-12-19T16:09:10Z</time>
      </trkpt>
      <trkpt lat="45.04186" lon="5.62024">
        <ele>922.6</ele>
        <time>2010-12-19T16:09:13Z</time>
      </trkpt>
      <trkpt lat="45.04185" lon="5.62021">
        <ele>922.2</ele>
        <time>2010-12-19T16:09:14Z</time>
      </trkpt>
      <trkpt lat="45.04184" lon="5.62015">
        <ele>921.2</ele>
        <time>2010-12-19T16:09:16Z</time>
      </trkpt>
      <trkpt lat="45.04183" lon="5.62006">
        <ele>920</ele>
        <time>2010-12-19T16:09:19Z</time>
      </trkpt>
      <trkpt lat="45.04182" lon="5.61997">
        <ele>918.8</ele>
        <time>2010-12-19T16:09:22Z</time>
      </trkpt>
      <trkpt lat="45.04181" lon="5.61993">
        <ele>917.8</ele>
        <time>2010-12-19T16:09:24Z</time>
      </trkpt>
      <trkpt lat="45.04181" lon="5.61979">
        <ele>915.6</ele>
        <time>2010-12-19T16:09:29Z</time>
      </trkpt>
      <trkpt lat="45.04182" lon="5.61976">
        <ele>915.2</ele>
        <time>2010-12-19T16:09:30Z</time>
      </trkpt>
      <trkpt lat="45.04183" lon="5.61972">
        <ele>914.8</ele>
        <time>2010-12-19T16:09:31Z</time>
      </trkpt>
      <trkpt lat="45.04188" lon="5.61962">
        <ele>913.4</ele>
        <time>2010-12-19T16:09:34Z</time>
      </trkpt>
      <trkpt lat="45.04189" lon="5.61959">
        <ele>913</ele>
        <time>2010-12-19T16:09:35Z</time>
      </trkpt>
      <trkpt lat="45.04191" lon="5.61949">
        <ele>911.6</ele>
        <time>2010-12-19T16:09:38Z</time>
      </trkpt>
      <trkpt lat="45.04192" lon="5.61946">
        <ele>911.2</ele>
        <time>2010-12-19T16:09:39Z</time>
      </trkpt>
      <trkpt lat="45.0419" lon="5.61929">
        <ele>908.8</ele>
        <time>2010-12-19T16:09:44Z</time>
      </trkpt>
      <trkpt lat="45.04188" lon="5.61923">
        <ele>907.8</ele>
        <time>2010-12-19T16:09:46Z</time>
      </trkpt>
      <trkpt lat="45.04184" lon="5.61912">
        <ele>906.4</ele>
        <time>2010-12-19T16:09:49Z</time>
      </trkpt>
      <trkpt lat="45.04183" lon="5.61909">
        <ele>906</ele>
        <time>2010-12-19T16:09:50Z</time>
      </trkpt>
      <trkpt lat="45.0418" lon="5.61897">
        <ele>904</ele>
        <time>2010-12-19T16:09:54Z</time>
      </trkpt>
      <trkpt lat="45.04177" lon="5.61891">
        <ele>903</ele>
        <time>2010-12-19T16:09:56Z</time>
      </trkpt>
      <trkpt lat="45.04172" lon="5.61874">
        <ele>900.2</ele>
        <time>2010-12-19T16:10:02Z</time>
      </trkpt>
      <trkpt lat="45.04171" lon="5.61863">
        <ele>897.6</ele>
        <time>2010-12-19T16:10:07Z</time>
      </trkpt>
      <trkpt lat="45.04169" lon="5.61852">
        <ele>895</ele>
        <time>2010-12-19T16:10:12Z</time>
      </trkpt>
      <trkpt lat="45.04169" lon="5.6185">
        <ele>894.2</ele>
        <time>2010-12-19T16:10:14Z</time>
      </trkpt>
      <trkpt lat="45.04169" lon="5.61848">
        <ele>893.6</ele>
        <time>2010-12-19T16:10:15Z</time>
      </trkpt>
      <trkpt lat="45.04169" lon="5.61844">
        <ele>892.6</ele>
        <time>2010-12-19T16:10:17Z</time>
      </trkpt>
      <trkpt lat="45.04168" lon="5.61842">
        <ele>892</ele>
        <time>2010-12-19T16:10:18Z</time>
      </trkpt>
      <trkpt lat="45.04161" lon="5.61835">
        <ele>890</ele>
        <time>2010-12-19T16:10:22Z</time>
      </trkpt>
      <trkpt lat="45.04157" lon="5.61829">
        <ele>888.6</ele>
        <time>2010-12-19T16:10:25Z</time>
      </trkpt>
      <trkpt lat="45.04156" lon="5.61826">
        <ele>888</ele>
        <time>2010-12-19T16:10:26Z</time>
      </trkpt>
      <trkpt lat="45.04149" lon="5.61815">
        <ele>885.6</ele>
        <time>2010-12-19T16:10:31Z</time>
      </trkpt>
      <trkpt lat="45.04144" lon="5.6181">
        <ele>883.8</ele>
        <time>2010-12-19T16:10:35Z</time>
      </trkpt>
      <trkpt lat="45.04142" lon="5.61808">
        <ele>883.4</ele>
        <time>2010-12-19T16:10:36Z</time>
      </trkpt>
      <trkpt lat="45.0414" lon="5.61805">
        <ele>882.4</ele>
        <time>2010-12-19T16:10:38Z</time>
      </trkpt>
      <trkpt lat="45.04139" lon="5.61804">
        <ele>882</ele>
        <time>2010-12-19T16:10:39Z</time>
      </trkpt>
      <trkpt lat="45.04137" lon="5.61801">
        <ele>881</ele>
        <time>2010-12-19T16:10:41Z</time>
      </trkpt>
      <trkpt lat="45.04136" lon="5.618">
        <ele>880.6</ele>
        <time>2010-12-19T16:10:42Z</time>
      </trkpt>
      <trkpt lat="45.04135" lon="5.61794">
        <ele>878.6</ele>
        <time>2010-12-19T16:10:46Z</time>
      </trkpt>
      <trkpt lat="45.04135" lon="5.61793">
        <ele>878.2</ele>
        <time>2010-12-19T16:10:47Z</time>
      </trkpt>
      <trkpt lat="45.04136" lon="5.61789">
        <ele>876.4</ele>
        <time>2010-12-19T16:10:51Z</time>
      </trkpt>
      <trkpt lat="45.04139" lon="5.61785">
        <ele>875.2</ele>
        <time>2010-12-19T16:10:54Z</time>
      </trkpt>
      <trkpt lat="45.04141" lon="5.61785">
        <ele>874.2</ele>
        <time>2010-12-19T16:10:56Z</time>
      </trkpt>
      <trkpt lat="45.04146" lon="5.61786">
        <ele>872.4</ele>
        <time>2010-12-19T16:11:00Z</time>
      </trkpt>
      <trkpt lat="45.04148" lon="5.61785">
        <ele>872</ele>
        <time>2010-12-19T16:11:01Z</time>
      </trkpt>
      <trkpt lat="45.04153" lon="5.61784">
        <ele>870.4</ele>
        <time>2010-12-19T16:11:05Z</time>
      </trkpt>
      <trkpt lat="45.04155" lon="5.61783">
        <ele>870</ele>
        <time>2010-12-19T16:11:06Z</time>
      </trkpt>
      <trkpt lat="45.04157" lon="5.61785">
        <ele>869.2</ele>
        <time>2010-12-19T16:11:09Z</time>
      </trkpt>
      <trkpt lat="45.04159" lon="5.61785">
        <ele>868.6</ele>
        <time>2010-12-19T16:11:11Z</time>
      </trkpt>
      <trkpt lat="45.04163" lon="5.61786">
        <ele>867.2</ele>
        <time>2010-12-19T16:11:15Z</time>
      </trkpt>
      <trkpt lat="45.04168" lon="5.61786">
        <ele>866.2</ele>
        <time>2010-12-19T16:11:18Z</time>
      </trkpt>
      <trkpt lat="45.04171" lon="5.61785">
        <ele>865.6</ele>
        <time>2010-12-19T16:11:20Z</time>
      </trkpt>
      <trkpt lat="45.04172" lon="5.61786">
        <ele>865.4</ele>
        <time>2010-12-19T16:11:21Z</time>
      </trkpt>
      <trkpt lat="45.04174" lon="5.61786">
        <ele>864.8</ele>
        <time>2010-12-19T16:11:23Z</time>
      </trkpt>
      <trkpt lat="45.0418" lon="5.61785">
        <ele>863.6</ele>
        <time>2010-12-19T16:11:27Z</time>
      </trkpt>
      <trkpt lat="45.04188" lon="5.6179">
        <ele>861.4</ele>
        <time>2010-12-19T16:11:34Z</time>
      </trkpt>
      <trkpt lat="45.04189" lon="5.61791">
        <ele>861</ele>
        <time>2010-12-19T16:11:35Z</time>
      </trkpt>
      <trkpt lat="45.04191" lon="5.61792">
        <ele>860.4</ele>
        <time>2010-12-19T16:11:37Z</time>
      </trkpt>
      <trkpt lat="45.04195" lon="5.61793">
        <ele>859.6</ele>
        <time>2010-12-19T16:11:40Z</time>
      </trkpt>
      <trkpt lat="45.04205" lon="5.61798">
        <ele>857.8</ele>
        <time>2010-12-19T16:11:46Z</time>
      </trkpt>
      <trkpt lat="45.04206" lon="5.618">
        <ele>857.6</ele>
        <time>2010-12-19T16:11:47Z</time>
      </trkpt>
      <trkpt lat="45.04212" lon="5.61803">
        <ele>856.4</ele>
        <time>2010-12-19T16:11:51Z</time>
      </trkpt>
      <trkpt lat="45.04213" lon="5.61803">
        <ele>856.2</ele>
        <time>2010-12-19T16:11:53Z</time>
      </trkpt>
      <trkpt lat="45.04216" lon="5.61805">
        <ele>855.2</ele>
        <time>2010-12-19T16:11:55Z</time>
      </trkpt>
      <trkpt lat="45.04218" lon="5.61806">
        <ele>855</ele>
        <time>2010-12-19T16:11:56Z</time>
      </trkpt>
      <trkpt lat="45.04224" lon="5.6181">
        <ele>853.8</ele>
        <time>2010-12-19T16:11:59Z</time>
      </trkpt>
      <trkpt lat="45.04225" lon="5.61811">
        <ele>853.6</ele>
        <time>2010-12-19T16:12:00Z</time>
      </trkpt>
      <trkpt lat="45.04229" lon="5.61812">
        <ele>853</ele>
        <time>2010-12-19T16:12:02Z</time>
      </trkpt>
      <trkpt lat="45.04242" lon="5.61816">
        <ele>851</ele>
        <time>2010-12-19T16:12:09Z</time>
      </trkpt>
      <trkpt lat="45.04248" lon="5.6182">
        <ele>849.8</ele>
        <time>2010-12-19T16:12:12Z</time>
      </trkpt>
      <trkpt lat="45.04252" lon="5.61823">
        <ele>849</ele>
        <time>2010-12-19T16:12:14Z</time>
      </trkpt>
      <trkpt lat="45.04259" lon="5.61829">
        <ele>847.4</ele>
        <time>2010-12-19T16:12:18Z</time>
      </trkpt>
      <trkpt lat="45.04261" lon="5.61831">
        <ele>847</ele>
        <time>2010-12-19T16:12:19Z</time>
      </trkpt>
      <trkpt lat="45.0427" lon="5.61834">
        <ele>844.2</ele>
        <time>2010-12-19T16:12:25Z</time>
      </trkpt>
      <trkpt lat="45.04276" lon="5.61839">
        <ele>841.4</ele>
        <time>2010-12-19T16:12:31Z</time>
      </trkpt>
      <trkpt lat="45.04282" lon="5.61846">
        <ele>838.4</ele>
        <time>2010-12-19T16:12:37Z</time>
      </trkpt>
      <trkpt lat="45.04285" lon="5.61851">
        <ele>835.8</ele>
        <time>2010-12-19T16:12:42Z</time>
      </trkpt>
      <trkpt lat="45.04286" lon="5.61852">
        <ele>834.8</ele>
        <time>2010-12-19T16:12:44Z</time>
      </trkpt>
      <trkpt lat="45.04288" lon="5.61858">
        <ele>833</ele>
        <time>2010-12-19T16:12:48Z</time>
      </trkpt>
      <trkpt lat="45.04289" lon="5.61858">
        <ele>832.4</ele>
        <time>2010-12-19T16:12:49Z</time>
      </trkpt>
      <trkpt lat="45.04291" lon="5.61858">
        <ele>832</ele>
        <time>2010-12-19T16:12:50Z</time>
      </trkpt>
      <trkpt lat="45.04296" lon="5.61863">
        <ele>829</ele>
        <time>2010-12-19T16:12:56Z</time>
      </trkpt>
      <trkpt lat="45.04301" lon="5.61868">
        <ele>826.8</ele>
        <time>2010-12-19T16:13:01Z</time>
      </trkpt>
      <trkpt lat="45.04304" lon="5.6187">
        <ele>826</ele>
        <time>2010-12-19T16:13:03Z</time>
      </trkpt>
      <trkpt lat="45.04308" lon="5.61872">
        <ele>825</ele>
        <time>2010-12-19T16:13:05Z</time>
      </trkpt>
      <trkpt lat="45.04314" lon="5.6188">
        <ele>822.8</ele>
        <time>2010-12-19T16:13:10Z</time>
      </trkpt>
      <trkpt lat="45.04319" lon="5.61886">
        <ele>821.2</ele>
        <time>2010-12-19T16:13:13Z</time>
      </trkpt>
      <trkpt lat="45.0432" lon="5.61888">
        <ele>820.8</ele>
        <time>2010-12-19T16:13:14Z</time>
      </trkpt>
      <trkpt lat="45.04323" lon="5.61896">
        <ele>819.2</ele>
        <time>2010-12-19T16:13:17Z</time>
      </trkpt>
      <trkpt lat="45.04331" lon="5.61907">
        <ele>816</ele>
        <time>2010-12-19T16:13:23Z</time>
      </trkpt>
      <trkpt lat="45.04336" lon="5.61915">
        <ele>813.4</ele>
        <time>2010-12-19T16:13:28Z</time>
      </trkpt>
      <trkpt lat="45.04344" lon="5.61922">
        <ele>810.6</ele>
        <time>2010-12-19T16:13:34Z</time>
      </trkpt>
      <trkpt lat="45.04346" lon="5.61923">
        <ele>810</ele>
        <time>2010-12-19T16:13:35Z</time>
      </trkpt>
      <trkpt lat="45.04347" lon="5.61925">
        <ele>809.6</ele>
        <time>2010-12-19T16:13:36Z</time>
      </trkpt>
      <trkpt lat="45.0435" lon="5.61929">
        <ele>808.2</ele>
        <time>2010-12-19T16:13:39Z</time>
      </trkpt>
      <trkpt lat="45.04354" lon="5.61933">
        <ele>807.2</ele>
        <time>2010-12-19T16:13:41Z</time>
      </trkpt>
      <trkpt lat="45.04358" lon="5.61937">
        <ele>805.8</ele>
        <time>2010-12-19T16:13:44Z</time>
      </trkpt>
      <trkpt lat="45.0436" lon="5.6194">
        <ele>804.8</ele>
        <time>2010-12-19T16:13:46Z</time>
      </trkpt>
      <trkpt lat="45.04363" lon="5.61944">
        <ele>803.6</ele>
        <time>2010-12-19T16:13:49Z</time>
      </trkpt>
      <trkpt lat="45.0437" lon="5.6195">
        <ele>801.4</ele>
        <time>2010-12-19T16:13:54Z</time>
      </trkpt>
      <trkpt lat="45.04373" lon="5.61957">
        <ele>799.6</ele>
        <time>2010-12-19T16:13:58Z</time>
      </trkpt>
      <trkpt lat="45.04376" lon="5.61961">
        <ele>798.8</ele>
        <time>2010-12-19T16:14:00Z</time>
      </trkpt>
      <trkpt lat="45.0438" lon="5.6198">
        <ele>796.8</ele>
        <time>2010-12-19T16:14:05Z</time>
      </trkpt>
      <trkpt lat="45.04385" lon="5.61999">
        <ele>794</ele>
        <time>2010-12-19T16:14:11Z</time>
      </trkpt>
      <trkpt lat="45.04388" lon="5.62005">
        <ele>792.6</ele>
        <time>2010-12-19T16:14:14Z</time>
      </trkpt>
      <trkpt lat="45.04391" lon="5.62009">
        <ele>791.6</ele>
        <time>2010-12-19T16:14:16Z</time>
      </trkpt>
      <trkpt lat="45.04398" lon="5.62016">
        <ele>789.4</ele>
        <time>2010-12-19T16:14:20Z</time>
      </trkpt>
      <trkpt lat="45.04402" lon="5.62023">
        <ele>788</ele>
        <time>2010-12-19T16:14:23Z</time>
      </trkpt>
      <trkpt lat="45.04406" lon="5.62033">
        <ele>786.4</ele>
        <time>2010-12-19T16:14:26Z</time>
      </trkpt>
      <trkpt lat="45.04413" lon="5.62046">
        <ele>783.8</ele>
        <time>2010-12-19T16:14:31Z</time>
      </trkpt>
      <trkpt lat="45.04415" lon="5.62048">
        <ele>783.4</ele>
        <time>2010-12-19T16:14:32Z</time>
      </trkpt>
      <trkpt lat="45.04422" lon="5.62063">
        <ele>781</ele>
        <time>2010-12-19T16:14:37Z</time>
      </trkpt>
      <trkpt lat="45.04426" lon="5.62067">
        <ele>780</ele>
        <time>2010-12-19T16:14:39Z</time>
      </trkpt>
      <trkpt lat="45.04427" lon="5.62069">
        <ele>779.4</ele>
        <time>2010-12-19T16:14:40Z</time>
      </trkpt>
      <trkpt lat="45.0443" lon="5.62075">
        <ele>778.6</ele>
        <time>2010-12-19T16:14:42Z</time>
      </trkpt>
      <trkpt lat="45.04435" lon="5.62082">
        <ele>777.2</ele>
        <time>2010-12-19T16:14:45Z</time>
      </trkpt>
      <trkpt lat="45.04437" lon="5.62087">
        <ele>776.4</ele>
        <time>2010-12-19T16:14:47Z</time>
      </trkpt>
      <trkpt lat="45.04438" lon="5.6209">
        <ele>775.8</ele>
        <time>2010-12-19T16:14:48Z</time>
      </trkpt>
      <trkpt lat="45.04444" lon="5.62101">
        <ele>774</ele>
        <time>2010-12-19T16:14:52Z</time>
      </trkpt>
      <trkpt lat="45.04451" lon="5.62112">
        <ele>771.8</ele>
        <time>2010-12-19T16:14:57Z</time>
      </trkpt>
      <trkpt lat="45.04458" lon="5.62118">
        <ele>770.4</ele>
        <time>2010-12-19T16:15:00Z</time>
      </trkpt>
      <trkpt lat="45.04461" lon="5.62126">
        <ele>769</ele>
        <time>2010-12-19T16:15:03Z</time>
      </trkpt>
      <trkpt lat="45.04462" lon="5.62131">
        <ele>768</ele>
        <time>2010-12-19T16:15:05Z</time>
      </trkpt>
      <trkpt lat="45.04464" lon="5.62133">
        <ele>767.6</ele>
        <time>2010-12-19T16:15:06Z</time>
      </trkpt>
      <trkpt lat="45.04466" lon="5.62135">
        <ele>767</ele>
        <time>2010-12-19T16:15:07Z</time>
      </trkpt>
      <trkpt lat="45.04473" lon="5.62146">
        <ele>765.2</ele>
        <time>2010-12-19T16:15:11Z</time>
      </trkpt>
      <trkpt lat="45.04477" lon="5.62154">
        <ele>763.8</ele>
        <time>2010-12-19T16:15:14Z</time>
      </trkpt>
      <trkpt lat="45.04481" lon="5.62161">
        <ele>762.8</ele>
        <time>2010-12-19T16:15:16Z</time>
      </trkpt>
      <trkpt lat="45.04488" lon="5.62175">
        <ele>760.6</ele>
        <time>2010-12-19T16:15:21Z</time>
      </trkpt>
      <trkpt lat="45.04496" lon="5.62197">
        <ele>757.4</ele>
        <time>2010-12-19T16:15:28Z</time>
      </trkpt>
      <trkpt lat="45.04497" lon="5.622">
        <ele>757</ele>
        <time>2010-12-19T16:15:29Z</time>
      </trkpt>
      <trkpt lat="45.04499" lon="5.62214">
        <ele>755.4</ele>
        <time>2010-12-19T16:15:33Z</time>
      </trkpt>
      <trkpt lat="45.04504" lon="5.62227">
        <ele>753.4</ele>
        <time>2010-12-19T16:15:38Z</time>
      </trkpt>
      <trkpt lat="45.04505" lon="5.62242">
        <ele>751.4</ele>
        <time>2010-12-19T16:15:43Z</time>
      </trkpt>
      <trkpt lat="45.04507" lon="5.62251">
        <ele>750.2</ele>
        <time>2010-12-19T16:15:46Z</time>
      </trkpt>
      <trkpt lat="45.04508" lon="5.62254">
        <ele>749.8</ele>
        <time>2010-12-19T16:15:47Z</time>
      </trkpt>
      <trkpt lat="45.04511" lon="5.62268">
        <ele>747.8</ele>
        <time>2010-12-19T16:15:52Z</time>
      </trkpt>
      <trkpt lat="45.04516" lon="5.62278">
        <ele>746.2</ele>
        <time>2010-12-19T16:15:56Z</time>
      </trkpt>
      <trkpt lat="45.04517" lon="5.62281">
        <ele>745.8</ele>
        <time>2010-12-19T16:15:57Z</time>
      </trkpt>
      <trkpt lat="45.04524" lon="5.62293">
        <ele>743.8</ele>
        <time>2010-12-19T16:16:02Z</time>
      </trkpt>
      <trkpt lat="45.04529" lon="5.62299">
        <ele>742.4</ele>
        <time>2010-12-19T16:16:05Z</time>
      </trkpt>
      <trkpt lat="45.04531" lon="5.62304">
        <ele>741.6</ele>
        <time>2010-12-19T16:16:07Z</time>
      </trkpt>
      <trkpt lat="45.04533" lon="5.62306">
        <ele>741.2</ele>
        <time>2010-12-19T16:16:08Z</time>
      </trkpt>
      <trkpt lat="45.04541" lon="5.62318">
        <ele>739.6</ele>
        <time>2010-12-19T16:16:12Z</time>
      </trkpt>
      <trkpt lat="45.04543" lon="5.6232">
        <ele>739.2</ele>
        <time>2010-12-19T16:16:13Z</time>
      </trkpt>
      <trkpt lat="45.04552" lon="5.62332">
        <ele>737.4</ele>
        <time>2010-12-19T16:16:18Z</time>
      </trkpt>
      <trkpt lat="45.04554" lon="5.62338">
        <ele>736.6</ele>
        <time>2010-12-19T16:16:20Z</time>
      </trkpt>
      <trkpt lat="45.04561" lon="5.62348">
        <ele>735.2</ele>
        <time>2010-12-19T16:16:24Z</time>
      </trkpt>
      <trkpt lat="45.04568" lon="5.62359">
        <ele>734.2</ele>
        <time>2010-12-19T16:16:29Z</time>
      </trkpt>
      <trkpt lat="45.04569" lon="5.62361">
        <ele>734</ele>
        <time>2010-12-19T16:16:30Z</time>
      </trkpt>
      <trkpt lat="45.04583" lon="5.62365">
        <ele>733.2</ele>
        <time>2010-12-19T16:16:36Z</time>
      </trkpt>
      <trkpt lat="45.04586" lon="5.62366">
        <ele>733</ele>
        <time>2010-12-19T16:16:37Z</time>
      </trkpt>
      <trkpt lat="45.04593" lon="5.62374">
        <ele>732.4</ele>
        <time>2010-12-19T16:16:42Z</time>
      </trkpt>
      <trkpt lat="45.046" lon="5.62382">
        <ele>731.8</ele>
        <time>2010-12-19T16:16:46Z</time>
      </trkpt>
      <trkpt lat="45.04602" lon="5.62384">
        <ele>731.6</ele>
        <time>2010-12-19T16:16:47Z</time>
      </trkpt>
      <trkpt lat="45.04613" lon="5.62398">
        <ele>730</ele>
        <time>2010-12-19T16:16:53Z</time>
      </trkpt>
      <trkpt lat="45.04616" lon="5.624">
        <ele>729.8</ele>
        <time>2010-12-19T16:16:54Z</time>
      </trkpt>
      <trkpt lat="45.04621" lon="5.62408">
        <ele>729</ele>
        <time>2010-12-19T16:16:57Z</time>
      </trkpt>
      <trkpt lat="45.04628" lon="5.62421">
        <ele>727.6</ele>
        <time>2010-12-19T16:17:02Z</time>
      </trkpt>
      <trkpt lat="45.0463" lon="5.62425">
        <ele>726.8</ele>
        <time>2010-12-19T16:17:04Z</time>
      </trkpt>
      <trkpt lat="45.04633" lon="5.62429">
        <ele>726</ele>
        <time>2010-12-19T16:17:06Z</time>
      </trkpt>
      <trkpt lat="45.04643" lon="5.62435">
        <ele>724.6</ele>
        <time>2010-12-19T16:17:10Z</time>
      </trkpt>
      <trkpt lat="45.04651" lon="5.62441">
        <ele>723.4</ele>
        <time>2010-12-19T16:17:13Z</time>
      </trkpt>
      <trkpt lat="45.04654" lon="5.62446">
        <ele>722.8</ele>
        <time>2010-12-19T16:17:15Z</time>
      </trkpt>
      <trkpt lat="45.04659" lon="5.62451">
        <ele>722</ele>
        <time>2010-12-19T16:17:17Z</time>
      </trkpt>
      <trkpt lat="45.04664" lon="5.62458">
        <ele>721</ele>
        <time>2010-12-19T16:17:20Z</time>
      </trkpt>
      <trkpt lat="45.04665" lon="5.62461">
        <ele>720.8</ele>
        <time>2010-12-19T16:17:21Z</time>
      </trkpt>
      <trkpt lat="45.04671" lon="5.62471">
        <ele>719.6</ele>
        <time>2010-12-19T16:17:25Z</time>
      </trkpt>
      <trkpt lat="45.04674" lon="5.62473">
        <ele>719.2</ele>
        <time>2010-12-19T16:17:26Z</time>
      </trkpt>
      <trkpt lat="45.0468" lon="5.62482">
        <ele>717.8</ele>
        <time>2010-12-19T16:17:30Z</time>
      </trkpt>
      <trkpt lat="45.04685" lon="5.62489">
        <ele>717</ele>
        <time>2010-12-19T16:17:33Z</time>
      </trkpt>
      <trkpt lat="45.04688" lon="5.62492">
        <ele>716.2</ele>
        <time>2010-12-19T16:17:35Z</time>
      </trkpt>
      <trkpt lat="45.04696" lon="5.62499">
        <ele>715</ele>
        <time>2010-12-19T16:17:39Z</time>
      </trkpt>
      <trkpt lat="45.04699" lon="5.62501">
        <ele>714.8</ele>
        <time>2010-12-19T16:17:40Z</time>
      </trkpt>
      <trkpt lat="45.047" lon="5.62503">
        <ele>714.6</ele>
        <time>2010-12-19T16:17:41Z</time>
      </trkpt>
      <trkpt lat="45.04709" lon="5.62508">
        <ele>713.4</ele>
        <time>2010-12-19T16:17:45Z</time>
      </trkpt>
      <trkpt lat="45.04713" lon="5.62511">
        <ele>712.8</ele>
        <time>2010-12-19T16:17:47Z</time>
      </trkpt>
      <trkpt lat="45.04715" lon="5.62515">
        <ele>712.2</ele>
        <time>2010-12-19T16:17:49Z</time>
      </trkpt>
      <trkpt lat="45.04717" lon="5.62516">
        <ele>711.8</ele>
        <time>2010-12-19T16:17:50Z</time>
      </trkpt>
      <trkpt lat="45.04726" lon="5.6252">
        <ele>710.4</ele>
        <time>2010-12-19T16:17:55Z</time>
      </trkpt>
      <trkpt lat="45.04735" lon="5.62525">
        <ele>709</ele>
        <time>2010-12-19T16:18:00Z</time>
      </trkpt>
      <trkpt lat="45.04737" lon="5.62526">
        <ele>708.6</ele>
        <time>2010-12-19T16:18:01Z</time>
      </trkpt>
      <trkpt lat="45.0474" lon="5.62527">
        <ele>708.2</ele>
        <time>2010-12-19T16:18:02Z</time>
      </trkpt>
      <trkpt lat="45.04748" lon="5.62533">
        <ele>706.8</ele>
        <time>2010-12-19T16:18:06Z</time>
      </trkpt>
      <trkpt lat="45.04752" lon="5.62538">
        <ele>706.2</ele>
        <time>2010-12-19T16:18:08Z</time>
      </trkpt>
      <trkpt lat="45.04758" lon="5.62546">
        <ele>705.2</ele>
        <time>2010-12-19T16:18:11Z</time>
      </trkpt>
      <trkpt lat="45.04767" lon="5.62557">
        <ele>703.6</ele>
        <time>2010-12-19T16:18:16Z</time>
      </trkpt>
      <trkpt lat="45.04769" lon="5.62559">
        <ele>703.4</ele>
        <time>2010-12-19T16:18:17Z</time>
      </trkpt>
      <trkpt lat="45.0478" lon="5.62568">
        <ele>701.8</ele>
        <time>2010-12-19T16:18:23Z</time>
      </trkpt>
      <trkpt lat="45.04784" lon="5.62569">
        <ele>701.2</ele>
        <time>2010-12-19T16:18:25Z</time>
      </trkpt>
      <trkpt lat="45.04791" lon="5.62568">
        <ele>700.4</ele>
        <time>2010-12-19T16:18:28Z</time>
      </trkpt>
      <trkpt lat="45.04799" lon="5.6257">
        <ele>699.2</ele>
        <time>2010-12-19T16:18:33Z</time>
      </trkpt>
      <trkpt lat="45.04803" lon="5.62572">
        <ele>698.6</ele>
        <time>2010-12-19T16:18:35Z</time>
      </trkpt>
      <trkpt lat="45.04806" lon="5.62574">
        <ele>698.2</ele>
        <time>2010-12-19T16:18:37Z</time>
      </trkpt>
      <trkpt lat="45.04809" lon="5.62577">
        <ele>697.8</ele>
        <time>2010-12-19T16:18:39Z</time>
      </trkpt>
      <trkpt lat="45.04823" lon="5.6258">
        <ele>697</ele>
        <time>2010-12-19T16:18:44Z</time>
      </trkpt>
      <trkpt lat="45.0483" lon="5.62584">
        <ele>696.4</ele>
        <time>2010-12-19T16:18:47Z</time>
      </trkpt>
      <trkpt lat="45.04834" lon="5.62587">
        <ele>696</ele>
        <time>2010-12-19T16:18:49Z</time>
      </trkpt>
      <trkpt lat="45.04841" lon="5.62593">
        <ele>695.6</ele>
        <time>2010-12-19T16:18:52Z</time>
      </trkpt>
      <trkpt lat="45.04844" lon="5.62596">
        <ele>695</ele>
        <time>2010-12-19T16:18:54Z</time>
      </trkpt>
      <trkpt lat="45.04845" lon="5.62597">
        <ele>695</ele>
        <time>2010-12-19T16:18:55Z</time>
      </trkpt>
      <trkpt lat="45.04852" lon="5.62601">
        <ele>694.4</ele>
        <time>2010-12-19T16:18:58Z</time>
      </trkpt>
      <trkpt lat="45.04857" lon="5.62603">
        <ele>693.8</ele>
        <time>2010-12-19T16:19:00Z</time>
      </trkpt>
      <trkpt lat="45.04859" lon="5.62604">
        <ele>693.6</ele>
        <time>2010-12-19T16:19:01Z</time>
      </trkpt>
      <trkpt lat="45.04863" lon="5.62606">
        <ele>693</ele>
        <time>2010-12-19T16:19:03Z</time>
      </trkpt>
      <trkpt lat="45.04869" lon="5.62608">
        <ele>692.4</ele>
        <time>2010-12-19T16:19:07Z</time>
      </trkpt>
      <trkpt lat="45.04876" lon="5.62609">
        <ele>691.6</ele>
        <time>2010-12-19T16:19:09Z</time>
      </trkpt>
      <trkpt lat="45.04878" lon="5.6261">
        <ele>691.4</ele>
        <time>2010-12-19T16:19:10Z</time>
      </trkpt>
      <trkpt lat="45.04882" lon="5.62611">
        <ele>691</ele>
        <time>2010-12-19T16:19:12Z</time>
      </trkpt>
      <trkpt lat="45.04886" lon="5.62612">
        <ele>690.4</ele>
        <time>2010-12-19T16:19:14Z</time>
      </trkpt>
      <trkpt lat="45.04897" lon="5.62613">
        <ele>689.4</ele>
        <time>2010-12-19T16:19:19Z</time>
      </trkpt>
      <trkpt lat="45.04906" lon="5.62613">
        <ele>688.8</ele>
        <time>2010-12-19T16:19:22Z</time>
      </trkpt>
      <trkpt lat="45.04912" lon="5.62614">
        <ele>688.4</ele>
        <time>2010-12-19T16:19:24Z</time>
      </trkpt>
      <trkpt lat="45.04917" lon="5.62616">
        <ele>688</ele>
        <time>2010-12-19T16:19:26Z</time>
      </trkpt>
      <trkpt lat="45.04926" lon="5.62618">
        <ele>687.4</ele>
        <time>2010-12-19T16:19:29Z</time>
      </trkpt>
      <trkpt lat="45.04938" lon="5.62624">
        <ele>686.6</ele>
        <time>2010-12-19T16:19:34Z</time>
      </trkpt>
      <trkpt lat="45.04953" lon="5.62625">
        <ele>685.6</ele>
        <time>2010-12-19T16:19:39Z</time>
      </trkpt>
      <trkpt lat="45.04955" lon="5.62625">
        <ele>685.2</ele>
        <time>2010-12-19T16:19:40Z</time>
      </trkpt>
      <trkpt lat="45.04964" lon="5.62621">
        <ele>684</ele>
        <time>2010-12-19T16:19:45Z</time>
      </trkpt>
      <trkpt lat="45.04973" lon="5.62619">
        <ele>683</ele>
        <time>2010-12-19T16:19:49Z</time>
      </trkpt>
      <trkpt lat="45.04977" lon="5.62618">
        <ele>682.4</ele>
        <time>2010-12-19T16:19:51Z</time>
      </trkpt>
      <trkpt lat="45.04986" lon="5.62615">
        <ele>681.2</ele>
        <time>2010-12-19T16:19:55Z</time>
      </trkpt>
      <trkpt lat="45.04991" lon="5.62612">
        <ele>680.6</ele>
        <time>2010-12-19T16:19:57Z</time>
      </trkpt>
      <trkpt lat="45.04995" lon="5.62609">
        <ele>679.6</ele>
        <time>2010-12-19T16:20:00Z</time>
      </trkpt>
      <trkpt lat="45.05001" lon="5.626">
        <ele>678</ele>
        <time>2010-12-19T16:20:05Z</time>
      </trkpt>
      <trkpt lat="45.05006" lon="5.62595">
        <ele>677</ele>
        <time>2010-12-19T16:20:08Z</time>
      </trkpt>
      <trkpt lat="45.0501" lon="5.62592">
        <ele>676.4</ele>
        <time>2010-12-19T16:20:10Z</time>
      </trkpt>
      <trkpt lat="45.05018" lon="5.62583">
        <ele>674.6</ele>
        <time>2010-12-19T16:20:15Z</time>
      </trkpt>
      <trkpt lat="45.05022" lon="5.62581">
        <ele>673.8</ele>
        <time>2010-12-19T16:20:17Z</time>
      </trkpt>
      <trkpt lat="45.05027" lon="5.62579">
        <ele>672.8</ele>
        <time>2010-12-19T16:20:20Z</time>
      </trkpt>
      <trkpt lat="45.05037" lon="5.62577">
        <ele>671</ele>
        <time>2010-12-19T16:20:25Z</time>
      </trkpt>
      <trkpt lat="45.05041" lon="5.62575">
        <ele>670.4</ele>
        <time>2010-12-19T16:20:27Z</time>
      </trkpt>
      <trkpt lat="45.05049" lon="5.62574">
        <ele>669</ele>
        <time>2010-12-19T16:20:31Z</time>
      </trkpt>
      <trkpt lat="45.0505" lon="5.62574">
        <ele>668.8</ele>
        <time>2010-12-19T16:20:32Z</time>
      </trkpt>
      <trkpt lat="45.05059" lon="5.62573">
        <ele>666.8</ele>
        <time>2010-12-19T16:20:37Z</time>
      </trkpt>
      <trkpt lat="45.05061" lon="5.62574">
        <ele>666.4</ele>
        <time>2010-12-19T16:20:38Z</time>
      </trkpt>
      <trkpt lat="45.0507" lon="5.62574">
        <ele>664.6</ele>
        <time>2010-12-19T16:20:43Z</time>
      </trkpt>
      <trkpt lat="45.05072" lon="5.62574">
        <ele>664.2</ele>
        <time>2010-12-19T16:20:44Z</time>
      </trkpt>
      <trkpt lat="45.05079" lon="5.62569">
        <ele>662.8</ele>
        <time>2010-12-19T16:20:48Z</time>
      </trkpt>
      <trkpt lat="45.05083" lon="5.62564">
        <ele>662</ele>
        <time>2010-12-19T16:20:50Z</time>
      </trkpt>
      <trkpt lat="45.05088" lon="5.6256">
        <ele>661</ele>
        <time>2010-12-19T16:20:53Z</time>
      </trkpt>
      <trkpt lat="45.05095" lon="5.62557">
        <ele>659.6</ele>
        <time>2010-12-19T16:20:57Z</time>
      </trkpt>
      <trkpt lat="45.05097" lon="5.62556">
        <ele>659.2</ele>
        <time>2010-12-19T16:20:58Z</time>
      </trkpt>
      <trkpt lat="45.05103" lon="5.6255">
        <ele>657.4</ele>
        <time>2010-12-19T16:21:03Z</time>
      </trkpt>
      <trkpt lat="45.05106" lon="5.62546">
        <ele>656.4</ele>
        <time>2010-12-19T16:21:06Z</time>
      </trkpt>
      <trkpt lat="45.05107" lon="5.62545">
        <ele>656</ele>
        <time>2010-12-19T16:21:07Z</time>
      </trkpt>
      <trkpt lat="45.0511" lon="5.62542">
        <ele>655.4</ele>
        <time>2010-12-19T16:21:09Z</time>
      </trkpt>
      <trkpt lat="45.05114" lon="5.62538">
        <ele>654.6</ele>
        <time>2010-12-19T16:21:12Z</time>
      </trkpt>
      <trkpt lat="45.05123" lon="5.62532">
        <ele>653</ele>
        <time>2010-12-19T16:21:17Z</time>
      </trkpt>
      <trkpt lat="45.05123" lon="5.62531">
        <ele>652.8</ele>
        <time>2010-12-19T16:21:18Z</time>
      </trkpt>
      <trkpt lat="45.05124" lon="5.62534">
        <ele>651.6</ele>
        <time>2010-12-19T16:21:22Z</time>
      </trkpt>
      <trkpt lat="45.05117" lon="5.62537">
        <ele>647.8</ele>
        <time>2010-12-19T16:21:45Z</time>
      </trkpt>
      <trkpt lat="45.05118" lon="5.6254">
        <ele>647.4</ele>
        <time>2010-12-19T16:21:50Z</time>
      </trkpt>
      <trkpt lat="45.05119" lon="5.62539">
        <ele>647</ele>
        <time>2010-12-19T16:21:54Z</time>
      </trkpt>
      <trkpt lat="45.05121" lon="5.62536">
        <ele>646.8</ele>
        <time>2010-12-19T16:21:55Z</time>
      </trkpt>
      <trkpt lat="45.05123" lon="5.6253">
        <ele>646.2</ele>
        <time>2010-12-19T16:21:59Z</time>
      </trkpt>
      <trkpt lat="45.05131" lon="5.62525">
        <ele>645.4</ele>
        <time>2010-12-19T16:22:03Z</time>
      </trkpt>
      <trkpt lat="45.05132" lon="5.62525">
        <ele>645.2</ele>
        <time>2010-12-19T16:22:04Z</time>
      </trkpt>
      <trkpt lat="45.0514" lon="5.62522">
        <ele>644.2</ele>
        <time>2010-12-19T16:22:08Z</time>
      </trkpt>
      <trkpt lat="45.0515" lon="5.62521">
        <ele>642.8</ele>
        <time>2010-12-19T16:22:13Z</time>
      </trkpt>
      <trkpt lat="45.05153" lon="5.6252">
        <ele>642.6</ele>
        <time>2010-12-19T16:22:14Z</time>
      </trkpt>
      <trkpt lat="45.05158" lon="5.62517">
        <ele>641.8</ele>
        <time>2010-12-19T16:22:16Z</time>
      </trkpt>
      <trkpt lat="45.05162" lon="5.62517">
        <ele>641.2</ele>
        <time>2010-12-19T16:22:18Z</time>
      </trkpt>
      <trkpt lat="45.05168" lon="5.62516">
        <ele>640.4</ele>
        <time>2010-12-19T16:22:21Z</time>
      </trkpt>
      <trkpt lat="45.05169" lon="5.62516">
        <ele>640</ele>
        <time>2010-12-19T16:22:22Z</time>
      </trkpt>
      <trkpt lat="45.0517" lon="5.62518">
        <ele>639.6</ele>
        <time>2010-12-19T16:22:23Z</time>
      </trkpt>
      <trkpt lat="45.05176" lon="5.62513">
        <ele>638.6</ele>
        <time>2010-12-19T16:22:26Z</time>
      </trkpt>
      <trkpt lat="45.05178" lon="5.62513">
        <ele>638.2</ele>
        <time>2010-12-19T16:22:27Z</time>
      </trkpt>
      <trkpt lat="45.05186" lon="5.62511">
        <ele>637.4</ele>
        <time>2010-12-19T16:22:30Z</time>
      </trkpt>
      <trkpt lat="45.05193" lon="5.62511">
        <ele>636.6</ele>
        <time>2010-12-19T16:22:33Z</time>
      </trkpt>
      <trkpt lat="45.05201" lon="5.62508">
        <ele>635</ele>
        <time>2010-12-19T16:22:38Z</time>
      </trkpt>
      <trkpt lat="45.05203" lon="5.62503">
        <ele>634.4</ele>
        <time>2010-12-19T16:22:40Z</time>
      </trkpt>
      <trkpt lat="45.05205" lon="5.62494">
        <ele>633.2</ele>
        <time>2010-12-19T16:22:43Z</time>
      </trkpt>
      <trkpt lat="45.05211" lon="5.62486">
        <ele>632.2</ele>
        <time>2010-12-19T16:22:46Z</time>
      </trkpt>
      <trkpt lat="45.05213" lon="5.62484">
        <ele>631.8</ele>
        <time>2010-12-19T16:22:47Z</time>
      </trkpt>
      <trkpt lat="45.05214" lon="5.62482">
        <ele>631.6</ele>
        <time>2010-12-19T16:22:48Z</time>
      </trkpt>
      <trkpt lat="45.05229" lon="5.6247">
        <ele>628.8</ele>
        <time>2010-12-19T16:22:55Z</time>
      </trkpt>
      <trkpt lat="45.05231" lon="5.62469">
        <ele>628.4</ele>
        <time>2010-12-19T16:22:56Z</time>
      </trkpt>
      <trkpt lat="45.05241" lon="5.62454">
        <ele>626</ele>
        <time>2010-12-19T16:23:02Z</time>
      </trkpt>
      <trkpt lat="45.05243" lon="5.62449">
        <ele>625.2</ele>
        <time>2010-12-19T16:23:04Z</time>
      </trkpt>
      <trkpt lat="45.0525" lon="5.62438">
        <ele>624</ele>
        <time>2010-12-19T16:23:08Z</time>
      </trkpt>
      <trkpt lat="45.05259" lon="5.62431">
        <ele>623</ele>
        <time>2010-12-19T16:23:11Z</time>
      </trkpt>
      <trkpt lat="45.05268" lon="5.62426">
        <ele>621.8</ele>
        <time>2010-12-19T16:23:14Z</time>
      </trkpt>
      <trkpt lat="45.05278" lon="5.62422">
        <ele>620.6</ele>
        <time>2010-12-19T16:23:17Z</time>
      </trkpt>
      <trkpt lat="45.05284" lon="5.62419">
        <ele>619.8</ele>
        <time>2010-12-19T16:23:19Z</time>
      </trkpt>
      <trkpt lat="45.05297" lon="5.62409">
        <ele>618</ele>
        <time>2010-12-19T16:23:23Z</time>
      </trkpt>
      <trkpt lat="45.05303" lon="5.62402">
        <ele>617</ele>
        <time>2010-12-19T16:23:25Z</time>
      </trkpt>
      <trkpt lat="45.05315" lon="5.62397">
        <ele>615.2</ele>
        <time>2010-12-19T16:23:29Z</time>
      </trkpt>
      <trkpt lat="45.05318" lon="5.62395">
        <ele>614.6</ele>
        <time>2010-12-19T16:23:30Z</time>
      </trkpt>
      <trkpt lat="45.05333" lon="5.62387">
        <ele>612.2</ele>
        <time>2010-12-19T16:23:35Z</time>
      </trkpt>
      <trkpt lat="45.05343" lon="5.62407">
        <ele>610.2</ele>
        <time>2010-12-19T16:23:41Z</time>
      </trkpt>
      <trkpt lat="45.0535" lon="5.62413">
        <ele>609</ele>
        <time>2010-12-19T16:23:45Z</time>
      </trkpt>
      <trkpt lat="45.05354" lon="5.62414">
        <ele>608.4</ele>
        <time>2010-12-19T16:23:47Z</time>
      </trkpt>
      <trkpt lat="45.05364" lon="5.62417">
        <ele>607</ele>
        <time>2010-12-19T16:23:52Z</time>
      </trkpt>
      <trkpt lat="45.05368" lon="5.62418">
        <ele>606.4</ele>
        <time>2010-12-19T16:23:54Z</time>
      </trkpt>
      <trkpt lat="45.05379" lon="5.62421">
        <ele>604.8</ele>
        <time>2010-12-19T16:24:00Z</time>
      </trkpt>
      <trkpt lat="45.05388" lon="5.6242">
        <ele>603.8</ele>
        <time>2010-12-19T16:24:04Z</time>
      </trkpt>
      <trkpt lat="45.05394" lon="5.62418">
        <ele>603.2</ele>
        <time>2010-12-19T16:24:06Z</time>
      </trkpt>
      <trkpt lat="45.05405" lon="5.62412">
        <ele>602.4</ele>
        <time>2010-12-19T16:24:10Z</time>
      </trkpt>
      <trkpt lat="45.0541" lon="5.62409">
        <ele>602</ele>
        <time>2010-12-19T16:24:12Z</time>
      </trkpt>
      <trkpt lat="45.05423" lon="5.624">
        <ele>601.2</ele>
        <time>2010-12-19T16:24:17Z</time>
      </trkpt>
      <trkpt lat="45.05427" lon="5.62397">
        <ele>600.8</ele>
        <time>2010-12-19T16:24:19Z</time>
      </trkpt>
      <trkpt lat="45.0544" lon="5.62386">
        <ele>599.8</ele>
        <time>2010-12-19T16:24:25Z</time>
      </trkpt>
      <trkpt lat="45.05442" lon="5.62384">
        <ele>599.6</ele>
        <time>2010-12-19T16:24:26Z</time>
      </trkpt>
      <trkpt lat="45.05457" lon="5.62375">
        <ele>598.6</ele>
        <time>2010-12-19T16:24:32Z</time>
      </trkpt>
      <trkpt lat="45.05465" lon="5.62375">
        <ele>598</ele>
        <time>2010-12-19T16:24:36Z</time>
      </trkpt>
      <trkpt lat="45.05466" lon="5.62376">
        <ele>597.8</ele>
        <time>2010-12-19T16:24:37Z</time>
      </trkpt>
      <trkpt lat="45.05476" lon="5.62382">
        <ele>597.2</ele>
        <time>2010-12-19T16:24:42Z</time>
      </trkpt>
      <trkpt lat="45.05476" lon="5.62382">
        <ele>597</ele>
        <time>2010-12-19T16:24:43Z</time>
      </trkpt>
      <trkpt lat="45.05479" lon="5.62379">
        <ele>596</ele>
        <time>2010-12-19T16:24:51Z</time>
      </trkpt>
      <trkpt lat="45.05482" lon="5.62378">
        <ele>594.2</ele>
        <time>2010-12-19T16:25:03Z</time>
      </trkpt>
      <trkpt lat="45.05486" lon="5.6238">
        <ele>593.2</ele>
        <time>2010-12-19T16:25:14Z</time>
      </trkpt>
      <trkpt lat="45.05494" lon="5.62384">
        <ele>592.6</ele>
        <time>2010-12-19T16:25:23Z</time>
      </trkpt>
      <trkpt lat="45.05495" lon="5.62385">
        <ele>592.6</ele>
        <time>2010-12-19T16:25:25Z</time>
      </trkpt>
      <trkpt lat="45.05499" lon="5.62388">
        <ele>592.2</ele>
        <time>2010-12-19T16:25:28Z</time>
      </trkpt>
      <trkpt lat="45.05503" lon="5.62392">
        <ele>592</ele>
        <time>2010-12-19T16:25:30Z</time>
      </trkpt>
      <trkpt lat="45.05506" lon="5.62397">
        <ele>592</ele>
        <time>2010-12-19T16:25:32Z</time>
      </trkpt>
      <trkpt lat="45.05508" lon="5.624">
        <ele>591.8</ele>
        <time>2010-12-19T16:25:33Z</time>
      </trkpt>
      <trkpt lat="45.05514" lon="5.62408">
        <ele>591.6</ele>
        <time>2010-12-19T16:25:36Z</time>
      </trkpt>
      <trkpt lat="45.05525" lon="5.62414">
        <ele>591</ele>
        <time>2010-12-19T16:25:41Z</time>
      </trkpt>
      <trkpt lat="45.05536" lon="5.62414">
        <ele>590.4</ele>
        <time>2010-12-19T16:25:45Z</time>
      </trkpt>
      <trkpt lat="45.05545" lon="5.62413">
        <ele>589.8</ele>
        <time>2010-12-19T16:25:49Z</time>
      </trkpt>
      <trkpt lat="45.05548" lon="5.62412">
        <ele>589.8</ele>
        <time>2010-12-19T16:25:50Z</time>
      </trkpt>
      <trkpt lat="45.05563" lon="5.6241">
        <ele>589</ele>
        <time>2010-12-19T16:25:55Z</time>
      </trkpt>
      <trkpt lat="45.05575" lon="5.62412">
        <ele>588.2</ele>
        <time>2010-12-19T16:26:00Z</time>
      </trkpt>
      <trkpt lat="45.05583" lon="5.62415">
        <ele>587.8</ele>
        <time>2010-12-19T16:26:03Z</time>
      </trkpt>
      <trkpt lat="45.0559" lon="5.62416">
        <ele>587.6</ele>
        <time>2010-12-19T16:26:05Z</time>
      </trkpt>
      <trkpt lat="45.05604" lon="5.62422">
        <ele>586.8</ele>
        <time>2010-12-19T16:26:10Z</time>
      </trkpt>
      <trkpt lat="45.05617" lon="5.6243">
        <ele>585.6</ele>
        <time>2010-12-19T16:26:16Z</time>
      </trkpt>
      <trkpt lat="45.05619" lon="5.62432">
        <ele>585.4</ele>
        <time>2010-12-19T16:26:17Z</time>
      </trkpt>
      <trkpt lat="45.05622" lon="5.62434">
        <ele>585.2</ele>
        <time>2010-12-19T16:26:18Z</time>
      </trkpt>
      <trkpt lat="45.05626" lon="5.62438">
        <ele>584.8</ele>
        <time>2010-12-19T16:26:20Z</time>
      </trkpt>
      <trkpt lat="45.05634" lon="5.62447">
        <ele>584</ele>
        <time>2010-12-19T16:26:24Z</time>
      </trkpt>
      <trkpt lat="45.05636" lon="5.6245">
        <ele>583.8</ele>
        <time>2010-12-19T16:26:25Z</time>
      </trkpt>
      <trkpt lat="45.05642" lon="5.62457">
        <ele>583.2</ele>
        <time>2010-12-19T16:26:28Z</time>
      </trkpt>
      <trkpt lat="45.05651" lon="5.62465">
        <ele>582.4</ele>
        <time>2010-12-19T16:26:32Z</time>
      </trkpt>
      <trkpt lat="45.05654" lon="5.62467">
        <ele>582.2</ele>
        <time>2010-12-19T16:26:33Z</time>
      </trkpt>
      <trkpt lat="45.05663" lon="5.62475">
        <ele>581</ele>
        <time>2010-12-19T16:26:38Z</time>
      </trkpt>
      <trkpt lat="45.05668" lon="5.62479">
        <ele>580.6</ele>
        <time>2010-12-19T16:26:40Z</time>
      </trkpt>
      <trkpt lat="45.05675" lon="5.62487">
        <ele>580</ele>
        <time>2010-12-19T16:26:43Z</time>
      </trkpt>
      <trkpt lat="45.05682" lon="5.62497">
        <ele>578.8</ele>
        <time>2010-12-19T16:26:47Z</time>
      </trkpt>
      <trkpt lat="45.05683" lon="5.62499">
        <ele>578.6</ele>
        <time>2010-12-19T16:26:48Z</time>
      </trkpt>
      <trkpt lat="45.05694" lon="5.62516">
        <ele>577</ele>
        <time>2010-12-19T16:26:54Z</time>
      </trkpt>
      <trkpt lat="45.05695" lon="5.62518">
        <ele>576.8</ele>
        <time>2010-12-19T16:26:55Z</time>
      </trkpt>
      <trkpt lat="45.05702" lon="5.6253">
        <ele>575.8</ele>
        <time>2010-12-19T16:26:59Z</time>
      </trkpt>
      <trkpt lat="45.0571" lon="5.62539">
        <ele>575</ele>
        <time>2010-12-19T16:27:03Z</time>
      </trkpt>
      <trkpt lat="45.05712" lon="5.62542">
        <ele>574.8</ele>
        <time>2010-12-19T16:27:04Z</time>
      </trkpt>
      <trkpt lat="45.05721" lon="5.62559">
        <ele>573.4</ele>
        <time>2010-12-19T16:27:10Z</time>
      </trkpt>
      <trkpt lat="45.05722" lon="5.62562">
        <ele>573.2</ele>
        <time>2010-12-19T16:27:11Z</time>
      </trkpt>
      <trkpt lat="45.0573" lon="5.62575">
        <ele>572</ele>
        <time>2010-12-19T16:27:16Z</time>
      </trkpt>
      <trkpt lat="45.05734" lon="5.62582">
        <ele>571.2</ele>
        <time>2010-12-19T16:27:19Z</time>
      </trkpt>
      <trkpt lat="45.05736" lon="5.62587">
        <ele>570.8</ele>
        <time>2010-12-19T16:27:21Z</time>
      </trkpt>
      <trkpt lat="45.05743" lon="5.626">
        <ele>569.6</ele>
        <time>2010-12-19T16:27:26Z</time>
      </trkpt>
      <trkpt lat="45.05745" lon="5.62602">
        <ele>569.4</ele>
        <time>2010-12-19T16:27:27Z</time>
      </trkpt>
      <trkpt lat="45.05755" lon="5.62615">
        <ele>568.4</ele>
        <time>2010-12-19T16:27:32Z</time>
      </trkpt>
      <trkpt lat="45.05758" lon="5.62619">
        <ele>568</ele>
        <time>2010-12-19T16:27:34Z</time>
      </trkpt>
      <trkpt lat="45.05763" lon="5.62627">
        <ele>567.4</ele>
        <time>2010-12-19T16:27:37Z</time>
      </trkpt>
      <trkpt lat="45.05769" lon="5.62642">
        <ele>566.4</ele>
        <time>2010-12-19T16:27:42Z</time>
      </trkpt>
      <trkpt lat="45.05773" lon="5.62648">
        <ele>566.2</ele>
        <time>2010-12-19T16:27:44Z</time>
      </trkpt>
      <trkpt lat="45.0578" lon="5.62662">
        <ele>565.4</ele>
        <time>2010-12-19T16:27:49Z</time>
      </trkpt>
      <trkpt lat="45.05781" lon="5.62665">
        <ele>565.2</ele>
        <time>2010-12-19T16:27:50Z</time>
      </trkpt>
      <trkpt lat="45.0579" lon="5.62671">
        <ele>564.4</ele>
        <time>2010-12-19T16:27:55Z</time>
      </trkpt>
      <trkpt lat="45.05797" lon="5.6267">
        <ele>564</ele>
        <time>2010-12-19T16:27:57Z</time>
      </trkpt>
      <trkpt lat="45.05807" lon="5.62671">
        <ele>563.4</ele>
        <time>2010-12-19T16:28:00Z</time>
      </trkpt>
      <trkpt lat="45.05816" lon="5.62677">
        <ele>562.6</ele>
        <time>2010-12-19T16:28:04Z</time>
      </trkpt>
      <trkpt lat="45.0582" lon="5.62681">
        <ele>562.2</ele>
        <time>2010-12-19T16:28:06Z</time>
      </trkpt>
      <trkpt lat="45.05828" lon="5.62695">
        <ele>561.2</ele>
        <time>2010-12-19T16:28:12Z</time>
      </trkpt>
      <trkpt lat="45.0583" lon="5.62697">
        <ele>560.8</ele>
        <time>2010-12-19T16:28:13Z</time>
      </trkpt>
      <trkpt lat="45.05837" lon="5.62705">
        <ele>559.8</ele>
        <time>2010-12-19T16:28:17Z</time>
      </trkpt>
      <trkpt lat="45.05845" lon="5.62715">
        <ele>558.8</ele>
        <time>2010-12-19T16:28:21Z</time>
      </trkpt>
      <trkpt lat="45.05847" lon="5.62717">
        <ele>558.6</ele>
        <time>2010-12-19T16:28:22Z</time>
      </trkpt>
      <trkpt lat="45.05853" lon="5.62735">
        <ele>557.2</ele>
        <time>2010-12-19T16:28:28Z</time>
      </trkpt>
      <trkpt lat="45.05854" lon="5.62738">
        <ele>556.8</ele>
        <time>2010-12-19T16:28:29Z</time>
      </trkpt>
      <trkpt lat="45.05859" lon="5.62753">
        <ele>555.6</ele>
        <time>2010-12-19T16:28:34Z</time>
      </trkpt>
      <trkpt lat="45.05864" lon="5.62763">
        <ele>554.4</ele>
        <time>2010-12-19T16:28:38Z</time>
      </trkpt>
      <trkpt lat="45.05866" lon="5.62769">
        <ele>553.8</ele>
        <time>2010-12-19T16:28:40Z</time>
      </trkpt>
      <trkpt lat="45.05873" lon="5.62785">
        <ele>552.4</ele>
        <time>2010-12-19T16:28:45Z</time>
      </trkpt>
      <trkpt lat="45.05883" lon="5.628">
        <ele>550.8</ele>
        <time>2010-12-19T16:28:51Z</time>
      </trkpt>
      <trkpt lat="45.05886" lon="5.62808">
        <ele>550</ele>
        <time>2010-12-19T16:28:54Z</time>
      </trkpt>
      <trkpt lat="45.05888" lon="5.62815">
        <ele>549.2</ele>
        <time>2010-12-19T16:28:57Z</time>
      </trkpt>
      <trkpt lat="45.0589" lon="5.62833">
        <ele>547.6</ele>
        <time>2010-12-19T16:29:03Z</time>
      </trkpt>
      <trkpt lat="45.05893" lon="5.62844">
        <ele>546.4</ele>
        <time>2010-12-19T16:29:07Z</time>
      </trkpt>
      <trkpt lat="45.05896" lon="5.62849">
        <ele>545.8</ele>
        <time>2010-12-19T16:29:09Z</time>
      </trkpt>
      <trkpt lat="45.059" lon="5.62855">
        <ele>545</ele>
        <time>2010-12-19T16:29:12Z</time>
      </trkpt>
      <trkpt lat="45.05903" lon="5.62859">
        <ele>544.6</ele>
        <time>2010-12-19T16:29:14Z</time>
      </trkpt>
      <trkpt lat="45.05916" lon="5.62863">
        <ele>543.2</ele>
        <time>2010-12-19T16:29:19Z</time>
      </trkpt>
      <trkpt lat="45.05918" lon="5.62863">
        <ele>542.8</ele>
        <time>2010-12-19T16:29:20Z</time>
      </trkpt>
      <trkpt lat="45.05924" lon="5.62875">
        <ele>541.6</ele>
        <time>2010-12-19T16:29:25Z</time>
      </trkpt>
      <trkpt lat="45.0593" lon="5.62888">
        <ele>540.2</ele>
        <time>2010-12-19T16:29:30Z</time>
      </trkpt>
      <trkpt lat="45.05931" lon="5.62891">
        <ele>539.8</ele>
        <time>2010-12-19T16:29:31Z</time>
      </trkpt>
      <trkpt lat="45.05936" lon="5.62902">
        <ele>539</ele>
        <time>2010-12-19T16:29:34Z</time>
      </trkpt>
      <trkpt lat="45.05939" lon="5.62908">
        <ele>538.4</ele>
        <time>2010-12-19T16:29:36Z</time>
      </trkpt>
      <trkpt lat="45.05941" lon="5.62911">
        <ele>538.2</ele>
        <time>2010-12-19T16:29:37Z</time>
      </trkpt>
      <trkpt lat="45.05947" lon="5.62923">
        <ele>536.8</ele>
        <time>2010-12-19T16:29:41Z</time>
      </trkpt>
      <trkpt lat="45.05948" lon="5.62925">
        <ele>536.6</ele>
        <time>2010-12-19T16:29:42Z</time>
      </trkpt>
      <trkpt lat="45.05953" lon="5.62933">
        <ele>535.6</ele>
        <time>2010-12-19T16:29:45Z</time>
      </trkpt>
      <trkpt lat="45.05964" lon="5.62945">
        <ele>534.2</ele>
        <time>2010-12-19T16:29:50Z</time>
      </trkpt>
      <trkpt lat="45.05968" lon="5.62949">
        <ele>533.6</ele>
        <time>2010-12-19T16:29:52Z</time>
      </trkpt>
      <trkpt lat="45.05977" lon="5.62956">
        <ele>532.4</ele>
        <time>2010-12-19T16:29:56Z</time>
      </trkpt>
      <trkpt lat="45.05985" lon="5.62961">
        <ele>531.4</ele>
        <time>2010-12-19T16:29:59Z</time>
      </trkpt>
      <trkpt lat="45.05989" lon="5.62964">
        <ele>531</ele>
        <time>2010-12-19T16:30:01Z</time>
      </trkpt>
      <trkpt lat="45.06002" lon="5.62971">
        <ele>529.4</ele>
        <time>2010-12-19T16:30:06Z</time>
      </trkpt>
      <trkpt lat="45.06005" lon="5.62973">
        <ele>529.2</ele>
        <time>2010-12-19T16:30:07Z</time>
      </trkpt>
      <trkpt lat="45.06022" lon="5.62981">
        <ele>527.4</ele>
        <time>2010-12-19T16:30:13Z</time>
      </trkpt>
      <trkpt lat="45.06024" lon="5.62983">
        <ele>527.2</ele>
        <time>2010-12-19T16:30:14Z</time>
      </trkpt>
      <trkpt lat="45.06039" lon="5.62999">
        <ele>525.4</ele>
        <time>2010-12-19T16:30:20Z</time>
      </trkpt>
      <trkpt lat="45.06049" lon="5.63009">
        <ele>524.4</ele>
        <time>2010-12-19T16:30:24Z</time>
      </trkpt>
      <trkpt lat="45.06055" lon="5.63012">
        <ele>523.8</ele>
        <time>2010-12-19T16:30:26Z</time>
      </trkpt>
      <trkpt lat="45.06063" lon="5.63016">
        <ele>523</ele>
        <time>2010-12-19T16:30:29Z</time>
      </trkpt>
      <trkpt lat="45.06072" lon="5.6302">
        <ele>522</ele>
        <time>2010-12-19T16:30:32Z</time>
      </trkpt>
      <trkpt lat="45.06078" lon="5.63024">
        <ele>521.6</ele>
        <time>2010-12-19T16:30:34Z</time>
      </trkpt>
      <trkpt lat="45.06092" lon="5.63031">
        <ele>520.2</ele>
        <time>2010-12-19T16:30:39Z</time>
      </trkpt>
      <trkpt lat="45.06098" lon="5.63034">
        <ele>519.6</ele>
        <time>2010-12-19T16:30:41Z</time>
      </trkpt>
      <trkpt lat="45.0611" lon="5.63039">
        <ele>518.4</ele>
        <time>2010-12-19T16:30:45Z</time>
      </trkpt>
      <trkpt lat="45.06112" lon="5.63041">
        <ele>518.2</ele>
        <time>2010-12-19T16:30:46Z</time>
      </trkpt>
      <trkpt lat="45.06127" lon="5.63052">
        <ele>516.4</ele>
        <time>2010-12-19T16:30:52Z</time>
      </trkpt>
      <trkpt lat="45.06139" lon="5.63063">
        <ele>515</ele>
        <time>2010-12-19T16:30:57Z</time>
      </trkpt>
      <trkpt lat="45.06143" lon="5.63068">
        <ele>514.4</ele>
        <time>2010-12-19T16:30:59Z</time>
      </trkpt>
      <trkpt lat="45.0615" lon="5.63076">
        <ele>513.6</ele>
        <time>2010-12-19T16:31:02Z</time>
      </trkpt>
      <trkpt lat="45.06159" lon="5.63085">
        <ele>512.4</ele>
        <time>2010-12-19T16:31:06Z</time>
      </trkpt>
      <trkpt lat="45.06164" lon="5.6309">
        <ele>511.8</ele>
        <time>2010-12-19T16:31:08Z</time>
      </trkpt>
      <trkpt lat="45.06175" lon="5.63102">
        <ele>510.4</ele>
        <time>2010-12-19T16:31:13Z</time>
      </trkpt>
      <trkpt lat="45.06187" lon="5.63114">
        <ele>509</ele>
        <time>2010-12-19T16:31:18Z</time>
      </trkpt>
      <trkpt lat="45.06191" lon="5.63119">
        <ele>508.4</ele>
        <time>2010-12-19T16:31:20Z</time>
      </trkpt>
      <trkpt lat="45.062" lon="5.63129">
        <ele>507.2</ele>
        <time>2010-12-19T16:31:24Z</time>
      </trkpt>
      <trkpt lat="45.06207" lon="5.63136">
        <ele>506.2</ele>
        <time>2010-12-19T16:31:27Z</time>
      </trkpt>
      <trkpt lat="45.06215" lon="5.63142">
        <ele>505.4</ele>
        <time>2010-12-19T16:31:30Z</time>
      </trkpt>
      <trkpt lat="45.06226" lon="5.63149">
        <ele>504.2</ele>
        <time>2010-12-19T16:31:34Z</time>
      </trkpt>
      <trkpt lat="45.06232" lon="5.63152">
        <ele>503.6</ele>
        <time>2010-12-19T16:31:36Z</time>
      </trkpt>
      <trkpt lat="45.06245" lon="5.63157">
        <ele>502.4</ele>
        <time>2010-12-19T16:31:40Z</time>
      </trkpt>
      <trkpt lat="45.06251" lon="5.6316">
        <ele>501.8</ele>
        <time>2010-12-19T16:31:42Z</time>
      </trkpt>
      <trkpt lat="45.06262" lon="5.63165">
        <ele>500.6</ele>
        <time>2010-12-19T16:31:46Z</time>
      </trkpt>
      <trkpt lat="45.06265" lon="5.63167">
        <ele>500.4</ele>
        <time>2010-12-19T16:31:47Z</time>
      </trkpt>
      <trkpt lat="45.06277" lon="5.63171">
        <ele>499.2</ele>
        <time>2010-12-19T16:31:51Z</time>
      </trkpt>
      <trkpt lat="45.06281" lon="5.6317">
        <ele>499</ele>
        <time>2010-12-19T16:31:52Z</time>
      </trkpt>
      <trkpt lat="45.06294" lon="5.63168">
        <ele>498</ele>
        <time>2010-12-19T16:31:56Z</time>
      </trkpt>
      <trkpt lat="45.063" lon="5.63168">
        <ele>497.4</ele>
        <time>2010-12-19T16:31:58Z</time>
      </trkpt>
      <trkpt lat="45.06304" lon="5.63168">
        <ele>496.8</ele>
        <time>2010-12-19T16:32:00Z</time>
      </trkpt>
      <trkpt lat="45.06318" lon="5.63169">
        <ele>495.4</ele>
        <time>2010-12-19T16:32:05Z</time>
      </trkpt>
      <trkpt lat="45.06321" lon="5.63169">
        <ele>495.2</ele>
        <time>2010-12-19T16:32:06Z</time>
      </trkpt>
      <trkpt lat="45.06336" lon="5.63173">
        <ele>493.8</ele>
        <time>2010-12-19T16:32:11Z</time>
      </trkpt>
      <trkpt lat="45.06349" lon="5.6318">
        <ele>492.6</ele>
        <time>2010-12-19T16:32:16Z</time>
      </trkpt>
      <trkpt lat="45.06355" lon="5.63182">
        <ele>492.2</ele>
        <time>2010-12-19T16:32:18Z</time>
      </trkpt>
      <trkpt lat="45.06363" lon="5.63186">
        <ele>491.4</ele>
        <time>2010-12-19T16:32:21Z</time>
      </trkpt>
      <trkpt lat="45.06373" lon="5.63191">
        <ele>490.4</ele>
        <time>2010-12-19T16:32:25Z</time>
      </trkpt>
      <trkpt lat="45.06376" lon="5.63192">
        <ele>490.2</ele>
        <time>2010-12-19T16:32:26Z</time>
      </trkpt>
      <trkpt lat="45.06386" lon="5.63195">
        <ele>489.2</ele>
        <time>2010-12-19T16:32:30Z</time>
      </trkpt>
      <trkpt lat="45.06392" lon="5.63196">
        <ele>488.6</ele>
        <time>2010-12-19T16:32:32Z</time>
      </trkpt>
      <trkpt lat="45.06401" lon="5.63199">
        <ele>487.8</ele>
        <time>2010-12-19T16:32:35Z</time>
      </trkpt>
      <trkpt lat="45.06409" lon="5.63202">
        <ele>487.2</ele>
        <time>2010-12-19T16:32:38Z</time>
      </trkpt>
      <trkpt lat="45.06415" lon="5.63205">
        <ele>486.6</ele>
        <time>2010-12-19T16:32:40Z</time>
      </trkpt>
      <trkpt lat="45.06427" lon="5.63215">
        <ele>485.4</ele>
        <time>2010-12-19T16:32:45Z</time>
      </trkpt>
      <trkpt lat="45.0643" lon="5.63217">
        <ele>485.2</ele>
        <time>2010-12-19T16:32:46Z</time>
      </trkpt>
      <trkpt lat="45.06442" lon="5.63231">
        <ele>483.6</ele>
        <time>2010-12-19T16:32:52Z</time>
      </trkpt>
      <trkpt lat="45.06456" lon="5.63243">
        <ele>482</ele>
        <time>2010-12-19T16:32:58Z</time>
      </trkpt>
      <trkpt lat="45.06458" lon="5.63245">
        <ele>481.8</ele>
        <time>2010-12-19T16:32:59Z</time>
      </trkpt>
      <trkpt lat="45.0647" lon="5.63256">
        <ele>480.6</ele>
        <time>2010-12-19T16:33:04Z</time>
      </trkpt>
      <trkpt lat="45.06475" lon="5.63261">
        <ele>480.2</ele>
        <time>2010-12-19T16:33:06Z</time>
      </trkpt>
      <trkpt lat="45.06485" lon="5.63269">
        <ele>479.2</ele>
        <time>2010-12-19T16:33:10Z</time>
      </trkpt>
      <trkpt lat="45.06492" lon="5.63275">
        <ele>478.6</ele>
        <time>2010-12-19T16:33:13Z</time>
      </trkpt>
      <trkpt lat="45.065" lon="5.63281">
        <ele>478</ele>
        <time>2010-12-19T16:33:16Z</time>
      </trkpt>
      <trkpt lat="45.0651" lon="5.63288">
        <ele>477.2</ele>
        <time>2010-12-19T16:33:20Z</time>
      </trkpt>
      <trkpt lat="45.06513" lon="5.6329">
        <ele>476.8</ele>
        <time>2010-12-19T16:33:21Z</time>
      </trkpt>
      <trkpt lat="45.06527" lon="5.63301">
        <ele>475.8</ele>
        <time>2010-12-19T16:33:27Z</time>
      </trkpt>
      <trkpt lat="45.0653" lon="5.63303">
        <ele>475.6</ele>
        <time>2010-12-19T16:33:28Z</time>
      </trkpt>
      <trkpt lat="45.06542" lon="5.63312">
        <ele>474.6</ele>
        <time>2010-12-19T16:33:33Z</time>
      </trkpt>
      <trkpt lat="45.06544" lon="5.63314">
        <ele>474.4</ele>
        <time>2010-12-19T16:33:34Z</time>
      </trkpt>
      <trkpt lat="45.06553" lon="5.63322">
        <ele>473.6</ele>
        <time>2010-12-19T16:33:38Z</time>
      </trkpt>
      <trkpt lat="45.06561" lon="5.63327">
        <ele>473</ele>
        <time>2010-12-19T16:33:41Z</time>
      </trkpt>
      <trkpt lat="45.06568" lon="5.63333">
        <ele>472.4</ele>
        <time>2010-12-19T16:33:44Z</time>
      </trkpt>
      <trkpt lat="45.06577" lon="5.63341">
        <ele>471.6</ele>
        <time>2010-12-19T16:33:48Z</time>
      </trkpt>
      <trkpt lat="45.06582" lon="5.63346">
        <ele>471</ele>
        <time>2010-12-19T16:33:50Z</time>
      </trkpt>
      <trkpt lat="45.06594" lon="5.63357">
        <ele>470</ele>
        <time>2010-12-19T16:33:55Z</time>
      </trkpt>
      <trkpt lat="45.06596" lon="5.6336">
        <ele>469.8</ele>
        <time>2010-12-19T16:33:56Z</time>
      </trkpt>
      <trkpt lat="45.06606" lon="5.63372">
        <ele>468.6</ele>
        <time>2010-12-19T16:34:01Z</time>
      </trkpt>
      <trkpt lat="45.06608" lon="5.63375">
        <ele>468.4</ele>
        <time>2010-12-19T16:34:02Z</time>
      </trkpt>
      <trkpt lat="45.06617" lon="5.63385">
        <ele>467.6</ele>
        <time>2010-12-19T16:34:06Z</time>
      </trkpt>
      <trkpt lat="45.06623" lon="5.63393">
        <ele>466.8</ele>
        <time>2010-12-19T16:34:09Z</time>
      </trkpt>
      <trkpt lat="45.06627" lon="5.63398">
        <ele>466.4</ele>
        <time>2010-12-19T16:34:11Z</time>
      </trkpt>
      <trkpt lat="45.06638" lon="5.6341">
        <ele>465.4</ele>
        <time>2010-12-19T16:34:16Z</time>
      </trkpt>
      <trkpt lat="45.0664" lon="5.63412">
        <ele>465</ele>
        <time>2010-12-19T16:34:17Z</time>
      </trkpt>
      <trkpt lat="45.06653" lon="5.63425">
        <ele>463.8</ele>
        <time>2010-12-19T16:34:23Z</time>
      </trkpt>
      <trkpt lat="45.06668" lon="5.63441">
        <ele>462.4</ele>
        <time>2010-12-19T16:34:30Z</time>
      </trkpt>
      <trkpt lat="45.06682" lon="5.63457">
        <ele>461</ele>
        <time>2010-12-19T16:34:37Z</time>
      </trkpt>
      <trkpt lat="45.06697" lon="5.63472">
        <ele>459.8</ele>
        <time>2010-12-19T16:34:44Z</time>
      </trkpt>
      <trkpt lat="45.06708" lon="5.63482">
        <ele>459</ele>
        <time>2010-12-19T16:34:49Z</time>
      </trkpt>
      <trkpt lat="45.06715" lon="5.63487">
        <ele>458.4</ele>
        <time>2010-12-19T16:34:52Z</time>
      </trkpt>
      <trkpt lat="45.06722" lon="5.63493">
        <ele>458</ele>
        <time>2010-12-19T16:34:55Z</time>
      </trkpt>
      <trkpt lat="45.06732" lon="5.635">
        <ele>457.4</ele>
        <time>2010-12-19T16:34:59Z</time>
      </trkpt>
      <trkpt lat="45.06736" lon="5.63504">
        <ele>457.2</ele>
        <time>2010-12-19T16:35:01Z</time>
      </trkpt>
      <trkpt lat="45.06747" lon="5.63514">
        <ele>456.4</ele>
        <time>2010-12-19T16:35:06Z</time>
      </trkpt>
      <trkpt lat="45.06762" lon="5.63527">
        <ele>455.8</ele>
        <time>2010-12-19T16:35:12Z</time>
      </trkpt>
      <trkpt lat="45.06764" lon="5.63528">
        <ele>455.6</ele>
        <time>2010-12-19T16:35:13Z</time>
      </trkpt>
      <trkpt lat="45.06775" lon="5.63539">
        <ele>455</ele>
        <time>2010-12-19T16:35:18Z</time>
      </trkpt>
      <trkpt lat="45.06779" lon="5.63543">
        <ele>454.6</ele>
        <time>2010-12-19T16:35:20Z</time>
      </trkpt>
      <trkpt lat="45.06788" lon="5.63552">
        <ele>454.2</ele>
        <time>2010-12-19T16:35:24Z</time>
      </trkpt>
      <trkpt lat="45.06794" lon="5.63558">
        <ele>453.8</ele>
        <time>2010-12-19T16:35:27Z</time>
      </trkpt>
      <trkpt lat="45.06801" lon="5.63565">
        <ele>453.4</ele>
        <time>2010-12-19T16:35:30Z</time>
      </trkpt>
      <trkpt lat="45.0681" lon="5.63573">
        <ele>452.8</ele>
        <time>2010-12-19T16:35:34Z</time>
      </trkpt>
      <trkpt lat="45.06815" lon="5.63577">
        <ele>452.6</ele>
        <time>2010-12-19T16:35:36Z</time>
      </trkpt>
      <trkpt lat="45.06826" lon="5.63589">
        <ele>452</ele>
        <time>2010-12-19T16:35:41Z</time>
      </trkpt>
      <trkpt lat="45.06838" lon="5.636">
        <ele>451.2</ele>
        <time>2010-12-19T16:35:46Z</time>
      </trkpt>
      <trkpt lat="45.06843" lon="5.63603">
        <ele>451</ele>
        <time>2010-12-19T16:35:48Z</time>
      </trkpt>
      <trkpt lat="45.06852" lon="5.63611">
        <ele>450.4</ele>
        <time>2010-12-19T16:35:52Z</time>
      </trkpt>
      <trkpt lat="45.06859" lon="5.63616">
        <ele>450</ele>
        <time>2010-12-19T16:35:55Z</time>
      </trkpt>
      <trkpt lat="45.06866" lon="5.63622">
        <ele>449.6</ele>
        <time>2010-12-19T16:35:58Z</time>
      </trkpt>
      <trkpt lat="45.06875" lon="5.6363">
        <ele>449.2</ele>
        <time>2010-12-19T16:36:02Z</time>
      </trkpt>
      <trkpt lat="45.06879" lon="5.63634">
        <ele>449</ele>
        <time>2010-12-19T16:36:04Z</time>
      </trkpt>
      <trkpt lat="45.06889" lon="5.63644">
        <ele>448.2</ele>
        <time>2010-12-19T16:36:09Z</time>
      </trkpt>
      <trkpt lat="45.06891" lon="5.63647">
        <ele>448.2</ele>
        <time>2010-12-19T16:36:10Z</time>
      </trkpt>
      <trkpt lat="45.06902" lon="5.63663">
        <ele>447.2</ele>
        <time>2010-12-19T16:36:16Z</time>
      </trkpt>
      <trkpt lat="45.06904" lon="5.63665">
        <ele>447.2</ele>
        <time>2010-12-19T16:36:17Z</time>
      </trkpt>
      <trkpt lat="45.06916" lon="5.6368">
        <ele>446.2</ele>
        <time>2010-12-19T16:36:23Z</time>
      </trkpt>
      <trkpt lat="45.06918" lon="5.63682">
        <ele>446</ele>
        <time>2010-12-19T16:36:24Z</time>
      </trkpt>
      <trkpt lat="45.06928" lon="5.63693">
        <ele>445.2</ele>
        <time>2010-12-19T16:36:29Z</time>
      </trkpt>
      <trkpt lat="45.06933" lon="5.637">
        <ele>444.6</ele>
        <time>2010-12-19T16:36:32Z</time>
      </trkpt>
      <trkpt lat="45.06942" lon="5.63709">
        <ele>444</ele>
        <time>2010-12-19T16:36:36Z</time>
      </trkpt>
      <trkpt lat="45.06949" lon="5.63714">
        <ele>443.4</ele>
        <time>2010-12-19T16:36:39Z</time>
      </trkpt>
      <trkpt lat="45.06956" lon="5.6372">
        <ele>443</ele>
        <time>2010-12-19T16:36:42Z</time>
      </trkpt>
      <trkpt lat="45.06965" lon="5.63728">
        <ele>442.4</ele>
        <time>2010-12-19T16:36:46Z</time>
      </trkpt>
      <trkpt lat="45.06971" lon="5.63732">
        <ele>442</ele>
        <time>2010-12-19T16:36:48Z</time>
      </trkpt>
      <trkpt lat="45.06981" lon="5.63742">
        <ele>441.4</ele>
        <time>2010-12-19T16:36:52Z</time>
      </trkpt>
      <trkpt lat="45.06985" lon="5.63747">
        <ele>441.2</ele>
        <time>2010-12-19T16:36:54Z</time>
      </trkpt>
      <trkpt lat="45.06996" lon="5.63762">
        <ele>440.4</ele>
        <time>2010-12-19T16:36:59Z</time>
      </trkpt>
      <trkpt lat="45.06998" lon="5.63765">
        <ele>440.4</ele>
        <time>2010-12-19T16:37:00Z</time>
      </trkpt>
      <trkpt lat="45.0701" lon="5.63781">
        <ele>439.6</ele>
        <time>2010-12-19T16:37:06Z</time>
      </trkpt>
      <trkpt lat="45.07021" lon="5.63794">
        <ele>438.8</ele>
        <time>2010-12-19T16:37:11Z</time>
      </trkpt>
      <trkpt lat="45.07025" lon="5.638">
        <ele>438.4</ele>
        <time>2010-12-19T16:37:13Z</time>
      </trkpt>
      <trkpt lat="45.0703" lon="5.63809">
        <ele>438</ele>
        <time>2010-12-19T16:37:16Z</time>
      </trkpt>
      <trkpt lat="45.07038" lon="5.63821">
        <ele>437.4</ele>
        <time>2010-12-19T16:37:20Z</time>
      </trkpt>
      <trkpt lat="45.07044" lon="5.63829">
        <ele>437</ele>
        <time>2010-12-19T16:37:23Z</time>
      </trkpt>
      <trkpt lat="45.07053" lon="5.63838">
        <ele>436.6</ele>
        <time>2010-12-19T16:37:27Z</time>
      </trkpt>
      <trkpt lat="45.07071" lon="5.63847">
        <ele>435.8</ele>
        <time>2010-12-19T16:37:34Z</time>
      </trkpt>
      <trkpt lat="45.07087" lon="5.63855">
        <ele>435.2</ele>
        <time>2010-12-19T16:37:40Z</time>
      </trkpt>
      <trkpt lat="45.07089" lon="5.63857">
        <ele>435.2</ele>
        <time>2010-12-19T16:37:41Z</time>
      </trkpt>
      <trkpt lat="45.07103" lon="5.63868">
        <ele>434.6</ele>
        <time>2010-12-19T16:37:47Z</time>
      </trkpt>
      <trkpt lat="45.07105" lon="5.6387">
        <ele>434.4</ele>
        <time>2010-12-19T16:37:48Z</time>
      </trkpt>
      <trkpt lat="45.07117" lon="5.63884">
        <ele>433.8</ele>
        <time>2010-12-19T16:37:54Z</time>
      </trkpt>
      <trkpt lat="45.07121" lon="5.63888">
        <ele>433.6</ele>
        <time>2010-12-19T16:37:56Z</time>
      </trkpt>
      <trkpt lat="45.07129" lon="5.63898">
        <ele>432.8</ele>
        <time>2010-12-19T16:38:01Z</time>
      </trkpt>
      <trkpt lat="45.07134" lon="5.63908">
        <ele>432.2</ele>
        <time>2010-12-19T16:38:05Z</time>
      </trkpt>
      <trkpt lat="45.07136" lon="5.63914">
        <ele>432</ele>
        <time>2010-12-19T16:38:07Z</time>
      </trkpt>
      <trkpt lat="45.07139" lon="5.63931">
        <ele>431.2</ele>
        <time>2010-12-19T16:38:12Z</time>
      </trkpt>
      <trkpt lat="45.07139" lon="5.63934">
        <ele>431</ele>
        <time>2010-12-19T16:38:13Z</time>
      </trkpt>
      <trkpt lat="45.07139" lon="5.63951">
        <ele>430</ele>
        <time>2010-12-19T16:38:18Z</time>
      </trkpt>
      <trkpt lat="45.07138" lon="5.63963">
        <ele>429.6</ele>
        <time>2010-12-19T16:38:21Z</time>
      </trkpt>
      <trkpt lat="45.07139" lon="5.6397">
        <ele>429.2</ele>
        <time>2010-12-19T16:38:23Z</time>
      </trkpt>
      <trkpt lat="45.0714" lon="5.63986">
        <ele>428.6</ele>
        <time>2010-12-19T16:38:27Z</time>
      </trkpt>
      <trkpt lat="45.0714" lon="5.63989">
        <ele>428.4</ele>
        <time>2010-12-19T16:38:28Z</time>
      </trkpt>
      <trkpt lat="45.07144" lon="5.64003">
        <ele>427.6</ele>
        <time>2010-12-19T16:38:32Z</time>
      </trkpt>
      <trkpt lat="45.07147" lon="5.64013">
        <ele>427.2</ele>
        <time>2010-12-19T16:38:35Z</time>
      </trkpt>
      <trkpt lat="45.0715" lon="5.64019">
        <ele>426.8</ele>
        <time>2010-12-19T16:38:37Z</time>
      </trkpt>
      <trkpt lat="45.07161" lon="5.64034">
        <ele>425.8</ele>
        <time>2010-12-19T16:38:43Z</time>
      </trkpt>
      <trkpt lat="45.07168" lon="5.64052">
        <ele>424.6</ele>
        <time>2010-12-19T16:38:49Z</time>
      </trkpt>
      <trkpt lat="45.07168" lon="5.64059">
        <ele>424.4</ele>
        <time>2010-12-19T16:38:51Z</time>
      </trkpt>
      <trkpt lat="45.07164" lon="5.64077">
        <ele>423.4</ele>
        <time>2010-12-19T16:38:56Z</time>
      </trkpt>
      <trkpt lat="45.07162" lon="5.64084">
        <ele>423</ele>
        <time>2010-12-19T16:38:58Z</time>
      </trkpt>
      <trkpt lat="45.07159" lon="5.64101">
        <ele>422.2</ele>
        <time>2010-12-19T16:39:03Z</time>
      </trkpt>
      <trkpt lat="45.0716" lon="5.64112">
        <ele>421.4</ele>
        <time>2010-12-19T16:39:06Z</time>
      </trkpt>
      <trkpt lat="45.07161" lon="5.64119">
        <ele>421</ele>
        <time>2010-12-19T16:39:08Z</time>
      </trkpt>
      <trkpt lat="45.07164" lon="5.64139">
        <ele>420.2</ele>
        <time>2010-12-19T16:39:13Z</time>
      </trkpt>
      <trkpt lat="45.07164" lon="5.64142">
        <ele>419.8</ele>
        <time>2010-12-19T16:39:14Z</time>
      </trkpt>
      <trkpt lat="45.07168" lon="5.64164">
        <ele>418.8</ele>
        <time>2010-12-19T16:39:20Z</time>
      </trkpt>
      <trkpt lat="45.07168" lon="5.64168">
        <ele>418.6</ele>
        <time>2010-12-19T16:39:21Z</time>
      </trkpt>
      <trkpt lat="45.07168" lon="5.64191">
        <ele>417.4</ele>
        <time>2010-12-19T16:39:27Z</time>
      </trkpt>
      <trkpt lat="45.07168" lon="5.64194">
        <ele>417.2</ele>
        <time>2010-12-19T16:39:28Z</time>
      </trkpt>
      <trkpt lat="45.07164" lon="5.64215">
        <ele>416</ele>
        <time>2010-12-19T16:39:34Z</time>
      </trkpt>
      <trkpt lat="45.07164" lon="5.64218">
        <ele>415.8</ele>
        <time>2010-12-19T16:39:35Z</time>
      </trkpt>
      <trkpt lat="45.0716" lon="5.64239">
        <ele>414</ele>
        <time>2010-12-19T16:39:42Z</time>
      </trkpt>
      <trkpt lat="45.0716" lon="5.64242">
        <ele>413.8</ele>
        <time>2010-12-19T16:39:43Z</time>
      </trkpt>
      <trkpt lat="45.07161" lon="5.64245">
        <ele>413.6</ele>
        <time>2010-12-19T16:39:44Z</time>
      </trkpt>
      <trkpt lat="45.07164" lon="5.64253">
        <ele>413.2</ele>
        <time>2010-12-19T16:39:46Z</time>
      </trkpt>
      <trkpt lat="45.07172" lon="5.64267">
        <ele>412.2</ele>
        <time>2010-12-19T16:39:51Z</time>
      </trkpt>
      <trkpt lat="45.07183" lon="5.64279">
        <ele>411</ele>
        <time>2010-12-19T16:39:57Z</time>
      </trkpt>
      <trkpt lat="45.07187" lon="5.64284">
        <ele>410.6</ele>
        <time>2010-12-19T16:39:59Z</time>
      </trkpt>
      <trkpt lat="45.07195" lon="5.64293">
        <ele>409.8</ele>
        <time>2010-12-19T16:40:03Z</time>
      </trkpt>
      <trkpt lat="45.07202" lon="5.643">
        <ele>409.2</ele>
        <time>2010-12-19T16:40:06Z</time>
      </trkpt>
      <trkpt lat="45.07208" lon="5.64306">
        <ele>408.8</ele>
        <time>2010-12-19T16:40:09Z</time>
      </trkpt>
      <trkpt lat="45.07217" lon="5.64315">
        <ele>408</ele>
        <time>2010-12-19T16:40:13Z</time>
      </trkpt>
      <trkpt lat="45.07223" lon="5.64321">
        <ele>407.6</ele>
        <time>2010-12-19T16:40:16Z</time>
      </trkpt>
      <trkpt lat="45.07231" lon="5.64331">
        <ele>406.8</ele>
        <time>2010-12-19T16:40:20Z</time>
      </trkpt>
      <trkpt lat="45.07237" lon="5.64338">
        <ele>406.4</ele>
        <time>2010-12-19T16:40:23Z</time>
      </trkpt>
      <trkpt lat="45.07245" lon="5.64348">
        <ele>405.8</ele>
        <time>2010-12-19T16:40:27Z</time>
      </trkpt>
      <trkpt lat="45.0725" lon="5.64357">
        <ele>405.4</ele>
        <time>2010-12-19T16:40:30Z</time>
      </trkpt>
      <trkpt lat="45.07255" lon="5.64369">
        <ele>404.6</ele>
        <time>2010-12-19T16:40:34Z</time>
      </trkpt>
      <trkpt lat="45.07257" lon="5.64372">
        <ele>404.4</ele>
        <time>2010-12-19T16:40:35Z</time>
      </trkpt>
      <trkpt lat="45.07262" lon="5.64392">
        <ele>403.4</ele>
        <time>2010-12-19T16:40:41Z</time>
      </trkpt>
      <trkpt lat="45.07264" lon="5.64395">
        <ele>403.4</ele>
        <time>2010-12-19T16:40:42Z</time>
      </trkpt>
      <trkpt lat="45.0727" lon="5.64411">
        <ele>402.6</ele>
        <time>2010-12-19T16:40:47Z</time>
      </trkpt>
      <trkpt lat="45.07271" lon="5.64419">
        <ele>402.2</ele>
        <time>2010-12-19T16:40:49Z</time>
      </trkpt>
      <trkpt lat="45.07276" lon="5.64436">
        <ele>401.2</ele>
        <time>2010-12-19T16:40:54Z</time>
      </trkpt>
      <trkpt lat="45.07277" lon="5.64443">
        <ele>400.8</ele>
        <time>2010-12-19T16:40:56Z</time>
      </trkpt>
      <trkpt lat="45.0728" lon="5.64457">
        <ele>400.2</ele>
        <time>2010-12-19T16:41:00Z</time>
      </trkpt>
      <trkpt lat="45.07283" lon="5.64467">
        <ele>399.6</ele>
        <time>2010-12-19T16:41:03Z</time>
      </trkpt>
      <trkpt lat="45.07285" lon="5.64481">
        <ele>398.8</ele>
        <time>2010-12-19T16:41:07Z</time>
      </trkpt>
      <trkpt lat="45.07289" lon="5.64494">
        <ele>398.2</ele>
        <time>2010-12-19T16:41:11Z</time>
      </trkpt>
      <trkpt lat="45.07291" lon="5.64501">
        <ele>397.8</ele>
        <time>2010-12-19T16:41:13Z</time>
      </trkpt>
      <trkpt lat="45.07296" lon="5.6452">
        <ele>396.8</ele>
        <time>2010-12-19T16:41:19Z</time>
      </trkpt>
      <trkpt lat="45.07297" lon="5.64524">
        <ele>396.6</ele>
        <time>2010-12-19T16:41:20Z</time>
      </trkpt>
      <trkpt lat="45.07303" lon="5.64546">
        <ele>395.4</ele>
        <time>2010-12-19T16:41:27Z</time>
      </trkpt>
      <trkpt lat="45.07309" lon="5.64568">
        <ele>394.2</ele>
        <time>2010-12-19T16:41:34Z</time>
      </trkpt>
      <trkpt lat="45.0731" lon="5.64572">
        <ele>394</ele>
        <time>2010-12-19T16:41:35Z</time>
      </trkpt>
      <trkpt lat="45.07315" lon="5.64592">
        <ele>393.2</ele>
        <time>2010-12-19T16:41:41Z</time>
      </trkpt>
      <trkpt lat="45.07316" lon="5.64599">
        <ele>393</ele>
        <time>2010-12-19T16:41:43Z</time>
      </trkpt>
      <trkpt lat="45.07321" lon="5.64619">
        <ele>392</ele>
        <time>2010-12-19T16:41:49Z</time>
      </trkpt>
      <trkpt lat="45.07322" lon="5.64625">
        <ele>391.6</ele>
        <time>2010-12-19T16:41:51Z</time>
      </trkpt>
      <trkpt lat="45.07327" lon="5.64641">
        <ele>391</ele>
        <time>2010-12-19T16:41:56Z</time>
      </trkpt>
      <trkpt lat="45.0733" lon="5.6465">
        <ele>390.4</ele>
        <time>2010-12-19T16:41:59Z</time>
      </trkpt>
      <trkpt lat="45.07334" lon="5.64664">
        <ele>390</ele>
        <time>2010-12-19T16:42:03Z</time>
      </trkpt>
      <trkpt lat="45.07338" lon="5.64676">
        <ele>389.4</ele>
        <time>2010-12-19T16:42:07Z</time>
      </trkpt>
      <trkpt lat="45.07339" lon="5.64682">
        <ele>389</ele>
        <time>2010-12-19T16:42:09Z</time>
      </trkpt>
      <trkpt lat="45.07344" lon="5.64699">
        <ele>388.4</ele>
        <time>2010-12-19T16:42:14Z</time>
      </trkpt>
      <trkpt lat="45.07344" lon="5.64703">
        <ele>388.2</ele>
        <time>2010-12-19T16:42:15Z</time>
      </trkpt>
      <trkpt lat="45.07344" lon="5.64721">
        <ele>387.6</ele>
        <time>2010-12-19T16:42:20Z</time>
      </trkpt>
      <trkpt lat="45.07345" lon="5.6473">
        <ele>387.2</ele>
        <time>2010-12-19T16:42:23Z</time>
      </trkpt>
      <trkpt lat="45.07344" lon="5.6474">
        <ele>386.6</ele>
        <time>2010-12-19T16:42:26Z</time>
      </trkpt>
      <trkpt lat="45.07343" lon="5.64757">
        <ele>386</ele>
        <time>2010-12-19T16:42:31Z</time>
      </trkpt>
      <trkpt lat="45.07345" lon="5.64774">
        <ele>385.2</ele>
        <time>2010-12-19T16:42:36Z</time>
      </trkpt>
      <trkpt lat="45.07345" lon="5.64786">
        <ele>384.6</ele>
        <time>2010-12-19T16:42:39Z</time>
      </trkpt>
      <trkpt lat="45.07346" lon="5.64801">
        <ele>384.2</ele>
        <time>2010-12-19T16:42:43Z</time>
      </trkpt>
      <trkpt lat="45.07347" lon="5.64814">
        <ele>383.6</ele>
        <time>2010-12-19T16:42:47Z</time>
      </trkpt>
      <trkpt lat="45.07349" lon="5.64827">
        <ele>383.2</ele>
        <time>2010-12-19T16:42:50Z</time>
      </trkpt>
      <trkpt lat="45.07353" lon="5.6484">
        <ele>382.8</ele>
        <time>2010-12-19T16:42:54Z</time>
      </trkpt>
      <trkpt lat="45.07357" lon="5.6485">
        <ele>382.6</ele>
        <time>2010-12-19T16:42:57Z</time>
      </trkpt>
      <trkpt lat="45.07364" lon="5.64864">
        <ele>382</ele>
        <time>2010-12-19T16:43:02Z</time>
      </trkpt>
      <trkpt lat="45.07371" lon="5.64877">
        <ele>381.6</ele>
        <time>2010-12-19T16:43:07Z</time>
      </trkpt>
      <trkpt lat="45.07376" lon="5.64886">
        <ele>381.4</ele>
        <time>2010-12-19T16:43:10Z</time>
      </trkpt>
      <trkpt lat="45.07379" lon="5.64895">
        <ele>381.2</ele>
        <time>2010-12-19T16:43:13Z</time>
      </trkpt>
      <trkpt lat="45.07386" lon="5.64908">
        <ele>380.8</ele>
        <time>2010-12-19T16:43:18Z</time>
      </trkpt>
      <trkpt lat="45.07387" lon="5.6491">
        <ele>380.8</ele>
        <time>2010-12-19T16:43:19Z</time>
      </trkpt>
      <trkpt lat="45.07394" lon="5.64927">
        <ele>380.2</ele>
        <time>2010-12-19T16:43:25Z</time>
      </trkpt>
      <trkpt lat="45.07396" lon="5.64929">
        <ele>380.2</ele>
        <time>2010-12-19T16:43:26Z</time>
      </trkpt>
      <trkpt lat="45.07405" lon="5.64941">
        <ele>379.8</ele>
        <time>2010-12-19T16:43:31Z</time>
      </trkpt>
      <trkpt lat="45.0741" lon="5.64948">
        <ele>379.4</ele>
        <time>2010-12-19T16:43:34Z</time>
      </trkpt>
      <trkpt lat="45.07416" lon="5.64954">
        <ele>379.2</ele>
        <time>2010-12-19T16:43:37Z</time>
      </trkpt>
      <trkpt lat="45.07424" lon="5.64964">
        <ele>378.8</ele>
        <time>2010-12-19T16:43:41Z</time>
      </trkpt>
      <trkpt lat="45.07427" lon="5.64969">
        <ele>378.8</ele>
        <time>2010-12-19T16:43:43Z</time>
      </trkpt>
      <trkpt lat="45.0743" lon="5.64974">
        <ele>378.6</ele>
        <time>2010-12-19T16:43:46Z</time>
      </trkpt>
      <trkpt lat="45.07437" lon="5.64985">
        <ele>378.4</ele>
        <time>2010-12-19T16:43:49Z</time>
      </trkpt>
      <trkpt lat="45.07442" lon="5.64998">
        <ele>377.8</ele>
        <time>2010-12-19T16:43:56Z</time>
      </trkpt>
      <trkpt lat="45.07446" lon="5.65007">
        <ele>377.4</ele>
        <time>2010-12-19T16:44:00Z</time>
      </trkpt>
      <trkpt lat="45.07448" lon="5.65013">
        <ele>377.2</ele>
        <time>2010-12-19T16:44:02Z</time>
      </trkpt>
      <trkpt lat="45.07454" lon="5.6503">
        <ele>376.8</ele>
        <time>2010-12-19T16:44:08Z</time>
      </trkpt>
      <trkpt lat="45.07455" lon="5.65033">
        <ele>376.6</ele>
        <time>2010-12-19T16:44:09Z</time>
      </trkpt>
      <trkpt lat="45.07462" lon="5.65052">
        <ele>376</ele>
        <time>2010-12-19T16:44:15Z</time>
      </trkpt>
      <trkpt lat="45.07463" lon="5.65056">
        <ele>376</ele>
        <time>2010-12-19T16:44:16Z</time>
      </trkpt>
      <trkpt lat="45.0747" lon="5.65066">
        <ele>375.6</ele>
        <time>2010-12-19T16:44:20Z</time>
      </trkpt>
      <trkpt lat="45.07476" lon="5.65075">
        <ele>375</ele>
        <time>2010-12-19T16:44:24Z</time>
      </trkpt>
      <trkpt lat="45.07476" lon="5.65078">
        <ele>375</ele>
        <time>2010-12-19T16:44:25Z</time>
      </trkpt>
      <trkpt lat="45.07476" lon="5.6508">
        <ele>374.8</ele>
        <time>2010-12-19T16:44:26Z</time>
      </trkpt>
      <trkpt lat="45.07472" lon="5.65089">
        <ele>374.2</ele>
        <time>2010-12-19T16:44:29Z</time>
      </trkpt>
      <trkpt lat="45.07468" lon="5.65092">
        <ele>373.8</ele>
        <time>2010-12-19T16:44:31Z</time>
      </trkpt>
      <trkpt lat="45.07466" lon="5.65095">
        <ele>373.8</ele>
        <time>2010-12-19T16:44:32Z</time>
      </trkpt>
      <trkpt lat="45.07462" lon="5.65099">
        <ele>373.4</ele>
        <time>2010-12-19T16:44:34Z</time>
      </trkpt>
      <trkpt lat="45.0745" lon="5.65112">
        <ele>372.4</ele>
        <time>2010-12-19T16:44:40Z</time>
      </trkpt>
      <trkpt lat="45.0744" lon="5.65127">
        <ele>370.8</ele>
        <time>2010-12-19T16:44:47Z</time>
      </trkpt>
      <trkpt lat="45.0744" lon="5.65135">
        <ele>370.2</ele>
        <time>2010-12-19T16:44:50Z</time>
      </trkpt>
      <trkpt lat="45.07439" lon="5.65142">
        <ele>369.6</ele>
        <time>2010-12-19T16:44:52Z</time>
      </trkpt>
      <trkpt lat="45.07439" lon="5.65155">
        <ele>368.4</ele>
        <time>2010-12-19T16:44:57Z</time>
      </trkpt>
      <trkpt lat="45.0744" lon="5.65163">
        <ele>367.6</ele>
        <time>2010-12-19T16:45:00Z</time>
      </trkpt>
      <trkpt lat="45.07439" lon="5.65175">
        <ele>366.6</ele>
        <time>2010-12-19T16:45:04Z</time>
      </trkpt>
      <trkpt lat="45.07436" lon="5.6519">
        <ele>365.4</ele>
        <time>2010-12-19T16:45:09Z</time>
      </trkpt>
      <trkpt lat="45.07435" lon="5.65192">
        <ele>365.2</ele>
        <time>2010-12-19T16:45:10Z</time>
      </trkpt>
      <trkpt lat="45.07425" lon="5.65208">
        <ele>363.8</ele>
        <time>2010-12-19T16:45:16Z</time>
      </trkpt>
      <trkpt lat="45.07424" lon="5.6521">
        <ele>363.6</ele>
        <time>2010-12-19T16:45:17Z</time>
      </trkpt>
      <trkpt lat="45.07419" lon="5.65223">
        <ele>362.4</ele>
        <time>2010-12-19T16:45:22Z</time>
      </trkpt>
      <trkpt lat="45.07416" lon="5.65233">
        <ele>361.6</ele>
        <time>2010-12-19T16:45:25Z</time>
      </trkpt>
      <trkpt lat="45.07414" lon="5.65239">
        <ele>361.2</ele>
        <time>2010-12-19T16:45:27Z</time>
      </trkpt>
      <trkpt lat="45.0741" lon="5.65258">
        <ele>359.8</ele>
        <time>2010-12-19T16:45:33Z</time>
      </trkpt>
      <trkpt lat="45.07405" lon="5.6528">
        <ele>358</ele>
        <time>2010-12-19T16:45:40Z</time>
      </trkpt>
      <trkpt lat="45.07405" lon="5.65283">
        <ele>357.8</ele>
        <time>2010-12-19T16:45:41Z</time>
      </trkpt>
      <trkpt lat="45.07401" lon="5.65303">
        <ele>356.4</ele>
        <time>2010-12-19T16:45:47Z</time>
      </trkpt>
      <trkpt lat="45.074" lon="5.65309">
        <ele>356</ele>
        <time>2010-12-19T16:45:49Z</time>
      </trkpt>
      <trkpt lat="45.07396" lon="5.65323">
        <ele>354.8</ele>
        <time>2010-12-19T16:45:54Z</time>
      </trkpt>
      <trkpt lat="45.07392" lon="5.65334">
        <ele>353.8</ele>
        <time>2010-12-19T16:45:58Z</time>
      </trkpt>
      <trkpt lat="45.07386" lon="5.6535">
        <ele>352.4</ele>
        <time>2010-12-19T16:46:04Z</time>
      </trkpt>
      <trkpt lat="45.07382" lon="5.65358">
        <ele>351.8</ele>
        <time>2010-12-19T16:46:07Z</time>
      </trkpt>
      <trkpt lat="45.0738" lon="5.65364">
        <ele>351.4</ele>
        <time>2010-12-19T16:46:09Z</time>
      </trkpt>
      <trkpt lat="45.07373" lon="5.65381">
        <ele>350</ele>
        <time>2010-12-19T16:46:15Z</time>
      </trkpt>
      <trkpt lat="45.07366" lon="5.65397">
        <ele>348.8</ele>
        <time>2010-12-19T16:46:21Z</time>
      </trkpt>
      <trkpt lat="45.07363" lon="5.65405">
        <ele>348.2</ele>
        <time>2010-12-19T16:46:24Z</time>
      </trkpt>
      <trkpt lat="45.07359" lon="5.65414">
        <ele>347.6</ele>
        <time>2010-12-19T16:46:27Z</time>
      </trkpt>
      <trkpt lat="45.07353" lon="5.65427">
        <ele>346.6</ele>
        <time>2010-12-19T16:46:32Z</time>
      </trkpt>
      <trkpt lat="45.07352" lon="5.65429">
        <ele>346.4</ele>
        <time>2010-12-19T16:46:33Z</time>
      </trkpt>
      <trkpt lat="45.07344" lon="5.65451">
        <ele>345.6</ele>
        <time>2010-12-19T16:46:39Z</time>
      </trkpt>
      <trkpt lat="45.07342" lon="5.65456">
        <ele>345.4</ele>
        <time>2010-12-19T16:46:40Z</time>
      </trkpt>
      <trkpt lat="45.07333" lon="5.65476">
        <ele>345</ele>
        <time>2010-12-19T16:46:45Z</time>
      </trkpt>
      <trkpt lat="45.07332" lon="5.65478">
        <ele>344.8</ele>
        <time>2010-12-19T16:46:46Z</time>
      </trkpt>
      <trkpt lat="45.07325" lon="5.65501">
        <ele>345</ele>
        <time>2010-12-19T16:46:51Z</time>
      </trkpt>
      <trkpt lat="45.07325" lon="5.65506">
        <ele>344.8</ele>
        <time>2010-12-19T16:46:53Z</time>
      </trkpt>
      <trkpt lat="45.07323" lon="5.65525">
        <ele>344.6</ele>
        <time>2010-12-19T16:46:59Z</time>
      </trkpt>
      <trkpt lat="45.07322" lon="5.65528">
        <ele>344.6</ele>
        <time>2010-12-19T16:47:00Z</time>
      </trkpt>
      <trkpt lat="45.07319" lon="5.65539">
        <ele>344.2</ele>
        <time>2010-12-19T16:47:04Z</time>
      </trkpt>
      <trkpt lat="45.07314" lon="5.65553">
        <ele>343.8</ele>
        <time>2010-12-19T16:47:10Z</time>
      </trkpt>
      <trkpt lat="45.07313" lon="5.65555">
        <ele>343.8</ele>
        <time>2010-12-19T16:47:11Z</time>
      </trkpt>
      <trkpt lat="45.07307" lon="5.65573">
        <ele>343.2</ele>
        <time>2010-12-19T16:47:17Z</time>
      </trkpt>
      <trkpt lat="45.07307" lon="5.65579">
        <ele>343.2</ele>
        <time>2010-12-19T16:47:18Z</time>
      </trkpt>
      <trkpt lat="45.07312" lon="5.65595">
        <ele>343.2</ele>
        <time>2010-12-19T16:47:22Z</time>
      </trkpt>
      <trkpt lat="45.07317" lon="5.65602">
        <ele>343</ele>
        <time>2010-12-19T16:47:25Z</time>
      </trkpt>
      <trkpt lat="45.07325" lon="5.65612">
        <ele>342.8</ele>
        <time>2010-12-19T16:47:29Z</time>
      </trkpt>
      <trkpt lat="45.0733" lon="5.6562">
        <ele>342.8</ele>
        <time>2010-12-19T16:47:32Z</time>
      </trkpt>
      <trkpt lat="45.07335" lon="5.65628">
        <ele>342.6</ele>
        <time>2010-12-19T16:47:35Z</time>
      </trkpt>
      <trkpt lat="45.07339" lon="5.65637">
        <ele>342.4</ele>
        <time>2010-12-19T16:47:40Z</time>
      </trkpt>
      <trkpt lat="45.07341" lon="5.65643">
        <ele>342.4</ele>
        <time>2010-12-19T16:47:43Z</time>
      </trkpt>
      <trkpt lat="45.07346" lon="5.65653">
        <ele>342.2</ele>
        <time>2010-12-19T16:47:48Z</time>
      </trkpt>
      <trkpt lat="45.0735" lon="5.65667">
        <ele>342</ele>
        <time>2010-12-19T16:47:52Z</time>
      </trkpt>
      <trkpt lat="45.07353" lon="5.65677">
        <ele>342</ele>
        <time>2010-12-19T16:47:55Z</time>
      </trkpt>
      <trkpt lat="45.07356" lon="5.65693">
        <ele>342</ele>
        <time>2010-12-19T16:48:00Z</time>
      </trkpt>
      <trkpt lat="45.07355" lon="5.65699">
        <ele>341.8</ele>
        <time>2010-12-19T16:48:02Z</time>
      </trkpt>
      <trkpt lat="45.07353" lon="5.65704">
        <ele>341.6</ele>
        <time>2010-12-19T16:48:05Z</time>
      </trkpt>
      <trkpt lat="45.07351" lon="5.65706">
        <ele>341.6</ele>
        <time>2010-12-19T16:48:07Z</time>
      </trkpt>
      <trkpt lat="45.07347" lon="5.65716">
        <ele>341.2</ele>
        <time>2010-12-19T16:48:12Z</time>
      </trkpt>
      <trkpt lat="45.07346" lon="5.65718">
        <ele>341.2</ele>
        <time>2010-12-19T16:48:13Z</time>
      </trkpt>
      <trkpt lat="45.07345" lon="5.6572">
        <ele>341.2</ele>
        <time>2010-12-19T16:48:14Z</time>
      </trkpt>
      <trkpt lat="45.07338" lon="5.65729">
        <ele>340.6</ele>
        <time>2010-12-19T16:48:22Z</time>
      </trkpt>
      <trkpt lat="45.07338" lon="5.6573">
        <ele>340.6</ele>
        <time>2010-12-19T16:48:23Z</time>
      </trkpt>
      <trkpt lat="45.07339" lon="5.65734">
        <ele>340.2</ele>
        <time>2010-12-19T16:48:27Z</time>
      </trkpt>
      <trkpt lat="45.0734" lon="5.65734">
        <ele>340.2</ele>
        <time>2010-12-19T16:48:28Z</time>
      </trkpt>
      <trkpt lat="45.07341" lon="5.65736">
        <ele>340</ele>
        <time>2010-12-19T16:48:31Z</time>
      </trkpt>
      <trkpt lat="45.07343" lon="5.65742">
        <ele>339.6</ele>
        <time>2010-12-19T16:48:38Z</time>
      </trkpt>
      <trkpt lat="45.07348" lon="5.65752">
        <ele>339.4</ele>
        <time>2010-12-19T16:48:45Z</time>
      </trkpt>
      <trkpt lat="45.0735" lon="5.65753">
        <ele>339.2</ele>
        <time>2010-12-19T16:48:47Z</time>
      </trkpt>
      <trkpt lat="45.07349" lon="5.65753">
        <ele>339.2</ele>
        <time>2010-12-19T16:48:50Z</time>
      </trkpt>
      <trkpt lat="45.07348" lon="5.65753">
        <ele>339</ele>
        <time>2010-12-19T16:48:51Z</time>
      </trkpt>
      <trkpt lat="45.07341" lon="5.65753">
        <ele>338.6</ele>
        <time>2010-12-19T16:48:57Z</time>
      </trkpt>
      <trkpt lat="45.07343" lon="5.65755">
        <ele>338.4</ele>
        <time>2010-12-19T16:49:00Z</time>
      </trkpt>
      <trkpt lat="45.07346" lon="5.65757">
        <ele>338.2</ele>
        <time>2010-12-19T16:49:02Z</time>
      </trkpt>
      <trkpt lat="45.07346" lon="5.65762">
        <ele>338.2</ele>
        <time>2010-12-19T16:49:05Z</time>
      </trkpt>
      <trkpt lat="45.07345" lon="5.65764">
        <ele>338</ele>
        <time>2010-12-19T16:49:07Z</time>
      </trkpt>
      <trkpt lat="45.07346" lon="5.65768">
        <ele>338.2</ele>
        <time>2010-12-19T16:49:09Z</time>
      </trkpt>
      <trkpt lat="45.0735" lon="5.65771">
        <ele>338.4</ele>
        <time>2010-12-19T16:49:13Z</time>
      </trkpt>
    </trkseg>
  </trk>
</gpx>